<?xml version='1.0' encoding='UTF-8'?>
<gpx version="1.1" creator="https://www.komoot.de" xmlns="http://www.topografix.com/GPX/1/1" xmlns:xsi="http://www.w3.org/2001/XMLSchema-instance" xsi:schemaLocation="http://www.topografix.com/GPX/1/1 http://www.topografix.com/GPX/1/1/gpx.xsd">
  <metadata>
    <name>Mers Neuilly par la voie verte</name>
    <author>
      <link href="https://www.komoot.de">
        <text>komoot</text>
        <type>text/html</type>
      </link>
    </author>
  </metadata>
  <trk>
    <name>Mers Neuilly par la voie verte</name>
    <trkseg>
      <trkpt lat="50.069036" lon="1.385659">
        <ele>13.915777</ele>
        <time>2019-07-30T15:06:47.182Z</time>
      </trkpt>
      <trkpt lat="50.069596" lon="1.386216">
        <ele>13.915777</ele>
        <time>2019-07-30T15:07:37.819Z</time>
      </trkpt>
      <trkpt lat="50.070180" lon="1.386712">
        <ele>14.214976</ele>
        <time>2019-07-30T15:08:35.741Z</time>
      </trkpt>
      <trkpt lat="50.070515" lon="1.385786">
        <ele>14.689467</ele>
        <time>2019-07-30T15:09:35.718Z</time>
      </trkpt>
      <trkpt lat="50.070180" lon="1.386712">
        <ele>15.163958</ele>
        <time>2019-07-30T15:10:29.340Z</time>
      </trkpt>
      <trkpt lat="50.070153" lon="1.386775">
        <ele>15.095955</ele>
        <time>2019-07-30T15:10:32.706Z</time>
      </trkpt>
      <trkpt lat="50.070100" lon="1.386877">
        <ele>14.962692</ele>
        <time>2019-07-30T15:10:41.688Z</time>
      </trkpt>
      <trkpt lat="50.069823" lon="1.386800">
        <ele>14.517535</ele>
        <time>2019-07-30T15:10:44.543Z</time>
      </trkpt>
      <trkpt lat="50.069582" lon="1.386602">
        <ele>14.086488</ele>
        <time>2019-07-30T15:10:48.070Z</time>
      </trkpt>
      <trkpt lat="50.069522" lon="1.386584">
        <ele>13.989819</ele>
        <time>2019-07-30T15:10:48.680Z</time>
      </trkpt>
      <trkpt lat="50.069512" lon="1.386465">
        <ele>13.867947</ele>
        <time>2019-07-30T15:10:49.764Z</time>
      </trkpt>
      <trkpt lat="50.069096" lon="1.386025">
        <ele>13.072464</ele>
        <time>2019-07-30T15:10:57.459Z</time>
      </trkpt>
      <trkpt lat="50.068775" lon="1.385738">
        <ele>12.486931</ele>
        <time>2019-07-30T15:11:01.261Z</time>
      </trkpt>
      <trkpt lat="50.068393" lon="1.385352">
        <ele>11.731071</ele>
        <time>2019-07-30T15:11:05.687Z</time>
      </trkpt>
      <trkpt lat="50.068000" lon="1.384965">
        <ele>10.948409</ele>
        <time>2019-07-30T15:11:10.489Z</time>
      </trkpt>
      <trkpt lat="50.067590" lon="1.384508">
        <ele>10.099746</ele>
        <time>2019-07-30T15:11:16.370Z</time>
      </trkpt>
      <trkpt lat="50.067290" lon="1.384125">
        <ele>9.446809</ele>
        <time>2019-07-30T15:11:22.134Z</time>
      </trkpt>
      <trkpt lat="50.067062" lon="1.383802">
        <ele>9.362144</ele>
        <time>2019-07-30T15:11:27.123Z</time>
      </trkpt>
      <trkpt lat="50.067001" lon="1.383609">
        <ele>9.406021</ele>
        <time>2019-07-30T15:11:29.688Z</time>
      </trkpt>
      <trkpt lat="50.066577" lon="1.383049">
        <ele>9.582645</ele>
        <time>2019-07-30T15:11:39.175Z</time>
      </trkpt>
      <trkpt lat="50.066482" lon="1.382992">
        <ele>9.614992</ele>
        <time>2019-07-30T15:11:41.366Z</time>
      </trkpt>
      <trkpt lat="50.066209" lon="1.382552">
        <ele>9.739806</ele>
        <time>2019-07-30T15:11:48.363Z</time>
      </trkpt>
      <trkpt lat="50.066048" lon="1.382253">
        <ele>9.819406</ele>
        <time>2019-07-30T15:11:52.144Z</time>
      </trkpt>
      <trkpt lat="50.065812" lon="1.381864">
        <ele>9.567700</ele>
        <time>2019-07-30T15:11:56.794Z</time>
      </trkpt>
      <trkpt lat="50.065436" lon="1.381224">
        <ele>8.744527</ele>
        <time>2019-07-30T15:12:03.782Z</time>
      </trkpt>
      <trkpt lat="50.065326" lon="1.380977">
        <ele>8.459292</ele>
        <time>2019-07-30T15:12:05.901Z</time>
      </trkpt>
      <trkpt lat="50.065078" lon="1.380550">
        <ele>7.912926</ele>
        <time>2019-07-30T15:12:09.895Z</time>
      </trkpt>
      <trkpt lat="50.064794" lon="1.380034">
        <ele>7.268010</ele>
        <time>2019-07-30T15:12:14.599Z</time>
      </trkpt>
      <trkpt lat="50.064335" lon="1.379417">
        <ele>6.149411</ele>
        <time>2019-07-30T15:12:21.183Z</time>
      </trkpt>
      <trkpt lat="50.064295" lon="1.379442">
        <ele>6.068716</ele>
        <time>2019-07-30T15:12:21.582Z</time>
      </trkpt>
      <trkpt lat="50.063877" lon="1.378119">
        <ele>4.296459</ele>
        <time>2019-07-30T15:12:32.127Z</time>
      </trkpt>
      <trkpt lat="50.063655" lon="1.377416">
        <ele>3.650330</ele>
        <time>2019-07-30T15:12:38.239Z</time>
      </trkpt>
      <trkpt lat="50.063635" lon="1.377353">
        <ele>3.617461</ele>
        <time>2019-07-30T15:12:38.779Z</time>
      </trkpt>
      <trkpt lat="50.063413" lon="1.376642">
        <ele>3.247704</ele>
        <time>2019-07-30T15:12:45.167Z</time>
      </trkpt>
      <trkpt lat="50.063192" lon="1.375929">
        <ele>2.877422</ele>
        <time>2019-07-30T15:12:51.676Z</time>
      </trkpt>
      <trkpt lat="50.063131" lon="1.375751">
        <ele>2.783057</ele>
        <time>2019-07-30T15:12:53.169Z</time>
      </trkpt>
      <trkpt lat="50.063086" lon="1.375634">
        <ele>2.719271</ele>
        <time>2019-07-30T15:12:54.765Z</time>
      </trkpt>
      <trkpt lat="50.063024" lon="1.375496">
        <ele>2.640496</ele>
        <time>2019-07-30T15:12:56.607Z</time>
      </trkpt>
      <trkpt lat="50.062950" lon="1.375365">
        <ele>2.558889</ele>
        <time>2019-07-30T15:12:57.947Z</time>
      </trkpt>
      <trkpt lat="50.062948" lon="1.375362">
        <ele>2.556866</ele>
        <time>2019-07-30T15:12:57.979Z</time>
      </trkpt>
      <trkpt lat="50.062947" lon="1.375360">
        <ele>2.555681</ele>
        <time>2019-07-30T15:12:58.012Z</time>
      </trkpt>
      <trkpt lat="50.062940" lon="1.375348">
        <ele>2.548098</ele>
        <time>2019-07-30T15:12:58.152Z</time>
      </trkpt>
      <trkpt lat="50.062909" lon="1.375305">
        <ele>2.526710</ele>
        <time>2019-07-30T15:12:58.606Z</time>
      </trkpt>
      <trkpt lat="50.062799" lon="1.375199">
        <ele>2.513138</ele>
        <time>2019-07-30T15:13:01.228Z</time>
      </trkpt>
      <trkpt lat="50.062736" lon="1.375156">
        <ele>2.505922</ele>
        <time>2019-07-30T15:13:02.224Z</time>
      </trkpt>
      <trkpt lat="50.062655" lon="1.375130">
        <ele>2.497244</ele>
        <time>2019-07-30T15:13:03.246Z</time>
      </trkpt>
      <trkpt lat="50.062297" lon="1.375274">
        <ele>2.458450</ele>
        <time>2019-07-30T15:13:08.984Z</time>
      </trkpt>
      <trkpt lat="50.062100" lon="1.375762">
        <ele>2.419621</ele>
        <time>2019-07-30T15:13:14.342Z</time>
      </trkpt>
      <trkpt lat="50.062090" lon="1.375850">
        <ele>2.413602</ele>
        <time>2019-07-30T15:13:14.987Z</time>
      </trkpt>
      <trkpt lat="50.062087" lon="1.375897">
        <ele>2.410420</ele>
        <time>2019-07-30T15:13:15.526Z</time>
      </trkpt>
      <trkpt lat="50.062092" lon="1.375946">
        <ele>2.407078</ele>
        <time>2019-07-30T15:13:16.093Z</time>
      </trkpt>
      <trkpt lat="50.062112" lon="1.376087">
        <ele>2.397352</ele>
        <time>2019-07-30T15:13:17.835Z</time>
      </trkpt>
      <trkpt lat="50.062245" lon="1.376748">
        <ele>2.350694</ele>
        <time>2019-07-30T15:13:23.576Z</time>
      </trkpt>
      <trkpt lat="50.062340" lon="1.377230">
        <ele>2.581533</ele>
        <time>2019-07-30T15:13:28.599Z</time>
      </trkpt>
      <trkpt lat="50.062160" lon="1.377329">
        <ele>2.794660</ele>
        <time>2019-07-30T15:13:35.702Z</time>
      </trkpt>
      <trkpt lat="50.062027" lon="1.377433">
        <ele>2.960813</ele>
        <time>2019-07-30T15:13:41.986Z</time>
      </trkpt>
      <trkpt lat="50.061782" lon="1.377466">
        <ele>3.235375</ele>
        <time>2019-07-30T15:13:51.653Z</time>
      </trkpt>
      <trkpt lat="50.061642" lon="1.377537">
        <ele>3.399760</ele>
        <time>2019-07-30T15:13:57.992Z</time>
      </trkpt>
      <trkpt lat="50.061623" lon="1.377639">
        <ele>3.475883</ele>
        <time>2019-07-30T15:13:59.177Z</time>
      </trkpt>
      <trkpt lat="50.061564" lon="1.377754">
        <ele>3.581398</ele>
        <time>2019-07-30T15:14:00.853Z</time>
      </trkpt>
      <trkpt lat="50.061388" lon="1.377906">
        <ele>3.806082</ele>
        <time>2019-07-30T15:14:04.495Z</time>
      </trkpt>
      <trkpt lat="50.061349" lon="1.377878">
        <ele>3.854027</ele>
        <time>2019-07-30T15:14:05.236Z</time>
      </trkpt>
      <trkpt lat="50.061225" lon="1.377978">
        <ele>4.009926</ele>
        <time>2019-07-30T15:14:08.475Z</time>
      </trkpt>
      <trkpt lat="50.061219" lon="1.378009">
        <ele>4.033133</ele>
        <time>2019-07-30T15:14:08.937Z</time>
      </trkpt>
      <trkpt lat="50.061108" lon="1.378143">
        <ele>4.189925</ele>
        <time>2019-07-30T15:14:12.054Z</time>
      </trkpt>
      <trkpt lat="50.060870" lon="1.378280">
        <ele>4.804404</ele>
        <time>2019-07-30T15:14:18.299Z</time>
      </trkpt>
      <trkpt lat="50.060742" lon="1.377531">
        <ele>6.825347</ele>
        <time>2019-07-30T15:14:43.506Z</time>
      </trkpt>
      <trkpt lat="50.060326" lon="1.377483">
        <ele>8.519565</ele>
        <time>2019-07-30T15:15:05.666Z</time>
      </trkpt>
      <trkpt lat="50.060329" lon="1.377404">
        <ele>8.725911</ele>
        <time>2019-07-30T15:15:08.866Z</time>
      </trkpt>
      <trkpt lat="50.060292" lon="1.377402">
        <ele>8.876277</ele>
        <time>2019-07-30T15:15:11.127Z</time>
      </trkpt>
      <trkpt lat="50.060154" lon="1.377387">
        <ele>9.438129</ele>
        <time>2019-07-30T15:15:19.254Z</time>
      </trkpt>
      <trkpt lat="50.060164" lon="1.377196">
        <ele>9.937800</ele>
        <time>2019-07-30T15:15:25.706Z</time>
      </trkpt>
      <trkpt lat="50.059837" lon="1.377160">
        <ele>11.269227</ele>
        <time>2019-07-30T15:15:44.944Z</time>
      </trkpt>
      <trkpt lat="50.059851" lon="1.376897">
        <ele>12.003885</ele>
        <time>2019-07-30T15:15:51.454Z</time>
      </trkpt>
      <trkpt lat="50.059939" lon="1.376003">
        <ele>14.722719</ele>
        <time>2019-07-30T15:16:11.643Z</time>
      </trkpt>
      <trkpt lat="50.059986" lon="1.375546">
        <ele>16.114007</ele>
        <time>2019-07-30T15:16:22.690Z</time>
      </trkpt>
      <trkpt lat="50.060004" lon="1.375419">
        <ele>16.504970</ele>
        <time>2019-07-30T15:16:25.444Z</time>
      </trkpt>
      <trkpt lat="50.060067" lon="1.374900">
        <ele>18.092761</ele>
        <time>2019-07-30T15:16:36.244Z</time>
      </trkpt>
      <trkpt lat="50.060187" lon="1.374386">
        <ele>19.736871</ele>
        <time>2019-07-30T15:16:46.825Z</time>
      </trkpt>
      <trkpt lat="50.060256" lon="1.374105">
        <ele>20.620528</ele>
        <time>2019-07-30T15:16:52.895Z</time>
      </trkpt>
      <trkpt lat="50.060374" lon="1.373228">
        <ele>23.215538</ele>
        <time>2019-07-30T15:17:09.852Z</time>
      </trkpt>
      <trkpt lat="50.060526" lon="1.372681">
        <ele>24.941700</ele>
        <time>2019-07-30T15:17:21.719Z</time>
      </trkpt>
      <trkpt lat="50.060443" lon="1.372729">
        <ele>25.341093</ele>
        <time>2019-07-30T15:17:25.565Z</time>
      </trkpt>
      <trkpt lat="50.059921" lon="1.372315">
        <ele>27.983549</ele>
        <time>2019-07-30T15:17:44.741Z</time>
      </trkpt>
      <trkpt lat="50.059673" lon="1.372189">
        <ele>29.738178</ele>
        <time>2019-07-30T15:17:55.116Z</time>
      </trkpt>
      <trkpt lat="50.059567" lon="1.372090">
        <ele>30.627355</ele>
        <time>2019-07-30T15:18:00.049Z</time>
      </trkpt>
      <trkpt lat="50.059499" lon="1.372009">
        <ele>31.243223</ele>
        <time>2019-07-30T15:18:04.640Z</time>
      </trkpt>
      <trkpt lat="50.059454" lon="1.371956">
        <ele>31.649097</ele>
        <time>2019-07-30T15:18:07.767Z</time>
      </trkpt>
      <trkpt lat="50.059326" lon="1.371846">
        <ele>32.700827</ele>
        <time>2019-07-30T15:18:13.893Z</time>
      </trkpt>
      <trkpt lat="50.059217" lon="1.371763">
        <ele>33.573698</ele>
        <time>2019-07-30T15:18:19.994Z</time>
      </trkpt>
      <trkpt lat="50.058670" lon="1.371490">
        <ele>37.706074</ele>
        <time>2019-07-30T15:18:49.677Z</time>
      </trkpt>
      <trkpt lat="50.058250" lon="1.371256">
        <ele>40.915175</ele>
        <time>2019-07-30T15:19:13.211Z</time>
      </trkpt>
      <trkpt lat="50.057487" lon="1.370878">
        <ele>48.202708</ele>
        <time>2019-07-30T15:19:56.279Z</time>
      </trkpt>
      <trkpt lat="50.057378" lon="1.370829">
        <ele>49.243640</ele>
        <time>2019-07-30T15:20:02.914Z</time>
      </trkpt>
      <trkpt lat="50.057216" lon="1.370811">
        <ele>50.733823</ele>
        <time>2019-07-30T15:20:11.957Z</time>
      </trkpt>
      <trkpt lat="50.057012" lon="1.370792">
        <ele>52.608935</ele>
        <time>2019-07-30T15:20:24.224Z</time>
      </trkpt>
      <trkpt lat="50.056374" lon="1.370841">
        <ele>58.604376</ele>
        <time>2019-07-30T15:21:02.327Z</time>
      </trkpt>
      <trkpt lat="50.055062" lon="1.370942">
        <ele>72.591240</ele>
        <time>2019-07-30T15:22:26.452Z</time>
      </trkpt>
      <trkpt lat="50.054454" lon="1.370960">
        <ele>78.461391</ele>
        <time>2019-07-30T15:23:04.310Z</time>
      </trkpt>
      <trkpt lat="50.054329" lon="1.370884">
        <ele>79.511612</ele>
        <time>2019-07-30T15:23:14.430Z</time>
      </trkpt>
      <trkpt lat="50.054261" lon="1.370843">
        <ele>80.082305</ele>
        <time>2019-07-30T15:23:18.565Z</time>
      </trkpt>
      <trkpt lat="50.054152" lon="1.370649">
        <ele>81.377741</ele>
        <time>2019-07-30T15:23:26.706Z</time>
      </trkpt>
      <trkpt lat="50.054176" lon="1.370286">
        <ele>83.211512</ele>
        <time>2019-07-30T15:23:40.860Z</time>
      </trkpt>
      <trkpt lat="50.054039" lon="1.370350">
        <ele>84.330943</ele>
        <time>2019-07-30T15:23:46.895Z</time>
      </trkpt>
      <trkpt lat="50.053940" lon="1.370365">
        <ele>85.109429</ele>
        <time>2019-07-30T15:23:52.967Z</time>
      </trkpt>
      <trkpt lat="50.053822" lon="1.370052">
        <ele>86.933397</ele>
        <time>2019-07-30T15:24:01.445Z</time>
      </trkpt>
      <trkpt lat="50.053669" lon="1.369825">
        <ele>88.587226</ele>
        <time>2019-07-30T15:24:11.846Z</time>
      </trkpt>
      <trkpt lat="50.052331" lon="1.368404">
        <ele>94.547702</ele>
        <time>2019-07-30T15:24:57.895Z</time>
      </trkpt>
      <trkpt lat="50.051774" lon="1.367701">
        <ele>95.767974</ele>
        <time>2019-07-30T15:25:10.440Z</time>
      </trkpt>
      <trkpt lat="50.051721" lon="1.367683">
        <ele>95.749844</ele>
        <time>2019-07-30T15:25:11.258Z</time>
      </trkpt>
      <trkpt lat="50.051647" lon="1.367657">
        <ele>95.724490</ele>
        <time>2019-07-30T15:25:12.404Z</time>
      </trkpt>
      <trkpt lat="50.048608" lon="1.366616">
        <ele>93.877322</ele>
        <time>2019-07-30T15:25:51.959Z</time>
      </trkpt>
      <trkpt lat="50.047465" lon="1.366265">
        <ele>92.459117</ele>
        <time>2019-07-30T15:26:05.916Z</time>
      </trkpt>
      <trkpt lat="50.047082" lon="1.366154">
        <ele>91.968689</ele>
        <time>2019-07-30T15:26:10.471Z</time>
      </trkpt>
      <trkpt lat="50.045949" lon="1.365833">
        <ele>90.279413</ele>
        <time>2019-07-30T15:26:23.579Z</time>
      </trkpt>
      <trkpt lat="50.045362" lon="1.365688">
        <ele>89.353087</ele>
        <time>2019-07-30T15:26:30.319Z</time>
      </trkpt>
      <trkpt lat="50.040630" lon="1.364625">
        <ele>82.263534</ele>
        <time>2019-07-30T15:27:25.588Z</time>
      </trkpt>
      <trkpt lat="50.039300" lon="1.364330">
        <ele>80.281930</ele>
        <time>2019-07-30T15:27:41.022Z</time>
      </trkpt>
      <trkpt lat="50.039140" lon="1.364273">
        <ele>80.058149</ele>
        <time>2019-07-30T15:27:42.935Z</time>
      </trkpt>
      <trkpt lat="50.038652" lon="1.363974">
        <ele>79.343150</ele>
        <time>2019-07-30T15:27:49.010Z</time>
      </trkpt>
      <trkpt lat="50.038425" lon="1.363872">
        <ele>79.021028</ele>
        <time>2019-07-30T15:27:51.751Z</time>
      </trkpt>
      <trkpt lat="50.038005" lon="1.363744">
        <ele>78.437536</ele>
        <time>2019-07-30T15:27:56.884Z</time>
      </trkpt>
      <trkpt lat="50.037761" lon="1.363765">
        <ele>78.098261</ele>
        <time>2019-07-30T15:27:59.835Z</time>
      </trkpt>
      <trkpt lat="50.037757" lon="1.363729">
        <ele>78.065096</ele>
        <time>2019-07-30T15:28:00.111Z</time>
      </trkpt>
      <trkpt lat="50.037652" lon="1.363681">
        <ele>77.910427</ele>
        <time>2019-07-30T15:28:01.528Z</time>
      </trkpt>
      <trkpt lat="50.037639" lon="1.363700">
        <ele>77.885226</ele>
        <time>2019-07-30T15:28:01.727Z</time>
      </trkpt>
      <trkpt lat="50.037384" lon="1.363394">
        <ele>77.430188</ele>
        <time>2019-07-30T15:28:05.535Z</time>
      </trkpt>
      <trkpt lat="50.037141" lon="1.363186">
        <ele>77.038255</ele>
        <time>2019-07-30T15:28:08.748Z</time>
      </trkpt>
      <trkpt lat="50.036431" lon="1.362351">
        <ele>75.780641</ele>
        <time>2019-07-30T15:28:18.975Z</time>
      </trkpt>
      <trkpt lat="50.036418" lon="1.362323">
        <ele>75.749277</ele>
        <time>2019-07-30T15:28:19.200Z</time>
      </trkpt>
      <trkpt lat="50.036250" lon="1.361938">
        <ele>75.271498</ele>
        <time>2019-07-30T15:28:22.608Z</time>
      </trkpt>
      <trkpt lat="50.035329" lon="1.360360">
        <ele>73.069758</ele>
        <time>2019-07-30T15:28:38.008Z</time>
      </trkpt>
      <trkpt lat="50.033907" lon="1.358470">
        <ele>71.027690</ele>
        <time>2019-07-30T15:29:00.522Z</time>
      </trkpt>
      <trkpt lat="50.033380" lon="1.357760">
        <ele>70.963105</ele>
        <time>2019-07-30T15:29:10.326Z</time>
      </trkpt>
      <trkpt lat="50.030860" lon="1.354349">
        <ele>71.420607</ele>
        <time>2019-07-30T15:30:04.300Z</time>
      </trkpt>
      <trkpt lat="50.030521" lon="1.353828">
        <ele>71.269309</ele>
        <time>2019-07-30T15:30:10.931Z</time>
      </trkpt>
      <trkpt lat="50.029948" lon="1.352720">
        <ele>70.979099</ele>
        <time>2019-07-30T15:30:23.015Z</time>
      </trkpt>
      <trkpt lat="50.029584" lon="1.351433">
        <ele>69.991364</ele>
        <time>2019-07-30T15:30:34.130Z</time>
      </trkpt>
      <trkpt lat="50.029460" lon="1.351048">
        <ele>69.678049</ele>
        <time>2019-07-30T15:30:37.413Z</time>
      </trkpt>
      <trkpt lat="50.029333" lon="1.350651">
        <ele>69.355405</ele>
        <time>2019-07-30T15:30:40.788Z</time>
      </trkpt>
      <trkpt lat="50.028855" lon="1.349878">
        <ele>68.328482</ele>
        <time>2019-07-30T15:30:48.812Z</time>
      </trkpt>
      <trkpt lat="50.028394" lon="1.349392">
        <ele>67.258640</ele>
        <time>2019-07-30T15:30:55.080Z</time>
      </trkpt>
      <trkpt lat="50.027471" lon="1.348858">
        <ele>65.311431</ele>
        <time>2019-07-30T15:31:05.788Z</time>
      </trkpt>
      <trkpt lat="50.025824" lon="1.347959">
        <ele>60.208610</ele>
        <time>2019-07-30T15:31:23.830Z</time>
      </trkpt>
      <trkpt lat="50.025081" lon="1.346894">
        <ele>56.322774</ele>
        <time>2019-07-30T15:31:33.648Z</time>
      </trkpt>
      <trkpt lat="50.024492" lon="1.345925">
        <ele>53.060664</ele>
        <time>2019-07-30T15:31:42.085Z</time>
      </trkpt>
      <trkpt lat="50.024314" lon="1.345632">
        <ele>52.193221</ele>
        <time>2019-07-30T15:31:44.656Z</time>
      </trkpt>
      <trkpt lat="50.024101" lon="1.345295">
        <ele>51.176289</ele>
        <time>2019-07-30T15:31:47.692Z</time>
      </trkpt>
      <trkpt lat="50.023531" lon="1.344721">
        <ele>48.903179</ele>
        <time>2019-07-30T15:31:54.498Z</time>
      </trkpt>
      <trkpt lat="50.023598" lon="1.344401">
        <ele>48.179175</ele>
        <time>2019-07-30T15:31:56.659Z</time>
      </trkpt>
      <trkpt lat="50.023789" lon="1.342933">
        <ele>45.668981</ele>
        <time>2019-07-30T15:32:06.890Z</time>
      </trkpt>
      <trkpt lat="50.023805" lon="1.342639">
        <ele>45.229345</ele>
        <time>2019-07-30T15:32:08.823Z</time>
      </trkpt>
      <trkpt lat="50.023842" lon="1.341922">
        <ele>44.157557</ele>
        <time>2019-07-30T15:32:13.755Z</time>
      </trkpt>
      <trkpt lat="50.024050" lon="1.336894">
        <ele>38.989152</ele>
        <time>2019-07-30T15:32:51.326Z</time>
      </trkpt>
      <trkpt lat="50.023943" lon="1.330359">
        <ele>32.750901</ele>
        <time>2019-07-30T15:33:39.880Z</time>
      </trkpt>
      <trkpt lat="50.023906" lon="1.330115">
        <ele>32.508138</ele>
        <time>2019-07-30T15:33:41.778Z</time>
      </trkpt>
      <trkpt lat="50.023866" lon="1.329850">
        <ele>32.227442</ele>
        <time>2019-07-30T15:33:43.746Z</time>
      </trkpt>
      <trkpt lat="50.023567" lon="1.328673">
        <ele>30.888846</ele>
        <time>2019-07-30T15:33:53.057Z</time>
      </trkpt>
      <trkpt lat="50.022382" lon="1.325793">
        <ele>27.493017</ele>
        <time>2019-07-30T15:34:17.764Z</time>
      </trkpt>
      <trkpt lat="50.022240" lon="1.325459">
        <ele>27.112077</ele>
        <time>2019-07-30T15:34:20.896Z</time>
      </trkpt>
      <trkpt lat="50.022104" lon="1.325077">
        <ele>26.803702</ele>
        <time>2019-07-30T15:34:24.516Z</time>
      </trkpt>
      <trkpt lat="50.021793" lon="1.324434">
        <ele>26.784895</ele>
        <time>2019-07-30T15:34:31.462Z</time>
      </trkpt>
      <trkpt lat="50.021625" lon="1.324205">
        <ele>26.776772</ele>
        <time>2019-07-30T15:34:34.609Z</time>
      </trkpt>
      <trkpt lat="50.021638" lon="1.324069">
        <ele>26.773559</ele>
        <time>2019-07-30T15:34:35.881Z</time>
      </trkpt>
      <trkpt lat="50.021584" lon="1.323845">
        <ele>26.767968</ele>
        <time>2019-07-30T15:34:38.170Z</time>
      </trkpt>
      <trkpt lat="50.021517" lon="1.323759">
        <ele>26.764810</ele>
        <time>2019-07-30T15:34:39.497Z</time>
      </trkpt>
      <trkpt lat="50.021495" lon="1.323697">
        <ele>26.763155</ele>
        <time>2019-07-30T15:34:40.170Z</time>
      </trkpt>
      <trkpt lat="50.021382" lon="1.323382">
        <ele>26.754724</ele>
        <time>2019-07-30T15:34:43.967Z</time>
      </trkpt>
      <trkpt lat="50.021143" lon="1.322520">
        <ele>26.913490</ele>
        <time>2019-07-30T15:34:54.417Z</time>
      </trkpt>
      <trkpt lat="50.020519" lon="1.321072">
        <ele>27.771247</ele>
        <time>2019-07-30T15:35:16.106Z</time>
      </trkpt>
      <trkpt lat="50.020221" lon="1.320659">
        <ele>28.076775</ele>
        <time>2019-07-30T15:35:22.755Z</time>
      </trkpt>
      <trkpt lat="50.019969" lon="1.320550">
        <ele>27.850964</ele>
        <time>2019-07-30T15:35:26.990Z</time>
      </trkpt>
      <trkpt lat="50.019564" lon="1.320529">
        <ele>27.329034</ele>
        <time>2019-07-30T15:35:32.982Z</time>
      </trkpt>
      <trkpt lat="50.018565" lon="1.320477">
        <ele>26.041601</ele>
        <time>2019-07-30T15:35:44.812Z</time>
      </trkpt>
      <trkpt lat="50.017831" lon="1.320305">
        <ele>23.127604</ele>
        <time>2019-07-30T15:35:51.984Z</time>
      </trkpt>
      <trkpt lat="50.017594" lon="1.320192">
        <ele>21.935278</ele>
        <time>2019-07-30T15:35:54.272Z</time>
      </trkpt>
      <trkpt lat="50.016978" lon="1.319882">
        <ele>18.821108</ele>
        <time>2019-07-30T15:36:00.301Z</time>
      </trkpt>
      <trkpt lat="50.016863" lon="1.319758">
        <ele>18.148131</ele>
        <time>2019-07-30T15:36:01.598Z</time>
      </trkpt>
      <trkpt lat="50.016822" lon="1.319675">
        <ele>17.824542</ele>
        <time>2019-07-30T15:36:02.231Z</time>
      </trkpt>
      <trkpt lat="50.016793" lon="1.319555">
        <ele>17.428272</ele>
        <time>2019-07-30T15:36:03.000Z</time>
      </trkpt>
      <trkpt lat="50.016738" lon="1.319194">
        <ele>16.519042</ele>
        <time>2019-07-30T15:36:05.246Z</time>
      </trkpt>
      <trkpt lat="50.016707" lon="1.319007">
        <ele>16.085437</ele>
        <time>2019-07-30T15:36:06.413Z</time>
      </trkpt>
      <trkpt lat="50.016654" lon="1.318674">
        <ele>15.315183</ele>
        <time>2019-07-30T15:36:08.492Z</time>
      </trkpt>
      <trkpt lat="50.016502" lon="1.317879">
        <ele>13.452883</ele>
        <time>2019-07-30T15:36:13.767Z</time>
      </trkpt>
      <trkpt lat="50.016456" lon="1.317714">
        <ele>13.049054</ele>
        <time>2019-07-30T15:36:14.908Z</time>
      </trkpt>
      <trkpt lat="50.016243" lon="1.317003">
        <ele>11.287717</ele>
        <time>2019-07-30T15:36:20.262Z</time>
      </trkpt>
      <trkpt lat="50.016140" lon="1.316797">
        <ele>10.850989</ele>
        <time>2019-07-30T15:36:22.230Z</time>
      </trkpt>
      <trkpt lat="50.016071" lon="1.316693">
        <ele>10.822418</ele>
        <time>2019-07-30T15:36:23.406Z</time>
      </trkpt>
      <trkpt lat="50.016022" lon="1.316616">
        <ele>10.801706</ele>
        <time>2019-07-30T15:36:24.322Z</time>
      </trkpt>
      <trkpt lat="50.015984" lon="1.316539">
        <ele>10.783150</ele>
        <time>2019-07-30T15:36:25.157Z</time>
      </trkpt>
      <trkpt lat="50.015892" lon="1.316353">
        <ele>10.738289</ele>
        <time>2019-07-30T15:36:27.132Z</time>
      </trkpt>
      <trkpt lat="50.015866" lon="1.316301">
        <ele>10.725696</ele>
        <time>2019-07-30T15:36:27.703Z</time>
      </trkpt>
      <trkpt lat="50.015812" lon="1.316181">
        <ele>10.697696</ele>
        <time>2019-07-30T15:36:29.010Z</time>
      </trkpt>
      <trkpt lat="50.015653" lon="1.315701">
        <ele>10.594484</ele>
        <time>2019-07-30T15:36:33.766Z</time>
      </trkpt>
      <trkpt lat="50.015342" lon="1.314721">
        <ele>10.385583</ele>
        <time>2019-07-30T15:36:44.226Z</time>
      </trkpt>
      <trkpt lat="50.015111" lon="1.313804">
        <ele>10.935509</ele>
        <time>2019-07-30T15:36:55.828Z</time>
      </trkpt>
      <trkpt lat="50.014922" lon="1.312874">
        <ele>11.787155</ele>
        <time>2019-07-30T15:37:08.645Z</time>
      </trkpt>
      <trkpt lat="50.014825" lon="1.312061">
        <ele>12.509139</ele>
        <time>2019-07-30T15:37:20.486Z</time>
      </trkpt>
      <trkpt lat="50.014670" lon="1.311552">
        <ele>13.064241</ele>
        <time>2019-07-30T15:37:28.504Z</time>
      </trkpt>
      <trkpt lat="50.014383" lon="1.310924">
        <ele>13.924643</ele>
        <time>2019-07-30T15:37:39.396Z</time>
      </trkpt>
      <trkpt lat="50.014026" lon="1.310150">
        <ele>14.988391</ele>
        <time>2019-07-30T15:37:53.470Z</time>
      </trkpt>
      <trkpt lat="50.013684" lon="1.309453">
        <ele>15.951663</ele>
        <time>2019-07-30T15:38:05.125Z</time>
      </trkpt>
      <trkpt lat="50.013147" lon="1.308440">
        <ele>17.078576</ele>
        <time>2019-07-30T15:38:22.002Z</time>
      </trkpt>
      <trkpt lat="50.012137" lon="1.307038">
        <ele>18.815962</ele>
        <time>2019-07-30T15:38:49.223Z</time>
      </trkpt>
      <trkpt lat="50.011542" lon="1.306575">
        <ele>19.598030</ele>
        <time>2019-07-30T15:39:02.124Z</time>
      </trkpt>
      <trkpt lat="50.011410" lon="1.306496">
        <ele>19.764292</ele>
        <time>2019-07-30T15:39:04.803Z</time>
      </trkpt>
      <trkpt lat="50.011350" lon="1.306456">
        <ele>19.841029</ele>
        <time>2019-07-30T15:39:06.044Z</time>
      </trkpt>
      <trkpt lat="50.011137" lon="1.306339">
        <ele>20.106576</ele>
        <time>2019-07-30T15:39:10.430Z</time>
      </trkpt>
      <trkpt lat="50.010123" lon="1.306079">
        <ele>21.248933</ele>
        <time>2019-07-30T15:39:30.222Z</time>
      </trkpt>
      <trkpt lat="50.009717" lon="1.306103">
        <ele>21.691635</ele>
        <time>2019-07-30T15:39:37.870Z</time>
      </trkpt>
      <trkpt lat="50.009071" lon="1.306213">
        <ele>22.404895</ele>
        <time>2019-07-30T15:39:50.217Z</time>
      </trkpt>
      <trkpt lat="50.005913" lon="1.307893">
        <ele>27.190427</ele>
        <time>2019-07-30T15:40:57.787Z</time>
      </trkpt>
      <trkpt lat="50.005243" lon="1.308290">
        <ele>29.079541</ele>
        <time>2019-07-30T15:41:14.957Z</time>
      </trkpt>
      <trkpt lat="50.004685" lon="1.308474">
        <ele>30.884662</ele>
        <time>2019-07-30T15:41:29.709Z</time>
      </trkpt>
      <trkpt lat="50.004406" lon="1.308531">
        <ele>31.775190</ele>
        <time>2019-07-30T15:41:38.031Z</time>
      </trkpt>
      <trkpt lat="50.003602" lon="1.308353">
        <ele>35.216110</ele>
        <time>2019-07-30T15:42:04.214Z</time>
      </trkpt>
      <trkpt lat="50.003141" lon="1.308061">
        <ele>38.048177</ele>
        <time>2019-07-30T15:42:22.429Z</time>
      </trkpt>
      <trkpt lat="50.001136" lon="1.305980">
        <ele>52.521899</ele>
        <time>2019-07-30T15:44:00.514Z</time>
      </trkpt>
      <trkpt lat="49.998959" lon="1.303769">
        <ele>65.811169</ele>
        <time>2019-07-30T15:45:35.340Z</time>
      </trkpt>
      <trkpt lat="49.993645" lon="1.300401">
        <ele>83.310236</ele>
        <time>2019-07-30T15:48:07.801Z</time>
      </trkpt>
      <trkpt lat="49.992635" lon="1.299374">
        <ele>85.944302</ele>
        <time>2019-07-30T15:48:35.186Z</time>
      </trkpt>
      <trkpt lat="49.991657" lon="1.298379">
        <ele>87.632282</ele>
        <time>2019-07-30T15:48:59.166Z</time>
      </trkpt>
      <trkpt lat="49.991350" lon="1.297943">
        <ele>88.232751</ele>
        <time>2019-07-30T15:49:07.366Z</time>
      </trkpt>
      <trkpt lat="49.991127" lon="1.297593">
        <ele>88.556273</ele>
        <time>2019-07-30T15:49:13.464Z</time>
      </trkpt>
      <trkpt lat="49.990042" lon="1.295892">
        <ele>90.095676</ele>
        <time>2019-07-30T15:49:42.686Z</time>
      </trkpt>
      <trkpt lat="49.989341" lon="1.294838">
        <ele>90.733642</ele>
        <time>2019-07-30T15:49:59.602Z</time>
      </trkpt>
      <trkpt lat="49.989161" lon="1.294589">
        <ele>90.891265</ele>
        <time>2019-07-30T15:50:03.606Z</time>
      </trkpt>
      <trkpt lat="49.988988" lon="1.294362">
        <ele>91.039366</ele>
        <time>2019-07-30T15:50:07.267Z</time>
      </trkpt>
      <trkpt lat="49.988513" lon="1.293735">
        <ele>91.538564</ele>
        <time>2019-07-30T15:50:18.133Z</time>
      </trkpt>
      <trkpt lat="49.987949" lon="1.292858">
        <ele>92.290079</ele>
        <time>2019-07-30T15:50:32.320Z</time>
      </trkpt>
      <trkpt lat="49.987756" lon="1.292668">
        <ele>92.505315</ele>
        <time>2019-07-30T15:50:36.691Z</time>
      </trkpt>
      <trkpt lat="49.986233" lon="1.291573">
        <ele>94.391864</ele>
        <time>2019-07-30T15:51:11.009Z</time>
      </trkpt>
      <trkpt lat="49.985407" lon="1.291655">
        <ele>95.253869</ele>
        <time>2019-07-30T15:51:26.203Z</time>
      </trkpt>
      <trkpt lat="49.985311" lon="1.291741">
        <ele>95.331148</ele>
        <time>2019-07-30T15:51:28.595Z</time>
      </trkpt>
      <trkpt lat="49.985249" lon="1.291848">
        <ele>95.395750</ele>
        <time>2019-07-30T15:51:29.964Z</time>
      </trkpt>
      <trkpt lat="49.984786" lon="1.293430">
        <ele>96.175346</ele>
        <time>2019-07-30T15:51:49.515Z</time>
      </trkpt>
      <trkpt lat="49.984721" lon="1.293578">
        <ele>96.255733</ele>
        <time>2019-07-30T15:51:51.206Z</time>
      </trkpt>
      <trkpt lat="49.984289" lon="1.293490">
        <ele>96.502225</ele>
        <time>2019-07-30T15:51:58.483Z</time>
      </trkpt>
      <trkpt lat="49.984260" lon="1.293456">
        <ele>96.521149</ele>
        <time>2019-07-30T15:51:59.272Z</time>
      </trkpt>
      <trkpt lat="49.983898" lon="1.293050">
        <ele>96.753710</ele>
        <time>2019-07-30T15:52:06.610Z</time>
      </trkpt>
      <trkpt lat="49.983805" lon="1.292975">
        <ele>96.808298</ele>
        <time>2019-07-30T15:52:08.272Z</time>
      </trkpt>
      <trkpt lat="49.983620" lon="1.292889">
        <ele>96.908911</ele>
        <time>2019-07-30T15:52:11.642Z</time>
      </trkpt>
      <trkpt lat="49.982337" lon="1.293104">
        <ele>97.545179</ele>
        <time>2019-07-30T15:52:33.844Z</time>
      </trkpt>
      <trkpt lat="49.981799" lon="1.292878">
        <ele>97.801867</ele>
        <time>2019-07-30T15:52:43.219Z</time>
      </trkpt>
      <trkpt lat="49.981572" lon="1.292750">
        <ele>97.913086</ele>
        <time>2019-07-30T15:52:47.119Z</time>
      </trkpt>
      <trkpt lat="49.981522" lon="1.292723">
        <ele>97.937465</ele>
        <time>2019-07-30T15:52:47.970Z</time>
      </trkpt>
      <trkpt lat="49.980937" lon="1.292359">
        <ele>98.137682</ele>
        <time>2019-07-30T15:52:58.094Z</time>
      </trkpt>
      <trkpt lat="49.980840" lon="1.292320">
        <ele>98.151713</ele>
        <time>2019-07-30T15:52:59.651Z</time>
      </trkpt>
      <trkpt lat="49.980751" lon="1.292337">
        <ele>98.164269</ele>
        <time>2019-07-30T15:53:01.114Z</time>
      </trkpt>
      <trkpt lat="49.980640" lon="1.292417">
        <ele>98.181402</ele>
        <time>2019-07-30T15:53:03.095Z</time>
      </trkpt>
      <trkpt lat="49.980192" lon="1.292889">
        <ele>98.257181</ele>
        <time>2019-07-30T15:53:11.503Z</time>
      </trkpt>
      <trkpt lat="49.974272" lon="1.299380">
        <ele>98.048997</ele>
        <time>2019-07-30T15:54:57.299Z</time>
      </trkpt>
      <trkpt lat="49.973409" lon="1.299981">
        <ele>98.286377</ele>
        <time>2019-07-30T15:55:12.044Z</time>
      </trkpt>
      <trkpt lat="49.970428" lon="1.301354">
        <ele>100.506264</ele>
        <time>2019-07-30T15:56:07.197Z</time>
      </trkpt>
      <trkpt lat="49.968710" lon="1.302159">
        <ele>102.296456</ele>
        <time>2019-07-30T15:56:41.973Z</time>
      </trkpt>
      <trkpt lat="49.968606" lon="1.302171">
        <ele>102.402447</ele>
        <time>2019-07-30T15:56:43.901Z</time>
      </trkpt>
      <trkpt lat="49.968310" lon="1.301794">
        <ele>102.629746</ele>
        <time>2019-07-30T15:56:50.764Z</time>
      </trkpt>
      <trkpt lat="49.967993" lon="1.301409">
        <ele>102.838301</ele>
        <time>2019-07-30T15:56:57.724Z</time>
      </trkpt>
      <trkpt lat="49.967847" lon="1.301215">
        <ele>102.937876</ele>
        <time>2019-07-30T15:57:00.956Z</time>
      </trkpt>
      <trkpt lat="49.967312" lon="1.300113">
        <ele>103.396449</ele>
        <time>2019-07-30T15:57:15.264Z</time>
      </trkpt>
      <trkpt lat="49.966308" lon="1.298990">
        <ele>103.762085</ele>
        <time>2019-07-30T15:57:35.027Z</time>
      </trkpt>
      <trkpt lat="49.965011" lon="1.297234">
        <ele>104.261298</ele>
        <time>2019-07-30T15:58:02.461Z</time>
      </trkpt>
      <trkpt lat="49.964266" lon="1.295518">
        <ele>104.785944</ele>
        <time>2019-07-30T15:58:24.197Z</time>
      </trkpt>
      <trkpt lat="49.964085" lon="1.294852">
        <ele>105.013830</ele>
        <time>2019-07-30T15:58:32.014Z</time>
      </trkpt>
      <trkpt lat="49.963748" lon="1.293608">
        <ele>105.492249</ele>
        <time>2019-07-30T15:58:46.887Z</time>
      </trkpt>
      <trkpt lat="49.963617" lon="1.293157">
        <ele>105.720199</ele>
        <time>2019-07-30T15:58:52.436Z</time>
      </trkpt>
      <trkpt lat="49.963493" lon="1.292975">
        <ele>105.842321</ele>
        <time>2019-07-30T15:58:55.342Z</time>
      </trkpt>
      <trkpt lat="49.963216" lon="1.292750">
        <ele>106.066127</ele>
        <time>2019-07-30T15:59:00.815Z</time>
      </trkpt>
      <trkpt lat="49.960849" lon="1.291558">
        <ele>108.268573</ele>
        <time>2019-07-30T15:59:45.967Z</time>
      </trkpt>
      <trkpt lat="49.956342" lon="1.285164">
        <ele>120.239185</ele>
        <time>2019-07-30T16:02:02.047Z</time>
      </trkpt>
      <trkpt lat="49.953222" lon="1.283935">
        <ele>131.686078</ele>
        <time>2019-07-30T16:03:39.416Z</time>
      </trkpt>
      <trkpt lat="49.953019" lon="1.283857">
        <ele>132.376417</ele>
        <time>2019-07-30T16:03:46.162Z</time>
      </trkpt>
      <trkpt lat="49.952429" lon="1.283656">
        <ele>134.370423</ele>
        <time>2019-07-30T16:04:04.223Z</time>
      </trkpt>
      <trkpt lat="49.949743" lon="1.283491">
        <ele>141.089410</ele>
        <time>2019-07-30T16:05:10.662Z</time>
      </trkpt>
      <trkpt lat="49.947499" lon="1.282922">
        <ele>142.671174</ele>
        <time>2019-07-30T16:05:50.279Z</time>
      </trkpt>
      <trkpt lat="49.945820" lon="1.282299">
        <ele>142.391528</ele>
        <time>2019-07-30T16:06:13.856Z</time>
      </trkpt>
      <trkpt lat="49.944509" lon="1.281813">
        <ele>141.659833</ele>
        <time>2019-07-30T16:06:31.558Z</time>
      </trkpt>
      <trkpt lat="49.941575" lon="1.280315">
        <ele>139.553188</ele>
        <time>2019-07-30T16:07:10.667Z</time>
      </trkpt>
      <trkpt lat="49.938645" lon="1.278845">
        <ele>138.442336</ele>
        <time>2019-07-30T16:07:52.939Z</time>
      </trkpt>
      <trkpt lat="49.938603" lon="1.278824">
        <ele>138.430125</ele>
        <time>2019-07-30T16:07:53.586Z</time>
      </trkpt>
      <trkpt lat="49.936243" lon="1.277655">
        <ele>137.867500</ele>
        <time>2019-07-30T16:08:28.484Z</time>
      </trkpt>
      <trkpt lat="49.935429" lon="1.277794">
        <ele>137.729590</ele>
        <time>2019-07-30T16:08:40.363Z</time>
      </trkpt>
      <trkpt lat="49.935015" lon="1.277955">
        <ele>137.661953</ele>
        <time>2019-07-30T16:08:46.530Z</time>
      </trkpt>
      <trkpt lat="49.934090" lon="1.278137">
        <ele>137.529337</ele>
        <time>2019-07-30T16:08:59.556Z</time>
      </trkpt>
      <trkpt lat="49.933033" lon="1.277965">
        <ele>137.448360</ele>
        <time>2019-07-30T16:09:14.510Z</time>
      </trkpt>
      <trkpt lat="49.932547" lon="1.277638">
        <ele>137.408006</ele>
        <time>2019-07-30T16:09:22.523Z</time>
      </trkpt>
      <trkpt lat="49.932363" lon="1.277515">
        <ele>137.479445</ele>
        <time>2019-07-30T16:09:25.782Z</time>
      </trkpt>
      <trkpt lat="49.932196" lon="1.277365">
        <ele>137.558591</ele>
        <time>2019-07-30T16:09:28.812Z</time>
      </trkpt>
      <trkpt lat="49.932149" lon="1.277320">
        <ele>137.581242</ele>
        <time>2019-07-30T16:09:29.728Z</time>
      </trkpt>
      <trkpt lat="49.931971" lon="1.277163">
        <ele>137.665223</ele>
        <time>2019-07-30T16:09:33.171Z</time>
      </trkpt>
      <trkpt lat="49.931907" lon="1.277107">
        <ele>137.695360</ele>
        <time>2019-07-30T16:09:34.299Z</time>
      </trkpt>
      <trkpt lat="49.931137" lon="1.276402">
        <ele>138.062065</ele>
        <time>2019-07-30T16:09:49.800Z</time>
      </trkpt>
      <trkpt lat="49.930810" lon="1.276100">
        <ele>138.060533</ele>
        <time>2019-07-30T16:09:56.313Z</time>
      </trkpt>
      <trkpt lat="49.930492" lon="1.275809">
        <ele>137.888854</ele>
        <time>2019-07-30T16:10:02.076Z</time>
      </trkpt>
      <trkpt lat="49.930395" lon="1.275755">
        <ele>137.840924</ele>
        <time>2019-07-30T16:10:03.634Z</time>
      </trkpt>
      <trkpt lat="49.930236" lon="1.275723">
        <ele>137.766344</ele>
        <time>2019-07-30T16:10:05.746Z</time>
      </trkpt>
      <trkpt lat="49.929925" lon="1.275809">
        <ele>137.619404</ele>
        <time>2019-07-30T16:10:09.847Z</time>
      </trkpt>
      <trkpt lat="49.929847" lon="1.275887">
        <ele>137.576254</ele>
        <time>2019-07-30T16:10:11.020Z</time>
      </trkpt>
      <trkpt lat="49.929831" lon="1.275853">
        <ele>137.563643</ele>
        <time>2019-07-30T16:10:11.316Z</time>
      </trkpt>
      <trkpt lat="49.929594" lon="1.275365">
        <ele>137.380595</ele>
        <time>2019-07-30T16:10:16.185Z</time>
      </trkpt>
      <trkpt lat="49.929349" lon="1.274822">
        <ele>136.718093</ele>
        <time>2019-07-30T16:10:21.303Z</time>
      </trkpt>
      <trkpt lat="49.929215" lon="1.274526">
        <ele>136.209415</ele>
        <time>2019-07-30T16:10:23.926Z</time>
      </trkpt>
      <trkpt lat="49.928577" lon="1.272643">
        <ele>133.219148</ele>
        <time>2019-07-30T16:10:38.352Z</time>
      </trkpt>
      <trkpt lat="49.928454" lon="1.272437">
        <ele>132.826519</ele>
        <time>2019-07-30T16:10:40.246Z</time>
      </trkpt>
      <trkpt lat="49.928388" lon="1.272326">
        <ele>132.615364</ele>
        <time>2019-07-30T16:10:41.239Z</time>
      </trkpt>
      <trkpt lat="49.928042" lon="1.271800">
        <ele>131.564455</ele>
        <time>2019-07-30T16:10:46.446Z</time>
      </trkpt>
      <trkpt lat="49.927853" lon="1.271422">
        <ele>130.895614</ele>
        <time>2019-07-30T16:10:49.723Z</time>
      </trkpt>
      <trkpt lat="49.927736" lon="1.271191">
        <ele>130.484872</ele>
        <time>2019-07-30T16:10:51.744Z</time>
      </trkpt>
      <trkpt lat="49.925593" lon="1.267496">
        <ele>125.832481</ele>
        <time>2019-07-30T16:11:28.979Z</time>
      </trkpt>
      <trkpt lat="49.923564" lon="1.265387">
        <ele>124.502139</ele>
        <time>2019-07-30T16:12:00.313Z</time>
      </trkpt>
      <trkpt lat="49.921977" lon="1.261919">
        <ele>128.106742</ele>
        <time>2019-07-30T16:12:58.520Z</time>
      </trkpt>
      <trkpt lat="49.920723" lon="1.260811">
        <ele>129.977498</ele>
        <time>2019-07-30T16:13:28.130Z</time>
      </trkpt>
      <trkpt lat="49.919550" lon="1.258924">
        <ele>131.079874</ele>
        <time>2019-07-30T16:13:57.303Z</time>
      </trkpt>
      <trkpt lat="49.917783" lon="1.253265">
        <ele>130.706779</ele>
        <time>2019-07-30T16:14:55.957Z</time>
      </trkpt>
      <trkpt lat="49.917627" lon="1.252947">
        <ele>130.612287</ele>
        <time>2019-07-30T16:14:59.536Z</time>
      </trkpt>
      <trkpt lat="49.917462" lon="1.252613">
        <ele>130.512783</ele>
        <time>2019-07-30T16:15:03.152Z</time>
      </trkpt>
      <trkpt lat="49.916879" lon="1.251271">
        <ele>129.946591</ele>
        <time>2019-07-30T16:15:16.541Z</time>
      </trkpt>
      <trkpt lat="49.916236" lon="1.248789">
        <ele>128.800990</ele>
        <time>2019-07-30T16:15:38.352Z</time>
      </trkpt>
      <trkpt lat="49.916228" lon="1.248576">
        <ele>128.746773</ele>
        <time>2019-07-30T16:15:40.147Z</time>
      </trkpt>
      <trkpt lat="49.916223" lon="1.248447">
        <ele>128.713934</ele>
        <time>2019-07-30T16:15:41.389Z</time>
      </trkpt>
      <trkpt lat="49.916359" lon="1.248056">
        <ele>128.601008</ele>
        <time>2019-07-30T16:15:45.583Z</time>
      </trkpt>
      <trkpt lat="49.916912" lon="1.246610">
        <ele>128.082433</ele>
        <time>2019-07-30T16:16:00.644Z</time>
      </trkpt>
      <trkpt lat="49.917081" lon="1.245928">
        <ele>127.678408</ele>
        <time>2019-07-30T16:16:07.155Z</time>
      </trkpt>
      <trkpt lat="49.917187" lon="1.245501">
        <ele>127.425390</ele>
        <time>2019-07-30T16:16:10.813Z</time>
      </trkpt>
      <trkpt lat="49.917313" lon="1.244196">
        <ele>126.686214</ele>
        <time>2019-07-30T16:16:20.909Z</time>
      </trkpt>
      <trkpt lat="49.916794" lon="1.239527">
        <ele>122.039681</ele>
        <time>2019-07-30T16:16:55.633Z</time>
      </trkpt>
      <trkpt lat="49.915756" lon="1.236337">
        <ele>119.819343</ele>
        <time>2019-07-30T16:17:24.581Z</time>
      </trkpt>
      <trkpt lat="49.914798" lon="1.231350">
        <ele>116.316162</ele>
        <time>2019-07-30T16:18:07.207Z</time>
      </trkpt>
      <trkpt lat="49.914714" lon="1.230817">
        <ele>115.535979</ele>
        <time>2019-07-30T16:18:10.835Z</time>
      </trkpt>
      <trkpt lat="49.914577" lon="1.230550">
        <ele>114.399476</ele>
        <time>2019-07-30T16:18:13.001Z</time>
      </trkpt>
      <trkpt lat="49.913815" lon="1.229618">
        <ele>109.385037</ele>
        <time>2019-07-30T16:18:22.126Z</time>
      </trkpt>
      <trkpt lat="49.913368" lon="1.229557">
        <ele>107.065256</ele>
        <time>2019-07-30T16:18:26.160Z</time>
      </trkpt>
      <trkpt lat="49.912997" lon="1.229958">
        <ele>104.091718</ele>
        <time>2019-07-30T16:18:30.223Z</time>
      </trkpt>
      <trkpt lat="49.913048" lon="1.231213">
        <ele>98.505020</ele>
        <time>2019-07-30T16:18:37.550Z</time>
      </trkpt>
      <trkpt lat="49.912816" lon="1.231353">
        <ele>96.787814</ele>
        <time>2019-07-30T16:18:39.790Z</time>
      </trkpt>
      <trkpt lat="49.912651" lon="1.229678">
        <ele>89.198211</ele>
        <time>2019-07-30T16:18:49.628Z</time>
      </trkpt>
      <trkpt lat="49.912933" lon="1.228484">
        <ele>83.478099</ele>
        <time>2019-07-30T16:18:57.033Z</time>
      </trkpt>
      <trkpt lat="49.911129" lon="1.226104">
        <ele>66.890164</ele>
        <time>2019-07-30T16:19:18.226Z</time>
      </trkpt>
      <trkpt lat="49.910463" lon="1.225580">
        <ele>62.392643</ele>
        <time>2019-07-30T16:19:25.076Z</time>
      </trkpt>
      <trkpt lat="49.909219" lon="1.225379">
        <ele>55.459363</ele>
        <time>2019-07-30T16:19:36.788Z</time>
      </trkpt>
      <trkpt lat="49.908195" lon="1.225587">
        <ele>50.462714</ele>
        <time>2019-07-30T16:19:46.657Z</time>
      </trkpt>
      <trkpt lat="49.907627" lon="1.226118">
        <ele>47.421065</ele>
        <time>2019-07-30T16:19:52.911Z</time>
      </trkpt>
      <trkpt lat="49.907043" lon="1.227430">
        <ele>42.873936</ele>
        <time>2019-07-30T16:20:02.883Z</time>
      </trkpt>
      <trkpt lat="49.907016" lon="1.227451">
        <ele>42.740250</ele>
        <time>2019-07-30T16:20:03.150Z</time>
      </trkpt>
      <trkpt lat="49.906988" lon="1.227464">
        <ele>42.610872</ele>
        <time>2019-07-30T16:20:03.403Z</time>
      </trkpt>
      <trkpt lat="49.906269" lon="1.227253">
        <ele>39.599515</ele>
        <time>2019-07-30T16:20:10.626Z</time>
      </trkpt>
      <trkpt lat="49.906241" lon="1.227243">
        <ele>39.487786</ele>
        <time>2019-07-30T16:20:10.875Z</time>
      </trkpt>
      <trkpt lat="49.905455" lon="1.229805">
        <ele>32.611726</ele>
        <time>2019-07-30T16:20:28.979Z</time>
      </trkpt>
      <trkpt lat="49.905418" lon="1.229785">
        <ele>32.478202</ele>
        <time>2019-07-30T16:20:29.319Z</time>
      </trkpt>
      <trkpt lat="49.904542" lon="1.229232">
        <ele>29.255357</ele>
        <time>2019-07-30T16:20:38.888Z</time>
      </trkpt>
      <trkpt lat="49.903734" lon="1.228722">
        <ele>27.238190</ele>
        <time>2019-07-30T16:20:47.882Z</time>
      </trkpt>
      <trkpt lat="49.903490" lon="1.228895">
        <ele>26.798820</ele>
        <time>2019-07-30T16:20:50.869Z</time>
      </trkpt>
      <trkpt lat="49.902896" lon="1.231541">
        <ele>25.015617</ele>
        <time>2019-07-30T16:21:13.482Z</time>
      </trkpt>
      <trkpt lat="49.902817" lon="1.231617">
        <ele>24.997291</ele>
        <time>2019-07-30T16:21:14.756Z</time>
      </trkpt>
      <trkpt lat="49.902791" lon="1.231643">
        <ele>24.991193</ele>
        <time>2019-07-30T16:21:15.199Z</time>
      </trkpt>
      <trkpt lat="49.902250" lon="1.231296">
        <ele>24.875767</ele>
        <time>2019-07-30T16:21:23.689Z</time>
      </trkpt>
      <trkpt lat="49.902173" lon="1.231153">
        <ele>24.852094</ele>
        <time>2019-07-30T16:21:25.482Z</time>
      </trkpt>
      <trkpt lat="49.902065" lon="1.230946">
        <ele>24.862684</ele>
        <time>2019-07-30T16:21:28.193Z</time>
      </trkpt>
      <trkpt lat="49.901962" lon="1.230790">
        <ele>25.225384</ele>
        <time>2019-07-30T16:21:30.912Z</time>
      </trkpt>
      <trkpt lat="49.900864" lon="1.230895">
        <ele>27.998287</ele>
        <time>2019-07-30T16:21:56.941Z</time>
      </trkpt>
      <trkpt lat="49.900582" lon="1.230951">
        <ele>28.714897</ele>
        <time>2019-07-30T16:22:04.528Z</time>
      </trkpt>
      <trkpt lat="49.900369" lon="1.230943">
        <ele>29.251950</ele>
        <time>2019-07-30T16:22:11.400Z</time>
      </trkpt>
      <trkpt lat="49.899611" lon="1.230742">
        <ele>32.647574</ele>
        <time>2019-07-30T16:22:38.951Z</time>
      </trkpt>
      <trkpt lat="49.898967" lon="1.230908">
        <ele>35.599872</ele>
        <time>2019-07-30T16:23:01.375Z</time>
      </trkpt>
      <trkpt lat="49.898887" lon="1.230996">
        <ele>36.043278</ele>
        <time>2019-07-30T16:23:05.515Z</time>
      </trkpt>
      <trkpt lat="49.898834" lon="1.231054">
        <ele>36.336529</ele>
        <time>2019-07-30T16:23:07.950Z</time>
      </trkpt>
      <trkpt lat="49.898618" lon="1.233187">
        <ele>40.728688</ele>
        <time>2019-07-30T16:23:45.553Z</time>
      </trkpt>
      <trkpt lat="49.898198" lon="1.233665">
        <ele>42.213788</ele>
        <time>2019-07-30T16:23:57.160Z</time>
      </trkpt>
      <trkpt lat="49.898143" lon="1.233677">
        <ele>42.372175</ele>
        <time>2019-07-30T16:23:57.842Z</time>
      </trkpt>
      <trkpt lat="49.898027" lon="1.233701">
        <ele>42.756208</ele>
        <time>2019-07-30T16:24:00.729Z</time>
      </trkpt>
      <trkpt lat="49.897852" lon="1.233664">
        <ele>43.550246</ele>
        <time>2019-07-30T16:24:05.261Z</time>
      </trkpt>
      <trkpt lat="49.897700" lon="1.233572">
        <ele>44.283719</ele>
        <time>2019-07-30T16:24:08.775Z</time>
      </trkpt>
      <trkpt lat="49.897551" lon="1.233371">
        <ele>45.171179</ele>
        <time>2019-07-30T16:24:14.563Z</time>
      </trkpt>
      <trkpt lat="49.896745" lon="1.231864">
        <ele>50.957663</ele>
        <time>2019-07-30T16:24:58.541Z</time>
      </trkpt>
      <trkpt lat="49.897085" lon="1.230534">
        <ele>58.503545</ele>
        <time>2019-07-30T16:25:42.163Z</time>
      </trkpt>
      <trkpt lat="49.896570" lon="1.227882">
        <ele>72.592019</ele>
        <time>2019-07-30T16:27:14.129Z</time>
      </trkpt>
      <trkpt lat="49.896298" lon="1.227306">
        <ele>76.104065</ele>
        <time>2019-07-30T16:27:34.295Z</time>
      </trkpt>
      <trkpt lat="49.895844" lon="1.226924">
        <ele>79.581171</ele>
        <time>2019-07-30T16:27:54.224Z</time>
      </trkpt>
      <trkpt lat="49.892603" lon="1.227274">
        <ele>91.892415</ele>
        <time>2019-07-30T16:29:23.024Z</time>
      </trkpt>
      <trkpt lat="49.889978" lon="1.224859">
        <ele>111.524608</ele>
        <time>2019-07-30T16:31:37.813Z</time>
      </trkpt>
      <trkpt lat="49.889776" lon="1.224743">
        <ele>112.808304</ele>
        <time>2019-07-30T16:31:46.885Z</time>
      </trkpt>
      <trkpt lat="49.889611" lon="1.224708">
        <ele>113.800862</ele>
        <time>2019-07-30T16:31:53.441Z</time>
      </trkpt>
      <trkpt lat="49.885543" lon="1.223879">
        <ele>125.770983</ele>
        <time>2019-07-30T16:33:37.245Z</time>
      </trkpt>
      <trkpt lat="49.884127" lon="1.223419">
        <ele>128.002915</ele>
        <time>2019-07-30T16:34:06.407Z</time>
      </trkpt>
      <trkpt lat="49.883413" lon="1.223167">
        <ele>129.003512</ele>
        <time>2019-07-30T16:34:20.903Z</time>
      </trkpt>
      <trkpt lat="49.882845" lon="1.222885">
        <ele>129.766322</ele>
        <time>2019-07-30T16:34:32.496Z</time>
      </trkpt>
      <trkpt lat="49.882601" lon="1.222764">
        <ele>130.093972</ele>
        <time>2019-07-30T16:34:37.513Z</time>
      </trkpt>
      <trkpt lat="49.880362" lon="1.222152">
        <ele>133.203584</ele>
        <time>2019-07-30T16:35:24.515Z</time>
      </trkpt>
      <trkpt lat="49.880325" lon="1.222140">
        <ele>133.233392</ele>
        <time>2019-07-30T16:35:25.735Z</time>
      </trkpt>
      <trkpt lat="49.880160" lon="1.222113">
        <ele>133.364231</ele>
        <time>2019-07-30T16:35:28.757Z</time>
      </trkpt>
      <trkpt lat="49.878978" lon="1.221895">
        <ele>134.302906</ele>
        <time>2019-07-30T16:35:49.892Z</time>
      </trkpt>
      <trkpt lat="49.878885" lon="1.221880">
        <ele>134.376640</ele>
        <time>2019-07-30T16:35:52.054Z</time>
      </trkpt>
      <trkpt lat="49.878941" lon="1.221607">
        <ele>134.522231</ele>
        <time>2019-07-30T16:35:54.856Z</time>
      </trkpt>
      <trkpt lat="49.878951" lon="1.221556">
        <ele>134.549321</ele>
        <time>2019-07-30T16:35:55.364Z</time>
      </trkpt>
      <trkpt lat="49.878963" lon="1.221495">
        <ele>134.581731</ele>
        <time>2019-07-30T16:35:55.963Z</time>
      </trkpt>
      <trkpt lat="49.879058" lon="1.221064">
        <ele>134.592730</ele>
        <time>2019-07-30T16:36:00.576Z</time>
      </trkpt>
      <trkpt lat="49.879079" lon="1.220944">
        <ele>134.588160</ele>
        <time>2019-07-30T16:36:01.753Z</time>
      </trkpt>
      <trkpt lat="49.879157" lon="1.220637">
        <ele>134.576033</ele>
        <time>2019-07-30T16:36:05.149Z</time>
      </trkpt>
      <trkpt lat="49.879198" lon="1.220439">
        <ele>134.568391</ele>
        <time>2019-07-30T16:36:07.076Z</time>
      </trkpt>
      <trkpt lat="49.879202" lon="1.220422">
        <ele>134.567725</ele>
        <time>2019-07-30T16:36:07.267Z</time>
      </trkpt>
      <trkpt lat="49.879081" lon="1.220452">
        <ele>134.560738</ele>
        <time>2019-07-30T16:36:09.325Z</time>
      </trkpt>
      <trkpt lat="49.878961" lon="1.220470">
        <ele>134.553862</ele>
        <time>2019-07-30T16:36:11.087Z</time>
      </trkpt>
      <trkpt lat="49.878875" lon="1.220189">
        <ele>134.542430</ele>
        <time>2019-07-30T16:36:14.168Z</time>
      </trkpt>
      <trkpt lat="49.878637" lon="1.219207">
        <ele>134.482520</ele>
        <time>2019-07-30T16:36:23.286Z</time>
      </trkpt>
      <trkpt lat="49.878365" lon="1.218291">
        <ele>133.758107</ele>
        <time>2019-07-30T16:36:31.726Z</time>
      </trkpt>
      <trkpt lat="49.878324" lon="1.218146">
        <ele>133.644374</ele>
        <time>2019-07-30T16:36:33.012Z</time>
      </trkpt>
      <trkpt lat="49.878174" lon="1.217566">
        <ele>133.195487</ele>
        <time>2019-07-30T16:36:37.876Z</time>
      </trkpt>
      <trkpt lat="49.878136" lon="1.217423">
        <ele>133.084385</ele>
        <time>2019-07-30T16:36:39.018Z</time>
      </trkpt>
      <trkpt lat="49.878104" lon="1.217304">
        <ele>132.991769</ele>
        <time>2019-07-30T16:36:40.011Z</time>
      </trkpt>
      <trkpt lat="49.878063" lon="1.217159">
        <ele>132.878036</ele>
        <time>2019-07-30T16:36:41.221Z</time>
      </trkpt>
      <trkpt lat="49.878006" lon="1.216972">
        <ele>132.729453</ele>
        <time>2019-07-30T16:36:42.744Z</time>
      </trkpt>
      <trkpt lat="49.876576" lon="1.211727">
        <ele>125.094005</ele>
        <time>2019-07-30T16:37:23.023Z</time>
      </trkpt>
      <trkpt lat="49.876478" lon="1.211494">
        <ele>124.565437</ele>
        <time>2019-07-30T16:37:24.820Z</time>
      </trkpt>
      <trkpt lat="49.876529" lon="1.211285">
        <ele>123.868916</ele>
        <time>2019-07-30T16:37:26.331Z</time>
      </trkpt>
      <trkpt lat="49.876515" lon="1.211207">
        <ele>123.616562</ele>
        <time>2019-07-30T16:37:26.848Z</time>
      </trkpt>
      <trkpt lat="49.876500" lon="1.211120">
        <ele>123.335874</ele>
        <time>2019-07-30T16:37:27.409Z</time>
      </trkpt>
      <trkpt lat="49.876427" lon="1.211011">
        <ele>122.845922</ele>
        <time>2019-07-30T16:37:28.419Z</time>
      </trkpt>
      <trkpt lat="49.876310" lon="1.210971">
        <ele>122.266506</ele>
        <time>2019-07-30T16:37:29.622Z</time>
      </trkpt>
      <trkpt lat="49.876234" lon="1.211003">
        <ele>121.885657</ele>
        <time>2019-07-30T16:37:30.374Z</time>
      </trkpt>
      <trkpt lat="49.876191" lon="1.211068">
        <ele>121.595332</ele>
        <time>2019-07-30T16:37:30.939Z</time>
      </trkpt>
      <trkpt lat="49.876071" lon="1.211033">
        <ele>121.004814</ele>
        <time>2019-07-30T16:37:32.116Z</time>
      </trkpt>
      <trkpt lat="49.876050" lon="1.210993">
        <ele>120.844013</ele>
        <time>2019-07-30T16:37:32.438Z</time>
      </trkpt>
      <trkpt lat="49.875836" lon="1.210434">
        <ele>118.817543</ele>
        <time>2019-07-30T16:37:36.375Z</time>
      </trkpt>
      <trkpt lat="49.875855" lon="1.210076">
        <ele>117.697977</ele>
        <time>2019-07-30T16:37:38.494Z</time>
      </trkpt>
      <trkpt lat="49.875760" lon="1.209504">
        <ele>115.720005</ele>
        <time>2019-07-30T16:37:41.993Z</time>
      </trkpt>
      <trkpt lat="49.875560" lon="1.208775">
        <ele>111.808143</ele>
        <time>2019-07-30T16:37:46.621Z</time>
      </trkpt>
      <trkpt lat="49.874351" lon="1.206375">
        <ele>96.491667</ele>
        <time>2019-07-30T16:38:03.925Z</time>
      </trkpt>
      <trkpt lat="49.872634" lon="1.205469">
        <ele>83.794132</ele>
        <time>2019-07-30T16:38:19.984Z</time>
      </trkpt>
      <trkpt lat="49.869925" lon="1.200365">
        <ele>62.241047</ele>
        <time>2019-07-30T16:39:00.420Z</time>
      </trkpt>
      <trkpt lat="49.869427" lon="1.200108">
        <ele>60.299254</ele>
        <time>2019-07-30T16:39:05.983Z</time>
      </trkpt>
      <trkpt lat="49.867492" lon="1.200540">
        <ele>55.540001</ele>
        <time>2019-07-30T16:39:27.723Z</time>
      </trkpt>
      <trkpt lat="49.866274" lon="1.199833">
        <ele>50.619672</ele>
        <time>2019-07-30T16:39:40.438Z</time>
      </trkpt>
      <trkpt lat="49.865975" lon="1.199738">
        <ele>49.335924</ele>
        <time>2019-07-30T16:39:43.295Z</time>
      </trkpt>
      <trkpt lat="49.863384" lon="1.199012">
        <ele>36.028471</ele>
        <time>2019-07-30T16:40:07.918Z</time>
      </trkpt>
      <trkpt lat="49.862719" lon="1.198818">
        <ele>32.769144</ele>
        <time>2019-07-30T16:40:14.380Z</time>
      </trkpt>
      <trkpt lat="49.862234" lon="1.198667">
        <ele>30.817649</ele>
        <time>2019-07-30T16:40:19.232Z</time>
      </trkpt>
      <trkpt lat="49.862091" lon="1.198625">
        <ele>30.326432</ele>
        <time>2019-07-30T16:40:20.615Z</time>
      </trkpt>
      <trkpt lat="49.861787" lon="1.198529">
        <ele>29.279348</ele>
        <time>2019-07-30T16:40:23.745Z</time>
      </trkpt>
      <trkpt lat="49.861558" lon="1.198467">
        <ele>28.494760</ele>
        <time>2019-07-30T16:40:26.075Z</time>
      </trkpt>
      <trkpt lat="49.861399" lon="1.198431">
        <ele>27.952429</ele>
        <time>2019-07-30T16:40:27.670Z</time>
      </trkpt>
      <trkpt lat="49.861263" lon="1.198376">
        <ele>27.478069</ele>
        <time>2019-07-30T16:40:29.129Z</time>
      </trkpt>
      <trkpt lat="49.861212" lon="1.198637">
        <ele>26.884684</ele>
        <time>2019-07-30T16:40:31.050Z</time>
      </trkpt>
      <trkpt lat="49.861134" lon="1.198997">
        <ele>26.058357</ele>
        <time>2019-07-30T16:40:33.534Z</time>
      </trkpt>
      <trkpt lat="49.861113" lon="1.199174">
        <ele>25.716166</ele>
        <time>2019-07-30T16:40:34.798Z</time>
      </trkpt>
      <trkpt lat="49.861076" lon="1.199169">
        <ele>25.659748</ele>
        <time>2019-07-30T16:40:35.281Z</time>
      </trkpt>
      <trkpt lat="49.860867" lon="1.199026">
        <ele>25.312756</ele>
        <time>2019-07-30T16:40:38.767Z</time>
      </trkpt>
      <trkpt lat="49.860650" lon="1.199536">
        <ele>24.714359</ele>
        <time>2019-07-30T16:40:44.950Z</time>
      </trkpt>
      <trkpt lat="49.860391" lon="1.200145">
        <ele>23.999905</ele>
        <time>2019-07-30T16:40:52.765Z</time>
      </trkpt>
      <trkpt lat="49.860387" lon="1.200234">
        <ele>23.912539</ele>
        <time>2019-07-30T16:40:53.646Z</time>
      </trkpt>
      <trkpt lat="49.860325" lon="1.200322">
        <ele>23.784882</ele>
        <time>2019-07-30T16:40:54.784Z</time>
      </trkpt>
      <trkpt lat="49.860153" lon="1.200625">
        <ele>23.389526</ele>
        <time>2019-07-30T16:40:57.989Z</time>
      </trkpt>
      <trkpt lat="49.860110" lon="1.200573">
        <ele>23.306703</ele>
        <time>2019-07-30T16:40:58.653Z</time>
      </trkpt>
      <trkpt lat="49.859196" lon="1.202826">
        <ele>22.964395</ele>
        <time>2019-07-30T16:41:23.687Z</time>
      </trkpt>
      <trkpt lat="49.859043" lon="1.203143">
        <ele>22.954393</ele>
        <time>2019-07-30T16:41:27.884Z</time>
      </trkpt>
      <trkpt lat="49.858917" lon="1.203487">
        <ele>23.033999</ele>
        <time>2019-07-30T16:41:32.089Z</time>
      </trkpt>
      <trkpt lat="49.858633" lon="1.204164">
        <ele>23.206456</ele>
        <time>2019-07-30T16:41:40.758Z</time>
      </trkpt>
      <trkpt lat="49.857730" lon="1.205891">
        <ele>23.606089</ele>
        <time>2019-07-30T16:42:04.179Z</time>
      </trkpt>
      <trkpt lat="49.856884" lon="1.206999">
        <ele>23.763486</ele>
        <time>2019-07-30T16:42:21.371Z</time>
      </trkpt>
      <trkpt lat="49.851754" lon="1.212461">
        <ele>22.700639</ele>
        <time>2019-07-30T16:43:49.326Z</time>
      </trkpt>
      <trkpt lat="49.849587" lon="1.214729">
        <ele>22.345679</ele>
        <time>2019-07-30T16:44:26.323Z</time>
      </trkpt>
      <trkpt lat="49.848705" lon="1.215689">
        <ele>22.507839</ele>
        <time>2019-07-30T16:44:43.118Z</time>
      </trkpt>
      <trkpt lat="49.844798" lon="1.219995">
        <ele>24.057046</ele>
        <time>2019-07-30T16:46:01.100Z</time>
      </trkpt>
      <trkpt lat="49.844536" lon="1.220375">
        <ele>24.093557</ele>
        <time>2019-07-30T16:46:06.622Z</time>
      </trkpt>
      <trkpt lat="49.844399" lon="1.220573">
        <ele>24.112617</ele>
        <time>2019-07-30T16:46:09.469Z</time>
      </trkpt>
      <trkpt lat="49.844351" lon="1.220649">
        <ele>24.119599</ele>
        <time>2019-07-30T16:46:10.499Z</time>
      </trkpt>
      <trkpt lat="49.844210" lon="1.220941">
        <ele>24.143541</ele>
        <time>2019-07-30T16:46:14.092Z</time>
      </trkpt>
      <trkpt lat="49.842516" lon="1.223700">
        <ele>24.358334</ele>
        <time>2019-07-30T16:46:51.151Z</time>
      </trkpt>
      <trkpt lat="49.841512" lon="1.225103">
        <ele>24.591179</ele>
        <time>2019-07-30T16:47:12.173Z</time>
      </trkpt>
      <trkpt lat="49.840623" lon="1.226101">
        <ele>24.807235</ele>
        <time>2019-07-30T16:47:29.373Z</time>
      </trkpt>
      <trkpt lat="49.840205" lon="1.226571">
        <ele>24.910430</ele>
        <time>2019-07-30T16:47:37.407Z</time>
      </trkpt>
      <trkpt lat="49.838672" lon="1.228289">
        <ele>25.426450</ele>
        <time>2019-07-30T16:48:07.009Z</time>
      </trkpt>
      <trkpt lat="49.837934" lon="1.229169">
        <ele>25.802595</ele>
        <time>2019-07-30T16:48:22.586Z</time>
      </trkpt>
      <trkpt lat="49.837345" lon="1.230017">
        <ele>26.463766</ele>
        <time>2019-07-30T16:48:36.861Z</time>
      </trkpt>
      <trkpt lat="49.834269" lon="1.235006">
        <ele>30.716050</ele>
        <time>2019-07-30T16:50:00.827Z</time>
      </trkpt>
      <trkpt lat="49.833691" lon="1.235773">
        <ele>31.075208</ele>
        <time>2019-07-30T16:50:14.227Z</time>
      </trkpt>
      <trkpt lat="49.832584" lon="1.237116">
        <ele>31.540369</ele>
        <time>2019-07-30T16:50:36.643Z</time>
      </trkpt>
      <trkpt lat="49.830285" lon="1.239912">
        <ele>31.258283</ele>
        <time>2019-07-30T16:51:18.239Z</time>
      </trkpt>
      <trkpt lat="49.827664" lon="1.244909">
        <ele>31.236376</ele>
        <time>2019-07-30T16:52:19.953Z</time>
      </trkpt>
      <trkpt lat="49.827095" lon="1.246044">
        <ele>31.327782</ele>
        <time>2019-07-30T16:52:33.988Z</time>
      </trkpt>
      <trkpt lat="49.826516" lon="1.247222">
        <ele>31.486704</ele>
        <time>2019-07-30T16:52:48.758Z</time>
      </trkpt>
      <trkpt lat="49.824326" lon="1.251111">
        <ele>32.666905</ele>
        <time>2019-07-30T16:53:42.866Z</time>
      </trkpt>
      <trkpt lat="49.820740" lon="1.255961">
        <ele>35.416765</ele>
        <time>2019-07-30T16:55:05.567Z</time>
      </trkpt>
      <trkpt lat="49.816582" lon="1.263537">
        <ele>36.869922</ele>
        <time>2019-07-30T16:56:45.971Z</time>
      </trkpt>
      <trkpt lat="49.816461" lon="1.263836">
        <ele>36.941589</ele>
        <time>2019-07-30T16:56:49.634Z</time>
      </trkpt>
      <trkpt lat="49.816096" lon="1.264901">
        <ele>37.186456</ele>
        <time>2019-07-30T16:57:02.214Z</time>
      </trkpt>
      <trkpt lat="49.815569" lon="1.267923">
        <ele>37.717721</ele>
        <time>2019-07-30T16:57:34.746Z</time>
      </trkpt>
      <trkpt lat="49.815340" lon="1.270273">
        <ele>37.815137</ele>
        <time>2019-07-30T16:57:57.609Z</time>
      </trkpt>
      <trkpt lat="49.815242" lon="1.271284">
        <ele>37.893338</ele>
        <time>2019-07-30T16:58:07.345Z</time>
      </trkpt>
      <trkpt lat="49.814469" lon="1.276450">
        <ele>38.919729</ele>
        <time>2019-07-30T16:59:02.244Z</time>
      </trkpt>
      <trkpt lat="49.812778" lon="1.281755">
        <ele>41.435463</ele>
        <time>2019-07-30T17:00:10.659Z</time>
      </trkpt>
      <trkpt lat="49.811086" lon="1.288583">
        <ele>41.999078</ele>
        <time>2019-07-30T17:01:21.740Z</time>
      </trkpt>
      <trkpt lat="49.809772" lon="1.291286">
        <ele>42.645708</ele>
        <time>2019-07-30T17:01:56.815Z</time>
      </trkpt>
      <trkpt lat="49.806096" lon="1.295115">
        <ele>44.747270</ele>
        <time>2019-07-30T17:03:11.837Z</time>
      </trkpt>
      <trkpt lat="49.804042" lon="1.298058">
        <ele>45.296134</ele>
        <time>2019-07-30T17:03:55.232Z</time>
      </trkpt>
      <trkpt lat="49.803191" lon="1.300045">
        <ele>45.067257</ele>
        <time>2019-07-30T17:04:16.676Z</time>
      </trkpt>
      <trkpt lat="49.802792" lon="1.301504">
        <ele>45.322495</ele>
        <time>2019-07-30T17:04:31.803Z</time>
      </trkpt>
      <trkpt lat="49.802121" lon="1.305232">
        <ele>46.693493</ele>
        <time>2019-07-30T17:05:16.003Z</time>
      </trkpt>
      <trkpt lat="49.802052" lon="1.305615">
        <ele>46.867050</ele>
        <time>2019-07-30T17:05:20.657Z</time>
      </trkpt>
      <trkpt lat="49.801840" lon="1.306883">
        <ele>47.141814</ele>
        <time>2019-07-30T17:05:34.979Z</time>
      </trkpt>
      <trkpt lat="49.801108" lon="1.309843">
        <ele>47.532613</ele>
        <time>2019-07-30T17:06:05.942Z</time>
      </trkpt>
      <trkpt lat="49.799554" lon="1.314266">
        <ele>48.058725</ele>
        <time>2019-07-30T17:06:55.794Z</time>
      </trkpt>
      <trkpt lat="49.797015" lon="1.317977">
        <ele>49.391344</ele>
        <time>2019-07-30T17:07:54.642Z</time>
      </trkpt>
      <trkpt lat="49.795996" lon="1.319832">
        <ele>49.478037</ele>
        <time>2019-07-30T17:08:17.985Z</time>
      </trkpt>
      <trkpt lat="49.795879" lon="1.320069">
        <ele>49.424052</ele>
        <time>2019-07-30T17:08:20.656Z</time>
      </trkpt>
      <trkpt lat="49.795284" lon="1.321224">
        <ele>49.156681</ele>
        <time>2019-07-30T17:08:33.336Z</time>
      </trkpt>
      <trkpt lat="49.795085" lon="1.321651">
        <ele>49.085087</ele>
        <time>2019-07-30T17:08:37.826Z</time>
      </trkpt>
      <trkpt lat="49.793061" lon="1.325790">
        <ele>49.794182</ele>
        <time>2019-07-30T17:09:29.868Z</time>
      </trkpt>
      <trkpt lat="49.791918" lon="1.328973">
        <ele>52.326803</ele>
        <time>2019-07-30T17:10:16.005Z</time>
      </trkpt>
      <trkpt lat="49.791547" lon="1.330232">
        <ele>53.426855</ele>
        <time>2019-07-30T17:10:34.245Z</time>
      </trkpt>
      <trkpt lat="49.791424" lon="1.330648">
        <ele>53.790549</ele>
        <time>2019-07-30T17:10:40.213Z</time>
      </trkpt>
      <trkpt lat="49.789941" lon="1.333734">
        <ele>56.207400</ele>
        <time>2019-07-30T17:11:26.443Z</time>
      </trkpt>
      <trkpt lat="49.787948" lon="1.337013">
        <ele>58.472906</ele>
        <time>2019-07-30T17:12:18.200Z</time>
      </trkpt>
      <trkpt lat="49.785507" lon="1.339525">
        <ele>61.173000</ele>
        <time>2019-07-30T17:13:12.845Z</time>
      </trkpt>
      <trkpt lat="49.782726" lon="1.343080">
        <ele>64.267822</ele>
        <time>2019-07-30T17:14:19.541Z</time>
      </trkpt>
      <trkpt lat="49.782414" lon="1.343466">
        <ele>64.530324</ele>
        <time>2019-07-30T17:14:26.445Z</time>
      </trkpt>
      <trkpt lat="49.782306" lon="1.343603">
        <ele>64.622093</ele>
        <time>2019-07-30T17:14:29.482Z</time>
      </trkpt>
      <trkpt lat="49.781847" lon="1.344197">
        <ele>64.841905</ele>
        <time>2019-07-30T17:14:42.401Z</time>
      </trkpt>
      <trkpt lat="49.781351" lon="1.344837">
        <ele>64.798000</ele>
        <time>2019-07-30T17:14:55.508Z</time>
      </trkpt>
      <trkpt lat="49.779512" lon="1.347278">
        <ele>64.409325</ele>
        <time>2019-07-30T17:15:42.081Z</time>
      </trkpt>
      <trkpt lat="49.775201" lon="1.356011">
        <ele>64.823813</ele>
        <time>2019-07-30T17:18:07.245Z</time>
      </trkpt>
      <trkpt lat="49.774872" lon="1.356824">
        <ele>65.059385</ele>
        <time>2019-07-30T17:18:21.092Z</time>
      </trkpt>
      <trkpt lat="49.774784" lon="1.357040">
        <ele>65.171243</ele>
        <time>2019-07-30T17:18:25.088Z</time>
      </trkpt>
      <trkpt lat="49.774182" lon="1.358548">
        <ele>65.947740</ele>
        <time>2019-07-30T17:18:51.726Z</time>
      </trkpt>
      <trkpt lat="49.773846" lon="1.359356">
        <ele>66.204373</ele>
        <time>2019-07-30T17:19:05.876Z</time>
      </trkpt>
      <trkpt lat="49.773486" lon="1.360223">
        <ele>66.355945</ele>
        <time>2019-07-30T17:19:20.235Z</time>
      </trkpt>
      <trkpt lat="49.772266" lon="1.363214">
        <ele>66.297735</ele>
        <time>2019-07-30T17:20:05.872Z</time>
      </trkpt>
      <trkpt lat="49.767407" lon="1.373086">
        <ele>63.238412</ele>
        <time>2019-07-30T17:22:37.272Z</time>
      </trkpt>
      <trkpt lat="49.767370" lon="1.373161">
        <ele>63.217336</ele>
        <time>2019-07-30T17:22:38.436Z</time>
      </trkpt>
      <trkpt lat="49.767322" lon="1.373258">
        <ele>63.190045</ele>
        <time>2019-07-30T17:22:40.036Z</time>
      </trkpt>
      <trkpt lat="49.765946" lon="1.375449">
        <ele>62.443592</ele>
        <time>2019-07-30T17:23:17.493Z</time>
      </trkpt>
      <trkpt lat="49.765554" lon="1.375878">
        <ele>62.241683</ele>
        <time>2019-07-30T17:23:26.475Z</time>
      </trkpt>
      <trkpt lat="49.765487" lon="1.375945">
        <ele>62.208136</ele>
        <time>2019-07-30T17:23:27.927Z</time>
      </trkpt>
      <trkpt lat="49.764252" lon="1.376832">
        <ele>61.742627</ele>
        <time>2019-07-30T17:23:53.370Z</time>
      </trkpt>
      <trkpt lat="49.763611" lon="1.377188">
        <ele>61.530842</ele>
        <time>2019-07-30T17:24:06.588Z</time>
      </trkpt>
      <trkpt lat="49.762898" lon="1.377569">
        <ele>61.484957</ele>
        <time>2019-07-30T17:24:21.466Z</time>
      </trkpt>
      <trkpt lat="49.761805" lon="1.378367">
        <ele>61.490129</ele>
        <time>2019-07-30T17:24:46.048Z</time>
      </trkpt>
      <trkpt lat="49.760739" lon="1.379574">
        <ele>62.016862</ele>
        <time>2019-07-30T17:25:14.824Z</time>
      </trkpt>
      <trkpt lat="49.760721" lon="1.379601">
        <ele>62.026858</ele>
        <time>2019-07-30T17:25:15.380Z</time>
      </trkpt>
      <trkpt lat="49.760689" lon="1.379651">
        <ele>62.044992</ele>
        <time>2019-07-30T17:25:16.355Z</time>
      </trkpt>
      <trkpt lat="49.760644" lon="1.379722">
        <ele>62.070618</ele>
        <time>2019-07-30T17:25:18.038Z</time>
      </trkpt>
      <trkpt lat="49.760184" lon="1.380476">
        <ele>62.429404</ele>
        <time>2019-07-30T17:25:33.017Z</time>
      </trkpt>
      <trkpt lat="49.760092" lon="1.380632">
        <ele>62.519488</ele>
        <time>2019-07-30T17:25:36.332Z</time>
      </trkpt>
      <trkpt lat="49.760049" lon="1.380718">
        <ele>62.565867</ele>
        <time>2019-07-30T17:25:37.847Z</time>
      </trkpt>
      <trkpt lat="49.759901" lon="1.381024">
        <ele>62.728892</ele>
        <time>2019-07-30T17:25:43.620Z</time>
      </trkpt>
      <trkpt lat="49.758881" lon="1.383480">
        <ele>64.150310</ele>
        <time>2019-07-30T17:26:26.941Z</time>
      </trkpt>
      <trkpt lat="49.758584" lon="1.384146">
        <ele>64.598769</ele>
        <time>2019-07-30T17:26:39.442Z</time>
      </trkpt>
      <trkpt lat="49.758421" lon="1.384486">
        <ele>64.833395</ele>
        <time>2019-07-30T17:26:46.163Z</time>
      </trkpt>
      <trkpt lat="49.757938" lon="1.385538">
        <ele>65.726717</ele>
        <time>2019-07-30T17:27:02.357Z</time>
      </trkpt>
      <trkpt lat="49.757657" lon="1.386138">
        <ele>66.255333</ele>
        <time>2019-07-30T17:27:11.656Z</time>
      </trkpt>
      <trkpt lat="49.757624" lon="1.386215">
        <ele>66.321245</ele>
        <time>2019-07-30T17:27:13.045Z</time>
      </trkpt>
      <trkpt lat="49.757574" lon="1.386300">
        <ele>66.403245</ele>
        <time>2019-07-30T17:27:14.364Z</time>
      </trkpt>
      <trkpt lat="49.754559" lon="1.392434">
        <ele>71.259672</ele>
        <time>2019-07-30T17:28:47.232Z</time>
      </trkpt>
      <trkpt lat="49.753811" lon="1.394908">
        <ele>73.075729</ele>
        <time>2019-07-30T17:29:21.172Z</time>
      </trkpt>
      <trkpt lat="49.752221" lon="1.402086">
        <ele>78.148810</ele>
        <time>2019-07-30T17:30:54.568Z</time>
      </trkpt>
      <trkpt lat="49.752194" lon="1.402200">
        <ele>78.218247</ele>
        <time>2019-07-30T17:30:56.219Z</time>
      </trkpt>
      <trkpt lat="49.752173" lon="1.402286">
        <ele>78.270825</ele>
        <time>2019-07-30T17:30:57.336Z</time>
      </trkpt>
      <trkpt lat="49.749970" lon="1.409202">
        <ele>82.313458</ele>
        <time>2019-07-30T17:32:28.315Z</time>
      </trkpt>
      <trkpt lat="49.747087" lon="1.413456">
        <ele>81.609946</ele>
        <time>2019-07-30T17:33:24.033Z</time>
      </trkpt>
      <trkpt lat="49.746824" lon="1.413865">
        <ele>81.468922</ele>
        <time>2019-07-30T17:33:29.107Z</time>
      </trkpt>
      <trkpt lat="49.745934" lon="1.415095">
        <ele>81.020073</ele>
        <time>2019-07-30T17:33:45.215Z</time>
      </trkpt>
      <trkpt lat="49.744326" lon="1.417481">
        <ele>80.447907</ele>
        <time>2019-07-30T17:34:15.513Z</time>
      </trkpt>
      <trkpt lat="49.741725" lon="1.422252">
        <ele>80.232826</ele>
        <time>2019-07-30T17:35:16.557Z</time>
      </trkpt>
      <trkpt lat="49.738607" lon="1.426992">
        <ele>78.155028</ele>
        <time>2019-07-30T17:36:14.117Z</time>
      </trkpt>
      <trkpt lat="49.738562" lon="1.427067">
        <ele>78.131091</ele>
        <time>2019-07-30T17:36:15.060Z</time>
      </trkpt>
      <trkpt lat="49.738517" lon="1.427152">
        <ele>78.105391</ele>
        <time>2019-07-30T17:36:16.055Z</time>
      </trkpt>
      <trkpt lat="49.738156" lon="1.427858">
        <ele>77.894822</ele>
        <time>2019-07-30T17:36:23.902Z</time>
      </trkpt>
      <trkpt lat="49.737965" lon="1.428313">
        <ele>77.767918</ele>
        <time>2019-07-30T17:36:28.717Z</time>
      </trkpt>
      <trkpt lat="49.737523" lon="1.429402">
        <ele>77.489676</ele>
        <time>2019-07-30T17:36:40.149Z</time>
      </trkpt>
      <trkpt lat="49.736603" lon="1.431526">
        <ele>77.090262</ele>
        <time>2019-07-30T17:37:03.030Z</time>
      </trkpt>
      <trkpt lat="49.736442" lon="1.431808">
        <ele>77.112759</ele>
        <time>2019-07-30T17:37:06.677Z</time>
      </trkpt>
      <trkpt lat="49.736268" lon="1.432128">
        <ele>77.137762</ele>
        <time>2019-07-30T17:37:10.791Z</time>
      </trkpt>
      <trkpt lat="49.735217" lon="1.433716">
        <ele>77.304177</ele>
        <time>2019-07-30T17:37:33.913Z</time>
      </trkpt>
      <trkpt lat="49.732990" lon="1.436237">
        <ele>77.935128</ele>
        <time>2019-07-30T17:38:17.184Z</time>
      </trkpt>
      <trkpt lat="49.732111" lon="1.436920">
        <ele>78.200514</ele>
        <time>2019-07-30T17:38:33.073Z</time>
      </trkpt>
      <trkpt lat="49.731770" lon="1.437078">
        <ele>78.308914</ele>
        <time>2019-07-30T17:38:38.611Z</time>
      </trkpt>
      <trkpt lat="49.731428" lon="1.437174">
        <ele>78.414762</ele>
        <time>2019-07-30T17:38:44.065Z</time>
      </trkpt>
      <trkpt lat="49.730589" lon="1.437223">
        <ele>78.721214</ele>
        <time>2019-07-30T17:38:57.479Z</time>
      </trkpt>
      <trkpt lat="49.730478" lon="1.437223">
        <ele>78.795278</ele>
        <time>2019-07-30T17:38:59.113Z</time>
      </trkpt>
      <trkpt lat="49.730385" lon="1.437213">
        <ele>78.857481</ele>
        <time>2019-07-30T17:39:00.708Z</time>
      </trkpt>
      <trkpt lat="49.727165" lon="1.436976">
        <ele>81.488690</ele>
        <time>2019-07-30T17:39:58.763Z</time>
      </trkpt>
      <trkpt lat="49.726845" lon="1.437041">
        <ele>81.979843</ele>
        <time>2019-07-30T17:40:05.961Z</time>
      </trkpt>
      <trkpt lat="49.726770" lon="1.437056">
        <ele>82.099353</ele>
        <time>2019-07-30T17:40:08.235Z</time>
      </trkpt>
      <trkpt lat="49.725903" lon="1.437491">
        <ele>83.539749</ele>
        <time>2019-07-30T17:40:27.692Z</time>
      </trkpt>
      <trkpt lat="49.725827" lon="1.437542">
        <ele>83.670667</ele>
        <time>2019-07-30T17:40:29.884Z</time>
      </trkpt>
      <trkpt lat="49.725764" lon="1.437595">
        <ele>83.783997</ele>
        <time>2019-07-30T17:40:31.939Z</time>
      </trkpt>
      <trkpt lat="49.724871" lon="1.438384">
        <ele>84.589932</ele>
        <time>2019-07-30T17:40:51.749Z</time>
      </trkpt>
      <trkpt lat="49.724002" lon="1.439786">
        <ele>84.941594</ele>
        <time>2019-07-30T17:41:09.744Z</time>
      </trkpt>
      <trkpt lat="49.722016" lon="1.446703">
        <ele>83.332508</ele>
        <time>2019-07-30T17:42:16.302Z</time>
      </trkpt>
      <trkpt lat="49.721551" lon="1.448418">
        <ele>83.408399</ele>
        <time>2019-07-30T17:42:34.116Z</time>
      </trkpt>
      <trkpt lat="49.721248" lon="1.449532">
        <ele>83.580206</ele>
        <time>2019-07-30T17:42:46.800Z</time>
      </trkpt>
      <trkpt lat="49.719812" lon="1.452850">
        <ele>85.522881</ele>
        <time>2019-07-30T17:43:33.004Z</time>
      </trkpt>
      <trkpt lat="49.716276" lon="1.457485">
        <ele>89.950886</ele>
        <time>2019-07-30T17:45:00.434Z</time>
      </trkpt>
      <trkpt lat="49.716224" lon="1.457589">
        <ele>90.029277</ele>
        <time>2019-07-30T17:45:01.944Z</time>
      </trkpt>
      <trkpt lat="49.716178" lon="1.457673">
        <ele>90.094915</ele>
        <time>2019-07-30T17:45:03.120Z</time>
      </trkpt>
      <trkpt lat="49.714290" lon="1.461709">
        <ele>92.203498</ele>
        <time>2019-07-30T17:45:59.436Z</time>
      </trkpt>
      <trkpt lat="49.713282" lon="1.463294">
        <ele>92.817071</ele>
        <time>2019-07-30T17:46:23.398Z</time>
      </trkpt>
      <trkpt lat="49.711630" lon="1.465093">
        <ele>93.288806</ele>
        <time>2019-07-30T17:46:55.197Z</time>
      </trkpt>
      <trkpt lat="49.708453" lon="1.467281">
        <ele>93.138803</ele>
        <time>2019-07-30T17:47:46.352Z</time>
      </trkpt>
      <trkpt lat="49.707369" lon="1.468825">
        <ele>92.803417</ele>
        <time>2019-07-30T17:48:06.446Z</time>
      </trkpt>
      <trkpt lat="49.706595" lon="1.471271">
        <ele>92.762210</ele>
        <time>2019-07-30T17:48:31.503Z</time>
      </trkpt>
      <trkpt lat="49.705302" lon="1.478006">
        <ele>94.426811</ele>
        <time>2019-07-30T17:49:46.733Z</time>
      </trkpt>
      <trkpt lat="49.705028" lon="1.478898">
        <ele>94.869737</ele>
        <time>2019-07-30T17:49:58.479Z</time>
      </trkpt>
      <trkpt lat="49.704421" lon="1.480579">
        <ele>95.756165</ele>
        <time>2019-07-30T17:50:21.002Z</time>
      </trkpt>
      <trkpt lat="49.701250" lon="1.489446">
        <ele>97.063198</ele>
        <time>2019-07-30T17:52:03.208Z</time>
      </trkpt>
      <trkpt lat="49.700018" lon="1.492050">
        <ele>97.291138</ele>
        <time>2019-07-30T17:52:34.958Z</time>
      </trkpt>
      <trkpt lat="49.699656" lon="1.492602">
        <ele>97.344889</ele>
        <time>2019-07-30T17:52:42.702Z</time>
      </trkpt>
      <trkpt lat="49.699589" lon="1.492682">
        <ele>97.356304</ele>
        <time>2019-07-30T17:52:44.431Z</time>
      </trkpt>
      <trkpt lat="49.699440" lon="1.492885">
        <ele>97.383083</ele>
        <time>2019-07-30T17:52:48.521Z</time>
      </trkpt>
      <trkpt lat="49.699230" lon="1.493209">
        <ele>97.423088</ele>
        <time>2019-07-30T17:52:54.603Z</time>
      </trkpt>
      <trkpt lat="49.698981" lon="1.493523">
        <ele>97.466416</ele>
        <time>2019-07-30T17:53:01.245Z</time>
      </trkpt>
      <trkpt lat="49.697784" lon="1.494676">
        <ele>97.876416</ele>
        <time>2019-07-30T17:53:31.114Z</time>
      </trkpt>
      <trkpt lat="49.697744" lon="1.494700">
        <ele>97.896003</ele>
        <time>2019-07-30T17:53:32.035Z</time>
      </trkpt>
      <trkpt lat="49.697560" lon="1.494850">
        <ele>97.990958</ele>
        <time>2019-07-30T17:53:36.592Z</time>
      </trkpt>
      <trkpt lat="49.696821" lon="1.495365">
        <ele>98.360991</ele>
        <time>2019-07-30T17:53:54.865Z</time>
      </trkpt>
      <trkpt lat="49.696743" lon="1.495419">
        <ele>98.412653</ele>
        <time>2019-07-30T17:53:56.811Z</time>
      </trkpt>
      <trkpt lat="49.695997" lon="1.495863">
        <ele>99.095501</ele>
        <time>2019-07-30T17:54:15.595Z</time>
      </trkpt>
      <trkpt lat="49.695899" lon="1.495921">
        <ele>99.185140</ele>
        <time>2019-07-30T17:54:18.235Z</time>
      </trkpt>
      <trkpt lat="49.694220" lon="1.496853">
        <ele>100.532414</ele>
        <time>2019-07-30T17:55:00.755Z</time>
      </trkpt>
      <trkpt lat="49.693371" lon="1.497323">
        <ele>101.112629</ele>
        <time>2019-07-30T17:55:20.872Z</time>
      </trkpt>
      <trkpt lat="49.692343" lon="1.498026">
        <ele>101.068088</ele>
        <time>2019-07-30T17:55:43.740Z</time>
      </trkpt>
      <trkpt lat="49.690503" lon="1.499539">
        <ele>100.773323</ele>
        <time>2019-07-30T17:56:23.317Z</time>
      </trkpt>
      <trkpt lat="49.690395" lon="1.499625">
        <ele>100.750535</ele>
        <time>2019-07-30T17:56:25.623Z</time>
      </trkpt>
      <trkpt lat="49.688708" lon="1.500878">
        <ele>101.644219</ele>
        <time>2019-07-30T17:57:07.043Z</time>
      </trkpt>
      <trkpt lat="49.686962" lon="1.501314">
        <ele>103.633900</ele>
        <time>2019-07-30T17:57:52.124Z</time>
      </trkpt>
      <trkpt lat="49.683386" lon="1.501105">
        <ele>107.194841</ele>
        <time>2019-07-30T17:59:19.465Z</time>
      </trkpt>
      <trkpt lat="49.681524" lon="1.501917">
        <ele>107.932352</ele>
        <time>2019-07-30T18:00:01.462Z</time>
      </trkpt>
      <trkpt lat="49.680604" lon="1.502787">
        <ele>107.741232</ele>
        <time>2019-07-30T18:00:22.048Z</time>
      </trkpt>
      <trkpt lat="49.679619" lon="1.504040">
        <ele>107.728590</ele>
        <time>2019-07-30T18:00:46.398Z</time>
      </trkpt>
      <trkpt lat="49.679380" lon="1.504343">
        <ele>107.834717</ele>
        <time>2019-07-30T18:00:52.664Z</time>
      </trkpt>
      <trkpt lat="49.678457" lon="1.505155">
        <ele>108.251297</ele>
        <time>2019-07-30T18:01:16.569Z</time>
      </trkpt>
      <trkpt lat="49.676649" lon="1.505933">
        <ele>111.064146</ele>
        <time>2019-07-30T18:02:06.618Z</time>
      </trkpt>
      <trkpt lat="49.675110" lon="1.506465">
        <ele>113.755026</ele>
        <time>2019-07-30T18:02:50.344Z</time>
      </trkpt>
      <trkpt lat="49.672017" lon="1.507529">
        <ele>116.276585</ele>
        <time>2019-07-30T18:04:06.544Z</time>
      </trkpt>
      <trkpt lat="49.670544" lon="1.508015">
        <ele>116.115129</ele>
        <time>2019-07-30T18:04:33.182Z</time>
      </trkpt>
      <trkpt lat="49.669508" lon="1.508130">
        <ele>116.087695</ele>
        <time>2019-07-30T18:04:53.957Z</time>
      </trkpt>
      <trkpt lat="49.669444" lon="1.508127">
        <ele>116.167512</ele>
        <time>2019-07-30T18:04:55.490Z</time>
      </trkpt>
      <trkpt lat="49.668695" lon="1.508045">
        <ele>117.103541</ele>
        <time>2019-07-30T18:05:13.813Z</time>
      </trkpt>
      <trkpt lat="49.665843" lon="1.507785">
        <ele>122.148144</ele>
        <time>2019-07-30T18:06:34.699Z</time>
      </trkpt>
      <trkpt lat="49.662688" lon="1.508415">
        <ele>127.084113</ele>
        <time>2019-07-30T18:07:59.184Z</time>
      </trkpt>
      <trkpt lat="49.662601" lon="1.508432">
        <ele>127.210651</ele>
        <time>2019-07-30T18:08:01.541Z</time>
      </trkpt>
      <trkpt lat="49.662537" lon="1.508444">
        <ele>127.280259</ele>
        <time>2019-07-30T18:08:03.024Z</time>
      </trkpt>
      <trkpt lat="49.659828" lon="1.508975">
        <ele>129.462701</ele>
        <time>2019-07-30T18:09:04.067Z</time>
      </trkpt>
      <trkpt lat="49.659730" lon="1.508991">
        <ele>129.564205</ele>
        <time>2019-07-30T18:09:06.480Z</time>
      </trkpt>
      <trkpt lat="49.657690" lon="1.509406">
        <ele>132.589000</ele>
        <time>2019-07-30T18:09:50.921Z</time>
      </trkpt>
      <trkpt lat="49.656872" lon="1.509674">
        <ele>133.958811</ele>
        <time>2019-07-30T18:10:09.640Z</time>
      </trkpt>
      <trkpt lat="49.656586" lon="1.509781">
        <ele>134.410233</ele>
        <time>2019-07-30T18:10:16.026Z</time>
      </trkpt>
      <trkpt lat="49.656232" lon="1.509914">
        <ele>134.969118</ele>
        <time>2019-07-30T18:10:23.720Z</time>
      </trkpt>
      <trkpt lat="49.654001" lon="1.511650">
        <ele>138.245985</ele>
        <time>2019-07-30T18:11:13.122Z</time>
      </trkpt>
      <trkpt lat="49.650737" lon="1.515669">
        <ele>142.326246</ele>
        <time>2019-07-30T18:12:32.184Z</time>
      </trkpt>
      <trkpt lat="49.650674" lon="1.515745">
        <ele>142.366107</ele>
        <time>2019-07-30T18:12:33.737Z</time>
      </trkpt>
      <trkpt lat="49.650629" lon="1.515808">
        <ele>142.396392</ele>
        <time>2019-07-30T18:12:35.180Z</time>
      </trkpt>
      <trkpt lat="49.649302" lon="1.518010">
        <ele>142.810537</ele>
        <time>2019-07-30T18:13:05.385Z</time>
      </trkpt>
      <trkpt lat="49.648382" lon="1.520375">
        <ele>142.838513</ele>
        <time>2019-07-30T18:13:29.005Z</time>
      </trkpt>
      <trkpt lat="49.647781" lon="1.522888">
        <ele>144.440453</ele>
        <time>2019-07-30T18:14:01.389Z</time>
      </trkpt>
      <trkpt lat="49.647358" lon="1.526442">
        <ele>149.408589</ele>
        <time>2019-07-30T18:14:58.393Z</time>
      </trkpt>
      <trkpt lat="49.647344" lon="1.526571">
        <ele>149.611875</ele>
        <time>2019-07-30T18:15:00.689Z</time>
      </trkpt>
      <trkpt lat="49.647331" lon="1.526693">
        <ele>149.804037</ele>
        <time>2019-07-30T18:15:03.002Z</time>
      </trkpt>
      <trkpt lat="49.646840" lon="1.529615">
        <ele>154.005267</ele>
        <time>2019-07-30T18:15:49.574Z</time>
      </trkpt>
      <trkpt lat="49.645792" lon="1.532347">
        <ele>157.005562</ele>
        <time>2019-07-30T18:16:31.072Z</time>
      </trkpt>
      <trkpt lat="49.645743" lon="1.532436">
        <ele>157.099362</ele>
        <time>2019-07-30T18:16:32.528Z</time>
      </trkpt>
      <trkpt lat="49.645718" lon="1.532481">
        <ele>157.146970</ele>
        <time>2019-07-30T18:16:33.404Z</time>
      </trkpt>
      <trkpt lat="49.642390" lon="1.537138">
        <ele>162.880837</ele>
        <time>2019-07-30T18:18:02.288Z</time>
      </trkpt>
      <trkpt lat="49.642318" lon="1.537233">
        <ele>163.013350</ele>
        <time>2019-07-30T18:18:04.576Z</time>
      </trkpt>
      <trkpt lat="49.642226" lon="1.537359">
        <ele>163.185416</ele>
        <time>2019-07-30T18:18:07.073Z</time>
      </trkpt>
      <trkpt lat="49.642158" lon="1.537452">
        <ele>163.312517</ele>
        <time>2019-07-30T18:18:08.958Z</time>
      </trkpt>
      <trkpt lat="49.641668" lon="1.538120">
        <ele>164.197570</ele>
        <time>2019-07-30T18:18:22.968Z</time>
      </trkpt>
      <trkpt lat="49.641386" lon="1.538504">
        <ele>164.667920</ele>
        <time>2019-07-30T18:18:31.013Z</time>
      </trkpt>
      <trkpt lat="49.638865" lon="1.541787">
        <ele>167.922787</ele>
        <time>2019-07-30T18:19:33.952Z</time>
      </trkpt>
      <trkpt lat="49.637242" lon="1.542660">
        <ele>167.512303</ele>
        <time>2019-07-30T18:19:57.249Z</time>
      </trkpt>
      <trkpt lat="49.637101" lon="1.542675">
        <ele>167.344040</ele>
        <time>2019-07-30T18:19:58.961Z</time>
      </trkpt>
      <trkpt lat="49.636970" lon="1.542645">
        <ele>167.186374</ele>
        <time>2019-07-30T18:20:01.213Z</time>
      </trkpt>
      <trkpt lat="49.634986" lon="1.541547">
        <ele>164.643301</ele>
        <time>2019-07-30T18:20:36.206Z</time>
      </trkpt>
      <trkpt lat="49.634933" lon="1.541626">
        <ele>164.552388</ele>
        <time>2019-07-30T18:20:37.377Z</time>
      </trkpt>
      <trkpt lat="49.634860" lon="1.541987">
        <ele>164.250113</ele>
        <time>2019-07-30T18:20:41.600Z</time>
      </trkpt>
      <trkpt lat="49.634812" lon="1.542129">
        <ele>164.122087</ele>
        <time>2019-07-30T18:20:42.794Z</time>
      </trkpt>
      <trkpt lat="49.634722" lon="1.542173">
        <ele>164.005583</ele>
        <time>2019-07-30T18:20:44.403Z</time>
      </trkpt>
      <trkpt lat="49.632983" lon="1.542224">
        <ele>162.560393</ele>
        <time>2019-07-30T18:21:15.125Z</time>
      </trkpt>
      <trkpt lat="49.630991" lon="1.541230">
        <ele>162.210245</ele>
        <time>2019-07-30T18:21:55.447Z</time>
      </trkpt>
      <trkpt lat="49.630456" lon="1.541569">
        <ele>162.764861</ele>
        <time>2019-07-30T18:22:09.150Z</time>
      </trkpt>
      <trkpt lat="49.630354" lon="1.541634">
        <ele>162.960528</ele>
        <time>2019-07-30T18:22:11.958Z</time>
      </trkpt>
      <trkpt lat="49.630343" lon="1.542238">
        <ele>163.654511</ele>
        <time>2019-07-30T18:22:22.723Z</time>
      </trkpt>
      <trkpt lat="49.630336" lon="1.542317">
        <ele>163.746090</ele>
        <time>2019-07-30T18:22:24.123Z</time>
      </trkpt>
      <trkpt lat="49.629055" lon="1.541717">
        <ele>166.286804</ele>
        <time>2019-07-30T18:22:56.555Z</time>
      </trkpt>
      <trkpt lat="49.628982" lon="1.541655">
        <ele>166.469013</ele>
        <time>2019-07-30T18:22:58.696Z</time>
      </trkpt>
      <trkpt lat="49.628680" lon="1.541275">
        <ele>167.321044</ele>
        <time>2019-07-30T18:23:08.544Z</time>
      </trkpt>
      <trkpt lat="49.628569" lon="1.541129">
        <ele>167.639950</ele>
        <time>2019-07-30T18:23:12.086Z</time>
      </trkpt>
      <trkpt lat="49.627881" lon="1.540221">
        <ele>169.414895</ele>
        <time>2019-07-30T18:23:33.197Z</time>
      </trkpt>
      <trkpt lat="49.627551" lon="1.539779">
        <ele>169.677251</ele>
        <time>2019-07-30T18:23:41.315Z</time>
      </trkpt>
      <trkpt lat="49.627482" lon="1.539668">
        <ele>169.737093</ele>
        <time>2019-07-30T18:23:43.161Z</time>
      </trkpt>
      <trkpt lat="49.627456" lon="1.539598">
        <ele>169.768481</ele>
        <time>2019-07-30T18:23:44.088Z</time>
      </trkpt>
      <trkpt lat="49.627366" lon="1.539290">
        <ele>169.899914</ele>
        <time>2019-07-30T18:23:47.787Z</time>
      </trkpt>
      <trkpt lat="49.627328" lon="1.539196">
        <ele>169.943015</ele>
        <time>2019-07-30T18:23:49.056Z</time>
      </trkpt>
      <trkpt lat="49.627288" lon="1.539100">
        <ele>169.987416</ele>
        <time>2019-07-30T18:23:50.327Z</time>
      </trkpt>
      <trkpt lat="49.627228" lon="1.539129">
        <ele>170.025172</ele>
        <time>2019-07-30T18:23:51.807Z</time>
      </trkpt>
      <trkpt lat="49.626960" lon="1.538677">
        <ele>170.263529</ele>
        <time>2019-07-30T18:24:00.278Z</time>
      </trkpt>
      <trkpt lat="49.625183" lon="1.538388">
        <ele>169.197944</ele>
        <time>2019-07-30T18:24:32.449Z</time>
      </trkpt>
      <trkpt lat="49.624816" lon="1.538827">
        <ele>168.752321</ele>
        <time>2019-07-30T18:24:40.005Z</time>
      </trkpt>
      <trkpt lat="49.623734" lon="1.539178">
        <ele>167.444600</ele>
        <time>2019-07-30T18:24:58.609Z</time>
      </trkpt>
      <trkpt lat="49.623683" lon="1.539110">
        <ele>167.364892</ele>
        <time>2019-07-30T18:24:59.687Z</time>
      </trkpt>
      <trkpt lat="49.623683" lon="1.539109">
        <ele>167.364126</ele>
        <time>2019-07-30T18:24:59.697Z</time>
      </trkpt>
      <trkpt lat="49.623597" lon="1.538911">
        <ele>167.181471</ele>
        <time>2019-07-30T18:25:02.632Z</time>
      </trkpt>
      <trkpt lat="49.623350" lon="1.538360">
        <ele>166.723332</ele>
        <time>2019-07-30T18:25:10.323Z</time>
      </trkpt>
      <trkpt lat="49.623209" lon="1.537998">
        <ele>166.494526</ele>
        <time>2019-07-30T18:25:15.257Z</time>
      </trkpt>
      <trkpt lat="49.622840" lon="1.537142">
        <ele>165.937563</ele>
        <time>2019-07-30T18:25:27.063Z</time>
      </trkpt>
      <trkpt lat="49.622380" lon="1.537045">
        <ele>165.549348</ele>
        <time>2019-07-30T18:25:35.570Z</time>
      </trkpt>
      <trkpt lat="49.622714" lon="1.536835">
        <ele>165.248577</ele>
        <time>2019-07-30T18:25:41.949Z</time>
      </trkpt>
      <trkpt lat="49.623047" lon="1.536724">
        <ele>164.965860</ele>
        <time>2019-07-30T18:25:47.794Z</time>
      </trkpt>
      <trkpt lat="49.622801" lon="1.536513">
        <ele>164.732314</ele>
        <time>2019-07-30T18:25:52.523Z</time>
      </trkpt>
      <trkpt lat="49.619805" lon="1.534002">
        <ele>162.772887</ele>
        <time>2019-07-30T18:26:54.062Z</time>
      </trkpt>
      <trkpt lat="49.617419" lon="1.532548">
        <ele>163.248871</ele>
        <time>2019-07-30T18:27:53.287Z</time>
      </trkpt>
      <trkpt lat="49.617301" lon="1.532528">
        <ele>163.264923</ele>
        <time>2019-07-30T18:27:55.354Z</time>
      </trkpt>
      <trkpt lat="49.616942" lon="1.532421">
        <ele>163.290254</ele>
        <time>2019-07-30T18:28:02.081Z</time>
      </trkpt>
      <trkpt lat="49.614798" lon="1.532449">
        <ele>158.745319</ele>
        <time>2019-07-30T18:28:35.619Z</time>
      </trkpt>
      <trkpt lat="49.613869" lon="1.532685">
        <ele>155.850670</ele>
        <time>2019-07-30T18:28:49.196Z</time>
      </trkpt>
      <trkpt lat="49.613019" lon="1.533117">
        <ele>153.308464</ele>
        <time>2019-07-30T18:29:02.135Z</time>
      </trkpt>
      <trkpt lat="49.613018" lon="1.533118">
        <ele>153.305432</ele>
        <time>2019-07-30T18:29:02.160Z</time>
      </trkpt>
      <trkpt lat="49.612396" lon="1.533433">
        <ele>151.639540</ele>
        <time>2019-07-30T18:29:11.901Z</time>
      </trkpt>
      <trkpt lat="49.612422" lon="1.533634">
        <ele>151.301571</ele>
        <time>2019-07-30T18:29:15.767Z</time>
      </trkpt>
      <trkpt lat="49.612478" lon="1.533816">
        <ele>150.969354</ele>
        <time>2019-07-30T18:29:19.978Z</time>
      </trkpt>
      <trkpt lat="49.612167" lon="1.533854">
        <ele>150.175452</ele>
        <time>2019-07-30T18:29:24.836Z</time>
      </trkpt>
      <trkpt lat="49.611986" lon="1.534642">
        <ele>150.082758</ele>
        <time>2019-07-30T18:29:34.268Z</time>
      </trkpt>
      <trkpt lat="49.611980" lon="1.534792">
        <ele>150.174192</ele>
        <time>2019-07-30T18:29:36.164Z</time>
      </trkpt>
      <trkpt lat="49.612084" lon="1.535639">
        <ele>150.698679</ele>
        <time>2019-07-30T18:29:49.489Z</time>
      </trkpt>
      <trkpt lat="49.612225" lon="1.536692">
        <ele>151.352862</ele>
        <time>2019-07-30T18:30:08.799Z</time>
      </trkpt>
      <trkpt lat="49.612566" lon="1.538379">
        <ele>154.519005</ele>
        <time>2019-07-30T18:30:48.692Z</time>
      </trkpt>
      <trkpt lat="49.612967" lon="1.540371">
        <ele>157.102492</ele>
        <time>2019-07-30T18:31:28.425Z</time>
      </trkpt>
      <trkpt lat="49.612773" lon="1.540471">
        <ele>157.256541</ele>
        <time>2019-07-30T18:31:32.195Z</time>
      </trkpt>
      <trkpt lat="49.612667" lon="1.540525">
        <ele>157.340614</ele>
        <time>2019-07-30T18:31:33.816Z</time>
      </trkpt>
      <trkpt lat="49.612042" lon="1.540833">
        <ele>157.834759</ele>
        <time>2019-07-30T18:31:43.605Z</time>
      </trkpt>
      <trkpt lat="49.611992" lon="1.540857">
        <ele>157.874197</ele>
        <time>2019-07-30T18:31:44.177Z</time>
      </trkpt>
      <trkpt lat="49.611284" lon="1.541171">
        <ele>157.966531</ele>
        <time>2019-07-30T18:31:53.449Z</time>
      </trkpt>
      <trkpt lat="49.611186" lon="1.541214">
        <ele>157.962548</ele>
        <time>2019-07-30T18:31:54.624Z</time>
      </trkpt>
      <trkpt lat="49.611218" lon="1.541356">
        <ele>157.958739</ele>
        <time>2019-07-30T18:31:56.272Z</time>
      </trkpt>
      <trkpt lat="49.611354" lon="1.541814">
        <ele>157.945976</ele>
        <time>2019-07-30T18:32:00.667Z</time>
      </trkpt>
      <trkpt lat="49.611377" lon="1.541900">
        <ele>157.943619</ele>
        <time>2019-07-30T18:32:02.004Z</time>
      </trkpt>
      <trkpt lat="49.611650" lon="1.542886">
        <ele>158.016787</ele>
        <time>2019-07-30T18:32:13.359Z</time>
      </trkpt>
      <trkpt lat="49.611675" lon="1.542980">
        <ele>158.114409</ele>
        <time>2019-07-30T18:32:14.987Z</time>
      </trkpt>
      <trkpt lat="49.611718" lon="1.543160">
        <ele>158.298722</ele>
        <time>2019-07-30T18:32:17.338Z</time>
      </trkpt>
      <trkpt lat="49.611722" lon="1.543189">
        <ele>158.327208</ele>
        <time>2019-07-30T18:32:17.730Z</time>
      </trkpt>
      <trkpt lat="49.611746" lon="1.543371">
        <ele>158.505648</ele>
        <time>2019-07-30T18:32:20.156Z</time>
      </trkpt>
      <trkpt lat="49.611768" lon="1.543516">
        <ele>158.648725</ele>
        <time>2019-07-30T18:32:22.683Z</time>
      </trkpt>
      <trkpt lat="49.612234" lon="1.544906">
        <ele>160.152316</ele>
        <time>2019-07-30T18:32:44.990Z</time>
      </trkpt>
      <trkpt lat="49.612348" lon="1.545102">
        <ele>160.405357</ele>
        <time>2019-07-30T18:32:48.670Z</time>
      </trkpt>
      <trkpt lat="49.612417" lon="1.545204">
        <ele>160.547025</ele>
        <time>2019-07-30T18:32:50.804Z</time>
      </trkpt>
      <trkpt lat="49.612768" lon="1.545570">
        <ele>160.665791</ele>
        <time>2019-07-30T18:32:58.891Z</time>
      </trkpt>
      <trkpt lat="49.612850" lon="1.545727">
        <ele>160.692056</ele>
        <time>2019-07-30T18:33:01.372Z</time>
      </trkpt>
      <trkpt lat="49.612884" lon="1.545883">
        <ele>160.713492</ele>
        <time>2019-07-30T18:33:03.359Z</time>
      </trkpt>
      <trkpt lat="49.612887" lon="1.545982">
        <ele>160.726401</ele>
        <time>2019-07-30T18:33:04.619Z</time>
      </trkpt>
      <trkpt lat="49.612871" lon="1.546098">
        <ele>160.741847</ele>
        <time>2019-07-30T18:33:05.581Z</time>
      </trkpt>
      <trkpt lat="49.612726" lon="1.546649">
        <ele>160.819305</ele>
        <time>2019-07-30T18:33:11.899Z</time>
      </trkpt>
      <trkpt lat="49.612681" lon="1.546842">
        <ele>160.846020</ele>
        <time>2019-07-30T18:33:13.922Z</time>
      </trkpt>
      <trkpt lat="49.612707" lon="1.546891">
        <ele>160.854269</ele>
        <time>2019-07-30T18:33:14.695Z</time>
      </trkpt>
      <trkpt lat="49.612761" lon="1.547014">
        <ele>160.873620</ele>
        <time>2019-07-30T18:33:16.189Z</time>
      </trkpt>
      <trkpt lat="49.612966" lon="1.547445">
        <ele>160.943256</ele>
        <time>2019-07-30T18:33:20.483Z</time>
      </trkpt>
      <trkpt lat="49.613501" lon="1.548697">
        <ele>158.958714</ele>
        <time>2019-07-30T18:33:31.173Z</time>
      </trkpt>
      <trkpt lat="49.613543" lon="1.548783">
        <ele>158.812769</ele>
        <time>2019-07-30T18:33:31.954Z</time>
      </trkpt>
      <trkpt lat="49.613803" lon="1.549417">
        <ele>157.795940</ele>
        <time>2019-07-30T18:33:37.123Z</time>
      </trkpt>
      <trkpt lat="49.613952" lon="1.549889">
        <ele>157.061766</ele>
        <time>2019-07-30T18:33:40.669Z</time>
      </trkpt>
      <trkpt lat="49.614178" lon="1.550602">
        <ele>155.745122</ele>
        <time>2019-07-30T18:33:45.962Z</time>
      </trkpt>
      <trkpt lat="49.614410" lon="1.551377">
        <ele>154.329004</ele>
        <time>2019-07-30T18:33:51.743Z</time>
      </trkpt>
      <trkpt lat="49.614607" lon="1.552021">
        <ele>153.147693</ele>
        <time>2019-07-30T18:33:56.734Z</time>
      </trkpt>
      <trkpt lat="49.614625" lon="1.552081">
        <ele>153.038017</ele>
        <time>2019-07-30T18:33:57.212Z</time>
      </trkpt>
      <trkpt lat="49.614673" lon="1.552237">
        <ele>152.751555</ele>
        <time>2019-07-30T18:33:58.378Z</time>
      </trkpt>
      <trkpt lat="49.614812" lon="1.552692">
        <ele>152.070961</ele>
        <time>2019-07-30T18:34:01.935Z</time>
      </trkpt>
      <trkpt lat="49.614732" lon="1.552837">
        <ele>151.828278</ele>
        <time>2019-07-30T18:34:03.903Z</time>
      </trkpt>
      <trkpt lat="49.614472" lon="1.553377">
        <ele>150.970972</ele>
        <time>2019-07-30T18:34:10.819Z</time>
      </trkpt>
      <trkpt lat="49.614396" lon="1.553587">
        <ele>150.664457</ele>
        <time>2019-07-30T18:34:13.258Z</time>
      </trkpt>
      <trkpt lat="49.614340" lon="1.553747">
        <ele>150.432725</ele>
        <time>2019-07-30T18:34:15.160Z</time>
      </trkpt>
      <trkpt lat="49.614320" lon="1.553798">
        <ele>150.356760</ele>
        <time>2019-07-30T18:34:15.797Z</time>
      </trkpt>
      <trkpt lat="49.614118" lon="1.554264">
        <ele>149.642301</ele>
        <time>2019-07-30T18:34:21.638Z</time>
      </trkpt>
      <trkpt lat="49.613098" lon="1.556534">
        <ele>146.597149</ele>
        <time>2019-07-30T18:34:50.229Z</time>
      </trkpt>
      <trkpt lat="49.612896" lon="1.556872">
        <ele>146.106476</ele>
        <time>2019-07-30T18:34:55.249Z</time>
      </trkpt>
      <trkpt lat="49.612806" lon="1.557023">
        <ele>146.092101</ele>
        <time>2019-07-30T18:34:57.478Z</time>
      </trkpt>
      <trkpt lat="49.612285" lon="1.557884">
        <ele>146.162803</ele>
        <time>2019-07-30T18:35:11.456Z</time>
      </trkpt>
      <trkpt lat="49.610923" lon="1.560214">
        <ele>147.583962</ele>
        <time>2019-07-30T18:36:01.064Z</time>
      </trkpt>
      <trkpt lat="49.610627" lon="1.560797">
        <ele>148.158760</ele>
        <time>2019-07-30T18:36:14.225Z</time>
      </trkpt>
      <trkpt lat="49.610454" lon="1.561952">
        <ele>148.801620</ele>
        <time>2019-07-30T18:36:33.069Z</time>
      </trkpt>
      <trkpt lat="49.610415" lon="1.562939">
        <ele>149.254758</ele>
        <time>2019-07-30T18:36:48.141Z</time>
      </trkpt>
      <trkpt lat="49.610428" lon="1.563657">
        <ele>149.583915</ele>
        <time>2019-07-30T18:36:58.109Z</time>
      </trkpt>
      <trkpt lat="49.610379" lon="1.563757">
        <ele>149.641367</ele>
        <time>2019-07-30T18:37:00.027Z</time>
      </trkpt>
      <trkpt lat="49.610164" lon="1.563978">
        <ele>149.645481</ele>
        <time>2019-07-30T18:37:05.284Z</time>
      </trkpt>
      <trkpt lat="49.609579" lon="1.568547">
        <ele>148.962758</ele>
        <time>2019-07-30T18:38:04.027Z</time>
      </trkpt>
      <trkpt lat="49.608836" lon="1.571312">
        <ele>147.967578</ele>
        <time>2019-07-30T18:38:39.451Z</time>
      </trkpt>
      <trkpt lat="49.608744" lon="1.571381">
        <ele>147.910671</ele>
        <time>2019-07-30T18:38:41.213Z</time>
      </trkpt>
      <trkpt lat="49.608687" lon="1.571224">
        <ele>147.845793</ele>
        <time>2019-07-30T18:38:42.879Z</time>
      </trkpt>
      <trkpt lat="49.608627" lon="1.571045">
        <ele>147.838950</ele>
        <time>2019-07-30T18:38:44.635Z</time>
      </trkpt>
      <trkpt lat="49.608620" lon="1.570925">
        <ele>147.837193</ele>
        <time>2019-07-30T18:38:45.674Z</time>
      </trkpt>
      <trkpt lat="49.608552" lon="1.570928">
        <ele>147.835662</ele>
        <time>2019-07-30T18:38:46.854Z</time>
      </trkpt>
      <trkpt lat="49.607510" lon="1.572648">
        <ele>147.801327</ele>
        <time>2019-07-30T18:39:18.025Z</time>
      </trkpt>
      <trkpt lat="49.606387" lon="1.576167">
        <ele>148.624942</ele>
        <time>2019-07-30T18:40:14.606Z</time>
      </trkpt>
      <trkpt lat="49.604882" lon="1.578313">
        <ele>147.718035</ele>
        <time>2019-07-30T18:40:53.836Z</time>
      </trkpt>
      <trkpt lat="49.602911" lon="1.580344">
        <ele>144.564666</ele>
        <time>2019-07-30T18:41:32.350Z</time>
      </trkpt>
      <trkpt lat="49.601685" lon="1.581195">
        <ele>143.670876</ele>
        <time>2019-07-30T18:41:55.422Z</time>
      </trkpt>
      <trkpt lat="49.601210" lon="1.581326">
        <ele>143.440190</ele>
        <time>2019-07-30T18:42:05.077Z</time>
      </trkpt>
      <trkpt lat="49.601209" lon="1.581327">
        <ele>143.439620</ele>
        <time>2019-07-30T18:42:05.104Z</time>
      </trkpt>
      <trkpt lat="49.600116" lon="1.580976">
        <ele>144.635964</ele>
        <time>2019-07-30T18:42:33.022Z</time>
      </trkpt>
      <trkpt lat="49.599762" lon="1.581197">
        <ele>145.180236</ele>
        <time>2019-07-30T18:42:43.589Z</time>
      </trkpt>
      <trkpt lat="49.599427" lon="1.581626">
        <ele>145.800723</ele>
        <time>2019-07-30T18:42:55.809Z</time>
      </trkpt>
      <trkpt lat="49.599064" lon="1.582060">
        <ele>146.414736</ele>
        <time>2019-07-30T18:43:08.481Z</time>
      </trkpt>
      <trkpt lat="49.597377" lon="1.584724">
        <ele>149.145375</ele>
        <time>2019-07-30T18:44:08.250Z</time>
      </trkpt>
      <trkpt lat="49.597234" lon="1.585332">
        <ele>149.507751</ele>
        <time>2019-07-30T18:44:17.928Z</time>
      </trkpt>
      <trkpt lat="49.596692" lon="1.585946">
        <ele>149.804126</ele>
        <time>2019-07-30T18:44:32.854Z</time>
      </trkpt>
      <trkpt lat="49.596456" lon="1.586136">
        <ele>149.777295</ele>
        <time>2019-07-30T18:44:38.586Z</time>
      </trkpt>
      <trkpt lat="49.596852" lon="1.586631">
        <ele>149.725923</ele>
        <time>2019-07-30T18:44:46.484Z</time>
      </trkpt>
      <trkpt lat="49.598697" lon="1.589063">
        <ele>147.794656</ele>
        <time>2019-07-30T18:45:17.520Z</time>
      </trkpt>
      <trkpt lat="49.600155" lon="1.590426">
        <ele>143.229720</ele>
        <time>2019-07-30T18:45:34.913Z</time>
      </trkpt>
      <trkpt lat="49.600244" lon="1.591150">
        <ele>142.182032</ele>
        <time>2019-07-30T18:45:39.890Z</time>
      </trkpt>
      <trkpt lat="49.600314" lon="1.591512">
        <ele>141.742087</ele>
        <time>2019-07-30T18:45:42.408Z</time>
      </trkpt>
      <trkpt lat="49.600414" lon="1.591685">
        <ele>141.472125</ele>
        <time>2019-07-30T18:45:44.109Z</time>
      </trkpt>
      <trkpt lat="49.600516" lon="1.591768">
        <ele>141.264916</ele>
        <time>2019-07-30T18:45:45.304Z</time>
      </trkpt>
      <trkpt lat="49.600855" lon="1.591886">
        <ele>140.640465</ele>
        <time>2019-07-30T18:45:49.276Z</time>
      </trkpt>
      <trkpt lat="49.600921" lon="1.591907">
        <ele>140.519376</ele>
        <time>2019-07-30T18:45:50.058Z</time>
      </trkpt>
      <trkpt lat="49.601294" lon="1.592072">
        <ele>139.822138</ele>
        <time>2019-07-30T18:45:54.659Z</time>
      </trkpt>
      <trkpt lat="49.601603" lon="1.592949">
        <ele>139.488782</ele>
        <time>2019-07-30T18:46:03.107Z</time>
      </trkpt>
      <trkpt lat="49.601611" lon="1.593127">
        <ele>139.496105</ele>
        <time>2019-07-30T18:46:05.334Z</time>
      </trkpt>
      <trkpt lat="49.601563" lon="1.593594">
        <ele>139.515511</ele>
        <time>2019-07-30T18:46:10.250Z</time>
      </trkpt>
      <trkpt lat="49.601455" lon="1.594606">
        <ele>139.557604</ele>
        <time>2019-07-30T18:46:20.769Z</time>
      </trkpt>
      <trkpt lat="49.601367" lon="1.595615">
        <ele>140.025349</ele>
        <time>2019-07-30T18:46:31.692Z</time>
      </trkpt>
      <trkpt lat="49.601356" lon="1.595840">
        <ele>140.192830</ele>
        <time>2019-07-30T18:46:34.136Z</time>
      </trkpt>
      <trkpt lat="49.601421" lon="1.596429">
        <ele>140.636309</ele>
        <time>2019-07-30T18:46:41.447Z</time>
      </trkpt>
      <trkpt lat="49.601535" lon="1.596749">
        <ele>140.907348</ele>
        <time>2019-07-30T18:46:46.307Z</time>
      </trkpt>
      <trkpt lat="49.601692" lon="1.597181">
        <ele>141.274973</ele>
        <time>2019-07-30T18:46:53.117Z</time>
      </trkpt>
      <trkpt lat="49.601740" lon="1.597293">
        <ele>141.374637</ele>
        <time>2019-07-30T18:46:54.814Z</time>
      </trkpt>
      <trkpt lat="49.601887" lon="1.597720">
        <ele>141.775508</ele>
        <time>2019-07-30T18:47:01.970Z</time>
      </trkpt>
      <trkpt lat="49.601962" lon="1.598695">
        <ele>142.813007</ele>
        <time>2019-07-30T18:47:17.144Z</time>
      </trkpt>
      <trkpt lat="49.600884" lon="1.601654">
        <ele>145.046727</ele>
        <time>2019-07-30T18:48:01.609Z</time>
      </trkpt>
      <trkpt lat="49.600698" lon="1.603502">
        <ele>145.224618</ele>
        <time>2019-07-30T18:48:16.411Z</time>
      </trkpt>
      <trkpt lat="49.600673" lon="1.604100">
        <ele>145.145202</ele>
        <time>2019-07-30T18:48:20.984Z</time>
      </trkpt>
      <trkpt lat="49.600672" lon="1.604141">
        <ele>145.139765</ele>
        <time>2019-07-30T18:48:21.303Z</time>
      </trkpt>
      <trkpt lat="49.599632" lon="1.608564">
        <ele>147.798951</ele>
        <time>2019-07-30T18:49:16.480Z</time>
      </trkpt>
      <trkpt lat="49.599631" lon="1.608791">
        <ele>148.239151</ele>
        <time>2019-07-30T18:49:21.053Z</time>
      </trkpt>
      <trkpt lat="49.599678" lon="1.609003">
        <ele>148.673640</ele>
        <time>2019-07-30T18:49:25.114Z</time>
      </trkpt>
      <trkpt lat="49.599769" lon="1.609427">
        <ele>149.539752</ele>
        <time>2019-07-30T18:49:33.692Z</time>
      </trkpt>
      <trkpt lat="49.599763" lon="1.609744">
        <ele>150.154728</ele>
        <time>2019-07-30T18:49:39.604Z</time>
      </trkpt>
      <trkpt lat="49.599761" lon="1.609858">
        <ele>150.375873</ele>
        <time>2019-07-30T18:49:42.493Z</time>
      </trkpt>
      <trkpt lat="49.599394" lon="1.612826">
        <ele>156.030960</ele>
        <time>2019-07-30T18:50:40.644Z</time>
      </trkpt>
      <trkpt lat="49.599173" lon="1.617125">
        <ele>156.656569</ele>
        <time>2019-07-30T18:51:24.110Z</time>
      </trkpt>
      <trkpt lat="49.599200" lon="1.617404">
        <ele>156.368767</ele>
        <time>2019-07-30T18:51:26.080Z</time>
      </trkpt>
      <trkpt lat="49.599338" lon="1.617734">
        <ele>155.968091</ele>
        <time>2019-07-30T18:51:28.835Z</time>
      </trkpt>
      <trkpt lat="49.599564" lon="1.618839">
        <ele>154.774141</ele>
        <time>2019-07-30T18:51:36.634Z</time>
      </trkpt>
      <trkpt lat="49.599337" lon="1.622457">
        <ele>150.508286</ele>
        <time>2019-07-30T18:52:01.704Z</time>
      </trkpt>
      <trkpt lat="49.599277" lon="1.622840">
        <ele>150.570949</ele>
        <time>2019-07-30T18:52:05.278Z</time>
      </trkpt>
      <trkpt lat="49.599039" lon="1.623355">
        <ele>150.671538</ele>
        <time>2019-07-30T18:52:12.514Z</time>
      </trkpt>
      <trkpt lat="49.598023" lon="1.625354">
        <ele>154.675635</ele>
        <time>2019-07-30T18:52:56.209Z</time>
      </trkpt>
      <trkpt lat="49.597630" lon="1.627508">
        <ele>161.202479</ele>
        <time>2019-07-30T18:53:44.517Z</time>
      </trkpt>
      <trkpt lat="49.598405" lon="1.633739">
        <ele>183.101402</ele>
        <time>2019-07-30T18:56:18.254Z</time>
      </trkpt>
      <trkpt lat="49.598392" lon="1.634925">
        <ele>186.227537</ele>
        <time>2019-07-30T18:56:43.185Z</time>
      </trkpt>
      <trkpt lat="49.598185" lon="1.635717">
        <ele>187.002315</ele>
        <time>2019-07-30T18:56:58.579Z</time>
      </trkpt>
      <trkpt lat="49.597898" lon="1.637903">
        <ele>187.103114</ele>
        <time>2019-07-30T18:57:19.194Z</time>
      </trkpt>
      <trkpt lat="49.597036" lon="1.639148">
        <ele>183.362921</ele>
        <time>2019-07-30T18:57:30.656Z</time>
      </trkpt>
      <trkpt lat="49.596396" lon="1.639791">
        <ele>180.924231</ele>
        <time>2019-07-30T18:57:37.929Z</time>
      </trkpt>
      <trkpt lat="49.596035" lon="1.641250">
        <ele>177.683081</ele>
        <time>2019-07-30T18:57:48.223Z</time>
      </trkpt>
      <trkpt lat="49.595885" lon="1.642028">
        <ele>176.989459</ele>
        <time>2019-07-30T18:57:54.532Z</time>
      </trkpt>
      <trkpt lat="49.595284" lon="1.644083">
        <ele>177.034244</ele>
        <time>2019-07-30T18:58:18.874Z</time>
      </trkpt>
      <trkpt lat="49.594978" lon="1.645585">
        <ele>177.010067</ele>
        <time>2019-07-30T18:58:38.057Z</time>
      </trkpt>
      <trkpt lat="49.594526" lon="1.648535">
        <ele>174.030121</ele>
        <time>2019-07-30T18:59:01.819Z</time>
      </trkpt>
      <trkpt lat="49.594329" lon="1.649431">
        <ele>172.460047</ele>
        <time>2019-07-30T18:59:07.787Z</time>
      </trkpt>
      <trkpt lat="49.593638" lon="1.650986">
        <ele>164.640091</ele>
        <time>2019-07-30T18:59:18.900Z</time>
      </trkpt>
      <trkpt lat="49.593642" lon="1.652709">
        <ele>157.468487</ele>
        <time>2019-07-30T18:59:28.893Z</time>
      </trkpt>
      <trkpt lat="49.593377" lon="1.653985">
        <ele>151.966041</ele>
        <time>2019-07-30T18:59:36.770Z</time>
      </trkpt>
      <trkpt lat="49.591694" lon="1.657160">
        <ele>139.869161</ele>
        <time>2019-07-30T19:00:02.246Z</time>
      </trkpt>
      <trkpt lat="49.590627" lon="1.658643">
        <ele>136.253708</ele>
        <time>2019-07-30T19:00:17.707Z</time>
      </trkpt>
      <trkpt lat="49.590026" lon="1.659410">
        <ele>136.676973</ele>
        <time>2019-07-30T19:00:29.122Z</time>
      </trkpt>
      <trkpt lat="49.589975" lon="1.659469">
        <ele>136.711565</ele>
        <time>2019-07-30T19:00:30.252Z</time>
      </trkpt>
      <trkpt lat="49.589497" lon="1.659919">
        <ele>137.015435</ele>
        <time>2019-07-30T19:00:41.399Z</time>
      </trkpt>
      <trkpt lat="49.588180" lon="1.660865">
        <ele>139.153824</ele>
        <time>2019-07-30T19:01:15.843Z</time>
      </trkpt>
      <trkpt lat="49.587122" lon="1.661385">
        <ele>140.185533</ele>
        <time>2019-07-30T19:01:38.009Z</time>
      </trkpt>
      <trkpt lat="49.584969" lon="1.663520">
        <ele>138.246875</ele>
        <time>2019-07-30T19:02:10.004Z</time>
      </trkpt>
      <trkpt lat="49.583905" lon="1.666141">
        <ele>134.291489</ele>
        <time>2019-07-30T19:02:31.686Z</time>
      </trkpt>
      <trkpt lat="49.583822" lon="1.666382">
        <ele>133.894082</ele>
        <time>2019-07-30T19:02:33.589Z</time>
      </trkpt>
      <trkpt lat="49.583609" lon="1.666342">
        <ele>133.411056</ele>
        <time>2019-07-30T19:02:36.801Z</time>
      </trkpt>
      <trkpt lat="49.583203" lon="1.666055">
        <ele>132.348636</ele>
        <time>2019-07-30T19:02:43.692Z</time>
      </trkpt>
      <trkpt lat="49.582848" lon="1.666023">
        <ele>131.502700</ele>
        <time>2019-07-30T19:02:49.136Z</time>
      </trkpt>
      <trkpt lat="49.582788" lon="1.665653">
        <ele>130.914459</ele>
        <time>2019-07-30T19:02:51.735Z</time>
      </trkpt>
      <trkpt lat="49.582673" lon="1.665434">
        <ele>130.479799</ele>
        <time>2019-07-30T19:02:53.711Z</time>
      </trkpt>
      <trkpt lat="49.582602" lon="1.665345">
        <ele>130.262154</ele>
        <time>2019-07-30T19:02:54.638Z</time>
      </trkpt>
      <trkpt lat="49.582474" lon="1.665200">
        <ele>129.884357</ele>
        <time>2019-07-30T19:02:56.353Z</time>
      </trkpt>
      <trkpt lat="49.582297" lon="1.665096">
        <ele>129.433780</ele>
        <time>2019-07-30T19:02:58.386Z</time>
      </trkpt>
      <trkpt lat="49.582066" lon="1.664976">
        <ele>128.896867</ele>
        <time>2019-07-30T19:03:01.089Z</time>
      </trkpt>
      <trkpt lat="49.581845" lon="1.664879">
        <ele>128.429199</ele>
        <time>2019-07-30T19:03:03.552Z</time>
      </trkpt>
      <trkpt lat="49.581443" lon="1.665637">
        <ele>127.136903</ele>
        <time>2019-07-30T19:03:10.444Z</time>
      </trkpt>
      <trkpt lat="49.581098" lon="1.666010">
        <ele>126.279371</ele>
        <time>2019-07-30T19:03:15.080Z</time>
      </trkpt>
      <trkpt lat="49.580422" lon="1.665880">
        <ele>125.401638</ele>
        <time>2019-07-30T19:03:22.666Z</time>
      </trkpt>
      <trkpt lat="49.580155" lon="1.665922">
        <ele>125.320490</ele>
        <time>2019-07-30T19:03:25.782Z</time>
      </trkpt>
      <trkpt lat="49.579842" lon="1.666069">
        <ele>125.221562</ele>
        <time>2019-07-30T19:03:29.872Z</time>
      </trkpt>
      <trkpt lat="49.579668" lon="1.666152">
        <ele>125.166493</ele>
        <time>2019-07-30T19:03:32.299Z</time>
      </trkpt>
      <trkpt lat="49.579351" lon="1.666256">
        <ele>125.068502</ele>
        <time>2019-07-30T19:03:36.719Z</time>
      </trkpt>
      <trkpt lat="49.575375" lon="1.664805">
        <ele>132.848263</ele>
        <time>2019-07-30T19:05:09.410Z</time>
      </trkpt>
      <trkpt lat="49.575234" lon="1.664753">
        <ele>133.465736</ele>
        <time>2019-07-30T19:05:15.530Z</time>
      </trkpt>
      <trkpt lat="49.573974" lon="1.665862">
        <ele>139.644817</ele>
        <time>2019-07-30T19:06:05.055Z</time>
      </trkpt>
      <trkpt lat="49.572346" lon="1.665585">
        <ele>145.261671</ele>
        <time>2019-07-30T19:06:51.254Z</time>
      </trkpt>
      <trkpt lat="49.571637" lon="1.664932">
        <ele>147.575745</ele>
        <time>2019-07-30T19:07:12.652Z</time>
      </trkpt>
      <trkpt lat="49.570441" lon="1.661960">
        <ele>152.825134</ele>
        <time>2019-07-30T19:08:07.440Z</time>
      </trkpt>
      <trkpt lat="49.569868" lon="1.661161">
        <ele>154.421458</ele>
        <time>2019-07-30T19:08:24.535Z</time>
      </trkpt>
      <trkpt lat="49.566384" lon="1.659602">
        <ele>160.338953</ele>
        <time>2019-07-30T19:09:39.969Z</time>
      </trkpt>
      <trkpt lat="49.566215" lon="1.659341">
        <ele>161.302207</ele>
        <time>2019-07-30T19:09:45.672Z</time>
      </trkpt>
      <trkpt lat="49.566171" lon="1.659222">
        <ele>161.659972</ele>
        <time>2019-07-30T19:09:48.388Z</time>
      </trkpt>
      <trkpt lat="49.565057" lon="1.657540">
        <ele>167.904656</ele>
        <time>2019-07-30T19:10:40.384Z</time>
      </trkpt>
      <trkpt lat="49.564959" lon="1.657325">
        <ele>168.538028</ele>
        <time>2019-07-30T19:10:47.052Z</time>
      </trkpt>
      <trkpt lat="49.564791" lon="1.656810">
        <ele>169.927461</ele>
        <time>2019-07-30T19:10:59.037Z</time>
      </trkpt>
      <trkpt lat="49.564701" lon="1.656642">
        <ele>170.452646</ele>
        <time>2019-07-30T19:11:02.565Z</time>
      </trkpt>
      <trkpt lat="49.564550" lon="1.656457">
        <ele>171.169374</ele>
        <time>2019-07-30T19:11:09.455Z</time>
      </trkpt>
      <trkpt lat="49.564004" lon="1.656237">
        <ele>173.266531</ele>
        <time>2019-07-30T19:11:24.822Z</time>
      </trkpt>
      <trkpt lat="49.563792" lon="1.656264">
        <ele>174.057036</ele>
        <time>2019-07-30T19:11:31.369Z</time>
      </trkpt>
      <trkpt lat="49.563265" lon="1.656862">
        <ele>174.361393</ele>
        <time>2019-07-30T19:11:45.182Z</time>
      </trkpt>
      <trkpt lat="49.562008" lon="1.657589">
        <ele>174.429105</ele>
        <time>2019-07-30T19:12:02.654Z</time>
      </trkpt>
      <trkpt lat="49.559991" lon="1.657488">
        <ele>170.867726</ele>
        <time>2019-07-30T19:12:25.084Z</time>
      </trkpt>
      <trkpt lat="49.558093" lon="1.656926">
        <ele>167.309676</ele>
        <time>2019-07-30T19:12:45.834Z</time>
      </trkpt>
      <trkpt lat="49.557499" lon="1.656809">
        <ele>166.714184</ele>
        <time>2019-07-30T19:12:52.975Z</time>
      </trkpt>
      <trkpt lat="49.557177" lon="1.656759">
        <ele>166.392358</ele>
        <time>2019-07-30T19:12:57.206Z</time>
      </trkpt>
      <trkpt lat="49.554515" lon="1.656365">
        <ele>167.164741</ele>
        <time>2019-07-30T19:13:43.799Z</time>
      </trkpt>
      <trkpt lat="49.554345" lon="1.656344">
        <ele>167.197270</ele>
        <time>2019-07-30T19:13:46.756Z</time>
      </trkpt>
      <trkpt lat="49.554072" lon="1.656312">
        <ele>167.249491</ele>
        <time>2019-07-30T19:13:51.212Z</time>
      </trkpt>
      <trkpt lat="49.553075" lon="1.656542">
        <ele>167.213604</ele>
        <time>2019-07-30T19:14:05.678Z</time>
      </trkpt>
      <trkpt lat="49.552773" lon="1.656581">
        <ele>166.869156</ele>
        <time>2019-07-30T19:14:09.608Z</time>
      </trkpt>
      <trkpt lat="49.551657" lon="1.656726">
        <ele>165.596243</ele>
        <time>2019-07-30T19:14:22.929Z</time>
      </trkpt>
      <trkpt lat="49.550640" lon="1.656930">
        <ele>163.257465</ele>
        <time>2019-07-30T19:14:33.961Z</time>
      </trkpt>
      <trkpt lat="49.550512" lon="1.656971">
        <ele>162.922261</ele>
        <time>2019-07-30T19:14:35.321Z</time>
      </trkpt>
      <trkpt lat="49.550399" lon="1.657004">
        <ele>162.627374</ele>
        <time>2019-07-30T19:14:36.577Z</time>
      </trkpt>
      <trkpt lat="49.550265" lon="1.657045">
        <ele>162.277093</ele>
        <time>2019-07-30T19:14:37.975Z</time>
      </trkpt>
      <trkpt lat="49.548232" lon="1.657626">
        <ele>155.878820</ele>
        <time>2019-07-30T19:14:59.051Z</time>
      </trkpt>
      <trkpt lat="49.546841" lon="1.658015">
        <ele>150.510143</ele>
        <time>2019-07-30T19:15:12.840Z</time>
      </trkpt>
      <trkpt lat="49.546492" lon="1.658054">
        <ele>149.130137</ele>
        <time>2019-07-30T19:15:16.239Z</time>
      </trkpt>
      <trkpt lat="49.545420" lon="1.657980">
        <ele>145.476274</ele>
        <time>2019-07-30T19:15:26.813Z</time>
      </trkpt>
      <trkpt lat="49.544137" lon="1.658427">
        <ele>141.520582</ele>
        <time>2019-07-30T19:15:40.558Z</time>
      </trkpt>
      <trkpt lat="49.542581" lon="1.658691">
        <ele>137.741411</ele>
        <time>2019-07-30T19:15:57.275Z</time>
      </trkpt>
      <trkpt lat="49.542590" lon="1.658341">
        <ele>137.221282</ele>
        <time>2019-07-30T19:16:00.806Z</time>
      </trkpt>
      <trkpt lat="49.542624" lon="1.658086">
        <ele>136.835086</ele>
        <time>2019-07-30T19:16:03.489Z</time>
      </trkpt>
      <trkpt lat="49.542676" lon="1.657889">
        <ele>136.519581</ele>
        <time>2019-07-30T19:16:05.609Z</time>
      </trkpt>
      <trkpt lat="49.542551" lon="1.657832">
        <ele>136.221553</ele>
        <time>2019-07-30T19:16:07.531Z</time>
      </trkpt>
      <trkpt lat="49.541343" lon="1.658189">
        <ele>133.427292</ele>
        <time>2019-07-30T19:16:26.539Z</time>
      </trkpt>
      <trkpt lat="49.541221" lon="1.658326">
        <ele>133.111429</ele>
        <time>2019-07-30T19:16:28.787Z</time>
      </trkpt>
      <trkpt lat="49.540942" lon="1.658641">
        <ele>132.387724</ele>
        <time>2019-07-30T19:16:34.231Z</time>
      </trkpt>
      <trkpt lat="49.540536" lon="1.658800">
        <ele>131.511186</ele>
        <time>2019-07-30T19:16:40.886Z</time>
      </trkpt>
      <trkpt lat="49.539152" lon="1.657572">
        <ele>128.368672</ele>
        <time>2019-07-30T19:17:05.920Z</time>
      </trkpt>
      <trkpt lat="49.539150" lon="1.657572">
        <ele>128.364981</ele>
        <time>2019-07-30T19:17:05.943Z</time>
      </trkpt>
      <trkpt lat="49.538182" lon="1.657158">
        <ele>126.526611</ele>
        <time>2019-07-30T19:17:22.327Z</time>
      </trkpt>
      <trkpt lat="49.537347" lon="1.656980">
        <ele>125.897189</ele>
        <time>2019-07-30T19:17:36.771Z</time>
      </trkpt>
      <trkpt lat="49.536714" lon="1.657396">
        <ele>125.383345</ele>
        <time>2019-07-30T19:17:49.698Z</time>
      </trkpt>
      <trkpt lat="49.536454" lon="1.657535">
        <ele>125.191236</ele>
        <time>2019-07-30T19:17:55.028Z</time>
      </trkpt>
      <trkpt lat="49.536342" lon="1.657594">
        <ele>125.175578</ele>
        <time>2019-07-30T19:17:57.421Z</time>
      </trkpt>
      <trkpt lat="49.536080" lon="1.657655">
        <ele>125.140525</ele>
        <time>2019-07-30T19:18:02.632Z</time>
      </trkpt>
      <trkpt lat="49.535764" lon="1.657687">
        <ele>125.098631</ele>
        <time>2019-07-30T19:18:08.986Z</time>
      </trkpt>
      <trkpt lat="49.534982" lon="1.658251">
        <ele>124.984410</ele>
        <time>2019-07-30T19:18:26.599Z</time>
      </trkpt>
      <trkpt lat="49.533283" lon="1.659611">
        <ele>124.231209</ele>
        <time>2019-07-30T19:19:02.523Z</time>
      </trkpt>
      <trkpt lat="49.532517" lon="1.660313">
        <ele>123.915151</ele>
        <time>2019-07-30T19:19:18.716Z</time>
      </trkpt>
      <trkpt lat="49.532322" lon="1.660028">
        <ele>123.822200</ele>
        <time>2019-07-30T19:19:23.624Z</time>
      </trkpt>
      <trkpt lat="49.531337" lon="1.666372">
        <ele>122.999476</ele>
        <time>2019-07-30T19:20:25.821Z</time>
      </trkpt>
      <trkpt lat="49.531278" lon="1.666378">
        <ele>122.982742</ele>
        <time>2019-07-30T19:20:26.549Z</time>
      </trkpt>
      <trkpt lat="49.531212" lon="1.666498">
        <ele>122.867714</ele>
        <time>2019-07-30T19:20:27.852Z</time>
      </trkpt>
      <trkpt lat="49.531213" lon="1.666561">
        <ele>122.798792</ele>
        <time>2019-07-30T19:20:28.346Z</time>
      </trkpt>
      <trkpt lat="49.529028" lon="1.667179">
        <ele>118.466772</ele>
        <time>2019-07-30T19:20:53.024Z</time>
      </trkpt>
      <trkpt lat="49.527428" lon="1.668046">
        <ele>113.860614</ele>
        <time>2019-07-30T19:21:10.162Z</time>
      </trkpt>
      <trkpt lat="49.526509" lon="1.668689">
        <ele>111.393025</ele>
        <time>2019-07-30T19:21:20.596Z</time>
      </trkpt>
      <trkpt lat="49.526171" lon="1.669235">
        <ele>110.581337</ele>
        <time>2019-07-30T19:21:26.231Z</time>
      </trkpt>
      <trkpt lat="49.525422" lon="1.670432">
        <ele>111.324351</ele>
        <time>2019-07-30T19:21:45.398Z</time>
      </trkpt>
      <trkpt lat="49.525092" lon="1.670723">
        <ele>111.586136</ele>
        <time>2019-07-30T19:21:53.886Z</time>
      </trkpt>
      <trkpt lat="49.525004" lon="1.670782">
        <ele>111.652211</ele>
        <time>2019-07-30T19:21:56.356Z</time>
      </trkpt>
      <trkpt lat="49.524602" lon="1.671079">
        <ele>112.075019</ele>
        <time>2019-07-30T19:22:06.763Z</time>
      </trkpt>
      <trkpt lat="49.520987" lon="1.673063">
        <ele>115.669115</ele>
        <time>2019-07-30T19:23:15.106Z</time>
      </trkpt>
      <trkpt lat="49.520059" lon="1.674117">
        <ele>117.065240</ele>
        <time>2019-07-30T19:23:37.370Z</time>
      </trkpt>
      <trkpt lat="49.520229" lon="1.674368">
        <ele>117.601520</ele>
        <time>2019-07-30T19:23:43.901Z</time>
      </trkpt>
      <trkpt lat="49.522903" lon="1.677574">
        <ele>128.143435</ele>
        <time>2019-07-30T19:25:34.963Z</time>
      </trkpt>
      <trkpt lat="49.522920" lon="1.677659">
        <ele>128.344119</ele>
        <time>2019-07-30T19:25:37.683Z</time>
      </trkpt>
      <trkpt lat="49.522917" lon="1.677735">
        <ele>128.568048</ele>
        <time>2019-07-30T19:25:39.338Z</time>
      </trkpt>
      <trkpt lat="49.522894" lon="1.677809">
        <ele>128.809343</ele>
        <time>2019-07-30T19:25:41.562Z</time>
      </trkpt>
      <trkpt lat="49.522384" lon="1.679238">
        <ele>133.605356</ele>
        <time>2019-07-30T19:26:22.586Z</time>
      </trkpt>
      <trkpt lat="49.522056" lon="1.680893">
        <ele>138.513998</ele>
        <time>2019-07-30T19:27:06.909Z</time>
      </trkpt>
      <trkpt lat="49.522240" lon="1.682730">
        <ele>143.536543</ele>
        <time>2019-07-30T19:27:52.294Z</time>
      </trkpt>
      <trkpt lat="49.521918" lon="1.684899">
        <ele>146.093948</ele>
        <time>2019-07-30T19:28:34.851Z</time>
      </trkpt>
      <trkpt lat="49.519635" lon="1.688684">
        <ele>143.190401</ele>
        <time>2019-07-30T19:29:33.903Z</time>
      </trkpt>
      <trkpt lat="49.518809" lon="1.691781">
        <ele>136.492026</ele>
        <time>2019-07-30T19:30:04.981Z</time>
      </trkpt>
      <trkpt lat="49.517472" lon="1.693492">
        <ele>131.119771</ele>
        <time>2019-07-30T19:30:30.065Z</time>
      </trkpt>
      <trkpt lat="49.515855" lon="1.695012">
        <ele>127.625657</ele>
        <time>2019-07-30T19:31:00.678Z</time>
      </trkpt>
      <trkpt lat="49.515502" lon="1.695384">
        <ele>127.035811</ele>
        <time>2019-07-30T19:31:08.428Z</time>
      </trkpt>
      <trkpt lat="49.515072" lon="1.695970">
        <ele>126.455933</ele>
        <time>2019-07-30T19:31:18.755Z</time>
      </trkpt>
      <trkpt lat="49.514778" lon="1.696383">
        <ele>126.054049</ele>
        <time>2019-07-30T19:31:26.012Z</time>
      </trkpt>
      <trkpt lat="49.514594" lon="1.696734">
        <ele>125.758229</ele>
        <time>2019-07-30T19:31:31.014Z</time>
      </trkpt>
      <trkpt lat="49.514519" lon="1.696862">
        <ele>125.645169</ele>
        <time>2019-07-30T19:31:32.984Z</time>
      </trkpt>
      <trkpt lat="49.514260" lon="1.697307">
        <ele>125.120245</ele>
        <time>2019-07-30T19:31:39.540Z</time>
      </trkpt>
      <trkpt lat="49.513851" lon="1.698047">
        <ele>123.685822</ele>
        <time>2019-07-30T19:31:49.512Z</time>
      </trkpt>
      <trkpt lat="49.513791" lon="1.698146">
        <ele>123.485926</ele>
        <time>2019-07-30T19:31:50.867Z</time>
      </trkpt>
      <trkpt lat="49.513721" lon="1.698215">
        <ele>123.296989</ele>
        <time>2019-07-30T19:31:52.080Z</time>
      </trkpt>
      <trkpt lat="49.512990" lon="1.698810">
        <ele>121.417354</ele>
        <time>2019-07-30T19:32:04.591Z</time>
      </trkpt>
      <trkpt lat="49.512955" lon="1.698906">
        <ele>121.256060</ele>
        <time>2019-07-30T19:32:05.619Z</time>
      </trkpt>
      <trkpt lat="49.512607" lon="1.699860">
        <ele>119.765560</ele>
        <time>2019-07-30T19:32:16.186Z</time>
      </trkpt>
      <trkpt lat="49.511106" lon="1.702112">
        <ele>117.218356</ele>
        <time>2019-07-30T19:32:50.482Z</time>
      </trkpt>
      <trkpt lat="49.509716" lon="1.703490">
        <ele>118.944905</ele>
        <time>2019-07-30T19:33:33.232Z</time>
      </trkpt>
      <trkpt lat="49.509267" lon="1.704033">
        <ele>120.221315</ele>
        <time>2019-07-30T19:33:51.481Z</time>
      </trkpt>
      <trkpt lat="49.508218" lon="1.705428">
        <ele>124.081866</ele>
        <time>2019-07-30T19:34:36.835Z</time>
      </trkpt>
      <trkpt lat="49.507509" lon="1.705848">
        <ele>126.343807</ele>
        <time>2019-07-30T19:35:00.776Z</time>
      </trkpt>
      <trkpt lat="49.507348" lon="1.705943">
        <ele>126.708484</ele>
        <time>2019-07-30T19:35:06.674Z</time>
      </trkpt>
      <trkpt lat="49.506409" lon="1.707221">
        <ele>129.277589</ele>
        <time>2019-07-30T19:35:43.222Z</time>
      </trkpt>
      <trkpt lat="49.506412" lon="1.707364">
        <ele>129.468058</ele>
        <time>2019-07-30T19:35:46.098Z</time>
      </trkpt>
      <trkpt lat="49.506259" lon="1.707449">
        <ele>129.801510</ele>
        <time>2019-07-30T19:35:49.680Z</time>
      </trkpt>
      <trkpt lat="49.504946" lon="1.709559">
        <ele>130.518084</ele>
        <time>2019-07-30T19:36:20.685Z</time>
      </trkpt>
      <trkpt lat="49.502962" lon="1.711357">
        <ele>127.189520</ele>
        <time>2019-07-30T19:36:46.843Z</time>
      </trkpt>
      <trkpt lat="49.502517" lon="1.711650">
        <ele>126.390715</ele>
        <time>2019-07-30T19:36:52.167Z</time>
      </trkpt>
      <trkpt lat="49.502143" lon="1.711891">
        <ele>125.721553</ele>
        <time>2019-07-30T19:36:56.696Z</time>
      </trkpt>
      <trkpt lat="49.499459" lon="1.714150">
        <ele>121.841695</ele>
        <time>2019-07-30T19:37:32.971Z</time>
      </trkpt>
      <trkpt lat="49.498327" lon="1.714916">
        <ele>120.652292</ele>
        <time>2019-07-30T19:37:48.054Z</time>
      </trkpt>
      <trkpt lat="49.497209" lon="1.715595">
        <ele>119.983942</ele>
        <time>2019-07-30T19:38:03.939Z</time>
      </trkpt>
      <trkpt lat="49.497034" lon="1.715711">
        <ele>119.877988</ele>
        <time>2019-07-30T19:38:06.422Z</time>
      </trkpt>
      <trkpt lat="49.497326" lon="1.716376">
        <ele>119.773416</ele>
        <time>2019-07-30T19:38:16.959Z</time>
      </trkpt>
      <trkpt lat="49.498208" lon="1.718469">
        <ele>119.371075</ele>
        <time>2019-07-30T19:38:50.297Z</time>
      </trkpt>
      <trkpt lat="49.498967" lon="1.719486">
        <ele>117.793996</ele>
        <time>2019-07-30T19:39:07.358Z</time>
      </trkpt>
      <trkpt lat="49.499514" lon="1.719744">
        <ele>116.897288</ele>
        <time>2019-07-30T19:39:16.108Z</time>
      </trkpt>
      <trkpt lat="49.501071" lon="1.722468">
        <ele>109.200005</ele>
        <time>2019-07-30T19:39:49.953Z</time>
      </trkpt>
      <trkpt lat="49.500627" lon="1.723156">
        <ele>107.312225</ele>
        <time>2019-07-30T19:39:59.211Z</time>
      </trkpt>
      <trkpt lat="49.499906" lon="1.723723">
        <ele>105.065013</ele>
        <time>2019-07-30T19:40:11.436Z</time>
      </trkpt>
      <trkpt lat="49.497632" lon="1.724676">
        <ele>101.116193</ele>
        <time>2019-07-30T19:40:49.030Z</time>
      </trkpt>
      <trkpt lat="49.497229" lon="1.724589">
        <ele>100.712346</ele>
        <time>2019-07-30T19:40:56.008Z</time>
      </trkpt>
      <trkpt lat="49.495588" lon="1.724235">
        <ele>100.811744</ele>
        <time>2019-07-30T19:41:29.818Z</time>
      </trkpt>
      <trkpt lat="49.493694" lon="1.724228">
        <ele>103.152054</ele>
        <time>2019-07-30T19:42:20.612Z</time>
      </trkpt>
      <trkpt lat="49.493577" lon="1.724221">
        <ele>103.338096</ele>
        <time>2019-07-30T19:42:24.307Z</time>
      </trkpt>
      <trkpt lat="49.493526" lon="1.724429">
        <ele>103.567547</ele>
        <time>2019-07-30T19:42:27.919Z</time>
      </trkpt>
      <trkpt lat="49.492959" lon="1.725243">
        <ele>104.456242</ele>
        <time>2019-07-30T19:42:47.937Z</time>
      </trkpt>
      <trkpt lat="49.492340" lon="1.725926">
        <ele>104.883696</ele>
        <time>2019-07-30T19:43:06.047Z</time>
      </trkpt>
      <trkpt lat="49.492025" lon="1.726191">
        <ele>105.085176</ele>
        <time>2019-07-30T19:43:13.429Z</time>
      </trkpt>
      <trkpt lat="49.491046" lon="1.726728">
        <ele>104.549155</ele>
        <time>2019-07-30T19:43:32.858Z</time>
      </trkpt>
      <trkpt lat="49.490741" lon="1.726920">
        <ele>104.203451</ele>
        <time>2019-07-30T19:43:38.504Z</time>
      </trkpt>
      <trkpt lat="49.490083" lon="1.727359">
        <ele>103.451081</ele>
        <time>2019-07-30T19:43:50.314Z</time>
      </trkpt>
      <trkpt lat="49.489683" lon="1.727725">
        <ele>102.568237</ele>
        <time>2019-07-30T19:43:57.728Z</time>
      </trkpt>
      <trkpt lat="49.489254" lon="1.728130">
        <ele>101.553954</ele>
        <time>2019-07-30T19:44:05.548Z</time>
      </trkpt>
      <trkpt lat="49.488323" lon="1.729011">
        <ele>99.324980</ele>
        <time>2019-07-30T19:44:22.736Z</time>
      </trkpt>
      <trkpt lat="49.488209" lon="1.729093">
        <ele>99.055244</ele>
        <time>2019-07-30T19:44:24.608Z</time>
      </trkpt>
      <trkpt lat="49.488105" lon="1.729026">
        <ele>98.813570</ele>
        <time>2019-07-30T19:44:26.423Z</time>
      </trkpt>
      <trkpt lat="49.487776" lon="1.728491">
        <ele>97.787698</ele>
        <time>2019-07-30T19:44:33.920Z</time>
      </trkpt>
      <trkpt lat="49.487473" lon="1.728078">
        <ele>96.920151</ele>
        <time>2019-07-30T19:44:40.087Z</time>
      </trkpt>
      <trkpt lat="49.487302" lon="1.727925">
        <ele>96.496167</ele>
        <time>2019-07-30T19:44:43.125Z</time>
      </trkpt>
      <trkpt lat="49.486063" lon="1.727299">
        <ele>94.410800</ele>
        <time>2019-07-30T19:45:03.901Z</time>
      </trkpt>
      <trkpt lat="49.485666" lon="1.727110">
        <ele>93.806220</ele>
        <time>2019-07-30T19:45:08.819Z</time>
      </trkpt>
      <trkpt lat="49.485188" lon="1.729222">
        <ele>93.009971</ele>
        <time>2019-07-30T19:45:28.133Z</time>
      </trkpt>
      <trkpt lat="49.484964" lon="1.730195">
        <ele>92.837069</ele>
        <time>2019-07-30T19:45:38.396Z</time>
      </trkpt>
      <trkpt lat="49.484939" lon="1.730302">
        <ele>92.853586</ele>
        <time>2019-07-30T19:45:39.511Z</time>
      </trkpt>
      <trkpt lat="49.484895" lon="1.730491">
        <ele>92.919641</ele>
        <time>2019-07-30T19:45:41.466Z</time>
      </trkpt>
      <trkpt lat="49.484350" lon="1.733031">
        <ele>93.869913</ele>
        <time>2019-07-30T19:46:10.958Z</time>
      </trkpt>
      <trkpt lat="49.484306" lon="1.733233">
        <ele>94.023672</ele>
        <time>2019-07-30T19:46:13.627Z</time>
      </trkpt>
      <trkpt lat="49.484279" lon="1.733361">
        <ele>94.120797</ele>
        <time>2019-07-30T19:46:15.263Z</time>
      </trkpt>
      <trkpt lat="49.484152" lon="1.733773">
        <ele>94.449911</ele>
        <time>2019-07-30T19:46:21.161Z</time>
      </trkpt>
      <trkpt lat="49.483864" lon="1.734306">
        <ele>94.950239</ele>
        <time>2019-07-30T19:46:30.310Z</time>
      </trkpt>
      <trkpt lat="49.483511" lon="1.734737">
        <ele>95.450773</ele>
        <time>2019-07-30T19:46:39.287Z</time>
      </trkpt>
      <trkpt lat="49.483478" lon="1.734778">
        <ele>95.497884</ele>
        <time>2019-07-30T19:46:40.239Z</time>
      </trkpt>
      <trkpt lat="49.483343" lon="1.734936">
        <ele>95.686283</ele>
        <time>2019-07-30T19:46:43.787Z</time>
      </trkpt>
      <trkpt lat="49.483385" lon="1.735114">
        <ele>95.789974</ele>
        <time>2019-07-30T19:46:46.129Z</time>
      </trkpt>
      <trkpt lat="49.483398" lon="1.735154">
        <ele>95.809567</ele>
        <time>2019-07-30T19:46:46.640Z</time>
      </trkpt>
      <trkpt lat="49.483415" lon="1.735207">
        <ele>95.835460</ele>
        <time>2019-07-30T19:46:47.435Z</time>
      </trkpt>
      <trkpt lat="49.483459" lon="1.735348">
        <ele>95.903984</ele>
        <time>2019-07-30T19:46:49.377Z</time>
      </trkpt>
      <trkpt lat="49.483467" lon="1.735378">
        <ele>95.918190</ele>
        <time>2019-07-30T19:46:49.718Z</time>
      </trkpt>
      <trkpt lat="49.483552" lon="1.735690">
        <ele>96.066398</ele>
        <time>2019-07-30T19:46:53.616Z</time>
      </trkpt>
      <trkpt lat="49.483271" lon="1.736021">
        <ele>96.304991</ele>
        <time>2019-07-30T19:46:59.884Z</time>
      </trkpt>
      <trkpt lat="49.482302" lon="1.737524">
        <ele>96.867306</ele>
        <time>2019-07-30T19:47:23.063Z</time>
      </trkpt>
      <trkpt lat="49.482244" lon="1.737660">
        <ele>96.845844</ele>
        <time>2019-07-30T19:47:24.526Z</time>
      </trkpt>
      <trkpt lat="49.482155" lon="1.737871">
        <ele>96.812656</ele>
        <time>2019-07-30T19:47:26.949Z</time>
      </trkpt>
      <trkpt lat="49.481975" lon="1.738396">
        <ele>96.734344</ele>
        <time>2019-07-30T19:47:32.322Z</time>
      </trkpt>
      <trkpt lat="49.481852" lon="1.739019">
        <ele>96.648444</ele>
        <time>2019-07-30T19:47:37.773Z</time>
      </trkpt>
      <trkpt lat="49.481829" lon="1.739129">
        <ele>96.633199</ele>
        <time>2019-07-30T19:47:38.659Z</time>
      </trkpt>
      <trkpt lat="49.481618" lon="1.740267">
        <ele>96.391325</ele>
        <time>2019-07-30T19:47:48.648Z</time>
      </trkpt>
      <trkpt lat="49.481538" lon="1.740474">
        <ele>96.334677</ele>
        <time>2019-07-30T19:47:50.861Z</time>
      </trkpt>
      <trkpt lat="49.481436" lon="1.740632">
        <ele>96.282291</ele>
        <time>2019-07-30T19:47:52.713Z</time>
      </trkpt>
      <trkpt lat="49.481095" lon="1.741084">
        <ele>96.119381</ele>
        <time>2019-07-30T19:47:58.863Z</time>
      </trkpt>
      <trkpt lat="49.481040" lon="1.741158">
        <ele>96.092936</ele>
        <time>2019-07-30T19:47:59.985Z</time>
      </trkpt>
      <trkpt lat="49.480632" lon="1.741699">
        <ele>95.997352</ele>
        <time>2019-07-30T19:48:07.564Z</time>
      </trkpt>
      <trkpt lat="49.480561" lon="1.741794">
        <ele>96.053501</ele>
        <time>2019-07-30T19:48:08.973Z</time>
      </trkpt>
      <trkpt lat="49.480431" lon="1.741931">
        <ele>96.147534</ele>
        <time>2019-07-30T19:48:11.402Z</time>
      </trkpt>
      <trkpt lat="49.479268" lon="1.743162">
        <ele>96.989952</ele>
        <time>2019-07-30T19:48:37.249Z</time>
      </trkpt>
      <trkpt lat="49.478952" lon="1.743536">
        <ele>96.968406</ele>
        <time>2019-07-30T19:48:44.059Z</time>
      </trkpt>
      <trkpt lat="49.478897" lon="1.743667">
        <ele>96.957189</ele>
        <time>2019-07-30T19:48:45.961Z</time>
      </trkpt>
      <trkpt lat="49.478634" lon="1.744814">
        <ele>96.869711</ele>
        <time>2019-07-30T19:48:57.224Z</time>
      </trkpt>
      <trkpt lat="49.478268" lon="1.744701">
        <ele>96.828390</ele>
        <time>2019-07-30T19:49:02.114Z</time>
      </trkpt>
      <trkpt lat="49.477931" lon="1.744645">
        <ele>96.631796</ele>
        <time>2019-07-30T19:49:06.359Z</time>
      </trkpt>
      <trkpt lat="49.477802" lon="1.744632">
        <ele>96.497888</ele>
        <time>2019-07-30T19:49:07.831Z</time>
      </trkpt>
      <trkpt lat="49.477269" lon="1.744645">
        <ele>95.945722</ele>
        <time>2019-07-30T19:49:14.327Z</time>
      </trkpt>
      <trkpt lat="49.476843" lon="1.744504">
        <ele>95.494369</ele>
        <time>2019-07-30T19:49:19.464Z</time>
      </trkpt>
      <trkpt lat="49.476750" lon="1.744385">
        <ele>95.369091</ele>
        <time>2019-07-30T19:49:20.855Z</time>
      </trkpt>
      <trkpt lat="49.476625" lon="1.744105">
        <ele>95.140447</ele>
        <time>2019-07-30T19:49:23.619Z</time>
      </trkpt>
      <trkpt lat="49.476608" lon="1.744068">
        <ele>95.109947</ele>
        <time>2019-07-30T19:49:23.950Z</time>
      </trkpt>
      <trkpt lat="49.476573" lon="1.744102">
        <ele>95.067075</ele>
        <time>2019-07-30T19:49:24.452Z</time>
      </trkpt>
      <trkpt lat="49.476377" lon="1.744292">
        <ele>94.888529</ele>
        <time>2019-07-30T19:49:27.235Z</time>
      </trkpt>
      <trkpt lat="49.476244" lon="1.744475">
        <ele>94.798529</ele>
        <time>2019-07-30T19:49:29.529Z</time>
      </trkpt>
      <trkpt lat="49.469552" lon="1.753338">
        <ele>90.619733</ele>
        <time>2019-07-30T19:51:27.201Z</time>
      </trkpt>
      <trkpt lat="49.468033" lon="1.756249">
        <ele>90.733737</ele>
        <time>2019-07-30T19:52:06.567Z</time>
      </trkpt>
      <trkpt lat="49.464987" lon="1.768908">
        <ele>88.369257</ele>
        <time>2019-07-30T19:54:06.579Z</time>
      </trkpt>
      <trkpt lat="49.464163" lon="1.771141">
        <ele>88.719801</ele>
        <time>2019-07-30T19:54:33.149Z</time>
      </trkpt>
      <trkpt lat="49.462884" lon="1.773640">
        <ele>89.653708</ele>
        <time>2019-07-30T19:55:09.318Z</time>
      </trkpt>
      <trkpt lat="49.462510" lon="1.774498">
        <ele>89.835768</ele>
        <time>2019-07-30T19:55:20.069Z</time>
      </trkpt>
      <trkpt lat="49.462447" lon="1.774381">
        <ele>89.862544</ele>
        <time>2019-07-30T19:55:22.009Z</time>
      </trkpt>
      <trkpt lat="49.461888" lon="1.773340">
        <ele>89.611605</ele>
        <time>2019-07-30T19:55:39.001Z</time>
      </trkpt>
      <trkpt lat="49.460897" lon="1.771469">
        <ele>88.600202</ele>
        <time>2019-07-30T19:56:06.657Z</time>
      </trkpt>
      <trkpt lat="49.460935" lon="1.771165">
        <ele>88.483983</ele>
        <time>2019-07-30T19:56:09.155Z</time>
      </trkpt>
      <trkpt lat="49.460618" lon="1.771017">
        <ele>88.292641</ele>
        <time>2019-07-30T19:56:15.085Z</time>
      </trkpt>
      <trkpt lat="49.460204" lon="1.770216">
        <ele>87.908444</ele>
        <time>2019-07-30T19:56:27.255Z</time>
      </trkpt>
      <trkpt lat="49.457236" lon="1.769892">
        <ele>87.850838</ele>
        <time>2019-07-30T19:57:26.768Z</time>
      </trkpt>
      <trkpt lat="49.456253" lon="1.769775">
        <ele>88.226238</ele>
        <time>2019-07-30T19:57:49.165Z</time>
      </trkpt>
      <trkpt lat="49.455983" lon="1.769743">
        <ele>88.525032</ele>
        <time>2019-07-30T19:57:55.835Z</time>
      </trkpt>
      <trkpt lat="49.455169" lon="1.769613">
        <ele>89.428004</ele>
        <time>2019-07-30T19:58:16.019Z</time>
      </trkpt>
      <trkpt lat="49.455082" lon="1.769570">
        <ele>89.528831</ele>
        <time>2019-07-30T19:58:18.653Z</time>
      </trkpt>
      <trkpt lat="49.454328" lon="1.768792">
        <ele>90.523090</ele>
        <time>2019-07-30T19:58:41.321Z</time>
      </trkpt>
      <trkpt lat="49.453685" lon="1.768030">
        <ele>91.401184</ele>
        <time>2019-07-30T19:59:01.056Z</time>
      </trkpt>
      <trkpt lat="49.453420" lon="1.767741">
        <ele>91.752603</ele>
        <time>2019-07-30T19:59:08.668Z</time>
      </trkpt>
      <trkpt lat="49.453420" lon="1.767741">
        <ele>91.752603</ele>
        <time>2019-07-30T19:59:08.687Z</time>
      </trkpt>
      <trkpt lat="49.452614" lon="1.766754">
        <ele>93.257923</ele>
        <time>2019-07-30T19:59:34.502Z</time>
      </trkpt>
      <trkpt lat="49.452324" lon="1.766641">
        <ele>93.744854</ele>
        <time>2019-07-30T19:59:42.320Z</time>
      </trkpt>
      <trkpt lat="49.451951" lon="1.766674">
        <ele>94.352976</ele>
        <time>2019-07-30T19:59:52.760Z</time>
      </trkpt>
      <trkpt lat="49.451381" lon="1.766816">
        <ele>95.362531</ele>
        <time>2019-07-30T20:00:09.365Z</time>
      </trkpt>
      <trkpt lat="49.450979" lon="1.766955">
        <ele>96.204565</ele>
        <time>2019-07-30T20:00:21.641Z</time>
      </trkpt>
      <trkpt lat="49.450740" lon="1.766923">
        <ele>96.694837</ele>
        <time>2019-07-30T20:00:28.857Z</time>
      </trkpt>
      <trkpt lat="49.450590" lon="1.766825">
        <ele>97.027883</ele>
        <time>2019-07-30T20:00:33.787Z</time>
      </trkpt>
      <trkpt lat="49.450196" lon="1.766530">
        <ele>97.923389</ele>
        <time>2019-07-30T20:00:46.440Z</time>
      </trkpt>
      <trkpt lat="49.450099" lon="1.766372">
        <ele>98.212110</ele>
        <time>2019-07-30T20:00:50.547Z</time>
      </trkpt>
      <trkpt lat="49.450382" lon="1.764587">
        <ele>99.165912</ele>
        <time>2019-07-30T20:01:20.625Z</time>
      </trkpt>
      <trkpt lat="49.450785" lon="1.763421">
        <ele>99.551750</ele>
        <time>2019-07-30T20:01:37.617Z</time>
      </trkpt>
      <trkpt lat="49.451313" lon="1.761478">
        <ele>97.460491</ele>
        <time>2019-07-30T20:02:00.029Z</time>
      </trkpt>
      <trkpt lat="49.451330" lon="1.761416">
        <ele>97.393671</ele>
        <time>2019-07-30T20:02:00.732Z</time>
      </trkpt>
      <trkpt lat="49.451636" lon="1.760292">
        <ele>96.096801</ele>
        <time>2019-07-30T20:02:13.166Z</time>
      </trkpt>
      <trkpt lat="49.451673" lon="1.760097">
        <ele>95.868049</ele>
        <time>2019-07-30T20:02:15.155Z</time>
      </trkpt>
      <trkpt lat="49.451813" lon="1.759375">
        <ele>95.019606</ele>
        <time>2019-07-30T20:02:22.992Z</time>
      </trkpt>
      <trkpt lat="49.452819" lon="1.753720">
        <ele>89.819447</ele>
        <time>2019-07-30T20:03:27.100Z</time>
      </trkpt>
      <trkpt lat="49.452976" lon="1.753496">
        <ele>89.558835</ele>
        <time>2019-07-30T20:03:30.735Z</time>
      </trkpt>
      <trkpt lat="49.452995" lon="1.753354">
        <ele>89.444133</ele>
        <time>2019-07-30T20:03:32.334Z</time>
      </trkpt>
      <trkpt lat="49.452215" lon="1.752507">
        <ele>88.622306</ele>
        <time>2019-07-30T20:03:48.803Z</time>
      </trkpt>
      <trkpt lat="49.451653" lon="1.752546">
        <ele>88.201814</ele>
        <time>2019-07-30T20:03:58.861Z</time>
      </trkpt>
      <trkpt lat="49.451020" lon="1.752073">
        <ele>87.847791</ele>
        <time>2019-07-30T20:04:12.300Z</time>
      </trkpt>
      <trkpt lat="49.450646" lon="1.751788">
        <ele>87.909603</ele>
        <time>2019-07-30T20:04:20.525Z</time>
      </trkpt>
      <trkpt lat="49.450398" lon="1.751427">
        <ele>87.960169</ele>
        <time>2019-07-30T20:04:27.472Z</time>
      </trkpt>
      <trkpt lat="49.450017" lon="1.750460">
        <ele>88.069034</ele>
        <time>2019-07-30T20:04:43.166Z</time>
      </trkpt>
      <trkpt lat="49.449129" lon="1.748202">
        <ele>89.384313</ele>
        <time>2019-07-30T20:05:23.709Z</time>
      </trkpt>
      <trkpt lat="49.448501" lon="1.747614">
        <ele>89.837786</ele>
        <time>2019-07-30T20:05:41.634Z</time>
      </trkpt>
      <trkpt lat="49.448097" lon="1.747291">
        <ele>90.086704</ele>
        <time>2019-07-30T20:05:52.450Z</time>
      </trkpt>
      <trkpt lat="49.445532" lon="1.745406">
        <ele>90.476087</ele>
        <time>2019-07-30T20:06:50.560Z</time>
      </trkpt>
      <trkpt lat="49.445161" lon="1.744728">
        <ele>90.310065</ele>
        <time>2019-07-30T20:07:01.644Z</time>
      </trkpt>
      <trkpt lat="49.444280" lon="1.742236">
        <ele>89.505859</ele>
        <time>2019-07-30T20:07:36.548Z</time>
      </trkpt>
      <trkpt lat="49.443621" lon="1.740182">
        <ele>88.506823</ele>
        <time>2019-07-30T20:08:02.964Z</time>
      </trkpt>
      <trkpt lat="49.443270" lon="1.739220">
        <ele>87.945111</ele>
        <time>2019-07-30T20:08:15.561Z</time>
      </trkpt>
      <trkpt lat="49.442917" lon="1.738255">
        <ele>87.515951</ele>
        <time>2019-07-30T20:08:28.488Z</time>
      </trkpt>
      <trkpt lat="49.441934" lon="1.736517">
        <ele>87.397706</ele>
        <time>2019-07-30T20:08:58.331Z</time>
      </trkpt>
      <trkpt lat="49.441241" lon="1.735871">
        <ele>87.979767</ele>
        <time>2019-07-30T20:09:16.905Z</time>
      </trkpt>
      <trkpt lat="49.440827" lon="1.735270">
        <ele>88.459706</ele>
        <time>2019-07-30T20:09:30.552Z</time>
      </trkpt>
      <trkpt lat="49.439534" lon="1.733602">
        <ele>90.537647</ele>
        <time>2019-07-30T20:10:13.560Z</time>
      </trkpt>
      <trkpt lat="49.437303" lon="1.731736">
        <ele>94.361637</ele>
        <time>2019-07-30T20:11:21.349Z</time>
      </trkpt>
      <trkpt lat="49.436933" lon="1.731271">
        <ele>94.829507</ele>
        <time>2019-07-30T20:11:33.463Z</time>
      </trkpt>
      <trkpt lat="49.436062" lon="1.730175">
        <ele>95.931455</ele>
        <time>2019-07-30T20:11:59.992Z</time>
      </trkpt>
      <trkpt lat="49.435062" lon="1.728871">
        <ele>96.804045</ele>
        <time>2019-07-30T20:12:28.198Z</time>
      </trkpt>
      <trkpt lat="49.434095" lon="1.728216">
        <ele>98.162092</ele>
        <time>2019-07-30T20:12:54.173Z</time>
      </trkpt>
      <trkpt lat="49.433952" lon="1.728161">
        <ele>98.467695</ele>
        <time>2019-07-30T20:12:58.139Z</time>
      </trkpt>
      <trkpt lat="49.433295" lon="1.727968">
        <ele>99.854430</ele>
        <time>2019-07-30T20:13:17.180Z</time>
      </trkpt>
      <trkpt lat="49.431971" lon="1.727477">
        <ele>102.605481</ele>
        <time>2019-07-30T20:14:01.523Z</time>
      </trkpt>
      <trkpt lat="49.431755" lon="1.727391">
        <ele>103.049117</ele>
        <time>2019-07-30T20:14:08.330Z</time>
      </trkpt>
      <trkpt lat="49.431416" lon="1.727256">
        <ele>103.745388</ele>
        <time>2019-07-30T20:14:17.877Z</time>
      </trkpt>
      <trkpt lat="49.431346" lon="1.727234">
        <ele>103.887446</ele>
        <time>2019-07-30T20:14:19.703Z</time>
      </trkpt>
      <trkpt lat="49.430988" lon="1.727024">
        <ele>104.358137</ele>
        <time>2019-07-30T20:14:29.183Z</time>
      </trkpt>
      <trkpt lat="49.428700" lon="1.726158">
        <ele>99.652483</ele>
        <time>2019-07-30T20:15:06.633Z</time>
      </trkpt>
      <trkpt lat="49.428700" lon="1.726158">
        <ele>99.652483</ele>
        <time>2019-07-30T20:15:06.673Z</time>
      </trkpt>
      <trkpt lat="49.427178" lon="1.726022">
        <ele>94.842774</ele>
        <time>2019-07-30T20:15:28.010Z</time>
      </trkpt>
      <trkpt lat="49.426554" lon="1.726216">
        <ele>93.307226</ele>
        <time>2019-07-30T20:15:37.707Z</time>
      </trkpt>
      <trkpt lat="49.426524" lon="1.726226">
        <ele>93.233185</ele>
        <time>2019-07-30T20:15:38.159Z</time>
      </trkpt>
      <trkpt lat="49.425805" lon="1.726504">
        <ele>91.444960</ele>
        <time>2019-07-30T20:15:50.245Z</time>
      </trkpt>
      <trkpt lat="49.424996" lon="1.727821">
        <ele>90.007778</ele>
        <time>2019-07-30T20:16:10.596Z</time>
      </trkpt>
      <trkpt lat="49.424917" lon="1.727891">
        <ele>89.898655</ele>
        <time>2019-07-30T20:16:12.329Z</time>
      </trkpt>
      <trkpt lat="49.424795" lon="1.727627">
        <ele>89.646562</ele>
        <time>2019-07-30T20:16:14.896Z</time>
      </trkpt>
      <trkpt lat="49.424643" lon="1.727334">
        <ele>89.354822</ele>
        <time>2019-07-30T20:16:17.880Z</time>
      </trkpt>
      <trkpt lat="49.423482" lon="1.725617">
        <ele>86.633342</ele>
        <time>2019-07-30T20:16:36.177Z</time>
      </trkpt>
      <trkpt lat="49.423353" lon="1.725487">
        <ele>86.367899</ele>
        <time>2019-07-30T20:16:37.852Z</time>
      </trkpt>
      <trkpt lat="49.423210" lon="1.725387">
        <ele>86.091320</ele>
        <time>2019-07-30T20:16:39.485Z</time>
      </trkpt>
      <trkpt lat="49.422611" lon="1.725007">
        <ele>84.824568</ele>
        <time>2019-07-30T20:16:46.471Z</time>
      </trkpt>
      <trkpt lat="49.422582" lon="1.724988">
        <ele>84.762943</ele>
        <time>2019-07-30T20:16:46.773Z</time>
      </trkpt>
      <trkpt lat="49.422365" lon="1.724699">
        <ele>84.201691</ele>
        <time>2019-07-30T20:16:49.977Z</time>
      </trkpt>
      <trkpt lat="49.422307" lon="1.724424">
        <ele>83.834078</ele>
        <time>2019-07-30T20:16:51.987Z</time>
      </trkpt>
      <trkpt lat="49.422287" lon="1.724247">
        <ele>83.605633</ele>
        <time>2019-07-30T20:16:53.305Z</time>
      </trkpt>
      <trkpt lat="49.422267" lon="1.724093">
        <ele>83.405941</ele>
        <time>2019-07-30T20:16:54.430Z</time>
      </trkpt>
      <trkpt lat="49.422281" lon="1.723264">
        <ele>82.540113</ele>
        <time>2019-07-30T20:17:00.564Z</time>
      </trkpt>
      <trkpt lat="49.422524" lon="1.721389">
        <ele>81.772391</ele>
        <time>2019-07-30T20:17:16.553Z</time>
      </trkpt>
      <trkpt lat="49.422376" lon="1.720593">
        <ele>81.595445</ele>
        <time>2019-07-30T20:17:24.844Z</time>
      </trkpt>
      <trkpt lat="49.422382" lon="1.720310">
        <ele>81.711670</ele>
        <time>2019-07-30T20:17:28.004Z</time>
      </trkpt>
      <trkpt lat="49.422556" lon="1.720310">
        <ele>81.821469</ele>
        <time>2019-07-30T20:17:31.478Z</time>
      </trkpt>
      <trkpt lat="49.423063" lon="1.720101">
        <ele>82.152702</ele>
        <time>2019-07-30T20:17:43.342Z</time>
      </trkpt>
      <trkpt lat="49.423574" lon="1.718979">
        <ele>82.805813</ele>
        <time>2019-07-30T20:18:04.812Z</time>
      </trkpt>
      <trkpt lat="49.423608" lon="1.718643">
        <ele>83.146573</ele>
        <time>2019-07-30T20:18:10.101Z</time>
      </trkpt>
      <trkpt lat="49.423633" lon="1.718388">
        <ele>83.404997</ele>
        <time>2019-07-30T20:18:14.408Z</time>
      </trkpt>
      <trkpt lat="49.423663" lon="1.717763">
        <ele>84.033019</ele>
        <time>2019-07-30T20:18:25.047Z</time>
      </trkpt>
      <trkpt lat="49.423663" lon="1.717763">
        <ele>84.033019</ele>
        <time>2019-07-30T20:18:25.125Z</time>
      </trkpt>
      <trkpt lat="49.423559" lon="1.717517">
        <ele>84.327031</ele>
        <time>2019-07-30T20:18:29.875Z</time>
      </trkpt>
      <trkpt lat="49.423383" lon="1.717311">
        <ele>84.667820</ele>
        <time>2019-07-30T20:18:36.251Z</time>
      </trkpt>
      <trkpt lat="49.423234" lon="1.717202">
        <ele>84.922035</ele>
        <time>2019-07-30T20:18:40.674Z</time>
      </trkpt>
      <trkpt lat="49.423099" lon="1.717133">
        <ele>85.141212</ele>
        <time>2019-07-30T20:18:45.134Z</time>
      </trkpt>
      <trkpt lat="49.422591" lon="1.717096">
        <ele>85.915816</ele>
        <time>2019-07-30T20:18:58.878Z</time>
      </trkpt>
      <trkpt lat="49.422541" lon="1.717076">
        <ele>85.993999</ele>
        <time>2019-07-30T20:19:00.443Z</time>
      </trkpt>
      <trkpt lat="49.422478" lon="1.717007">
        <ele>86.111055</ele>
        <time>2019-07-30T20:19:02.605Z</time>
      </trkpt>
      <trkpt lat="49.422417" lon="1.717063">
        <ele>86.218571</ele>
        <time>2019-07-30T20:19:04.204Z</time>
      </trkpt>
      <trkpt lat="49.422211" lon="1.717276">
        <ele>86.594256</ele>
        <time>2019-07-30T20:19:09.407Z</time>
      </trkpt>
      <trkpt lat="49.422133" lon="1.717145">
        <ele>86.769072</ele>
        <time>2019-07-30T20:19:12.027Z</time>
      </trkpt>
      <trkpt lat="49.420702" lon="1.715604">
        <ele>89.336115</ele>
        <time>2019-07-30T20:19:46.762Z</time>
      </trkpt>
      <trkpt lat="49.420542" lon="1.714576">
        <ele>90.313543</ele>
        <time>2019-07-30T20:20:00.567Z</time>
      </trkpt>
      <trkpt lat="49.420563" lon="1.714410">
        <ele>90.469920</ele>
        <time>2019-07-30T20:20:02.969Z</time>
      </trkpt>
      <trkpt lat="49.420596" lon="1.714270">
        <ele>90.607616</ele>
        <time>2019-07-30T20:20:04.939Z</time>
      </trkpt>
      <trkpt lat="49.420606" lon="1.714229">
        <ele>90.648106</ele>
        <time>2019-07-30T20:20:05.656Z</time>
      </trkpt>
      <trkpt lat="49.420691" lon="1.713967">
        <ele>91.097363</ele>
        <time>2019-07-30T20:20:09.738Z</time>
      </trkpt>
      <trkpt lat="49.420677" lon="1.713950">
        <ele>91.143558</ele>
        <time>2019-07-30T20:20:10.165Z</time>
      </trkpt>
      <trkpt lat="49.420614" lon="1.713572">
        <ele>91.800805</ele>
        <time>2019-07-30T20:20:15.808Z</time>
      </trkpt>
      <trkpt lat="49.420361" lon="1.712105">
        <ele>94.357109</ele>
        <time>2019-07-30T20:20:40.854Z</time>
      </trkpt>
      <trkpt lat="49.420111" lon="1.710754">
        <ele>97.623358</ele>
        <time>2019-07-30T20:21:06.918Z</time>
      </trkpt>
      <trkpt lat="49.419522" lon="1.709409">
        <ele>102.156865</ele>
        <time>2019-07-30T20:21:41.282Z</time>
      </trkpt>
      <trkpt lat="49.419129" lon="1.707657">
        <ele>108.773744</ele>
        <time>2019-07-30T20:22:26.164Z</time>
      </trkpt>
      <trkpt lat="49.419086" lon="1.707527">
        <ele>109.319258</ele>
        <time>2019-07-30T20:22:30.261Z</time>
      </trkpt>
      <trkpt lat="49.418957" lon="1.707269">
        <ele>110.536432</ele>
        <time>2019-07-30T20:22:37.927Z</time>
      </trkpt>
      <trkpt lat="49.417895" lon="1.705967">
        <ele>118.900793</ele>
        <time>2019-07-30T20:23:32.032Z</time>
      </trkpt>
      <trkpt lat="49.417193" lon="1.702650">
        <ele>134.055522</ele>
        <time>2019-07-30T20:25:05.458Z</time>
      </trkpt>
      <trkpt lat="49.415583" lon="1.699076">
        <ele>153.865708</ele>
        <time>2019-07-30T20:27:13.078Z</time>
      </trkpt>
      <trkpt lat="49.415311" lon="1.697542">
        <ele>159.693106</ele>
        <time>2019-07-30T20:27:49.513Z</time>
      </trkpt>
      <trkpt lat="49.415474" lon="1.696096">
        <ele>163.527312</ele>
        <time>2019-07-30T20:28:17.607Z</time>
      </trkpt>
      <trkpt lat="49.415548" lon="1.695715">
        <ele>164.449496</ele>
        <time>2019-07-30T20:28:24.665Z</time>
      </trkpt>
      <trkpt lat="49.415834" lon="1.694576">
        <ele>167.281285</ele>
        <time>2019-07-30T20:28:46.459Z</time>
      </trkpt>
      <trkpt lat="49.415973" lon="1.693469">
        <ele>170.058347</ele>
        <time>2019-07-30T20:29:09.034Z</time>
      </trkpt>
      <trkpt lat="49.416009" lon="1.692960">
        <ele>171.319490</ele>
        <time>2019-07-30T20:29:19.406Z</time>
      </trkpt>
      <trkpt lat="49.416039" lon="1.692693">
        <ele>171.986894</ele>
        <time>2019-07-30T20:29:24.917Z</time>
      </trkpt>
      <trkpt lat="49.416046" lon="1.692519">
        <ele>172.416304</ele>
        <time>2019-07-30T20:29:28.142Z</time>
      </trkpt>
      <trkpt lat="49.416023" lon="1.692295">
        <ele>172.974884</ele>
        <time>2019-07-30T20:29:32.728Z</time>
      </trkpt>
      <trkpt lat="49.415980" lon="1.692148">
        <ele>173.371889</ele>
        <time>2019-07-30T20:29:35.902Z</time>
      </trkpt>
      <trkpt lat="49.415867" lon="1.691987">
        <ele>173.955258</ele>
        <time>2019-07-30T20:29:40.244Z</time>
      </trkpt>
      <trkpt lat="49.415772" lon="1.691952">
        <ele>174.312550</ele>
        <time>2019-07-30T20:29:43.284Z</time>
      </trkpt>
      <trkpt lat="49.415684" lon="1.691872">
        <ele>174.679117</ele>
        <time>2019-07-30T20:29:46.368Z</time>
      </trkpt>
      <trkpt lat="49.415531" lon="1.691714">
        <ele>175.339986</ele>
        <time>2019-07-30T20:29:51.896Z</time>
      </trkpt>
      <trkpt lat="49.414642" lon="1.690398">
        <ele>179.765197</ele>
        <time>2019-07-30T20:30:28.689Z</time>
      </trkpt>
      <trkpt lat="49.414408" lon="1.689760">
        <ele>181.064111</ele>
        <time>2019-07-30T20:30:41.606Z</time>
      </trkpt>
      <trkpt lat="49.414325" lon="1.689614">
        <ele>181.318704</ele>
        <time>2019-07-30T20:30:44.477Z</time>
      </trkpt>
      <trkpt lat="49.414232" lon="1.689509">
        <ele>181.551605</ele>
        <time>2019-07-30T20:30:47.129Z</time>
      </trkpt>
      <trkpt lat="49.414127" lon="1.689477">
        <ele>181.767657</ele>
        <time>2019-07-30T20:30:49.986Z</time>
      </trkpt>
      <trkpt lat="49.413926" lon="1.689494">
        <ele>182.173957</ele>
        <time>2019-07-30T20:30:54.361Z</time>
      </trkpt>
      <trkpt lat="49.413691" lon="1.689549">
        <ele>182.653734</ele>
        <time>2019-07-30T20:30:59.981Z</time>
      </trkpt>
      <trkpt lat="49.413047" lon="1.689702">
        <ele>183.968980</ele>
        <time>2019-07-30T20:31:13.865Z</time>
      </trkpt>
      <trkpt lat="49.412577" lon="1.689791">
        <ele>184.326349</ele>
        <time>2019-07-30T20:31:22.567Z</time>
      </trkpt>
      <trkpt lat="49.412356" lon="1.689941">
        <ele>184.428898</ele>
        <time>2019-07-30T20:31:26.679Z</time>
      </trkpt>
      <trkpt lat="49.411725" lon="1.689880">
        <ele>184.697271</ele>
        <time>2019-07-30T20:31:37.167Z</time>
      </trkpt>
      <trkpt lat="49.410928" lon="1.689722">
        <ele>184.759576</ele>
        <time>2019-07-30T20:31:48.631Z</time>
      </trkpt>
      <trkpt lat="49.410794" lon="1.689682">
        <ele>184.667831</ele>
        <time>2019-07-30T20:31:50.456Z</time>
      </trkpt>
      <trkpt lat="49.410548" lon="1.689714">
        <ele>184.501902</ele>
        <time>2019-07-30T20:31:55.112Z</time>
      </trkpt>
      <trkpt lat="49.410331" lon="1.689888">
        <ele>184.337400</ele>
        <time>2019-07-30T20:31:59.512Z</time>
      </trkpt>
      <trkpt lat="49.409270" lon="1.691669">
        <ele>183.013037</ele>
        <time>2019-07-30T20:32:26.946Z</time>
      </trkpt>
      <trkpt lat="49.407923" lon="1.693043">
        <ele>181.351816</ele>
        <time>2019-07-30T20:32:54.548Z</time>
      </trkpt>
      <trkpt lat="49.406569" lon="1.695392">
        <ele>179.722433</ele>
        <time>2019-07-30T20:33:30.931Z</time>
      </trkpt>
      <trkpt lat="49.405173" lon="1.696597">
        <ele>178.761852</ele>
        <time>2019-07-30T20:34:00.698Z</time>
      </trkpt>
      <trkpt lat="49.403123" lon="1.698365">
        <ele>177.135949</ele>
        <time>2019-07-30T20:34:43.846Z</time>
      </trkpt>
      <trkpt lat="49.403071" lon="1.698558">
        <ele>177.021477</ele>
        <time>2019-07-30T20:34:46.147Z</time>
      </trkpt>
      <trkpt lat="49.403100" lon="1.698717">
        <ele>176.930986</ele>
        <time>2019-07-30T20:34:47.957Z</time>
      </trkpt>
      <trkpt lat="49.403184" lon="1.699031">
        <ele>176.744939</ele>
        <time>2019-07-30T20:34:51.708Z</time>
      </trkpt>
      <trkpt lat="49.403305" lon="1.699442">
        <ele>176.488667</ele>
        <time>2019-07-30T20:34:56.650Z</time>
      </trkpt>
      <trkpt lat="49.403803" lon="1.700525">
        <ele>175.501586</ele>
        <time>2019-07-30T20:35:11.183Z</time>
      </trkpt>
      <trkpt lat="49.403874" lon="1.700718">
        <ele>175.336561</ele>
        <time>2019-07-30T20:35:13.568Z</time>
      </trkpt>
      <trkpt lat="49.403562" lon="1.701037">
        <ele>174.907903</ele>
        <time>2019-07-30T20:35:20.048Z</time>
      </trkpt>
      <trkpt lat="49.402917" lon="1.701558">
        <ele>174.205210</ele>
        <time>2019-07-30T20:35:32.808Z</time>
      </trkpt>
      <trkpt lat="49.401364" lon="1.701340">
        <ele>172.992027</ele>
        <time>2019-07-30T20:36:01.137Z</time>
      </trkpt>
      <trkpt lat="49.399842" lon="1.701728">
        <ele>171.430126</ele>
        <time>2019-07-30T20:36:27.768Z</time>
      </trkpt>
      <trkpt lat="49.397802" lon="1.702328">
        <ele>169.064070</ele>
        <time>2019-07-30T20:37:02.941Z</time>
      </trkpt>
      <trkpt lat="49.397526" lon="1.702734">
        <ele>168.811515</ele>
        <time>2019-07-30T20:37:07.759Z</time>
      </trkpt>
      <trkpt lat="49.394752" lon="1.706773">
        <ele>166.318524</ele>
        <time>2019-07-30T20:37:58.373Z</time>
      </trkpt>
      <trkpt lat="49.394244" lon="1.707234">
        <ele>165.722002</ele>
        <time>2019-07-30T20:38:05.375Z</time>
      </trkpt>
      <trkpt lat="49.393710" lon="1.707784">
        <ele>164.981899</ele>
        <time>2019-07-30T20:38:12.786Z</time>
      </trkpt>
      <trkpt lat="49.386741" lon="1.714861">
        <ele>152.643552</ele>
        <time>2019-07-30T20:39:48.507Z</time>
      </trkpt>
      <trkpt lat="49.385610" lon="1.718618">
        <ele>152.425358</ele>
        <time>2019-07-30T20:40:29.958Z</time>
      </trkpt>
      <trkpt lat="49.385459" lon="1.719187">
        <ele>152.550863</ele>
        <time>2019-07-30T20:40:36.788Z</time>
      </trkpt>
      <trkpt lat="49.385281" lon="1.719859">
        <ele>152.699047</ele>
        <time>2019-07-30T20:40:44.775Z</time>
      </trkpt>
      <trkpt lat="49.382664" lon="1.726532">
        <ele>152.916697</ele>
        <time>2019-07-30T20:42:02.732Z</time>
      </trkpt>
      <trkpt lat="49.382588" lon="1.727048">
        <ele>152.757195</ele>
        <time>2019-07-30T20:42:07.144Z</time>
      </trkpt>
      <trkpt lat="49.382549" lon="1.727461">
        <ele>152.631374</ele>
        <time>2019-07-30T20:42:10.501Z</time>
      </trkpt>
      <trkpt lat="49.382523" lon="1.729680">
        <ele>151.040813</ele>
        <time>2019-07-30T20:42:27.273Z</time>
      </trkpt>
      <trkpt lat="49.382523" lon="1.730010">
        <ele>150.780718</ele>
        <time>2019-07-30T20:42:29.804Z</time>
      </trkpt>
      <trkpt lat="49.382500" lon="1.730130">
        <ele>150.682123</ele>
        <time>2019-07-30T20:42:30.821Z</time>
      </trkpt>
      <trkpt lat="49.382474" lon="1.730198">
        <ele>150.619968</ele>
        <time>2019-07-30T20:42:31.452Z</time>
      </trkpt>
      <trkpt lat="49.382460" lon="1.730232">
        <ele>150.588259</ele>
        <time>2019-07-30T20:42:31.734Z</time>
      </trkpt>
      <trkpt lat="49.380990" lon="1.731706">
        <ele>149.577896</ele>
        <time>2019-07-30T20:42:54.512Z</time>
      </trkpt>
      <trkpt lat="49.380773" lon="1.731849">
        <ele>149.460848</ele>
        <time>2019-07-30T20:42:58.191Z</time>
      </trkpt>
      <trkpt lat="49.380588" lon="1.731971">
        <ele>149.478876</ele>
        <time>2019-07-30T20:43:01.808Z</time>
      </trkpt>
      <trkpt lat="49.380354" lon="1.732059">
        <ele>149.500448</ele>
        <time>2019-07-30T20:43:05.238Z</time>
      </trkpt>
      <trkpt lat="49.380200" lon="1.732206">
        <ele>149.516684</ele>
        <time>2019-07-30T20:43:08.518Z</time>
      </trkpt>
      <trkpt lat="49.380145" lon="1.732259">
        <ele>149.522498</ele>
        <time>2019-07-30T20:43:09.204Z</time>
      </trkpt>
      <trkpt lat="49.380096" lon="1.732273">
        <ele>149.526961</ele>
        <time>2019-07-30T20:43:10.063Z</time>
      </trkpt>
      <trkpt lat="49.380031" lon="1.732277">
        <ele>149.532786</ele>
        <time>2019-07-30T20:43:11.100Z</time>
      </trkpt>
      <trkpt lat="49.380011" lon="1.732237">
        <ele>149.535726</ele>
        <time>2019-07-30T20:43:11.908Z</time>
      </trkpt>
      <trkpt lat="49.379876" lon="1.731984">
        <ele>149.554796</ele>
        <time>2019-07-30T20:43:14.533Z</time>
      </trkpt>
      <trkpt lat="49.379806" lon="1.731901">
        <ele>149.562714</ele>
        <time>2019-07-30T20:43:16.200Z</time>
      </trkpt>
      <trkpt lat="49.379667" lon="1.731686">
        <ele>149.580378</ele>
        <time>2019-07-30T20:43:19.722Z</time>
      </trkpt>
      <trkpt lat="49.379509" lon="1.731253">
        <ele>149.609316</ele>
        <time>2019-07-30T20:43:24.458Z</time>
      </trkpt>
      <trkpt lat="49.379472" lon="1.731184">
        <ele>149.614527</ele>
        <time>2019-07-30T20:43:25.566Z</time>
      </trkpt>
      <trkpt lat="49.379432" lon="1.731184">
        <ele>149.618109</ele>
        <time>2019-07-30T20:43:25.942Z</time>
      </trkpt>
      <trkpt lat="49.378779" lon="1.731507">
        <ele>149.780462</ele>
        <time>2019-07-30T20:43:38.119Z</time>
      </trkpt>
      <trkpt lat="49.378700" lon="1.731507">
        <ele>149.799910</ele>
        <time>2019-07-30T20:43:38.941Z</time>
      </trkpt>
      <trkpt lat="49.378662" lon="1.731507">
        <ele>149.809265</ele>
        <time>2019-07-30T20:43:40.135Z</time>
      </trkpt>
      <trkpt lat="49.377779" lon="1.731292">
        <ele>150.029359</ele>
        <time>2019-07-30T20:43:54.054Z</time>
      </trkpt>
      <trkpt lat="49.377561" lon="1.731423">
        <ele>150.045859</ele>
        <time>2019-07-30T20:43:57.737Z</time>
      </trkpt>
      <trkpt lat="49.377434" lon="1.731512">
        <ele>150.016983</ele>
        <time>2019-07-30T20:43:59.948Z</time>
      </trkpt>
      <trkpt lat="49.377166" lon="1.731721">
        <ele>149.954808</ele>
        <time>2019-07-30T20:44:04.651Z</time>
      </trkpt>
      <trkpt lat="49.376974" lon="1.731880">
        <ele>149.909685</ele>
        <time>2019-07-30T20:44:08.126Z</time>
      </trkpt>
      <trkpt lat="49.376703" lon="1.732066">
        <ele>149.848284</ele>
        <time>2019-07-30T20:44:12.620Z</time>
      </trkpt>
      <trkpt lat="49.376483" lon="1.732189">
        <ele>149.799854</ele>
        <time>2019-07-30T20:44:16.023Z</time>
      </trkpt>
      <trkpt lat="49.375950" lon="1.732414">
        <ele>149.632245</ele>
        <time>2019-07-30T20:44:23.428Z</time>
      </trkpt>
      <trkpt lat="49.374207" lon="1.732587">
        <ele>146.546435</ele>
        <time>2019-07-30T20:44:42.776Z</time>
      </trkpt>
      <trkpt lat="49.374068" lon="1.732540">
        <ele>146.247773</ele>
        <time>2019-07-30T20:44:44.290Z</time>
      </trkpt>
      <trkpt lat="49.374033" lon="1.732575">
        <ele>146.158145</ele>
        <time>2019-07-30T20:44:44.837Z</time>
      </trkpt>
      <trkpt lat="49.373474" lon="1.732629">
        <ele>144.956167</ele>
        <time>2019-07-30T20:44:53.561Z</time>
      </trkpt>
      <trkpt lat="49.372400" lon="1.733396">
        <ele>142.562680</ele>
        <time>2019-07-30T20:45:11.847Z</time>
      </trkpt>
      <trkpt lat="49.371901" lon="1.734692">
        <ele>141.755426</ele>
        <time>2019-07-30T20:45:28.654Z</time>
      </trkpt>
      <trkpt lat="49.369691" lon="1.738756">
        <ele>142.144658</ele>
        <time>2019-07-30T20:46:39.695Z</time>
      </trkpt>
      <trkpt lat="49.368946" lon="1.740653">
        <ele>144.069088</ele>
        <time>2019-07-30T20:47:19.084Z</time>
      </trkpt>
      <trkpt lat="49.367214" lon="1.742607">
        <ele>147.830107</ele>
        <time>2019-07-30T20:48:20.970Z</time>
      </trkpt>
      <trkpt lat="49.366349" lon="1.743231">
        <ele>148.988487</ele>
        <time>2019-07-30T20:48:43.557Z</time>
      </trkpt>
      <trkpt lat="49.365827" lon="1.743605">
        <ele>148.564751</ele>
        <time>2019-07-30T20:48:54.994Z</time>
      </trkpt>
      <trkpt lat="49.365944" lon="1.743711">
        <ele>148.464820</ele>
        <time>2019-07-30T20:48:56.848Z</time>
      </trkpt>
      <trkpt lat="49.366678" lon="1.744185">
        <ele>147.879070</ele>
        <time>2019-07-30T20:49:06.393Z</time>
      </trkpt>
      <trkpt lat="49.367096" lon="1.744855">
        <ele>146.535216</ele>
        <time>2019-07-30T20:49:13.022Z</time>
      </trkpt>
      <trkpt lat="49.367367" lon="1.745789">
        <ele>144.578309</ele>
        <time>2019-07-30T20:49:19.950Z</time>
      </trkpt>
      <trkpt lat="49.367159" lon="1.746703">
        <ele>142.725347</ele>
        <time>2019-07-30T20:49:26.234Z</time>
      </trkpt>
      <trkpt lat="49.366096" lon="1.748367">
        <ele>136.459180</ele>
        <time>2019-07-30T20:49:40.931Z</time>
      </trkpt>
      <trkpt lat="49.362276" lon="1.752896">
        <ele>115.112780</ele>
        <time>2019-07-30T20:50:27.602Z</time>
      </trkpt>
      <trkpt lat="49.361826" lon="1.753546">
        <ele>112.025659</ele>
        <time>2019-07-30T20:50:33.385Z</time>
      </trkpt>
      <trkpt lat="49.361398" lon="1.754283">
        <ele>108.283303</ele>
        <time>2019-07-30T20:50:39.304Z</time>
      </trkpt>
      <trkpt lat="49.360920" lon="1.755107">
        <ele>103.490933</ele>
        <time>2019-07-30T20:50:45.834Z</time>
      </trkpt>
      <trkpt lat="49.359089" lon="1.756588">
        <ele>89.628947</ele>
        <time>2019-07-30T20:51:04.366Z</time>
      </trkpt>
      <trkpt lat="49.358487" lon="1.756976">
        <ele>85.680435</ele>
        <time>2019-07-30T20:51:10.397Z</time>
      </trkpt>
      <trkpt lat="49.357686" lon="1.757364">
        <ele>82.325272</ele>
        <time>2019-07-30T20:51:18.340Z</time>
      </trkpt>
      <trkpt lat="49.356759" lon="1.757713">
        <ele>79.254356</ele>
        <time>2019-07-30T20:51:28.150Z</time>
      </trkpt>
      <trkpt lat="49.356724" lon="1.757726">
        <ele>79.281767</ele>
        <time>2019-07-30T20:51:28.550Z</time>
      </trkpt>
      <trkpt lat="49.355851" lon="1.758052">
        <ele>79.965689</ele>
        <time>2019-07-30T20:51:43.252Z</time>
      </trkpt>
      <trkpt lat="49.355747" lon="1.758204">
        <ele>80.074994</ele>
        <time>2019-07-30T20:51:45.582Z</time>
      </trkpt>
      <trkpt lat="49.355621" lon="1.758093">
        <ele>80.185577</ele>
        <time>2019-07-30T20:51:50.275Z</time>
      </trkpt>
      <trkpt lat="49.353923" lon="1.758125">
        <ele>83.903121</ele>
        <time>2019-07-30T20:52:47.355Z</time>
      </trkpt>
      <trkpt lat="49.352694" lon="1.758702">
        <ele>84.436854</ele>
        <time>2019-07-30T20:53:20.135Z</time>
      </trkpt>
      <trkpt lat="49.349888" lon="1.761716">
        <ele>76.297992</ele>
        <time>2019-07-30T20:54:10.694Z</time>
      </trkpt>
      <trkpt lat="49.347595" lon="1.763205">
        <ele>69.966433</ele>
        <time>2019-07-30T20:54:48.487Z</time>
      </trkpt>
      <trkpt lat="49.345856" lon="1.763919">
        <ele>66.343975</ele>
        <time>2019-07-30T20:55:16.578Z</time>
      </trkpt>
      <trkpt lat="49.344104" lon="1.763896">
        <ele>64.201042</ele>
        <time>2019-07-30T20:55:46.211Z</time>
      </trkpt>
      <trkpt lat="49.342115" lon="1.764307">
        <ele>63.111589</ele>
        <time>2019-07-30T20:56:24.676Z</time>
      </trkpt>
      <trkpt lat="49.341676" lon="1.764397">
        <ele>62.925203</ele>
        <time>2019-07-30T20:56:32.918Z</time>
      </trkpt>
      <trkpt lat="49.340585" lon="1.764311">
        <ele>62.298870</ele>
        <time>2019-07-30T20:56:52.571Z</time>
      </trkpt>
      <trkpt lat="49.339902" lon="1.764677">
        <ele>61.958185</ele>
        <time>2019-07-30T20:57:05.895Z</time>
      </trkpt>
      <trkpt lat="49.339509" lon="1.765166">
        <ele>62.013495</ele>
        <time>2019-07-30T20:57:15.755Z</time>
      </trkpt>
      <trkpt lat="49.339446" lon="1.765244">
        <ele>62.022344</ele>
        <time>2019-07-30T20:57:17.444Z</time>
      </trkpt>
      <trkpt lat="49.338563" lon="1.765710">
        <ele>62.124424</ele>
        <time>2019-07-30T20:57:37.228Z</time>
      </trkpt>
      <trkpt lat="49.337295" lon="1.765877">
        <ele>62.552240</ele>
        <time>2019-07-30T20:58:05.875Z</time>
      </trkpt>
      <trkpt lat="49.335501" lon="1.765418">
        <ele>62.716144</ele>
        <time>2019-07-30T20:58:43.675Z</time>
      </trkpt>
      <trkpt lat="49.335473" lon="1.765430">
        <ele>62.713708</ele>
        <time>2019-07-30T20:58:44.157Z</time>
      </trkpt>
      <trkpt lat="49.335302" lon="1.765499">
        <ele>62.698892</ele>
        <time>2019-07-30T20:58:47.588Z</time>
      </trkpt>
      <trkpt lat="49.334854" lon="1.765926">
        <ele>62.617625</ele>
        <time>2019-07-30T20:58:57.601Z</time>
      </trkpt>
      <trkpt lat="49.334796" lon="1.766885">
        <ele>62.163165</ele>
        <time>2019-07-30T20:59:09.029Z</time>
      </trkpt>
      <trkpt lat="49.334353" lon="1.766730">
        <ele>61.834149</ele>
        <time>2019-07-30T20:59:16.974Z</time>
      </trkpt>
      <trkpt lat="49.334029" lon="1.766598">
        <ele>61.591407</ele>
        <time>2019-07-30T20:59:22.946Z</time>
      </trkpt>
      <trkpt lat="49.333654" lon="1.766492">
        <ele>61.325184</ele>
        <time>2019-07-30T20:59:29.725Z</time>
      </trkpt>
      <trkpt lat="49.333433" lon="1.766490">
        <ele>61.202985</ele>
        <time>2019-07-30T20:59:33.713Z</time>
      </trkpt>
      <trkpt lat="49.333202" lon="1.766637">
        <ele>61.064711</ele>
        <time>2019-07-30T20:59:38.171Z</time>
      </trkpt>
      <trkpt lat="49.332995" lon="1.766790">
        <ele>60.937670</ele>
        <time>2019-07-30T20:59:42.336Z</time>
      </trkpt>
      <trkpt lat="49.331359" lon="1.766669">
        <ele>60.216801</ele>
        <time>2019-07-30T21:00:13.030Z</time>
      </trkpt>
      <trkpt lat="49.329322" lon="1.766958">
        <ele>59.844407</ele>
        <time>2019-07-30T21:00:53.360Z</time>
      </trkpt>
      <trkpt lat="49.325479" lon="1.766768">
        <ele>59.580548</ele>
        <time>2019-07-30T21:02:09.867Z</time>
      </trkpt>
      <trkpt lat="49.324707" lon="1.766681">
        <ele>59.591113</ele>
        <time>2019-07-30T21:02:26.030Z</time>
      </trkpt>
      <trkpt lat="49.324364" lon="1.766626">
        <ele>59.660052</ele>
        <time>2019-07-30T21:02:31.166Z</time>
      </trkpt>
      <trkpt lat="49.323633" lon="1.766530">
        <ele>59.806715</ele>
        <time>2019-07-30T21:02:42.404Z</time>
      </trkpt>
      <trkpt lat="49.322918" lon="1.766402">
        <ele>59.973358</ele>
        <time>2019-07-30T21:02:53.771Z</time>
      </trkpt>
      <trkpt lat="49.318271" lon="1.765617">
        <ele>62.785875</ele>
        <time>2019-07-30T21:04:13.627Z</time>
      </trkpt>
      <trkpt lat="49.315906" lon="1.765657">
        <ele>65.156383</ele>
        <time>2019-07-30T21:05:00.172Z</time>
      </trkpt>
      <trkpt lat="49.314483" lon="1.766044">
        <ele>65.279815</ele>
        <time>2019-07-30T21:05:23.273Z</time>
      </trkpt>
      <trkpt lat="49.314408" lon="1.766030">
        <ele>65.281494</ele>
        <time>2019-07-30T21:05:24.245Z</time>
      </trkpt>
      <trkpt lat="49.314355" lon="1.766019">
        <ele>65.282683</ele>
        <time>2019-07-30T21:05:25.213Z</time>
      </trkpt>
      <trkpt lat="49.313930" lon="1.765892">
        <ele>65.167759</ele>
        <time>2019-07-30T21:05:30.594Z</time>
      </trkpt>
      <trkpt lat="49.313796" lon="1.766204">
        <ele>64.924573</ele>
        <time>2019-07-30T21:05:33.397Z</time>
      </trkpt>
      <trkpt lat="49.313736" lon="1.766368">
        <ele>64.802166</ele>
        <time>2019-07-30T21:05:34.784Z</time>
      </trkpt>
      <trkpt lat="49.313703" lon="1.766458">
        <ele>64.734956</ele>
        <time>2019-07-30T21:05:35.471Z</time>
      </trkpt>
      <trkpt lat="49.312404" lon="1.766999">
        <ele>63.470016</ele>
        <time>2019-07-30T21:05:52.246Z</time>
      </trkpt>
      <trkpt lat="49.312383" lon="1.766996">
        <ele>63.465144</ele>
        <time>2019-07-30T21:05:52.430Z</time>
      </trkpt>
      <trkpt lat="49.312253" lon="1.766968">
        <ele>63.434820</ele>
        <time>2019-07-30T21:05:53.898Z</time>
      </trkpt>
      <trkpt lat="49.312179" lon="1.766961">
        <ele>63.417694</ele>
        <time>2019-07-30T21:05:55.466Z</time>
      </trkpt>
      <trkpt lat="49.311506" lon="1.766944">
        <ele>63.262215</ele>
        <time>2019-07-30T21:06:04.503Z</time>
      </trkpt>
      <trkpt lat="49.309852" lon="1.768039">
        <ele>63.224180</ele>
        <time>2019-07-30T21:06:32.872Z</time>
      </trkpt>
      <trkpt lat="49.307884" lon="1.768514">
        <ele>62.992295</ele>
        <time>2019-07-30T21:07:03.065Z</time>
      </trkpt>
      <trkpt lat="49.307465" lon="1.768617">
        <ele>62.869481</ele>
        <time>2019-07-30T21:07:08.658Z</time>
      </trkpt>
      <trkpt lat="49.307406" lon="1.768670">
        <ele>62.849692</ele>
        <time>2019-07-30T21:07:09.386Z</time>
      </trkpt>
      <trkpt lat="49.306400" lon="1.769140">
        <ele>61.776163</ele>
        <time>2019-07-30T21:07:21.976Z</time>
      </trkpt>
      <trkpt lat="49.305668" lon="1.769247">
        <ele>60.964620</ele>
        <time>2019-07-30T21:07:30.572Z</time>
      </trkpt>
      <trkpt lat="49.305052" lon="1.769372">
        <ele>60.684488</ele>
        <time>2019-07-30T21:07:38.304Z</time>
      </trkpt>
      <trkpt lat="49.303009" lon="1.770486">
        <ele>60.285279</ele>
        <time>2019-07-30T21:08:10.448Z</time>
      </trkpt>
      <trkpt lat="49.298643" lon="1.772093">
        <ele>60.061636</ele>
        <time>2019-07-30T21:09:16.842Z</time>
      </trkpt>
      <trkpt lat="49.294722" lon="1.771172">
        <ele>57.940097</ele>
        <time>2019-07-30T21:10:08.366Z</time>
      </trkpt>
      <trkpt lat="49.293906" lon="1.771181">
        <ele>57.735876</ele>
        <time>2019-07-30T21:10:19.409Z</time>
      </trkpt>
      <trkpt lat="49.293193" lon="1.771175">
        <ele>57.614387</ele>
        <time>2019-07-30T21:10:29.773Z</time>
      </trkpt>
      <trkpt lat="49.291067" lon="1.771808">
        <ele>59.339156</ele>
        <time>2019-07-30T21:11:07.803Z</time>
      </trkpt>
      <trkpt lat="49.287629" lon="1.773411">
        <ele>65.204799</ele>
        <time>2019-07-30T21:12:27.984Z</time>
      </trkpt>
      <trkpt lat="49.286344" lon="1.773706">
        <ele>66.606452</ele>
        <time>2019-07-30T21:12:52.155Z</time>
      </trkpt>
      <trkpt lat="49.286103" lon="1.773770">
        <ele>66.789856</ele>
        <time>2019-07-30T21:12:56.071Z</time>
      </trkpt>
      <trkpt lat="49.285982" lon="1.773803">
        <ele>66.865857</ele>
        <time>2019-07-30T21:12:57.609Z</time>
      </trkpt>
      <trkpt lat="49.284789" lon="1.774386">
        <ele>67.640178</ele>
        <time>2019-07-30T21:13:18.703Z</time>
      </trkpt>
      <trkpt lat="49.284503" lon="1.774526">
        <ele>67.878116</ele>
        <time>2019-07-30T21:13:24.109Z</time>
      </trkpt>
      <trkpt lat="49.284358" lon="1.774518">
        <ele>68.115485</ele>
        <time>2019-07-30T21:13:27.081Z</time>
      </trkpt>
      <trkpt lat="49.284287" lon="1.774484">
        <ele>68.237174</ele>
        <time>2019-07-30T21:13:28.542Z</time>
      </trkpt>
      <trkpt lat="49.283776" lon="1.773789">
        <ele>69.354737</ele>
        <time>2019-07-30T21:13:43.017Z</time>
      </trkpt>
      <trkpt lat="49.283741" lon="1.773740">
        <ele>69.432281</ele>
        <time>2019-07-30T21:13:44.050Z</time>
      </trkpt>
      <trkpt lat="49.283558" lon="1.773484">
        <ele>69.837577</ele>
        <time>2019-07-30T21:13:49.926Z</time>
      </trkpt>
      <trkpt lat="49.283539" lon="1.773457">
        <ele>69.879961</ele>
        <time>2019-07-30T21:13:50.562Z</time>
      </trkpt>
      <trkpt lat="49.283165" lon="1.772981">
        <ele>70.675199</ele>
        <time>2019-07-30T21:14:02.200Z</time>
      </trkpt>
      <trkpt lat="49.282995" lon="1.772832">
        <ele>70.854559</ele>
        <time>2019-07-30T21:14:06.626Z</time>
      </trkpt>
      <trkpt lat="49.282792" lon="1.772746">
        <ele>71.011509</ele>
        <time>2019-07-30T21:14:11.175Z</time>
      </trkpt>
      <trkpt lat="49.282619" lon="1.772664">
        <ele>71.146454</ele>
        <time>2019-07-30T21:14:14.639Z</time>
      </trkpt>
      <trkpt lat="49.282460" lon="1.772680">
        <ele>71.265199</ele>
        <time>2019-07-30T21:14:17.443Z</time>
      </trkpt>
      <trkpt lat="49.282455" lon="1.772681">
        <ele>71.268956</ele>
        <time>2019-07-30T21:14:17.632Z</time>
      </trkpt>
      <trkpt lat="49.282232" lon="1.772784">
        <ele>71.442520</ele>
        <time>2019-07-30T21:14:21.502Z</time>
      </trkpt>
      <trkpt lat="49.281953" lon="1.772018">
        <ele>71.869011</ele>
        <time>2019-07-30T21:14:33.536Z</time>
      </trkpt>
      <trkpt lat="49.281917" lon="1.771920">
        <ele>71.923686</ele>
        <time>2019-07-30T21:14:34.890Z</time>
      </trkpt>
      <trkpt lat="49.281888" lon="1.771844">
        <ele>71.966489</ele>
        <time>2019-07-30T21:14:36.156Z</time>
      </trkpt>
      <trkpt lat="49.281844" lon="1.771747">
        <ele>72.023924</ele>
        <time>2019-07-30T21:14:37.691Z</time>
      </trkpt>
      <trkpt lat="49.281658" lon="1.771295">
        <ele>72.046852</ele>
        <time>2019-07-30T21:14:44.839Z</time>
      </trkpt>
      <trkpt lat="49.281502" lon="1.770745">
        <ele>72.004369</ele>
        <time>2019-07-30T21:14:52.692Z</time>
      </trkpt>
      <trkpt lat="49.281430" lon="1.770213">
        <ele>71.965881</ele>
        <time>2019-07-30T21:14:59.589Z</time>
      </trkpt>
      <trkpt lat="49.281425" lon="1.770148">
        <ele>71.961245</ele>
        <time>2019-07-30T21:15:00.493Z</time>
      </trkpt>
      <trkpt lat="49.281368" lon="1.769477">
        <ele>71.913313</ele>
        <time>2019-07-30T21:15:09.216Z</time>
      </trkpt>
      <trkpt lat="49.281324" lon="1.768961">
        <ele>71.845608</ele>
        <time>2019-07-30T21:15:16.006Z</time>
      </trkpt>
      <trkpt lat="49.281235" lon="1.767938">
        <ele>71.340328</ele>
        <time>2019-07-30T21:15:28.841Z</time>
      </trkpt>
      <trkpt lat="49.281171" lon="1.767714">
        <ele>71.220603</ele>
        <time>2019-07-30T21:15:31.859Z</time>
      </trkpt>
      <trkpt lat="49.280978" lon="1.767501">
        <ele>71.042123</ele>
        <time>2019-07-30T21:15:35.972Z</time>
      </trkpt>
      <trkpt lat="49.280716" lon="1.767446">
        <ele>70.843657</ele>
        <time>2019-07-30T21:15:40.670Z</time>
      </trkpt>
      <trkpt lat="49.280403" lon="1.767381">
        <ele>70.606604</ele>
        <time>2019-07-30T21:15:46.052Z</time>
      </trkpt>
      <trkpt lat="49.279904" lon="1.767485">
        <ele>69.685281</ele>
        <time>2019-07-30T21:15:54.237Z</time>
      </trkpt>
      <trkpt lat="49.279585" lon="1.767458">
        <ele>69.015693</ele>
        <time>2019-07-30T21:15:59.269Z</time>
      </trkpt>
      <trkpt lat="49.279289" lon="1.767346">
        <ele>68.376707</ele>
        <time>2019-07-30T21:16:04.112Z</time>
      </trkpt>
      <trkpt lat="49.279231" lon="1.767324">
        <ele>68.251483</ele>
        <time>2019-07-30T21:16:05.001Z</time>
      </trkpt>
      <trkpt lat="49.279258" lon="1.767088">
        <ele>67.923885</ele>
        <time>2019-07-30T21:16:06.728Z</time>
      </trkpt>
      <trkpt lat="49.279301" lon="1.766631">
        <ele>67.292581</ele>
        <time>2019-07-30T21:16:09.951Z</time>
      </trkpt>
      <trkpt lat="49.277980" lon="1.766976">
        <ele>63.147622</ele>
        <time>2019-07-30T21:18:26.073Z</time>
      </trkpt>
      <trkpt lat="49.277966" lon="1.766877">
        <ele>62.927858</ele>
        <time>2019-07-30T21:18:26.761Z</time>
      </trkpt>
      <trkpt lat="49.277949" lon="1.766722">
        <ele>62.586873</ele>
        <time>2019-07-30T21:18:27.788Z</time>
      </trkpt>
      <trkpt lat="49.277833" lon="1.766717">
        <ele>62.200974</ele>
        <time>2019-07-30T21:18:29.348Z</time>
      </trkpt>
      <trkpt lat="49.277397" lon="1.766316">
        <ele>60.462415</ele>
        <time>2019-07-30T21:18:36.533Z</time>
      </trkpt>
      <trkpt lat="49.277095" lon="1.766037">
        <ele>59.083241</ele>
        <time>2019-07-30T21:18:41.485Z</time>
      </trkpt>
      <trkpt lat="49.276899" lon="1.765730">
        <ele>57.987160</ele>
        <time>2019-07-30T21:18:45.338Z</time>
      </trkpt>
      <trkpt lat="49.276585" lon="1.765232">
        <ele>56.219894</ele>
        <time>2019-07-30T21:18:51.604Z</time>
      </trkpt>
      <trkpt lat="49.276059" lon="1.764575">
        <ele>53.640220</ele>
        <time>2019-07-30T21:19:01.344Z</time>
      </trkpt>
      <trkpt lat="49.275712" lon="1.764151">
        <ele>52.620926</ele>
        <time>2019-07-30T21:19:07.816Z</time>
      </trkpt>
      <trkpt lat="49.275542" lon="1.763909">
        <ele>52.088025</ele>
        <time>2019-07-30T21:19:11.306Z</time>
      </trkpt>
      <trkpt lat="49.275515" lon="1.763816">
        <ele>51.935484</ele>
        <time>2019-07-30T21:19:16.032Z</time>
      </trkpt>
      <trkpt lat="49.275477" lon="1.763532">
        <ele>51.501037</ele>
        <time>2019-07-30T21:19:29.813Z</time>
      </trkpt>
      <trkpt lat="49.275593" lon="1.763273">
        <ele>51.030259</ele>
        <time>2019-07-30T21:19:44.808Z</time>
      </trkpt>
      <trkpt lat="49.275609" lon="1.763170">
        <ele>50.871594</ele>
        <time>2019-07-30T21:19:49.952Z</time>
      </trkpt>
      <trkpt lat="49.275347" lon="1.763109">
        <ele>50.262902</ele>
        <time>2019-07-30T21:19:52.902Z</time>
      </trkpt>
      <trkpt lat="49.275346" lon="1.763033">
        <ele>50.148988</ele>
        <time>2019-07-30T21:19:53.482Z</time>
      </trkpt>
      <trkpt lat="49.275207" lon="1.762849">
        <ele>49.727131</ele>
        <time>2019-07-30T21:19:55.597Z</time>
      </trkpt>
      <trkpt lat="49.275158" lon="1.762858">
        <ele>49.614327</ele>
        <time>2019-07-30T21:19:56.155Z</time>
      </trkpt>
      <trkpt lat="49.275118" lon="1.762887">
        <ele>49.582879</ele>
        <time>2019-07-30T21:19:56.641Z</time>
      </trkpt>
      <trkpt lat="49.275064" lon="1.762991">
        <ele>49.521248</ele>
        <time>2019-07-30T21:19:57.754Z</time>
      </trkpt>
      <trkpt lat="49.275054" lon="1.763056">
        <ele>49.490282</ele>
        <time>2019-07-30T21:19:58.319Z</time>
      </trkpt>
      <trkpt lat="49.274904" lon="1.763069">
        <ele>49.383507</ele>
        <time>2019-07-30T21:20:00.979Z</time>
      </trkpt>
      <trkpt lat="49.274878" lon="1.763057">
        <ele>49.364209</ele>
        <time>2019-07-30T21:20:01.445Z</time>
      </trkpt>
      <trkpt lat="49.274825" lon="1.763033">
        <ele>49.324932</ele>
        <time>2019-07-30T21:20:02.383Z</time>
      </trkpt>
      <trkpt lat="49.273321" lon="1.760832">
        <ele>48.183730</ele>
        <time>2019-07-30T21:20:41.067Z</time>
      </trkpt>
      <trkpt lat="49.272639" lon="1.758358">
        <ele>47.974044</ele>
        <time>2019-07-30T21:21:16.262Z</time>
      </trkpt>
      <trkpt lat="49.272514" lon="1.757918">
        <ele>47.991774</ele>
        <time>2019-07-30T21:21:22.679Z</time>
      </trkpt>
      <trkpt lat="49.272636" lon="1.757411">
        <ele>48.011737</ele>
        <time>2019-07-30T21:21:29.926Z</time>
      </trkpt>
      <trkpt lat="49.273372" lon="1.754480">
        <ele>48.243790</ele>
        <time>2019-07-30T21:22:12.571Z</time>
      </trkpt>
      <trkpt lat="49.273556" lon="1.753424">
        <ele>48.271391</ele>
        <time>2019-07-30T21:22:27.462Z</time>
      </trkpt>
      <trkpt lat="49.273630" lon="1.752407">
        <ele>48.265858</ele>
        <time>2019-07-30T21:22:41.223Z</time>
      </trkpt>
      <trkpt lat="49.273625" lon="1.749445">
        <ele>47.840037</ele>
        <time>2019-07-30T21:23:18.979Z</time>
      </trkpt>
      <trkpt lat="49.273291" lon="1.746965">
        <ele>46.897210</ele>
        <time>2019-07-30T21:23:49.055Z</time>
      </trkpt>
      <trkpt lat="49.272726" lon="1.744729">
        <ele>45.909533</ele>
        <time>2019-07-30T21:24:16.964Z</time>
      </trkpt>
      <trkpt lat="49.271535" lon="1.741868">
        <ele>45.284433</ele>
        <time>2019-07-30T21:24:58.990Z</time>
      </trkpt>
      <trkpt lat="49.271058" lon="1.740969">
        <ele>45.582339</ele>
        <time>2019-07-30T21:25:15.470Z</time>
      </trkpt>
      <trkpt lat="49.269535" lon="1.738097">
        <ele>49.343018</ele>
        <time>2019-07-30T21:26:18.753Z</time>
      </trkpt>
      <trkpt lat="49.269330" lon="1.737710">
        <ele>50.027953</ele>
        <time>2019-07-30T21:26:28.270Z</time>
      </trkpt>
      <trkpt lat="49.268202" lon="1.735583">
        <ele>54.926675</ele>
        <time>2019-07-30T21:27:25.781Z</time>
      </trkpt>
      <trkpt lat="49.268187" lon="1.735555">
        <ele>54.998803</ele>
        <time>2019-07-30T21:27:27.155Z</time>
      </trkpt>
      <trkpt lat="49.266555" lon="1.732526">
        <ele>62.527964</ele>
        <time>2019-07-30T21:28:50.578Z</time>
      </trkpt>
      <trkpt lat="49.265135" lon="1.729631">
        <ele>66.706236</ele>
        <time>2019-07-30T21:29:55.492Z</time>
      </trkpt>
      <trkpt lat="49.264528" lon="1.727488">
        <ele>68.122836</ele>
        <time>2019-07-30T21:30:30.747Z</time>
      </trkpt>
      <trkpt lat="49.263994" lon="1.723508">
        <ele>69.121803</ele>
        <time>2019-07-30T21:31:27.488Z</time>
      </trkpt>
      <trkpt lat="49.263906" lon="1.719817">
        <ele>69.822692</ele>
        <time>2019-07-30T21:32:21.989Z</time>
      </trkpt>
      <trkpt lat="49.264077" lon="1.714693">
        <ele>64.632615</ele>
        <time>2019-07-30T21:33:17.243Z</time>
      </trkpt>
      <trkpt lat="49.263368" lon="1.712588">
        <ele>58.115275</ele>
        <time>2019-07-30T21:33:38.664Z</time>
      </trkpt>
      <trkpt lat="49.262584" lon="1.711783">
        <ele>53.730155</ele>
        <time>2019-07-30T21:33:51.227Z</time>
      </trkpt>
      <trkpt lat="49.261722" lon="1.711429">
        <ele>49.439023</ele>
        <time>2019-07-30T21:34:03.262Z</time>
      </trkpt>
      <trkpt lat="49.260996" lon="1.711364">
        <ele>47.039177</ele>
        <time>2019-07-30T21:34:13.563Z</time>
      </trkpt>
      <trkpt lat="49.258351" lon="1.711295">
        <ele>42.851297</ele>
        <time>2019-07-30T21:34:57.370Z</time>
      </trkpt>
      <trkpt lat="49.254249" lon="1.712029">
        <ele>42.047418</ele>
        <time>2019-07-30T21:36:19.922Z</time>
      </trkpt>
      <trkpt lat="49.254172" lon="1.712041">
        <ele>42.043746</ele>
        <time>2019-07-30T21:36:21.520Z</time>
      </trkpt>
      <trkpt lat="49.253990" lon="1.712073">
        <ele>42.035008</ele>
        <time>2019-07-30T21:36:25.329Z</time>
      </trkpt>
      <trkpt lat="49.251710" lon="1.712081">
        <ele>41.739617</ele>
        <time>2019-07-30T21:37:11.000Z</time>
      </trkpt>
      <trkpt lat="49.250098" lon="1.710984">
        <ele>41.159090</ele>
        <time>2019-07-30T21:37:43.730Z</time>
      </trkpt>
      <trkpt lat="49.249430" lon="1.710115">
        <ele>40.836218</ele>
        <time>2019-07-30T21:38:00.108Z</time>
      </trkpt>
      <trkpt lat="49.244764" lon="1.701709">
        <ele>40.868339</ele>
        <time>2019-07-30T21:40:25.915Z</time>
      </trkpt>
      <trkpt lat="49.244183" lon="1.701220">
        <ele>41.146045</ele>
        <time>2019-07-30T21:40:41.391Z</time>
      </trkpt>
      <trkpt lat="49.244013" lon="1.701073">
        <ele>41.253182</ele>
        <time>2019-07-30T21:40:46.021Z</time>
      </trkpt>
      <trkpt lat="49.243916" lon="1.701012">
        <ele>41.310729</ele>
        <time>2019-07-30T21:40:48.496Z</time>
      </trkpt>
      <trkpt lat="49.243628" lon="1.700883">
        <ele>41.475406</ele>
        <time>2019-07-30T21:40:55.618Z</time>
      </trkpt>
      <trkpt lat="49.240589" lon="1.699849">
        <ele>42.014918</ele>
        <time>2019-07-30T21:42:01.794Z</time>
      </trkpt>
      <trkpt lat="49.239132" lon="1.698884">
        <ele>41.078164</ele>
        <time>2019-07-30T21:42:29.673Z</time>
      </trkpt>
      <trkpt lat="49.237697" lon="1.697885">
        <ele>39.921236</ele>
        <time>2019-07-30T21:42:57.714Z</time>
      </trkpt>
      <trkpt lat="49.235929" lon="1.697042">
        <ele>39.271701</ele>
        <time>2019-07-30T21:43:33.187Z</time>
      </trkpt>
      <trkpt lat="49.234771" lon="1.696915">
        <ele>39.137977</ele>
        <time>2019-07-30T21:43:56.111Z</time>
      </trkpt>
      <trkpt lat="49.232149" lon="1.696625">
        <ele>39.068971</ele>
        <time>2019-07-30T21:44:48.912Z</time>
      </trkpt>
      <trkpt lat="49.230804" lon="1.695790">
        <ele>39.233047</ele>
        <time>2019-07-30T21:45:19.232Z</time>
      </trkpt>
      <trkpt lat="49.228990" lon="1.694081">
        <ele>39.588223</ele>
        <time>2019-07-30T21:46:04.501Z</time>
      </trkpt>
      <trkpt lat="49.228939" lon="1.694031">
        <ele>39.576985</ele>
        <time>2019-07-30T21:46:05.762Z</time>
      </trkpt>
      <trkpt lat="49.226015" lon="1.691200">
        <ele>38.695453</ele>
        <time>2019-07-30T21:47:11.641Z</time>
      </trkpt>
      <trkpt lat="49.225900" lon="1.691088">
        <ele>38.679374</ele>
        <time>2019-07-30T21:47:14.370Z</time>
      </trkpt>
      <trkpt lat="49.225000" lon="1.689859">
        <ele>38.537107</ele>
        <time>2019-07-30T21:47:38.567Z</time>
      </trkpt>
      <trkpt lat="49.219460" lon="1.681244">
        <ele>38.569032</ele>
        <time>2019-07-30T21:50:18.558Z</time>
      </trkpt>
      <trkpt lat="49.218839" lon="1.680324">
        <ele>38.537174</ele>
        <time>2019-07-30T21:50:35.945Z</time>
      </trkpt>
      <trkpt lat="49.216730" lon="1.676386">
        <ele>38.153566</ele>
        <time>2019-07-30T21:51:43.684Z</time>
      </trkpt>
      <trkpt lat="49.215758" lon="1.674647">
        <ele>37.084546</ele>
        <time>2019-07-30T21:52:09.678Z</time>
      </trkpt>
      <trkpt lat="49.215788" lon="1.674545">
        <ele>37.011128</ele>
        <time>2019-07-30T21:52:10.856Z</time>
      </trkpt>
      <trkpt lat="49.215718" lon="1.674249">
        <ele>36.804519</ele>
        <time>2019-07-30T21:52:14.375Z</time>
      </trkpt>
      <trkpt lat="49.215629" lon="1.674193">
        <ele>36.707838</ele>
        <time>2019-07-30T21:52:15.996Z</time>
      </trkpt>
      <trkpt lat="49.215365" lon="1.674007">
        <ele>36.415841</ele>
        <time>2019-07-30T21:52:20.952Z</time>
      </trkpt>
      <trkpt lat="49.215298" lon="1.673956">
        <ele>36.340660</ele>
        <time>2019-07-30T21:52:22.244Z</time>
      </trkpt>
      <trkpt lat="49.215219" lon="1.673834">
        <ele>36.227913</ele>
        <time>2019-07-30T21:52:24.115Z</time>
      </trkpt>
      <trkpt lat="49.213865" lon="1.672192">
        <ele>35.235302</ele>
        <time>2019-07-30T21:52:55.640Z</time>
      </trkpt>
      <trkpt lat="49.211597" lon="1.670378">
        <ele>35.429647</ele>
        <time>2019-07-30T21:53:48.444Z</time>
      </trkpt>
      <trkpt lat="49.207826" lon="1.668860">
        <ele>36.728171</ele>
        <time>2019-07-30T21:55:14.267Z</time>
      </trkpt>
      <trkpt lat="49.207705" lon="1.668813">
        <ele>36.743014</ele>
        <time>2019-07-30T21:55:17.034Z</time>
      </trkpt>
      <trkpt lat="49.207597" lon="1.668779">
        <ele>36.756123</ele>
        <time>2019-07-30T21:55:19.106Z</time>
      </trkpt>
      <trkpt lat="49.203361" lon="1.667553">
        <ele>35.914859</ele>
        <time>2019-07-30T21:56:42.636Z</time>
      </trkpt>
      <trkpt lat="49.201254" lon="1.666966">
        <ele>34.994819</ele>
        <time>2019-07-30T21:57:21.821Z</time>
      </trkpt>
      <trkpt lat="49.197916" lon="1.666044">
        <ele>35.669715</ele>
        <time>2019-07-30T21:58:33.443Z</time>
      </trkpt>
      <trkpt lat="49.195599" lon="1.665390">
        <ele>36.846511</ele>
        <time>2019-07-30T21:59:29.062Z</time>
      </trkpt>
      <trkpt lat="49.192251" lon="1.664905">
        <ele>35.314061</ele>
        <time>2019-07-30T22:00:30.020Z</time>
      </trkpt>
      <trkpt lat="49.185555" lon="1.663960">
        <ele>31.273931</ele>
        <time>2019-07-30T22:02:32.629Z</time>
      </trkpt>
      <trkpt lat="49.183519" lon="1.663865">
        <ele>31.561281</ele>
        <time>2019-07-30T22:03:14.858Z</time>
      </trkpt>
      <trkpt lat="49.183363" lon="1.663863">
        <ele>31.664515</ele>
        <time>2019-07-30T22:03:18.320Z</time>
      </trkpt>
      <trkpt lat="49.183253" lon="1.663861">
        <ele>31.737311</ele>
        <time>2019-07-30T22:03:20.764Z</time>
      </trkpt>
      <trkpt lat="49.178107" lon="1.663901">
        <ele>35.304793</ele>
        <time>2019-07-30T22:05:19.824Z</time>
      </trkpt>
      <trkpt lat="49.178031" lon="1.663915">
        <ele>35.349503</ele>
        <time>2019-07-30T22:05:22.057Z</time>
      </trkpt>
      <trkpt lat="49.177967" lon="1.663951">
        <ele>35.389331</ele>
        <time>2019-07-30T22:05:24.134Z</time>
      </trkpt>
      <trkpt lat="49.173100" lon="1.667540">
        <ele>38.110472</ele>
        <time>2019-07-30T22:07:24.514Z</time>
      </trkpt>
      <trkpt lat="49.171829" lon="1.667891">
        <ele>38.018984</ele>
        <time>2019-07-30T22:07:49.661Z</time>
      </trkpt>
      <trkpt lat="49.170110" lon="1.667667">
        <ele>37.180516</ele>
        <time>2019-07-30T22:08:21.880Z</time>
      </trkpt>
      <trkpt lat="49.166593" lon="1.664939">
        <ele>33.888266</ele>
        <time>2019-07-30T22:09:31.549Z</time>
      </trkpt>
      <trkpt lat="49.164261" lon="1.665020">
        <ele>31.887638</ele>
        <time>2019-07-30T22:10:12.385Z</time>
      </trkpt>
      <trkpt lat="49.164162" lon="1.665022">
        <ele>31.811946</ele>
        <time>2019-07-30T22:10:14.083Z</time>
      </trkpt>
      <trkpt lat="49.162676" lon="1.664939">
        <ele>30.686173</ele>
        <time>2019-07-30T22:10:41.321Z</time>
      </trkpt>
      <trkpt lat="49.160106" lon="1.663931">
        <ele>28.758363</ele>
        <time>2019-07-30T22:11:28.365Z</time>
      </trkpt>
      <trkpt lat="49.157827" lon="1.661815">
        <ele>27.592630</ele>
        <time>2019-07-30T22:12:18.489Z</time>
      </trkpt>
      <trkpt lat="49.157154" lon="1.660855">
        <ele>27.389988</ele>
        <time>2019-07-30T22:12:36.442Z</time>
      </trkpt>
      <trkpt lat="49.157004" lon="1.660602">
        <ele>27.340816</ele>
        <time>2019-07-30T22:12:40.857Z</time>
      </trkpt>
      <trkpt lat="49.156691" lon="1.660066">
        <ele>27.299858</ele>
        <time>2019-07-30T22:12:50.358Z</time>
      </trkpt>
      <trkpt lat="49.156612" lon="1.659931">
        <ele>27.305919</ele>
        <time>2019-07-30T22:12:52.671Z</time>
      </trkpt>
      <trkpt lat="49.155239" lon="1.656893">
        <ele>27.712004</ele>
        <time>2019-07-30T22:13:42.848Z</time>
      </trkpt>
      <trkpt lat="49.154471" lon="1.655832">
        <ele>28.126410</ele>
        <time>2019-07-30T22:14:06.058Z</time>
      </trkpt>
      <trkpt lat="49.153296" lon="1.654966">
        <ele>28.953261</ele>
        <time>2019-07-30T22:14:35.921Z</time>
      </trkpt>
      <trkpt lat="49.151101" lon="1.654119">
        <ele>30.133631</ele>
        <time>2019-07-30T22:15:26.724Z</time>
      </trkpt>
      <trkpt lat="49.150890" lon="1.654070">
        <ele>30.204865</ele>
        <time>2019-07-30T22:15:31.384Z</time>
      </trkpt>
      <trkpt lat="49.150228" lon="1.653877">
        <ele>30.429805</ele>
        <time>2019-07-30T22:15:45.454Z</time>
      </trkpt>
      <trkpt lat="49.143591" lon="1.652255">
        <ele>33.519389</ele>
        <time>2019-07-30T22:18:11.414Z</time>
      </trkpt>
      <trkpt lat="49.143413" lon="1.652212">
        <ele>33.763304</ele>
        <time>2019-07-30T22:18:16.324Z</time>
      </trkpt>
      <trkpt lat="49.143361" lon="1.652204">
        <ele>33.834042</ele>
        <time>2019-07-30T22:18:17.846Z</time>
      </trkpt>
      <trkpt lat="49.143329" lon="1.652198">
        <ele>33.877679</ele>
        <time>2019-07-30T22:18:18.901Z</time>
      </trkpt>
      <trkpt lat="49.141123" lon="1.651746">
        <ele>36.264983</ele>
        <time>2019-07-30T22:19:19.791Z</time>
      </trkpt>
      <trkpt lat="49.139579" lon="1.652584">
        <ele>34.836697</ele>
        <time>2019-07-30T22:19:47.767Z</time>
      </trkpt>
      <trkpt lat="49.139577" lon="1.652585">
        <ele>34.833163</ele>
        <time>2019-07-30T22:19:47.796Z</time>
      </trkpt>
      <trkpt lat="49.139455" lon="1.652715">
        <ele>34.583424</ele>
        <time>2019-07-30T22:19:49.919Z</time>
      </trkpt>
      <trkpt lat="49.138895" lon="1.653313">
        <ele>33.449280</ele>
        <time>2019-07-30T22:20:00.285Z</time>
      </trkpt>
      <trkpt lat="49.138667" lon="1.653501">
        <ele>33.036184</ele>
        <time>2019-07-30T22:20:04.333Z</time>
      </trkpt>
      <trkpt lat="49.138695" lon="1.653590">
        <ele>32.933159</ele>
        <time>2019-07-30T22:20:05.251Z</time>
      </trkpt>
      <trkpt lat="49.138891" lon="1.653428">
        <ele>32.577851</ele>
        <time>2019-07-30T22:20:07.771Z</time>
      </trkpt>
      <trkpt lat="49.138968" lon="1.653836">
        <ele>32.134857</ele>
        <time>2019-07-30T22:20:10.742Z</time>
      </trkpt>
      <trkpt lat="49.139003" lon="1.654023">
        <ele>31.931947</ele>
        <time>2019-07-30T22:20:12.391Z</time>
      </trkpt>
      <trkpt lat="49.139019" lon="1.654107">
        <ele>31.840678</ele>
        <time>2019-07-30T22:20:13.049Z</time>
      </trkpt>
      <trkpt lat="49.139031" lon="1.654172">
        <ele>31.770220</ele>
        <time>2019-07-30T22:20:13.608Z</time>
      </trkpt>
      <trkpt lat="49.139228" lon="1.655212">
        <ele>30.778911</ele>
        <time>2019-07-30T22:20:22.734Z</time>
      </trkpt>
      <trkpt lat="49.139263" lon="1.655821">
        <ele>30.616573</ele>
        <time>2019-07-30T22:20:28.067Z</time>
      </trkpt>
      <trkpt lat="49.139323" lon="1.656169">
        <ele>30.521009</ele>
        <time>2019-07-30T22:20:31.174Z</time>
      </trkpt>
      <trkpt lat="49.139369" lon="1.656429">
        <ele>30.449488</ele>
        <time>2019-07-30T22:20:33.542Z</time>
      </trkpt>
      <trkpt lat="49.139614" lon="1.657699">
        <ele>30.097894</ele>
        <time>2019-07-30T22:20:45.669Z</time>
      </trkpt>
      <trkpt lat="49.139685" lon="1.658020">
        <ele>30.228739</ele>
        <time>2019-07-30T22:20:48.668Z</time>
      </trkpt>
      <trkpt lat="49.139743" lon="1.658282">
        <ele>30.339313</ele>
        <time>2019-07-30T22:20:51.275Z</time>
      </trkpt>
      <trkpt lat="49.139931" lon="1.659180">
        <ele>30.716241</ele>
        <time>2019-07-30T22:21:00.115Z</time>
      </trkpt>
      <trkpt lat="49.139899" lon="1.659376">
        <ele>30.796999</ele>
        <time>2019-07-30T22:21:02.518Z</time>
      </trkpt>
      <trkpt lat="49.139581" lon="1.660378">
        <ele>31.446292</ele>
        <time>2019-07-30T22:21:17.607Z</time>
      </trkpt>
      <trkpt lat="49.139557" lon="1.660456">
        <ele>31.630158</ele>
        <time>2019-07-30T22:21:19.298Z</time>
      </trkpt>
      <trkpt lat="49.139468" lon="1.660645">
        <ele>32.126892</ele>
        <time>2019-07-30T22:21:22.254Z</time>
      </trkpt>
      <trkpt lat="49.139410" lon="1.660762">
        <ele>32.440022</ele>
        <time>2019-07-30T22:21:24.964Z</time>
      </trkpt>
      <trkpt lat="49.139389" lon="1.660765">
        <ele>32.508792</ele>
        <time>2019-07-30T22:21:25.561Z</time>
      </trkpt>
      <trkpt lat="49.139369" lon="1.660774">
        <ele>32.576770</ele>
        <time>2019-07-30T22:21:26.095Z</time>
      </trkpt>
      <trkpt lat="49.139352" lon="1.660788">
        <ele>32.639732</ele>
        <time>2019-07-30T22:21:26.608Z</time>
      </trkpt>
      <trkpt lat="49.139337" lon="1.660806">
        <ele>32.701911</ele>
        <time>2019-07-30T22:21:27.221Z</time>
      </trkpt>
      <trkpt lat="49.139320" lon="1.660840">
        <ele>32.793193</ele>
        <time>2019-07-30T22:21:28.104Z</time>
      </trkpt>
      <trkpt lat="49.139310" lon="1.660878">
        <ele>32.880563</ele>
        <time>2019-07-30T22:21:28.635Z</time>
      </trkpt>
      <trkpt lat="49.139307" lon="1.660920">
        <ele>32.970687</ele>
        <time>2019-07-30T22:21:29.240Z</time>
      </trkpt>
      <trkpt lat="49.139312" lon="1.660964">
        <ele>33.065949</ele>
        <time>2019-07-30T22:21:29.904Z</time>
      </trkpt>
      <trkpt lat="49.139346" lon="1.661037">
        <ele>33.257097</ele>
        <time>2019-07-30T22:21:31.088Z</time>
      </trkpt>
      <trkpt lat="49.139372" lon="1.661059">
        <ele>33.353993</ele>
        <time>2019-07-30T22:21:31.909Z</time>
      </trkpt>
      <trkpt lat="49.139378" lon="1.661160">
        <ele>33.570324</ele>
        <time>2019-07-30T22:21:33.987Z</time>
      </trkpt>
      <trkpt lat="49.139380" lon="1.661284">
        <ele>33.834911</ele>
        <time>2019-07-30T22:21:36.486Z</time>
      </trkpt>
      <trkpt lat="49.139372" lon="1.661330">
        <ele>33.936442</ele>
        <time>2019-07-30T22:21:37.643Z</time>
      </trkpt>
      <trkpt lat="49.139318" lon="1.661651">
        <ele>34.643446</ele>
        <time>2019-07-30T22:21:43.196Z</time>
      </trkpt>
      <trkpt lat="49.139307" lon="1.661723">
        <ele>34.801163</ele>
        <time>2019-07-30T22:21:44.843Z</time>
      </trkpt>
      <trkpt lat="49.139284" lon="1.661857">
        <ele>35.096674</ele>
        <time>2019-07-30T22:21:47.927Z</time>
      </trkpt>
      <trkpt lat="49.139142" lon="1.662660">
        <ele>36.871041</ele>
        <time>2019-07-30T22:22:04.913Z</time>
      </trkpt>
      <trkpt lat="49.139120" lon="1.662804">
        <ele>37.208402</ele>
        <time>2019-07-30T22:22:08.408Z</time>
      </trkpt>
      <trkpt lat="49.139069" lon="1.663127">
        <ele>38.039764</ele>
        <time>2019-07-30T22:22:15.143Z</time>
      </trkpt>
      <trkpt lat="49.139065" lon="1.663178">
        <ele>38.168282</ele>
        <time>2019-07-30T22:22:16.261Z</time>
      </trkpt>
      <trkpt lat="49.138995" lon="1.663993">
        <ele>40.224945</ele>
        <time>2019-07-30T22:22:33.946Z</time>
      </trkpt>
      <trkpt lat="49.138935" lon="1.664783">
        <ele>42.214836</ele>
        <time>2019-07-30T22:22:50.208Z</time>
      </trkpt>
      <trkpt lat="49.138937" lon="1.665576">
        <ele>44.024057</ele>
        <time>2019-07-30T22:23:04.084Z</time>
      </trkpt>
      <trkpt lat="49.138965" lon="1.666511">
        <ele>44.793376</ele>
        <time>2019-07-30T22:23:18.556Z</time>
      </trkpt>
      <trkpt lat="49.138912" lon="1.666782">
        <ele>45.025861</ele>
        <time>2019-07-30T22:23:22.020Z</time>
      </trkpt>
      <trkpt lat="49.138910" lon="1.666862">
        <ele>45.091665</ele>
        <time>2019-07-30T22:23:23.197Z</time>
      </trkpt>
      <trkpt lat="49.138946" lon="1.666989">
        <ele>45.205428</ele>
        <time>2019-07-30T22:23:24.955Z</time>
      </trkpt>
      <trkpt lat="49.138957" lon="1.667048">
        <ele>45.255853</ele>
        <time>2019-07-30T22:23:25.633Z</time>
      </trkpt>
      <trkpt lat="49.138972" lon="1.667126">
        <ele>45.322677</ele>
        <time>2019-07-30T22:23:26.277Z</time>
      </trkpt>
      <trkpt lat="49.138993" lon="1.667427">
        <ele>45.571484</ele>
        <time>2019-07-30T22:23:29.953Z</time>
      </trkpt>
      <trkpt lat="49.138949" lon="1.667689">
        <ele>45.793814</ele>
        <time>2019-07-30T22:23:32.459Z</time>
      </trkpt>
      <trkpt lat="49.138624" lon="1.670105">
        <ele>46.728800</ele>
        <time>2019-07-30T22:23:56.684Z</time>
      </trkpt>
      <trkpt lat="49.136135" lon="1.671892">
        <ele>49.679264</ele>
        <time>2019-07-30T22:24:50.588Z</time>
      </trkpt>
      <trkpt lat="49.133713" lon="1.677723">
        <ele>57.038909</ele>
        <time>2019-07-30T22:26:26.087Z</time>
      </trkpt>
      <trkpt lat="49.131739" lon="1.679163">
        <ele>62.399645</ele>
        <time>2019-07-30T22:27:22.599Z</time>
      </trkpt>
      <trkpt lat="49.129616" lon="1.680069">
        <ele>65.968019</ele>
        <time>2019-07-30T22:28:11.873Z</time>
      </trkpt>
      <trkpt lat="49.128609" lon="1.681043">
        <ele>66.113191</ele>
        <time>2019-07-30T22:28:28.041Z</time>
      </trkpt>
      <trkpt lat="49.128297" lon="1.681064">
        <ele>66.155288</ele>
        <time>2019-07-30T22:28:32.153Z</time>
      </trkpt>
      <trkpt lat="49.128161" lon="1.680996">
        <ele>66.181361</ele>
        <time>2019-07-30T22:28:33.919Z</time>
      </trkpt>
      <trkpt lat="49.128073" lon="1.680931">
        <ele>66.199170</ele>
        <time>2019-07-30T22:28:35.204Z</time>
      </trkpt>
      <trkpt lat="49.127865" lon="1.680801">
        <ele>66.240116</ele>
        <time>2019-07-30T22:28:38.179Z</time>
      </trkpt>
      <trkpt lat="49.127743" lon="1.680770">
        <ele>66.262651</ele>
        <time>2019-07-30T22:28:39.890Z</time>
      </trkpt>
      <trkpt lat="49.127597" lon="1.680797">
        <ele>66.289447</ele>
        <time>2019-07-30T22:28:41.968Z</time>
      </trkpt>
      <trkpt lat="49.127433" lon="1.680918">
        <ele>66.322630</ele>
        <time>2019-07-30T22:28:44.553Z</time>
      </trkpt>
      <trkpt lat="49.126194" lon="1.682685">
        <ele>67.573720</ele>
        <time>2019-07-30T22:29:16.046Z</time>
      </trkpt>
      <trkpt lat="49.125757" lon="1.684602">
        <ele>69.220349</ele>
        <time>2019-07-30T22:29:44.012Z</time>
      </trkpt>
      <trkpt lat="49.125031" lon="1.686423">
        <ele>70.914288</ele>
        <time>2019-07-30T22:30:11.179Z</time>
      </trkpt>
      <trkpt lat="49.124936" lon="1.686720">
        <ele>71.174338</ele>
        <time>2019-07-30T22:30:15.044Z</time>
      </trkpt>
      <trkpt lat="49.124884" lon="1.686880">
        <ele>71.314868</ele>
        <time>2019-07-30T22:30:17.155Z</time>
      </trkpt>
      <trkpt lat="49.124388" lon="1.687756">
        <ele>72.226107</ele>
        <time>2019-07-30T22:30:31.217Z</time>
      </trkpt>
      <trkpt lat="49.124332" lon="1.687956">
        <ele>72.397234</ele>
        <time>2019-07-30T22:30:33.628Z</time>
      </trkpt>
      <trkpt lat="49.124119" lon="1.688897">
        <ele>73.358186</ele>
        <time>2019-07-30T22:30:47.448Z</time>
      </trkpt>
      <trkpt lat="49.124110" lon="1.689066">
        <ele>73.699519</ele>
        <time>2019-07-30T22:30:49.574Z</time>
      </trkpt>
      <trkpt lat="49.124059" lon="1.689292">
        <ele>74.180761</ele>
        <time>2019-07-30T22:30:53.836Z</time>
      </trkpt>
      <trkpt lat="49.123986" lon="1.689471">
        <ele>74.605342</ele>
        <time>2019-07-30T22:30:56.677Z</time>
      </trkpt>
      <trkpt lat="49.123880" lon="1.689605">
        <ele>75.028527</ele>
        <time>2019-07-30T22:31:00.097Z</time>
      </trkpt>
      <trkpt lat="49.123820" lon="1.689680">
        <ele>75.266979</ele>
        <time>2019-07-30T22:31:02.758Z</time>
      </trkpt>
      <trkpt lat="49.123423" lon="1.690173">
        <ele>76.840610</ele>
        <time>2019-07-30T22:31:17.168Z</time>
      </trkpt>
      <trkpt lat="49.123284" lon="1.690345">
        <ele>77.390804</ele>
        <time>2019-07-30T22:31:23.238Z</time>
      </trkpt>
      <trkpt lat="49.123220" lon="1.690426">
        <ele>77.646434</ele>
        <time>2019-07-30T22:31:26.413Z</time>
      </trkpt>
      <trkpt lat="49.123120" lon="1.690549">
        <ele>78.041320</ele>
        <time>2019-07-30T22:31:29.458Z</time>
      </trkpt>
      <trkpt lat="49.122807" lon="1.690860">
        <ele>79.024261</ele>
        <time>2019-07-30T22:31:40.836Z</time>
      </trkpt>
      <trkpt lat="49.122392" lon="1.691274">
        <ele>80.121410</ele>
        <time>2019-07-30T22:31:55.373Z</time>
      </trkpt>
      <trkpt lat="49.122334" lon="1.691331">
        <ele>80.274068</ele>
        <time>2019-07-30T22:31:57.683Z</time>
      </trkpt>
      <trkpt lat="49.122171" lon="1.691380">
        <ele>80.641821</ele>
        <time>2019-07-30T22:32:01.280Z</time>
      </trkpt>
      <trkpt lat="49.121993" lon="1.691296">
        <ele>81.054227</ele>
        <time>2019-07-30T22:32:06.674Z</time>
      </trkpt>
      <trkpt lat="49.121925" lon="1.691550">
        <ele>81.451813</ele>
        <time>2019-07-30T22:32:09.328Z</time>
      </trkpt>
      <trkpt lat="49.121621" lon="1.692666">
        <ele>82.469347</ele>
        <time>2019-07-30T22:32:22.969Z</time>
      </trkpt>
      <trkpt lat="49.121747" lon="1.693312">
        <ele>82.294026</ele>
        <time>2019-07-30T22:32:29.029Z</time>
      </trkpt>
      <trkpt lat="49.121801" lon="1.693606">
        <ele>82.214606</ele>
        <time>2019-07-30T22:32:31.214Z</time>
      </trkpt>
      <trkpt lat="49.121806" lon="1.693795">
        <ele>82.165409</ele>
        <time>2019-07-30T22:32:32.721Z</time>
      </trkpt>
      <trkpt lat="49.121802" lon="1.693818">
        <ele>82.159219</ele>
        <time>2019-07-30T22:32:32.933Z</time>
      </trkpt>
      <trkpt lat="49.121795" lon="1.693864">
        <ele>82.146936</ele>
        <time>2019-07-30T22:32:33.318Z</time>
      </trkpt>
      <trkpt lat="49.121785" lon="1.693928">
        <ele>82.129822</ele>
        <time>2019-07-30T22:32:33.791Z</time>
      </trkpt>
      <trkpt lat="49.121768" lon="1.694017">
        <ele>82.105709</ele>
        <time>2019-07-30T22:32:34.469Z</time>
      </trkpt>
      <trkpt lat="49.121696" lon="1.694434">
        <ele>81.993540</ele>
        <time>2019-07-30T22:32:38.019Z</time>
      </trkpt>
      <trkpt lat="49.121697" lon="1.694775">
        <ele>81.904849</ele>
        <time>2019-07-30T22:32:40.863Z</time>
      </trkpt>
      <trkpt lat="49.121697" lon="1.694894">
        <ele>81.873898</ele>
        <time>2019-07-30T22:32:42.294Z</time>
      </trkpt>
      <trkpt lat="49.121411" lon="1.696258">
        <ele>82.591771</ele>
        <time>2019-07-30T22:32:58.006Z</time>
      </trkpt>
      <trkpt lat="49.121384" lon="1.696354">
        <ele>82.645816</ele>
        <time>2019-07-30T22:32:59.412Z</time>
      </trkpt>
      <trkpt lat="49.121041" lon="1.697012">
        <ele>83.080918</ele>
        <time>2019-07-30T22:33:10.911Z</time>
      </trkpt>
      <trkpt lat="49.120820" lon="1.697464">
        <ele>83.396868</ele>
        <time>2019-07-30T22:33:18.426Z</time>
      </trkpt>
      <trkpt lat="49.120554" lon="1.698728">
        <ele>84.278441</ele>
        <time>2019-07-30T22:33:34.918Z</time>
      </trkpt>
      <trkpt lat="49.120424" lon="1.699556">
        <ele>84.843806</ele>
        <time>2019-07-30T22:33:44.127Z</time>
      </trkpt>
      <trkpt lat="49.120339" lon="1.700201">
        <ele>85.510845</ele>
        <time>2019-07-30T22:33:52.468Z</time>
      </trkpt>
      <trkpt lat="49.120133" lon="1.700937">
        <ele>86.769706</ele>
        <time>2019-07-30T22:34:04.221Z</time>
      </trkpt>
      <trkpt lat="49.119922" lon="1.701279">
        <ele>87.508851</ele>
        <time>2019-07-30T22:34:11.794Z</time>
      </trkpt>
      <trkpt lat="49.119460" lon="1.701962">
        <ele>89.053565</ele>
        <time>2019-07-30T22:34:28.950Z</time>
      </trkpt>
      <trkpt lat="49.118815" lon="1.702968">
        <ele>91.552525</ele>
        <time>2019-07-30T22:34:56.031Z</time>
      </trkpt>
      <trkpt lat="49.117257" lon="1.707556">
        <ele>98.937080</ele>
        <time>2019-07-30T22:36:16.594Z</time>
      </trkpt>
      <trkpt lat="49.115544" lon="1.710848">
        <ele>101.560910</ele>
        <time>2019-07-30T22:37:01.629Z</time>
      </trkpt>
      <trkpt lat="49.115540" lon="1.710988">
        <ele>101.646773</ele>
        <time>2019-07-30T22:37:03.872Z</time>
      </trkpt>
      <trkpt lat="49.115618" lon="1.711121">
        <ele>101.756192</ele>
        <time>2019-07-30T22:37:06.835Z</time>
      </trkpt>
      <trkpt lat="49.115773" lon="1.711211">
        <ele>102.211351</ele>
        <time>2019-07-30T22:37:12.967Z</time>
      </trkpt>
      <trkpt lat="49.116066" lon="1.711343">
        <ele>103.661775</ele>
        <time>2019-07-30T22:37:23.288Z</time>
      </trkpt>
      <trkpt lat="49.116353" lon="1.711460">
        <ele>105.072164</ele>
        <time>2019-07-30T22:37:33.495Z</time>
      </trkpt>
      <trkpt lat="49.116428" lon="1.711533">
        <ele>105.494400</ele>
        <time>2019-07-30T22:37:37.845Z</time>
      </trkpt>
      <trkpt lat="49.116623" lon="1.712023">
        <ele>107.276586</ele>
        <time>2019-07-30T22:37:52.596Z</time>
      </trkpt>
      <trkpt lat="49.116768" lon="1.712422">
        <ele>108.694888</ele>
        <time>2019-07-30T22:38:04.920Z</time>
      </trkpt>
      <trkpt lat="49.116805" lon="1.712644">
        <ele>109.406823</ele>
        <time>2019-07-30T22:38:12.985Z</time>
      </trkpt>
      <trkpt lat="49.116801" lon="1.714046">
        <ele>114.134956</ele>
        <time>2019-07-30T22:38:56.117Z</time>
      </trkpt>
      <trkpt lat="49.116645" lon="1.714393">
        <ele>115.586587</ele>
        <time>2019-07-30T22:39:09.537Z</time>
      </trkpt>
      <trkpt lat="49.116503" lon="1.714706">
        <ele>116.899832</ele>
        <time>2019-07-30T22:39:20.422Z</time>
      </trkpt>
      <trkpt lat="49.116471" lon="1.714774">
        <ele>117.188633</ele>
        <time>2019-07-30T22:39:22.661Z</time>
      </trkpt>
      <trkpt lat="49.115214" lon="1.715658">
        <ele>120.798668</ele>
        <time>2019-07-30T22:40:03.765Z</time>
      </trkpt>
      <trkpt lat="49.114869" lon="1.716480">
        <ele>121.486460</ele>
        <time>2019-07-30T22:40:16.403Z</time>
      </trkpt>
      <trkpt lat="49.114832" lon="1.716677">
        <ele>121.630819</ele>
        <time>2019-07-30T22:40:18.804Z</time>
      </trkpt>
      <trkpt lat="49.114695" lon="1.716957">
        <ele>121.770559</ele>
        <time>2019-07-30T22:40:23.041Z</time>
      </trkpt>
      <trkpt lat="49.114607" lon="1.717100">
        <ele>121.740595</ele>
        <time>2019-07-30T22:40:25.345Z</time>
      </trkpt>
      <trkpt lat="49.114384" lon="1.717442">
        <ele>121.666899</ele>
        <time>2019-07-30T22:40:31.198Z</time>
      </trkpt>
      <trkpt lat="49.113748" lon="1.718514">
        <ele>121.446021</ele>
        <time>2019-07-30T22:40:49.250Z</time>
      </trkpt>
      <trkpt lat="49.112583" lon="1.719906">
        <ele>121.962972</ele>
        <time>2019-07-30T22:41:21.381Z</time>
      </trkpt>
      <trkpt lat="49.111602" lon="1.720628">
        <ele>122.722188</ele>
        <time>2019-07-30T22:41:47.188Z</time>
      </trkpt>
      <trkpt lat="49.110555" lon="1.721397">
        <ele>123.841701</ele>
        <time>2019-07-30T22:42:14.515Z</time>
      </trkpt>
      <trkpt lat="49.109615" lon="1.721904">
        <ele>125.718521</ele>
        <time>2019-07-30T22:42:40.912Z</time>
      </trkpt>
      <trkpt lat="49.107345" lon="1.723094">
        <ele>131.620496</ele>
        <time>2019-07-30T22:43:54.686Z</time>
      </trkpt>
      <trkpt lat="49.106292" lon="1.723654">
        <ele>134.750609</ele>
        <time>2019-07-30T22:44:30.524Z</time>
      </trkpt>
      <trkpt lat="49.104175" lon="1.724766">
        <ele>140.420324</ele>
        <time>2019-07-30T22:45:40.814Z</time>
      </trkpt>
      <trkpt lat="49.103592" lon="1.725023">
        <ele>141.772730</ele>
        <time>2019-07-30T22:45:56.732Z</time>
      </trkpt>
      <trkpt lat="49.103059" lon="1.725215">
        <ele>141.764478</ele>
        <time>2019-07-30T22:46:09.813Z</time>
      </trkpt>
      <trkpt lat="49.103061" lon="1.725489">
        <ele>141.737794</ele>
        <time>2019-07-30T22:46:12.659Z</time>
      </trkpt>
      <trkpt lat="49.103228" lon="1.734023">
        <ele>140.909618</ele>
        <time>2019-07-30T22:47:28.288Z</time>
      </trkpt>
      <trkpt lat="49.103449" lon="1.744982">
        <ele>144.603314</ele>
        <time>2019-07-30T22:49:30.567Z</time>
      </trkpt>
      <trkpt lat="49.103283" lon="1.746444">
        <ele>145.693944</ele>
        <time>2019-07-30T22:50:03.986Z</time>
      </trkpt>
      <trkpt lat="49.103110" lon="1.748019">
        <ele>146.940566</ele>
        <time>2019-07-30T22:50:40.540Z</time>
      </trkpt>
      <trkpt lat="49.102999" lon="1.749080">
        <ele>147.779289</ele>
        <time>2019-07-30T22:51:02.640Z</time>
      </trkpt>
      <trkpt lat="49.102995" lon="1.749119">
        <ele>147.768689</ele>
        <time>2019-07-30T22:51:03.497Z</time>
      </trkpt>
      <trkpt lat="49.102936" lon="1.755565">
        <ele>144.155633</ele>
        <time>2019-07-30T22:52:49.353Z</time>
      </trkpt>
      <trkpt lat="49.102908" lon="1.759460">
        <ele>141.000203</ele>
        <time>2019-07-30T22:53:48.957Z</time>
      </trkpt>
      <trkpt lat="49.102907" lon="1.759500">
        <ele>140.971020</ele>
        <time>2019-07-30T22:53:49.623Z</time>
      </trkpt>
      <trkpt lat="49.102879" lon="1.765602">
        <ele>142.460009</ele>
        <time>2019-07-30T22:55:49.197Z</time>
      </trkpt>
      <trkpt lat="49.102863" lon="1.766677">
        <ele>143.535924</ele>
        <time>2019-07-30T22:56:12.127Z</time>
      </trkpt>
      <trkpt lat="49.102550" lon="1.772340">
        <ele>151.464128</ele>
        <time>2019-07-30T22:58:24.574Z</time>
      </trkpt>
      <trkpt lat="49.102227" lon="1.772550">
        <ele>152.623389</ele>
        <time>2019-07-30T22:58:37.562Z</time>
      </trkpt>
      <trkpt lat="49.101882" lon="1.772768">
        <ele>153.856337</ele>
        <time>2019-07-30T22:58:51.711Z</time>
      </trkpt>
      <trkpt lat="49.101808" lon="1.772757">
        <ele>154.101863</ele>
        <time>2019-07-30T22:58:54.998Z</time>
      </trkpt>
      <trkpt lat="49.101202" lon="1.772862">
        <ele>156.833498</ele>
        <time>2019-07-30T22:59:19.067Z</time>
      </trkpt>
      <trkpt lat="49.100800" lon="1.772920">
        <ele>158.796245</ele>
        <time>2019-07-30T22:59:36.692Z</time>
      </trkpt>
      <trkpt lat="49.099990" lon="1.773721">
        <ele>163.386868</ele>
        <time>2019-07-30T23:00:14.721Z</time>
      </trkpt>
      <trkpt lat="49.099944" lon="1.773859">
        <ele>163.548223</ele>
        <time>2019-07-30T23:00:19.694Z</time>
      </trkpt>
      <trkpt lat="49.099872" lon="1.774765">
        <ele>164.499182</ele>
        <time>2019-07-30T23:00:37.857Z</time>
      </trkpt>
      <trkpt lat="49.099830" lon="1.774952">
        <ele>164.705177</ele>
        <time>2019-07-30T23:00:42.620Z</time>
      </trkpt>
      <trkpt lat="49.099614" lon="1.775154">
        <ele>165.108247</ele>
        <time>2019-07-30T23:00:48.031Z</time>
      </trkpt>
      <trkpt lat="49.099522" lon="1.775200">
        <ele>165.262305</ele>
        <time>2019-07-30T23:00:51.493Z</time>
      </trkpt>
      <trkpt lat="49.099735" lon="1.775737">
        <ele>165.916517</ele>
        <time>2019-07-30T23:01:00.482Z</time>
      </trkpt>
      <trkpt lat="49.099850" lon="1.776026">
        <ele>166.048038</ele>
        <time>2019-07-30T23:01:03.838Z</time>
      </trkpt>
      <trkpt lat="49.099723" lon="1.776851">
        <ele>164.072282</ele>
        <time>2019-07-30T23:01:12.432Z</time>
      </trkpt>
      <trkpt lat="49.099620" lon="1.777457">
        <ele>162.612693</ele>
        <time>2019-07-30T23:01:18.206Z</time>
      </trkpt>
      <trkpt lat="49.099569" lon="1.777886">
        <ele>161.596215</ele>
        <time>2019-07-30T23:01:22.180Z</time>
      </trkpt>
      <trkpt lat="49.099578" lon="1.778062">
        <ele>161.184657</ele>
        <time>2019-07-30T23:01:23.728Z</time>
      </trkpt>
      <trkpt lat="49.099496" lon="1.778109">
        <ele>160.872804</ele>
        <time>2019-07-30T23:01:29.449Z</time>
      </trkpt>
      <trkpt lat="49.098899" lon="1.778807">
        <ele>157.676745</ele>
        <time>2019-07-30T23:02:19.274Z</time>
      </trkpt>
      <trkpt lat="49.098613" lon="1.782345">
        <ele>148.445416</ele>
        <time>2019-07-30T23:04:56.009Z</time>
      </trkpt>
      <trkpt lat="49.098612" lon="1.782351">
        <ele>148.433604</ele>
        <time>2019-07-30T23:04:56.224Z</time>
      </trkpt>
      <trkpt lat="49.097902" lon="1.785830">
        <ele>145.918147</ele>
        <time>2019-07-30T23:08:00.084Z</time>
      </trkpt>
      <trkpt lat="49.097883" lon="1.786142">
        <ele>145.897768</ele>
        <time>2019-07-30T23:08:18.061Z</time>
      </trkpt>
      <trkpt lat="49.097889" lon="1.786621">
        <ele>146.619393</ele>
        <time>2019-07-30T23:08:32.505Z</time>
      </trkpt>
      <trkpt lat="49.098048" lon="1.788044">
        <ele>148.924046</ele>
        <time>2019-07-30T23:09:18.630Z</time>
      </trkpt>
      <trkpt lat="49.097513" lon="1.789601">
        <ele>150.531700</ele>
        <time>2019-07-30T23:10:14.169Z</time>
      </trkpt>
      <trkpt lat="49.097271" lon="1.790465">
        <ele>150.790498</ele>
        <time>2019-07-30T23:10:37.843Z</time>
      </trkpt>
      <trkpt lat="49.097008" lon="1.791487">
        <ele>150.602549</ele>
        <time>2019-07-30T23:10:49.625Z</time>
      </trkpt>
      <trkpt lat="49.097069" lon="1.791523">
        <ele>150.383801</ele>
        <time>2019-07-30T23:10:50.274Z</time>
      </trkpt>
      <trkpt lat="49.097117" lon="1.791552">
        <ele>150.211135</ele>
        <time>2019-07-30T23:10:50.890Z</time>
      </trkpt>
      <trkpt lat="49.097654" lon="1.791692">
        <ele>148.388896</ele>
        <time>2019-07-30T23:10:56.603Z</time>
      </trkpt>
      <trkpt lat="49.097652" lon="1.791732">
        <ele>148.301033</ele>
        <time>2019-07-30T23:10:56.823Z</time>
      </trkpt>
      <trkpt lat="49.098272" lon="1.793050">
        <ele>144.839987</ele>
        <time>2019-07-30T23:11:07.136Z</time>
      </trkpt>
      <trkpt lat="49.098417" lon="1.793788">
        <ele>143.725205</ele>
        <time>2019-07-30T23:11:12.186Z</time>
      </trkpt>
      <trkpt lat="49.098509" lon="1.794832">
        <ele>142.201119</ele>
        <time>2019-07-30T23:11:19.936Z</time>
      </trkpt>
      <trkpt lat="49.098571" lon="1.795536">
        <ele>141.173395</ele>
        <time>2019-07-30T23:11:25.564Z</time>
      </trkpt>
      <trkpt lat="49.098580" lon="1.796407">
        <ele>140.647343</ele>
        <time>2019-07-30T23:11:32.764Z</time>
      </trkpt>
      <trkpt lat="49.098555" lon="1.796468">
        <ele>140.610629</ele>
        <time>2019-07-30T23:11:33.458Z</time>
      </trkpt>
      <trkpt lat="49.098529" lon="1.796532">
        <ele>140.572203</ele>
        <time>2019-07-30T23:11:34.218Z</time>
      </trkpt>
      <trkpt lat="49.098516" lon="1.796606">
        <ele>140.533115</ele>
        <time>2019-07-30T23:11:34.890Z</time>
      </trkpt>
      <trkpt lat="49.098532" lon="1.796746">
        <ele>140.460610</ele>
        <time>2019-07-30T23:11:36.170Z</time>
      </trkpt>
      <trkpt lat="49.098557" lon="1.796803">
        <ele>140.425609</ele>
        <time>2019-07-30T23:11:36.796Z</time>
      </trkpt>
      <trkpt lat="49.098591" lon="1.796847">
        <ele>140.390885</ele>
        <time>2019-07-30T23:11:37.355Z</time>
      </trkpt>
      <trkpt lat="49.098631" lon="1.796876">
        <ele>140.356384</ele>
        <time>2019-07-30T23:11:37.933Z</time>
      </trkpt>
      <trkpt lat="49.098662" lon="1.796915">
        <ele>140.325090</ele>
        <time>2019-07-30T23:11:38.592Z</time>
      </trkpt>
      <trkpt lat="49.098825" lon="1.797595">
        <ele>139.955654</ele>
        <time>2019-07-30T23:11:44.825Z</time>
      </trkpt>
      <trkpt lat="49.098867" lon="1.797883">
        <ele>139.805123</ele>
        <time>2019-07-30T23:11:47.152Z</time>
      </trkpt>
      <trkpt lat="49.098897" lon="1.798106">
        <ele>139.688978</ele>
        <time>2019-07-30T23:11:49.225Z</time>
      </trkpt>
      <trkpt lat="49.098938" lon="1.798573">
        <ele>139.251081</ele>
        <time>2019-07-30T23:11:52.942Z</time>
      </trkpt>
      <trkpt lat="49.098961" lon="1.799203">
        <ele>138.606808</ele>
        <time>2019-07-30T23:11:57.731Z</time>
      </trkpt>
      <trkpt lat="49.098963" lon="1.799272">
        <ele>138.536286</ele>
        <time>2019-07-30T23:11:58.169Z</time>
      </trkpt>
      <trkpt lat="49.099727" lon="1.802172">
        <ele>135.703253</ele>
        <time>2019-07-30T23:12:21.321Z</time>
      </trkpt>
      <trkpt lat="49.099704" lon="1.803365">
        <ele>134.776771</ele>
        <time>2019-07-30T23:12:31.264Z</time>
      </trkpt>
      <trkpt lat="49.099690" lon="1.803703">
        <ele>134.652140</ele>
        <time>2019-07-30T23:12:34.192Z</time>
      </trkpt>
      <trkpt lat="49.099650" lon="1.804655">
        <ele>134.437873</ele>
        <time>2019-07-30T23:12:42.838Z</time>
      </trkpt>
      <trkpt lat="49.099677" lon="1.805638">
        <ele>134.216889</ele>
        <time>2019-07-30T23:12:52.020Z</time>
      </trkpt>
      <trkpt lat="49.099783" lon="1.807209">
        <ele>133.835766</ele>
        <time>2019-07-30T23:13:06.312Z</time>
      </trkpt>
      <trkpt lat="49.099800" lon="1.807749">
        <ele>133.700357</ele>
        <time>2019-07-30T23:13:10.990Z</time>
      </trkpt>
      <trkpt lat="49.099836" lon="1.809015">
        <ele>133.389866</ele>
        <time>2019-07-30T23:13:22.112Z</time>
      </trkpt>
      <trkpt lat="49.100046" lon="1.809949">
        <ele>133.226217</ele>
        <time>2019-07-30T23:13:30.942Z</time>
      </trkpt>
      <trkpt lat="49.101190" lon="1.812766">
        <ele>132.663749</ele>
        <time>2019-07-30T23:14:01.967Z</time>
      </trkpt>
      <trkpt lat="49.101403" lon="1.813294">
        <ele>132.555997</ele>
        <time>2019-07-30T23:14:07.529Z</time>
      </trkpt>
      <trkpt lat="49.101684" lon="1.814366">
        <ele>132.077949</ele>
        <time>2019-07-30T23:14:17.516Z</time>
      </trkpt>
      <trkpt lat="49.101846" lon="1.818227">
        <ele>129.378562</ele>
        <time>2019-07-30T23:14:48.338Z</time>
      </trkpt>
      <trkpt lat="49.102452" lon="1.822547">
        <ele>125.359446</ele>
        <time>2019-07-30T23:15:21.515Z</time>
      </trkpt>
      <trkpt lat="49.102463" lon="1.822707">
        <ele>125.267394</ele>
        <time>2019-07-30T23:15:22.723Z</time>
      </trkpt>
      <trkpt lat="49.102463" lon="1.823078">
        <ele>125.055116</ele>
        <time>2019-07-30T23:15:25.661Z</time>
      </trkpt>
      <trkpt lat="49.102284" lon="1.825172">
        <ele>124.564531</ele>
        <time>2019-07-30T23:15:44.125Z</time>
      </trkpt>
      <trkpt lat="49.102331" lon="1.825499">
        <ele>124.769351</ele>
        <time>2019-07-30T23:15:47.723Z</time>
      </trkpt>
      <trkpt lat="49.103008" lon="1.829412">
        <ele>128.063953</ele>
        <time>2019-07-30T23:16:43.666Z</time>
      </trkpt>
      <trkpt lat="49.103015" lon="1.829738">
        <ele>128.382629</ele>
        <time>2019-07-30T23:16:48.111Z</time>
      </trkpt>
      <trkpt lat="49.103001" lon="1.829880">
        <ele>128.522928</ele>
        <time>2019-07-30T23:16:50.108Z</time>
      </trkpt>
      <trkpt lat="49.102861" lon="1.830619">
        <ele>128.780859</ele>
        <time>2019-07-30T23:16:59.924Z</time>
      </trkpt>
      <trkpt lat="49.102786" lon="1.831019">
        <ele>128.907093</ele>
        <time>2019-07-30T23:17:04.899Z</time>
      </trkpt>
      <trkpt lat="49.102640" lon="1.831968">
        <ele>129.202851</ele>
        <time>2019-07-30T23:17:15.669Z</time>
      </trkpt>
      <trkpt lat="49.102589" lon="1.832189">
        <ele>129.273943</ele>
        <time>2019-07-30T23:17:17.939Z</time>
      </trkpt>
      <trkpt lat="49.102467" lon="1.832715">
        <ele>129.234295</ele>
        <time>2019-07-30T23:17:22.773Z</time>
      </trkpt>
      <trkpt lat="49.102419" lon="1.832982">
        <ele>128.975821</ele>
        <time>2019-07-30T23:17:24.882Z</time>
      </trkpt>
      <trkpt lat="49.102302" lon="1.833053">
        <ele>128.796312</ele>
        <time>2019-07-30T23:17:26.987Z</time>
      </trkpt>
      <trkpt lat="49.102253" lon="1.833023">
        <ele>128.721042</ele>
        <time>2019-07-30T23:17:27.877Z</time>
      </trkpt>
      <trkpt lat="49.101755" lon="1.832606">
        <ele>127.911265</ele>
        <time>2019-07-30T23:17:37.180Z</time>
      </trkpt>
      <trkpt lat="49.101190" lon="1.832229">
        <ele>127.032141</ele>
        <time>2019-07-30T23:17:47.178Z</time>
      </trkpt>
      <trkpt lat="49.101132" lon="1.832191">
        <ele>126.942154</ele>
        <time>2019-07-30T23:17:48.121Z</time>
      </trkpt>
      <trkpt lat="49.101022" lon="1.832624">
        <ele>126.518848</ele>
        <time>2019-07-30T23:17:57.647Z</time>
      </trkpt>
      <trkpt lat="49.100660" lon="1.833790">
        <ele>125.352994</ele>
        <time>2019-07-30T23:18:25.126Z</time>
      </trkpt>
      <trkpt lat="49.100659" lon="1.833794">
        <ele>125.349126</ele>
        <time>2019-07-30T23:18:25.192Z</time>
      </trkpt>
      <trkpt lat="49.100446" lon="1.834541">
        <ele>124.613021</ele>
        <time>2019-07-30T23:18:42.836Z</time>
      </trkpt>
      <trkpt lat="49.100327" lon="1.834853">
        <ele>124.334798</ele>
        <time>2019-07-30T23:18:51.367Z</time>
      </trkpt>
      <trkpt lat="49.100012" lon="1.835574">
        <ele>124.192139</ele>
        <time>2019-07-30T23:19:11.534Z</time>
      </trkpt>
      <trkpt lat="49.099935" lon="1.835676">
        <ele>124.166517</ele>
        <time>2019-07-30T23:19:15.432Z</time>
      </trkpt>
      <trkpt lat="49.098586" lon="1.838009">
        <ele>123.551735</ele>
        <time>2019-07-30T23:20:30.379Z</time>
      </trkpt>
      <trkpt lat="49.097358" lon="1.840105">
        <ele>122.799427</ele>
        <time>2019-07-30T23:21:34.624Z</time>
      </trkpt>
      <trkpt lat="49.094882" lon="1.844746">
        <ele>121.069898</ele>
        <time>2019-07-30T23:23:57.182Z</time>
      </trkpt>
      <trkpt lat="49.094752" lon="1.844906">
        <ele>120.943249</ele>
        <time>2019-07-30T23:24:02.772Z</time>
      </trkpt>
      <trkpt lat="49.094752" lon="1.844906">
        <ele>120.943249</ele>
        <time>2019-07-30T23:24:02.792Z</time>
      </trkpt>
      <trkpt lat="49.094552" lon="1.845070">
        <ele>120.771054</ele>
        <time>2019-07-30T23:24:10.068Z</time>
      </trkpt>
      <trkpt lat="49.094151" lon="1.845779">
        <ele>119.268379</ele>
        <time>2019-07-30T23:24:28.941Z</time>
      </trkpt>
      <trkpt lat="49.092894" lon="1.849986">
        <ele>111.086928</ele>
        <time>2019-07-30T23:25:59.198Z</time>
      </trkpt>
      <trkpt lat="49.092642" lon="1.850692">
        <ele>111.548232</ele>
        <time>2019-07-30T23:26:17.761Z</time>
      </trkpt>
      <trkpt lat="49.092708" lon="1.850804">
        <ele>111.666365</ele>
        <time>2019-07-30T23:26:21.831Z</time>
      </trkpt>
      <trkpt lat="49.093018" lon="1.851440">
        <ele>112.287984</ele>
        <time>2019-07-30T23:26:43.692Z</time>
      </trkpt>
      <trkpt lat="49.093184" lon="1.851714">
        <ele>112.580648</ele>
        <time>2019-07-30T23:26:54.537Z</time>
      </trkpt>
      <trkpt lat="49.093210" lon="1.851737">
        <ele>112.616623</ele>
        <time>2019-07-30T23:26:56.047Z</time>
      </trkpt>
      <trkpt lat="49.095922" lon="1.855811">
        <ele>124.443923</ele>
        <time>2019-07-30T23:29:05.916Z</time>
      </trkpt>
      <trkpt lat="49.096019" lon="1.855957">
        <ele>124.885843</ele>
        <time>2019-07-30T23:29:10.146Z</time>
      </trkpt>
      <trkpt lat="49.095340" lon="1.857705">
        <ele>128.201902</ele>
        <time>2019-07-30T23:29:49.593Z</time>
      </trkpt>
      <trkpt lat="49.094731" lon="1.859122">
        <ele>130.757533</ele>
        <time>2019-07-30T23:30:22.909Z</time>
      </trkpt>
      <trkpt lat="49.094609" lon="1.860238">
        <ele>132.361810</ele>
        <time>2019-07-30T23:30:45.246Z</time>
      </trkpt>
      <trkpt lat="49.094722" lon="1.860479">
        <ele>132.782095</ele>
        <time>2019-07-30T23:30:51.333Z</time>
      </trkpt>
      <trkpt lat="49.094683" lon="1.860556">
        <ele>132.920122</ele>
        <time>2019-07-30T23:30:53.048Z</time>
      </trkpt>
      <trkpt lat="49.094678" lon="1.860566">
        <ele>132.937962</ele>
        <time>2019-07-30T23:30:53.277Z</time>
      </trkpt>
      <trkpt lat="49.093420" lon="1.863070">
        <ele>134.513712</ele>
        <time>2019-07-30T23:31:42.693Z</time>
      </trkpt>
      <trkpt lat="49.092153" lon="1.865445">
        <ele>129.551291</ele>
        <time>2019-07-30T23:32:13.491Z</time>
      </trkpt>
      <trkpt lat="49.091939" lon="1.865736">
        <ele>128.002461</ele>
        <time>2019-07-30T23:32:17.440Z</time>
      </trkpt>
      <trkpt lat="49.091519" lon="1.866349">
        <ele>124.862162</ele>
        <time>2019-07-30T23:32:25.188Z</time>
      </trkpt>
      <trkpt lat="49.090841" lon="1.867486">
        <ele>118.721475</ele>
        <time>2019-07-30T23:32:38.151Z</time>
      </trkpt>
      <trkpt lat="49.090735" lon="1.867697">
        <ele>117.402046</ele>
        <time>2019-07-30T23:32:40.290Z</time>
      </trkpt>
      <trkpt lat="49.090724" lon="1.868122">
        <ele>115.291773</ele>
        <time>2019-07-30T23:32:43.814Z</time>
      </trkpt>
      <trkpt lat="49.091061" lon="1.868803">
        <ele>111.056806</ele>
        <time>2019-07-30T23:32:50.962Z</time>
      </trkpt>
      <trkpt lat="49.091088" lon="1.868922">
        <ele>110.431961</ele>
        <time>2019-07-30T23:32:51.980Z</time>
      </trkpt>
      <trkpt lat="49.091094" lon="1.869104">
        <ele>109.527836</ele>
        <time>2019-07-30T23:32:53.437Z</time>
      </trkpt>
      <trkpt lat="49.090938" lon="1.869442">
        <ele>107.485068</ele>
        <time>2019-07-30T23:32:56.923Z</time>
      </trkpt>
      <trkpt lat="49.090163" lon="1.869480">
        <ele>102.600831</ele>
        <time>2019-07-30T23:33:06.802Z</time>
      </trkpt>
      <trkpt lat="49.089215" lon="1.870031">
        <ele>96.211441</ele>
        <time>2019-07-30T23:33:20.180Z</time>
      </trkpt>
      <trkpt lat="49.088662" lon="1.870426">
        <ele>94.257917</ele>
        <time>2019-07-30T23:33:28.759Z</time>
      </trkpt>
      <trkpt lat="49.088596" lon="1.870470">
        <ele>94.028200</ele>
        <time>2019-07-30T23:33:29.809Z</time>
      </trkpt>
      <trkpt lat="49.088427" lon="1.870637">
        <ele>93.386089</ele>
        <time>2019-07-30T23:33:32.719Z</time>
      </trkpt>
      <trkpt lat="49.087928" lon="1.871276">
        <ele>91.308730</ele>
        <time>2019-07-30T23:33:42.515Z</time>
      </trkpt>
      <trkpt lat="49.087843" lon="1.871491">
        <ele>90.784100</ele>
        <time>2019-07-30T23:33:45.084Z</time>
      </trkpt>
      <trkpt lat="49.087685" lon="1.871775">
        <ele>90.389254</ele>
        <time>2019-07-30T23:33:49.002Z</time>
      </trkpt>
      <trkpt lat="49.087263" lon="1.872900">
        <ele>89.958816</ele>
        <time>2019-07-30T23:34:04.567Z</time>
      </trkpt>
      <trkpt lat="49.087545" lon="1.873111">
        <ele>89.799614</ele>
        <time>2019-07-30T23:34:09.213Z</time>
      </trkpt>
      <trkpt lat="49.087695" lon="1.873227">
        <ele>89.714374</ele>
        <time>2019-07-30T23:34:11.909Z</time>
      </trkpt>
      <trkpt lat="49.087805" lon="1.873349">
        <ele>89.645451</ele>
        <time>2019-07-30T23:34:13.925Z</time>
      </trkpt>
      <trkpt lat="49.087950" lon="1.873516">
        <ele>89.553377</ele>
        <time>2019-07-30T23:34:17.925Z</time>
      </trkpt>
      <trkpt lat="49.088174" lon="1.873881">
        <ele>89.727796</ele>
        <time>2019-07-30T23:34:25.009Z</time>
      </trkpt>
      <trkpt lat="49.088607" lon="1.874373">
        <ele>90.027125</ele>
        <time>2019-07-30T23:34:37.068Z</time>
      </trkpt>
      <trkpt lat="49.089028" lon="1.874894">
        <ele>90.327659</ele>
        <time>2019-07-30T23:34:49.594Z</time>
      </trkpt>
      <trkpt lat="49.089308" lon="1.875320">
        <ele>90.546867</ele>
        <time>2019-07-30T23:34:58.706Z</time>
      </trkpt>
      <trkpt lat="49.089547" lon="1.875684">
        <ele>90.722312</ele>
        <time>2019-07-30T23:35:12.085Z</time>
      </trkpt>
      <trkpt lat="49.089547" lon="1.875684">
        <ele>90.722312</ele>
        <time>2019-07-30T23:35:12.085Z</time>
      </trkpt>
      <trkpt lat="49.090079" lon="1.876507">
        <ele>91.115842</ele>
        <time>2019-07-30T23:35:41.582Z</time>
      </trkpt>
      <trkpt lat="49.090472" lon="1.877958">
        <ele>91.514971</ele>
        <time>2019-07-30T23:36:21.934Z</time>
      </trkpt>
      <trkpt lat="49.090550" lon="1.878604">
        <ele>91.558704</ele>
        <time>2019-07-30T23:36:38.591Z</time>
      </trkpt>
      <trkpt lat="49.090774" lon="1.878661">
        <ele>91.581790</ele>
        <time>2019-07-30T23:36:47.181Z</time>
      </trkpt>
      <trkpt lat="49.091265" lon="1.878967">
        <ele>91.635703</ele>
        <time>2019-07-30T23:37:06.721Z</time>
      </trkpt>
      <trkpt lat="49.091527" lon="1.879204">
        <ele>91.647500</ele>
        <time>2019-07-30T23:37:17.724Z</time>
      </trkpt>
      <trkpt lat="49.091085" lon="1.880308">
        <ele>90.775360</ele>
        <time>2019-07-30T23:37:32.970Z</time>
      </trkpt>
      <trkpt lat="49.089850" lon="1.884538">
        <ele>86.911986</ele>
        <time>2019-07-30T23:38:23.190Z</time>
      </trkpt>
      <trkpt lat="49.089215" lon="1.888382">
        <ele>85.108272</ele>
        <time>2019-07-30T23:39:09.129Z</time>
      </trkpt>
      <trkpt lat="49.089112" lon="1.888876">
        <ele>85.008740</ele>
        <time>2019-07-30T23:39:16.650Z</time>
      </trkpt>
      <trkpt lat="49.089030" lon="1.889277">
        <ele>84.928087</ele>
        <time>2019-07-30T23:39:23.018Z</time>
      </trkpt>
      <trkpt lat="49.088887" lon="1.889707">
        <ele>84.984199</ele>
        <time>2019-07-30T23:39:30.263Z</time>
      </trkpt>
      <trkpt lat="49.088411" lon="1.890875">
        <ele>85.304268</ele>
        <time>2019-07-30T23:39:51.117Z</time>
      </trkpt>
      <trkpt lat="49.088158" lon="1.891469">
        <ele>85.469127</ele>
        <time>2019-07-30T23:40:02.037Z</time>
      </trkpt>
      <trkpt lat="49.087226" lon="1.893314">
        <ele>83.469133</ele>
        <time>2019-07-30T23:40:27.709Z</time>
      </trkpt>
      <trkpt lat="49.087107" lon="1.893630">
        <ele>83.094760</ele>
        <time>2019-07-30T23:40:31.276Z</time>
      </trkpt>
      <trkpt lat="49.087007" lon="1.893975">
        <ele>82.700137</ele>
        <time>2019-07-30T23:40:34.986Z</time>
      </trkpt>
      <trkpt lat="49.086918" lon="1.894464">
        <ele>81.908942</ele>
        <time>2019-07-30T23:40:40.004Z</time>
      </trkpt>
      <trkpt lat="49.086854" lon="1.894772">
        <ele>81.405209</ele>
        <time>2019-07-30T23:40:43.217Z</time>
      </trkpt>
      <trkpt lat="49.086773" lon="1.895162">
        <ele>80.767394</ele>
        <time>2019-07-30T23:40:47.259Z</time>
      </trkpt>
      <trkpt lat="49.086724" lon="1.895395">
        <ele>80.385900</ele>
        <time>2019-07-30T23:40:49.695Z</time>
      </trkpt>
      <trkpt lat="49.086691" lon="1.895688">
        <ele>79.922432</ele>
        <time>2019-07-30T23:40:52.643Z</time>
      </trkpt>
      <trkpt lat="49.086651" lon="1.896036">
        <ele>79.371637</ele>
        <time>2019-07-30T23:40:56.178Z</time>
      </trkpt>
      <trkpt lat="49.086624" lon="1.896323">
        <ele>78.919636</ele>
        <time>2019-07-30T23:40:59.150Z</time>
      </trkpt>
      <trkpt lat="49.086616" lon="1.896841">
        <ele>78.269897</ele>
        <time>2019-07-30T23:41:04.526Z</time>
      </trkpt>
      <trkpt lat="49.086774" lon="1.897448">
        <ele>77.742431</ele>
        <time>2019-07-30T23:41:11.538Z</time>
      </trkpt>
      <trkpt lat="49.086516" lon="1.897593">
        <ele>77.403446</ele>
        <time>2019-07-30T23:41:16.285Z</time>
      </trkpt>
      <trkpt lat="49.086444" lon="1.897733">
        <ele>77.259700</ele>
        <time>2019-07-30T23:41:18.303Z</time>
      </trkpt>
      <trkpt lat="49.086306" lon="1.898185">
        <ele>76.856982</ele>
        <time>2019-07-30T23:41:24.111Z</time>
      </trkpt>
      <trkpt lat="49.086194" lon="1.898170">
        <ele>76.718353</ele>
        <time>2019-07-30T23:41:25.498Z</time>
      </trkpt>
      <trkpt lat="49.085818" lon="1.898221">
        <ele>76.252910</ele>
        <time>2019-07-30T23:41:30.217Z</time>
      </trkpt>
      <trkpt lat="49.085936" lon="1.898855">
        <ele>75.892772</ele>
        <time>2019-07-30T23:41:35.611Z</time>
      </trkpt>
      <trkpt lat="49.085923" lon="1.899837">
        <ele>75.371942</ele>
        <time>2019-07-30T23:41:43.638Z</time>
      </trkpt>
      <trkpt lat="49.085679" lon="1.900388">
        <ele>75.019241</ele>
        <time>2019-07-30T23:41:49.182Z</time>
      </trkpt>
      <trkpt lat="49.085163" lon="1.901044">
        <ele>74.500080</ele>
        <time>2019-07-30T23:41:57.818Z</time>
      </trkpt>
      <trkpt lat="49.084763" lon="1.901647">
        <ele>74.083379</ele>
        <time>2019-07-30T23:42:05.056Z</time>
      </trkpt>
      <trkpt lat="49.084179" lon="1.903648">
        <ele>73.095913</ele>
        <time>2019-07-30T23:42:23.257Z</time>
      </trkpt>
      <trkpt lat="49.084202" lon="1.905191">
        <ele>72.484890</ele>
        <time>2019-07-30T23:42:36.470Z</time>
      </trkpt>
      <trkpt lat="49.084230" lon="1.906879">
        <ele>72.000272</ele>
        <time>2019-07-30T23:42:51.353Z</time>
      </trkpt>
      <trkpt lat="49.084148" lon="1.907439">
        <ele>71.852107</ele>
        <time>2019-07-30T23:42:56.489Z</time>
      </trkpt>
      <trkpt lat="49.083942" lon="1.908059">
        <ele>71.672598</ele>
        <time>2019-07-30T23:43:02.781Z</time>
      </trkpt>
      <trkpt lat="49.083821" lon="1.908324">
        <ele>71.590968</ele>
        <time>2019-07-30T23:43:05.587Z</time>
      </trkpt>
      <trkpt lat="49.081957" lon="1.911636">
        <ele>71.176120</ele>
        <time>2019-07-30T23:43:44.525Z</time>
      </trkpt>
      <trkpt lat="49.081627" lon="1.912103">
        <ele>71.260853</ele>
        <time>2019-07-30T23:43:52.598Z</time>
      </trkpt>
      <trkpt lat="49.080512" lon="1.913561">
        <ele>73.133731</ele>
        <time>2019-07-30T23:44:23.950Z</time>
      </trkpt>
      <trkpt lat="49.080266" lon="1.914052">
        <ele>73.707392</ele>
        <time>2019-07-30T23:44:33.009Z</time>
      </trkpt>
      <trkpt lat="49.079727" lon="1.915472">
        <ele>74.116001</ele>
        <time>2019-07-30T23:44:51.815Z</time>
      </trkpt>
      <trkpt lat="49.079199" lon="1.916875">
        <ele>74.285153</ele>
        <time>2019-07-30T23:45:05.974Z</time>
      </trkpt>
      <trkpt lat="49.078750" lon="1.920743">
        <ele>74.476261</ele>
        <time>2019-07-30T23:45:42.207Z</time>
      </trkpt>
      <trkpt lat="49.078692" lon="1.921097">
        <ele>74.612358</ele>
        <time>2019-07-30T23:45:47.296Z</time>
      </trkpt>
      <trkpt lat="49.076303" lon="1.920621">
        <ele>77.384074</ele>
        <time>2019-07-30T23:47:32.511Z</time>
      </trkpt>
      <trkpt lat="49.076300" lon="1.920618">
        <ele>77.382419</ele>
        <time>2019-07-30T23:47:32.599Z</time>
      </trkpt>
      <trkpt lat="49.074828" lon="1.919662">
        <ele>76.644134</ele>
        <time>2019-07-30T23:48:28.699Z</time>
      </trkpt>
      <trkpt lat="49.074559" lon="1.920691">
        <ele>75.302071</ele>
        <time>2019-07-30T23:48:52.135Z</time>
      </trkpt>
      <trkpt lat="49.073728" lon="1.924289">
        <ele>69.122753</ele>
        <time>2019-07-30T23:50:08.529Z</time>
      </trkpt>
      <trkpt lat="49.073728" lon="1.924289">
        <ele>69.122753</ele>
        <time>2019-07-30T23:50:08.560Z</time>
      </trkpt>
      <trkpt lat="49.073481" lon="1.925273">
        <ele>67.536274</ele>
        <time>2019-07-30T23:50:29.069Z</time>
      </trkpt>
      <trkpt lat="49.073433" lon="1.925448">
        <ele>67.406447</ele>
        <time>2019-07-30T23:50:30.834Z</time>
      </trkpt>
      <trkpt lat="49.073345" lon="1.925656">
        <ele>67.237008</ele>
        <time>2019-07-30T23:50:33.409Z</time>
      </trkpt>
      <trkpt lat="49.073278" lon="1.925766">
        <ele>67.134224</ele>
        <time>2019-07-30T23:50:34.980Z</time>
      </trkpt>
      <trkpt lat="49.073162" lon="1.925892">
        <ele>66.985505</ele>
        <time>2019-07-30T23:50:37.106Z</time>
      </trkpt>
      <trkpt lat="49.072576" lon="1.926606">
        <ele>66.202281</ele>
        <time>2019-07-30T23:50:50.404Z</time>
      </trkpt>
      <trkpt lat="49.071797" lon="1.927557">
        <ele>68.169747</ele>
        <time>2019-07-30T23:51:16.613Z</time>
      </trkpt>
      <trkpt lat="49.069109" lon="1.930565">
        <ele>81.078568</ele>
        <time>2019-07-30T23:53:29.038Z</time>
      </trkpt>
      <trkpt lat="49.068978" lon="1.930700">
        <ele>81.226843</ele>
        <time>2019-07-30T23:53:35.021Z</time>
      </trkpt>
      <trkpt lat="49.068805" lon="1.930877">
        <ele>81.422216</ele>
        <time>2019-07-30T23:53:40.210Z</time>
      </trkpt>
      <trkpt lat="49.068164" lon="1.931576">
        <ele>82.161219</ele>
        <time>2019-07-30T23:53:55.819Z</time>
      </trkpt>
      <trkpt lat="49.067782" lon="1.932065">
        <ele>80.998279</ele>
        <time>2019-07-30T23:54:03.383Z</time>
      </trkpt>
      <trkpt lat="49.067559" lon="1.932462">
        <ele>79.134205</ele>
        <time>2019-07-30T23:54:08.009Z</time>
      </trkpt>
      <trkpt lat="49.067095" lon="1.933134">
        <ele>75.654054</ele>
        <time>2019-07-30T23:54:16.355Z</time>
      </trkpt>
      <trkpt lat="49.066422" lon="1.933567">
        <ele>71.621030</ele>
        <time>2019-07-30T23:54:25.643Z</time>
      </trkpt>
      <trkpt lat="49.065017" lon="1.933998">
        <ele>63.322409</ele>
        <time>2019-07-30T23:54:44.403Z</time>
      </trkpt>
      <trkpt lat="49.064633" lon="1.933900">
        <ele>61.848589</ele>
        <time>2019-07-30T23:54:50.008Z</time>
      </trkpt>
      <trkpt lat="49.064559" lon="1.933893">
        <ele>61.718581</ele>
        <time>2019-07-30T23:54:50.971Z</time>
      </trkpt>
      <trkpt lat="49.064478" lon="1.933921">
        <ele>61.572951</ele>
        <time>2019-07-30T23:54:52.280Z</time>
      </trkpt>
      <trkpt lat="49.063841" lon="1.934383">
        <ele>60.336271</ele>
        <time>2019-07-30T23:55:03.584Z</time>
      </trkpt>
      <trkpt lat="49.063693" lon="1.934338">
        <ele>60.071655</ele>
        <time>2019-07-30T23:55:06.518Z</time>
      </trkpt>
      <trkpt lat="49.063658" lon="1.934405">
        <ele>59.973206</ele>
        <time>2019-07-30T23:55:08.068Z</time>
      </trkpt>
      <trkpt lat="49.063366" lon="1.934622">
        <ele>59.403713</ele>
        <time>2019-07-30T23:55:13.888Z</time>
      </trkpt>
      <trkpt lat="49.063311" lon="1.934663">
        <ele>59.296381</ele>
        <time>2019-07-30T23:55:15.360Z</time>
      </trkpt>
      <trkpt lat="49.063240" lon="1.934804">
        <ele>59.092069</ele>
        <time>2019-07-30T23:55:17.185Z</time>
      </trkpt>
      <trkpt lat="49.063191" lon="1.934988">
        <ele>59.020695</ele>
        <time>2019-07-30T23:55:20.376Z</time>
      </trkpt>
      <trkpt lat="49.061571" lon="1.934488">
        <ele>58.797850</ele>
        <time>2019-07-30T23:55:55.402Z</time>
      </trkpt>
      <trkpt lat="49.060964" lon="1.934328">
        <ele>57.763546</ele>
        <time>2019-07-30T23:56:05.320Z</time>
      </trkpt>
      <trkpt lat="49.060655" lon="1.934247">
        <ele>57.195298</ele>
        <time>2019-07-30T23:56:10.151Z</time>
      </trkpt>
      <trkpt lat="49.059659" lon="1.933999">
        <ele>55.380325</ele>
        <time>2019-07-30T23:56:25.881Z</time>
      </trkpt>
      <trkpt lat="49.059619" lon="1.933998">
        <ele>55.314009</ele>
        <time>2019-07-30T23:56:26.411Z</time>
      </trkpt>
      <trkpt lat="49.059284" lon="1.934076">
        <ele>54.752258</ele>
        <time>2019-07-30T23:56:34.069Z</time>
      </trkpt>
      <trkpt lat="49.057438" lon="1.935267">
        <ele>51.791219</ele>
        <time>2019-07-30T23:57:21.730Z</time>
      </trkpt>
      <trkpt lat="49.056257" lon="1.936542">
        <ele>50.287559</ele>
        <time>2019-07-30T23:57:57.798Z</time>
      </trkpt>
      <trkpt lat="49.055463" lon="1.937810">
        <ele>49.425909</ele>
        <time>2019-07-30T23:58:26.811Z</time>
      </trkpt>
      <trkpt lat="49.054288" lon="1.940642">
        <ele>48.440879</ele>
        <time>2019-07-30T23:59:24.300Z</time>
      </trkpt>
      <trkpt lat="49.053689" lon="1.943545">
        <ele>48.484669</ele>
        <time>2019-07-31T00:00:21.043Z</time>
      </trkpt>
      <trkpt lat="49.053626" lon="1.943846">
        <ele>48.474722</ele>
        <time>2019-07-31T00:00:27.186Z</time>
      </trkpt>
      <trkpt lat="49.053156" lon="1.944848">
        <ele>48.435930</ele>
        <time>2019-07-31T00:00:50.086Z</time>
      </trkpt>
      <trkpt lat="49.052621" lon="1.945891">
        <ele>48.176031</ele>
        <time>2019-07-31T00:01:12.805Z</time>
      </trkpt>
      <trkpt lat="49.052114" lon="1.947005">
        <ele>47.582412</ele>
        <time>2019-07-31T00:01:24.057Z</time>
      </trkpt>
      <trkpt lat="49.052072" lon="1.947065">
        <ele>47.543988</ele>
        <time>2019-07-31T00:01:24.763Z</time>
      </trkpt>
      <trkpt lat="49.051828" lon="1.947402">
        <ele>47.324191</ele>
        <time>2019-07-31T00:01:28.918Z</time>
      </trkpt>
      <trkpt lat="49.051384" lon="1.947820">
        <ele>47.204149</ele>
        <time>2019-07-31T00:01:35.467Z</time>
      </trkpt>
      <trkpt lat="49.050817" lon="1.948783">
        <ele>47.190159</ele>
        <time>2019-07-31T00:01:47.116Z</time>
      </trkpt>
      <trkpt lat="49.050857" lon="1.949032">
        <ele>47.187389</ele>
        <time>2019-07-31T00:01:50.877Z</time>
      </trkpt>
      <trkpt lat="49.050694" lon="1.949471">
        <ele>47.181937</ele>
        <time>2019-07-31T00:01:58.780Z</time>
      </trkpt>
      <trkpt lat="49.050636" lon="1.949643">
        <ele>47.213403</ele>
        <time>2019-07-31T00:02:01.642Z</time>
      </trkpt>
      <trkpt lat="49.050395" lon="1.949859">
        <ele>47.571214</ele>
        <time>2019-07-31T00:02:08.779Z</time>
      </trkpt>
      <trkpt lat="49.050366" lon="1.949933">
        <ele>47.643555</ele>
        <time>2019-07-31T00:02:09.994Z</time>
      </trkpt>
      <trkpt lat="49.050332" lon="1.950162">
        <ele>47.840559</ele>
        <time>2019-07-31T00:02:13.829Z</time>
      </trkpt>
      <trkpt lat="49.050248" lon="1.950441">
        <ele>48.098163</ele>
        <time>2019-07-31T00:02:19.371Z</time>
      </trkpt>
      <trkpt lat="49.050228" lon="1.950565">
        <ele>48.205306</ele>
        <time>2019-07-31T00:02:21.223Z</time>
      </trkpt>
      <trkpt lat="49.050216" lon="1.950676">
        <ele>48.299696</ele>
        <time>2019-07-31T00:02:23.126Z</time>
      </trkpt>
      <trkpt lat="49.050134" lon="1.950769">
        <ele>48.430494</ele>
        <time>2019-07-31T00:02:25.654Z</time>
      </trkpt>
      <trkpt lat="49.050086" lon="1.950862">
        <ele>48.529814</ele>
        <time>2019-07-31T00:02:27.119Z</time>
      </trkpt>
      <trkpt lat="49.050036" lon="1.951061">
        <ele>48.708628</ele>
        <time>2019-07-31T00:02:29.291Z</time>
      </trkpt>
      <trkpt lat="49.049958" lon="1.951323">
        <ele>48.950069</ele>
        <time>2019-07-31T00:02:34.039Z</time>
      </trkpt>
      <trkpt lat="49.049707" lon="1.952120">
        <ele>49.500772</ele>
        <time>2019-07-31T00:02:45.618Z</time>
      </trkpt>
      <trkpt lat="49.049650" lon="1.952313">
        <ele>49.515997</ele>
        <time>2019-07-31T00:02:49.162Z</time>
      </trkpt>
      <trkpt lat="49.049572" lon="1.952336">
        <ele>49.524715</ele>
        <time>2019-07-31T00:02:50.268Z</time>
      </trkpt>
      <trkpt lat="49.049284" lon="1.952423">
        <ele>49.556932</ele>
        <time>2019-07-31T00:02:55.934Z</time>
      </trkpt>
      <trkpt lat="49.049101" lon="1.952473">
        <ele>49.577333</ele>
        <time>2019-07-31T00:02:58.315Z</time>
      </trkpt>
      <trkpt lat="49.049149" lon="1.952714">
        <ele>49.595448</ele>
        <time>2019-07-31T00:03:01.345Z</time>
      </trkpt>
      <trkpt lat="49.049306" lon="1.953502">
        <ele>49.654683</ele>
        <time>2019-07-31T00:03:07.965Z</time>
      </trkpt>
      <trkpt lat="49.048937" lon="1.954273">
        <ele>49.490848</ele>
        <time>2019-07-31T00:03:15.805Z</time>
      </trkpt>
      <trkpt lat="49.048760" lon="1.954802">
        <ele>49.303264</ele>
        <time>2019-07-31T00:03:20.749Z</time>
      </trkpt>
      <trkpt lat="49.048646" lon="1.955328">
        <ele>49.128292</ele>
        <time>2019-07-31T00:03:25.425Z</time>
      </trkpt>
      <trkpt lat="49.048624" lon="1.955429">
        <ele>49.094678</ele>
        <time>2019-07-31T00:03:26.449Z</time>
      </trkpt>
      <trkpt lat="49.048565" lon="1.955615">
        <ele>49.029416</ele>
        <time>2019-07-31T00:03:28.132Z</time>
      </trkpt>
      <trkpt lat="49.048524" lon="1.955601">
        <ele>49.009170</ele>
        <time>2019-07-31T00:03:28.694Z</time>
      </trkpt>
      <trkpt lat="49.048440" lon="1.955613">
        <ele>48.968516</ele>
        <time>2019-07-31T00:03:29.747Z</time>
      </trkpt>
      <trkpt lat="49.048401" lon="1.955639">
        <ele>48.948007</ele>
        <time>2019-07-31T00:03:30.353Z</time>
      </trkpt>
      <trkpt lat="49.048367" lon="1.955676">
        <ele>48.927883</ele>
        <time>2019-07-31T00:03:30.978Z</time>
      </trkpt>
      <trkpt lat="49.048338" lon="1.955723">
        <ele>48.907496</ele>
        <time>2019-07-31T00:03:31.596Z</time>
      </trkpt>
      <trkpt lat="49.048317" lon="1.955779">
        <ele>48.887120</ele>
        <time>2019-07-31T00:03:32.157Z</time>
      </trkpt>
      <trkpt lat="49.048304" lon="1.955839">
        <ele>48.867161</ele>
        <time>2019-07-31T00:03:32.747Z</time>
      </trkpt>
      <trkpt lat="49.048299" lon="1.955903">
        <ele>48.846805</ele>
        <time>2019-07-31T00:03:33.428Z</time>
      </trkpt>
      <trkpt lat="49.048303" lon="1.955967">
        <ele>48.826500</ele>
        <time>2019-07-31T00:03:34.012Z</time>
      </trkpt>
      <trkpt lat="49.048436" lon="1.956197">
        <ele>48.973031</ele>
        <time>2019-07-31T00:03:37.321Z</time>
      </trkpt>
      <trkpt lat="49.048484" lon="1.956211">
        <ele>49.017818</ele>
        <time>2019-07-31T00:03:38.054Z</time>
      </trkpt>
      <trkpt lat="49.048266" lon="1.957484">
        <ele>49.808156</ele>
        <time>2019-07-31T00:03:55.230Z</time>
      </trkpt>
      <trkpt lat="49.048256" lon="1.957543">
        <ele>49.844762</ele>
        <time>2019-07-31T00:03:56.062Z</time>
      </trkpt>
      <trkpt lat="49.047862" lon="1.959040">
        <ele>50.716522</ele>
        <time>2019-07-31T00:04:16.235Z</time>
      </trkpt>
      <trkpt lat="49.047614" lon="1.959648">
        <ele>51.027785</ele>
        <time>2019-07-31T00:04:24.596Z</time>
      </trkpt>
      <trkpt lat="49.047025" lon="1.960461">
        <ele>51.554509</ele>
        <time>2019-07-31T00:04:37.951Z</time>
      </trkpt>
      <trkpt lat="49.046509" lon="1.961368">
        <ele>52.255412</ele>
        <time>2019-07-31T00:04:50.834Z</time>
      </trkpt>
      <trkpt lat="49.045519" lon="1.963033">
        <ele>53.848405</ele>
        <time>2019-07-31T00:05:19.733Z</time>
      </trkpt>
      <trkpt lat="49.045194" lon="1.963872">
        <ele>54.865660</ele>
        <time>2019-07-31T00:05:33.249Z</time>
      </trkpt>
      <trkpt lat="49.044951" lon="1.964501">
        <ele>55.627772</ele>
        <time>2019-07-31T00:05:43.640Z</time>
      </trkpt>
      <trkpt lat="49.044727" lon="1.966018">
        <ele>57.474642</ele>
        <time>2019-07-31T00:06:06.269Z</time>
      </trkpt>
      <trkpt lat="49.044715" lon="1.966240">
        <ele>57.757494</ele>
        <time>2019-07-31T00:06:10.013Z</time>
      </trkpt>
      <trkpt lat="49.044603" lon="1.966934">
        <ele>58.665053</ele>
        <time>2019-07-31T00:06:20.444Z</time>
      </trkpt>
      <trkpt lat="49.044370" lon="1.968016">
        <ele>60.201748</ele>
        <time>2019-07-31T00:06:37.383Z</time>
      </trkpt>
      <trkpt lat="49.044329" lon="1.968140">
        <ele>60.417108</ele>
        <time>2019-07-31T00:06:39.364Z</time>
      </trkpt>
      <trkpt lat="49.044280" lon="1.968244">
        <ele>60.615714</ele>
        <time>2019-07-31T00:06:41.750Z</time>
      </trkpt>
      <trkpt lat="49.044213" lon="1.968346">
        <ele>60.839633</ele>
        <time>2019-07-31T00:06:43.756Z</time>
      </trkpt>
      <trkpt lat="49.044111" lon="1.968480">
        <ele>61.158069</ele>
        <time>2019-07-31T00:06:46.600Z</time>
      </trkpt>
      <trkpt lat="49.043777" lon="1.968924">
        <ele>62.206091</ele>
        <time>2019-07-31T00:06:57.822Z</time>
      </trkpt>
      <trkpt lat="49.043117" lon="1.970381">
        <ele>64.961520</ele>
        <time>2019-07-31T00:07:26.805Z</time>
      </trkpt>
      <trkpt lat="49.043084" lon="1.970463">
        <ele>65.112089</ele>
        <time>2019-07-31T00:07:28.835Z</time>
      </trkpt>
      <trkpt lat="49.043075" lon="1.970483">
        <ele>65.150051</ele>
        <time>2019-07-31T00:07:29.185Z</time>
      </trkpt>
      <trkpt lat="49.042881" lon="1.970977">
        <ele>66.051194</ele>
        <time>2019-07-31T00:07:38.091Z</time>
      </trkpt>
      <trkpt lat="49.041908" lon="1.972887">
        <ele>69.827637</ele>
        <time>2019-07-31T00:08:16.424Z</time>
      </trkpt>
      <trkpt lat="49.041683" lon="1.973059">
        <ele>70.425068</ele>
        <time>2019-07-31T00:08:22.418Z</time>
      </trkpt>
      <trkpt lat="49.041604" lon="1.973106">
        <ele>70.626361</ele>
        <time>2019-07-31T00:08:24.400Z</time>
      </trkpt>
      <trkpt lat="49.041520" lon="1.973086">
        <ele>70.828181</ele>
        <time>2019-07-31T00:08:26.503Z</time>
      </trkpt>
      <trkpt lat="49.041457" lon="1.973066">
        <ele>70.980939</ele>
        <time>2019-07-31T00:08:28.079Z</time>
      </trkpt>
      <trkpt lat="49.041224" lon="1.973003">
        <ele>71.542675</ele>
        <time>2019-07-31T00:08:33.641Z</time>
      </trkpt>
      <trkpt lat="49.041037" lon="1.973096">
        <ele>72.009585</ele>
        <time>2019-07-31T00:08:38.410Z</time>
      </trkpt>
      <trkpt lat="49.040981" lon="1.973148">
        <ele>72.165213</ele>
        <time>2019-07-31T00:08:40.018Z</time>
      </trkpt>
      <trkpt lat="49.040838" lon="1.973285">
        <ele>72.582336</ele>
        <time>2019-07-31T00:08:44.191Z</time>
      </trkpt>
      <trkpt lat="49.040103" lon="1.974216">
        <ele>75.661200</ele>
        <time>2019-07-31T00:09:08.919Z</time>
      </trkpt>
      <trkpt lat="49.039154" lon="1.974459">
        <ele>79.039462</ele>
        <time>2019-07-31T00:09:37.318Z</time>
      </trkpt>
      <trkpt lat="49.039034" lon="1.974465">
        <ele>79.667208</ele>
        <time>2019-07-31T00:09:41.860Z</time>
      </trkpt>
      <trkpt lat="49.038923" lon="1.974512">
        <ele>80.269504</ele>
        <time>2019-07-31T00:09:45.596Z</time>
      </trkpt>
      <trkpt lat="49.038913" lon="1.974491">
        <ele>80.358466</ele>
        <time>2019-07-31T00:09:46.033Z</time>
      </trkpt>
      <trkpt lat="49.038882" lon="1.974471">
        <ele>80.534447</ele>
        <time>2019-07-31T00:09:46.958Z</time>
      </trkpt>
      <trkpt lat="49.038866" lon="1.974473">
        <ele>80.618382</ele>
        <time>2019-07-31T00:09:47.396Z</time>
      </trkpt>
      <trkpt lat="49.038850" lon="1.974484">
        <ele>80.710140</ele>
        <time>2019-07-31T00:09:47.908Z</time>
      </trkpt>
      <trkpt lat="49.038830" lon="1.974525">
        <ele>80.885303</ele>
        <time>2019-07-31T00:09:48.846Z</time>
      </trkpt>
      <trkpt lat="49.038829" lon="1.974550">
        <ele>80.971149</ele>
        <time>2019-07-31T00:09:49.394Z</time>
      </trkpt>
      <trkpt lat="49.038831" lon="1.974572">
        <ele>81.047275</ele>
        <time>2019-07-31T00:09:49.936Z</time>
      </trkpt>
      <trkpt lat="49.038838" lon="1.974591">
        <ele>81.121977</ele>
        <time>2019-07-31T00:09:50.402Z</time>
      </trkpt>
      <trkpt lat="49.038849" lon="1.974607">
        <ele>81.201444</ele>
        <time>2019-07-31T00:09:50.947Z</time>
      </trkpt>
      <trkpt lat="49.038759" lon="1.974731">
        <ele>81.835522</ele>
        <time>2019-07-31T00:09:56.588Z</time>
      </trkpt>
      <trkpt lat="49.038468" lon="1.975080">
        <ele>83.770913</ele>
        <time>2019-07-31T00:10:11.642Z</time>
      </trkpt>
      <trkpt lat="49.037499" lon="1.977791">
        <ele>95.109003</ele>
        <time>2019-07-31T00:11:41.275Z</time>
      </trkpt>
      <trkpt lat="49.037639" lon="1.978694">
        <ele>98.507885</ele>
        <time>2019-07-31T00:12:07.511Z</time>
      </trkpt>
      <trkpt lat="49.037785" lon="1.979516">
        <ele>100.736793</ele>
        <time>2019-07-31T00:12:30.042Z</time>
      </trkpt>
      <trkpt lat="49.037859" lon="1.979859">
        <ele>101.681857</ele>
        <time>2019-07-31T00:12:39.277Z</time>
      </trkpt>
      <trkpt lat="49.038028" lon="1.980924">
        <ele>104.549668</ele>
        <time>2019-07-31T00:13:03.790Z</time>
      </trkpt>
      <trkpt lat="49.037956" lon="1.981866">
        <ele>105.766929</ele>
        <time>2019-07-31T00:13:21.775Z</time>
      </trkpt>
      <trkpt lat="49.037905" lon="1.982459">
        <ele>106.136559</ele>
        <time>2019-07-31T00:13:31.023Z</time>
      </trkpt>
      <trkpt lat="49.037810" lon="1.983622">
        <ele>106.860884</ele>
        <time>2019-07-31T00:13:47.563Z</time>
      </trkpt>
      <trkpt lat="49.037693" lon="1.985055">
        <ele>107.315341</ele>
        <time>2019-07-31T00:14:06.573Z</time>
      </trkpt>
      <trkpt lat="49.037782" lon="1.988175">
        <ele>108.854021</ele>
        <time>2019-07-31T00:14:52.720Z</time>
      </trkpt>
      <trkpt lat="49.037941" lon="1.991065">
        <ele>112.842973</ele>
        <time>2019-07-31T00:15:46.582Z</time>
      </trkpt>
      <trkpt lat="49.038054" lon="1.992723">
        <ele>116.489391</ele>
        <time>2019-07-31T00:16:25.472Z</time>
      </trkpt>
      <trkpt lat="49.038065" lon="1.993198">
        <ele>117.869252</ele>
        <time>2019-07-31T00:16:37.349Z</time>
      </trkpt>
      <trkpt lat="49.038051" lon="1.993774">
        <ele>119.542621</ele>
        <time>2019-07-31T00:16:52.392Z</time>
      </trkpt>
      <trkpt lat="49.038015" lon="1.994460">
        <ele>121.540561</ele>
        <time>2019-07-31T00:17:10.122Z</time>
      </trkpt>
      <trkpt lat="49.037973" lon="1.994890">
        <ele>122.802701</ele>
        <time>2019-07-31T00:17:21.000Z</time>
      </trkpt>
      <trkpt lat="49.037911" lon="1.995066">
        <ele>123.201822</ele>
        <time>2019-07-31T00:17:26.385Z</time>
      </trkpt>
      <trkpt lat="49.037898" lon="1.995103">
        <ele>123.284326</ele>
        <time>2019-07-31T00:17:27.703Z</time>
      </trkpt>
      <trkpt lat="49.037847" lon="1.995359">
        <ele>123.810182</ele>
        <time>2019-07-31T00:17:33.832Z</time>
      </trkpt>
      <trkpt lat="49.037846" lon="1.995430">
        <ele>123.949755</ele>
        <time>2019-07-31T00:17:35.658Z</time>
      </trkpt>
      <trkpt lat="49.037779" lon="1.995459">
        <ele>124.158552</ele>
        <time>2019-07-31T00:17:37.743Z</time>
      </trkpt>
      <trkpt lat="49.037732" lon="1.995529">
        <ele>124.355483</ele>
        <time>2019-07-31T00:17:39.951Z</time>
      </trkpt>
      <trkpt lat="49.037710" lon="1.995623">
        <ele>124.551649</ele>
        <time>2019-07-31T00:17:41.691Z</time>
      </trkpt>
      <trkpt lat="49.037712" lon="1.995687">
        <ele>124.677577</ele>
        <time>2019-07-31T00:17:42.739Z</time>
      </trkpt>
      <trkpt lat="49.037726" lon="1.995747">
        <ele>124.802746</ele>
        <time>2019-07-31T00:17:43.785Z</time>
      </trkpt>
      <trkpt lat="49.037773" lon="1.995825">
        <ele>125.010966</ele>
        <time>2019-07-31T00:17:45.710Z</time>
      </trkpt>
      <trkpt lat="49.037822" lon="1.995856">
        <ele>125.170002</ele>
        <time>2019-07-31T00:17:47.175Z</time>
      </trkpt>
      <trkpt lat="49.037874" lon="1.995858">
        <ele>125.325948</ele>
        <time>2019-07-31T00:17:48.590Z</time>
      </trkpt>
      <trkpt lat="49.037974" lon="1.995996">
        <ele>125.730227</ele>
        <time>2019-07-31T00:17:52.044Z</time>
      </trkpt>
      <trkpt lat="49.038066" lon="1.996118">
        <ele>126.095695</ele>
        <time>2019-07-31T00:17:54.987Z</time>
      </trkpt>
      <trkpt lat="49.038285" lon="1.996573">
        <ele>127.205083</ele>
        <time>2019-07-31T00:18:03.968Z</time>
      </trkpt>
      <trkpt lat="49.038362" lon="1.996740">
        <ele>127.606350</ele>
        <time>2019-07-31T00:18:07.624Z</time>
      </trkpt>
      <trkpt lat="49.038863" lon="1.998498">
        <ele>129.656798</ele>
        <time>2019-07-31T00:18:33.514Z</time>
      </trkpt>
      <trkpt lat="49.038987" lon="2.000137">
        <ele>130.514066</ele>
        <time>2019-07-31T00:18:54.849Z</time>
      </trkpt>
      <trkpt lat="49.038948" lon="2.001270">
        <ele>130.155586</ele>
        <time>2019-07-31T00:19:05.544Z</time>
      </trkpt>
      <trkpt lat="49.038895" lon="2.001408">
        <ele>130.105051</ele>
        <time>2019-07-31T00:19:06.837Z</time>
      </trkpt>
      <trkpt lat="49.038854" lon="2.001513">
        <ele>130.066435</ele>
        <time>2019-07-31T00:19:07.838Z</time>
      </trkpt>
      <trkpt lat="49.038831" lon="2.001574">
        <ele>130.044200</ele>
        <time>2019-07-31T00:19:08.394Z</time>
      </trkpt>
      <trkpt lat="49.038808" lon="2.001619">
        <ele>130.026171</ele>
        <time>2019-07-31T00:19:08.902Z</time>
      </trkpt>
      <trkpt lat="49.038951" lon="2.001730">
        <ele>129.948837</ele>
        <time>2019-07-31T00:19:10.734Z</time>
      </trkpt>
      <trkpt lat="49.039084" lon="2.001887">
        <ele>129.867781</ele>
        <time>2019-07-31T00:19:12.667Z</time>
      </trkpt>
      <trkpt lat="49.040253" lon="2.003074">
        <ele>126.555714</ele>
        <time>2019-07-31T00:19:27.533Z</time>
      </trkpt>
      <trkpt lat="49.041561" lon="2.004337">
        <ele>122.395711</ele>
        <time>2019-07-31T00:19:43.407Z</time>
      </trkpt>
      <trkpt lat="49.041722" lon="2.004493">
        <ele>121.868722</ele>
        <time>2019-07-31T00:19:45.417Z</time>
      </trkpt>
      <trkpt lat="49.041893" lon="2.004657">
        <ele>121.310637</ele>
        <time>2019-07-31T00:19:47.629Z</time>
      </trkpt>
      <trkpt lat="49.041960" lon="2.004763">
        <ele>121.043939</ele>
        <time>2019-07-31T00:19:48.650Z</time>
      </trkpt>
      <trkpt lat="49.042015" lon="2.004850">
        <ele>120.825027</ele>
        <time>2019-07-31T00:19:49.491Z</time>
      </trkpt>
      <trkpt lat="49.042032" lon="2.004953">
        <ele>120.632655</ele>
        <time>2019-07-31T00:19:50.269Z</time>
      </trkpt>
      <trkpt lat="49.042085" lon="2.005052">
        <ele>120.401149</ele>
        <time>2019-07-31T00:19:51.173Z</time>
      </trkpt>
      <trkpt lat="49.042178" lon="2.005062">
        <ele>120.152930</ele>
        <time>2019-07-31T00:19:52.128Z</time>
      </trkpt>
      <trkpt lat="49.042242" lon="2.005013">
        <ele>119.968803</ele>
        <time>2019-07-31T00:19:52.874Z</time>
      </trkpt>
      <trkpt lat="49.042314" lon="2.005019">
        <ele>119.783391</ele>
        <time>2019-07-31T00:19:53.640Z</time>
      </trkpt>
      <trkpt lat="49.042417" lon="2.005029">
        <ele>119.518008</ele>
        <time>2019-07-31T00:19:54.769Z</time>
      </trkpt>
      <trkpt lat="49.042448" lon="2.005044">
        <ele>119.434384</ele>
        <time>2019-07-31T00:19:55.087Z</time>
      </trkpt>
      <trkpt lat="49.043178" lon="2.005410">
        <ele>117.458543</ele>
        <time>2019-07-31T00:20:02.948Z</time>
      </trkpt>
      <trkpt lat="49.043905" lon="2.005775">
        <ele>115.553743</ele>
        <time>2019-07-31T00:20:11.167Z</time>
      </trkpt>
      <trkpt lat="49.044259" lon="2.005952">
        <ele>114.966554</ele>
        <time>2019-07-31T00:20:15.316Z</time>
      </trkpt>
      <trkpt lat="49.044370" lon="2.006044">
        <ele>114.767440</ele>
        <time>2019-07-31T00:20:16.727Z</time>
      </trkpt>
      <trkpt lat="49.044454" lon="2.006114">
        <ele>114.616572</ele>
        <time>2019-07-31T00:20:17.763Z</time>
      </trkpt>
      <trkpt lat="49.044464" lon="2.006279">
        <ele>114.445370</ele>
        <time>2019-07-31T00:20:18.987Z</time>
      </trkpt>
      <trkpt lat="49.044510" lon="2.006430">
        <ele>114.273335</ele>
        <time>2019-07-31T00:20:20.241Z</time>
      </trkpt>
      <trkpt lat="49.044586" lon="2.006549">
        <ele>114.101676</ele>
        <time>2019-07-31T00:20:21.419Z</time>
      </trkpt>
      <trkpt lat="49.044573" lon="2.006707">
        <ele>113.937154</ele>
        <time>2019-07-31T00:20:22.593Z</time>
      </trkpt>
      <trkpt lat="49.044599" lon="2.006742">
        <ele>113.882499</ele>
        <time>2019-07-31T00:20:23.707Z</time>
      </trkpt>
      <trkpt lat="49.044633" lon="2.006778">
        <ele>113.817265</ele>
        <time>2019-07-31T00:20:25.131Z</time>
      </trkpt>
      <trkpt lat="49.044748" lon="2.006829">
        <ele>113.628495</ele>
        <time>2019-07-31T00:20:28.993Z</time>
      </trkpt>
      <trkpt lat="49.044867" lon="2.006813">
        <ele>113.440197</ele>
        <time>2019-07-31T00:20:32.864Z</time>
      </trkpt>
      <trkpt lat="49.044969" lon="2.006762">
        <ele>113.271007</ele>
        <time>2019-07-31T00:20:36.434Z</time>
      </trkpt>
      <trkpt lat="49.044969" lon="2.006762">
        <ele>113.271007</ele>
        <time>2019-07-31T00:20:36.480Z</time>
      </trkpt>
      <trkpt lat="49.045062" lon="2.006670">
        <ele>113.096299</ele>
        <time>2019-07-31T00:20:40.201Z</time>
      </trkpt>
      <trkpt lat="49.045142" lon="2.006526">
        <ele>112.901273</ele>
        <time>2019-07-31T00:20:44.279Z</time>
      </trkpt>
      <trkpt lat="49.045162" lon="2.006460">
        <ele>112.826150</ele>
        <time>2019-07-31T00:20:45.902Z</time>
      </trkpt>
      <trkpt lat="49.045255" lon="2.006479">
        <ele>112.813489</ele>
        <time>2019-07-31T00:20:47.138Z</time>
      </trkpt>
      <trkpt lat="49.045681" lon="2.006771">
        <ele>112.785935</ele>
        <time>2019-07-31T00:20:53.580Z</time>
      </trkpt>
      <trkpt lat="49.046013" lon="2.006999">
        <ele>112.764455</ele>
        <time>2019-07-31T00:20:59.203Z</time>
      </trkpt>
      <trkpt lat="49.046494" lon="2.007330">
        <ele>112.733323</ele>
        <time>2019-07-31T00:21:07.515Z</time>
      </trkpt>
      <trkpt lat="49.046586" lon="2.007393">
        <ele>112.727373</ele>
        <time>2019-07-31T00:21:09.199Z</time>
      </trkpt>
      <trkpt lat="49.046886" lon="2.007601">
        <ele>112.844061</ele>
        <time>2019-07-31T00:21:14.277Z</time>
      </trkpt>
      <trkpt lat="49.047030" lon="2.007743">
        <ele>113.127071</ele>
        <time>2019-07-31T00:21:16.824Z</time>
      </trkpt>
      <trkpt lat="49.047218" lon="2.007848">
        <ele>113.457520</ele>
        <time>2019-07-31T00:21:20.044Z</time>
      </trkpt>
      <trkpt lat="49.047307" lon="2.007904">
        <ele>113.616425</ele>
        <time>2019-07-31T00:21:21.442Z</time>
      </trkpt>
      <trkpt lat="49.047505" lon="2.008019">
        <ele>113.966122</ele>
        <time>2019-07-31T00:21:26.332Z</time>
      </trkpt>
      <trkpt lat="49.047692" lon="2.008130">
        <ele>114.297320</ele>
        <time>2019-07-31T00:21:30.074Z</time>
      </trkpt>
      <trkpt lat="49.047911" lon="2.008222">
        <ele>114.672251</ele>
        <time>2019-07-31T00:21:36.345Z</time>
      </trkpt>
      <trkpt lat="49.048277" lon="2.008321">
        <ele>115.285788</ele>
        <time>2019-07-31T00:21:46.107Z</time>
      </trkpt>
      <trkpt lat="49.048690" lon="2.008433">
        <ele>115.847133</ele>
        <time>2019-07-31T00:21:56.565Z</time>
      </trkpt>
      <trkpt lat="49.048786" lon="2.008460">
        <ele>115.937104</ele>
        <time>2019-07-31T00:21:58.688Z</time>
      </trkpt>
      <trkpt lat="49.048786" lon="2.008460">
        <ele>115.937104</ele>
        <time>2019-07-31T00:21:58.699Z</time>
      </trkpt>
      <trkpt lat="49.048786" lon="2.008460">
        <ele>115.937104</ele>
        <time>2019-07-31T00:21:58.705Z</time>
      </trkpt>
      <trkpt lat="49.048752" lon="2.008585">
        <ele>116.018857</ele>
        <time>2019-07-31T00:22:02.220Z</time>
      </trkpt>
      <trkpt lat="49.048603" lon="2.009543">
        <ele>116.613632</ele>
        <time>2019-07-31T00:22:15.426Z</time>
      </trkpt>
      <trkpt lat="49.048657" lon="2.009590">
        <ele>116.670930</ele>
        <time>2019-07-31T00:22:17.362Z</time>
      </trkpt>
      <trkpt lat="49.048848" lon="2.009780">
        <ele>116.881079</ele>
        <time>2019-07-31T00:22:20.323Z</time>
      </trkpt>
      <trkpt lat="49.049089" lon="2.010032">
        <ele>117.150356</ele>
        <time>2019-07-31T00:22:24.203Z</time>
      </trkpt>
      <trkpt lat="49.049107" lon="2.010060">
        <ele>117.174048</ele>
        <time>2019-07-31T00:22:24.499Z</time>
      </trkpt>
      <trkpt lat="49.049161" lon="2.010141">
        <ele>117.243842</ele>
        <time>2019-07-31T00:22:25.502Z</time>
      </trkpt>
      <trkpt lat="49.049114" lon="2.010211">
        <ele>117.304377</ele>
        <time>2019-07-31T00:22:26.948Z</time>
      </trkpt>
      <trkpt lat="49.049050" lon="2.010306">
        <ele>117.191728</ele>
        <time>2019-07-31T00:22:28.072Z</time>
      </trkpt>
      <trkpt lat="49.048992" lon="2.010369">
        <ele>116.987894</ele>
        <time>2019-07-31T00:22:28.826Z</time>
      </trkpt>
      <trkpt lat="49.048778" lon="2.010723">
        <ele>116.084231</ele>
        <time>2019-07-31T00:22:32.290Z</time>
      </trkpt>
      <trkpt lat="49.048729" lon="2.010882">
        <ele>115.754542</ele>
        <time>2019-07-31T00:22:33.489Z</time>
      </trkpt>
      <trkpt lat="49.048663" lon="2.010975">
        <ele>115.497330</ele>
        <time>2019-07-31T00:22:34.525Z</time>
      </trkpt>
      <trkpt lat="49.048600" lon="2.011081">
        <ele>115.228826</ele>
        <time>2019-07-31T00:22:35.455Z</time>
      </trkpt>
      <trkpt lat="49.048531" lon="2.011050">
        <ele>115.022895</ele>
        <time>2019-07-31T00:22:36.124Z</time>
      </trkpt>
      <trkpt lat="49.048334" lon="2.011096">
        <ele>114.452323</ele>
        <time>2019-07-31T00:22:38.169Z</time>
      </trkpt>
      <trkpt lat="49.048281" lon="2.011124">
        <ele>114.291747</ele>
        <time>2019-07-31T00:22:38.705Z</time>
      </trkpt>
      <trkpt lat="49.048227" lon="2.011272">
        <ele>113.973899</ele>
        <time>2019-07-31T00:22:39.743Z</time>
      </trkpt>
      <trkpt lat="49.046795" lon="2.013232">
        <ele>108.386376</ele>
        <time>2019-07-31T00:22:59.066Z</time>
      </trkpt>
      <trkpt lat="49.046738" lon="2.013319">
        <ele>108.150598</ele>
        <time>2019-07-31T00:22:59.943Z</time>
      </trkpt>
      <trkpt lat="49.046805" lon="2.013413">
        <ele>107.884421</ele>
        <time>2019-07-31T00:23:00.970Z</time>
      </trkpt>
      <trkpt lat="49.046758" lon="2.013477">
        <ele>107.700197</ele>
        <time>2019-07-31T00:23:03.006Z</time>
      </trkpt>
      <trkpt lat="49.046283" lon="2.014242">
        <ele>106.225743</ele>
        <time>2019-07-31T00:23:25.212Z</time>
      </trkpt>
      <trkpt lat="49.045894" lon="2.014911">
        <ele>105.259688</ele>
        <time>2019-07-31T00:23:44.135Z</time>
      </trkpt>
      <trkpt lat="49.045417" lon="2.015666">
        <ele>104.126917</ele>
        <time>2019-07-31T00:24:06.530Z</time>
      </trkpt>
      <trkpt lat="49.044981" lon="2.016375">
        <ele>102.864346</ele>
        <time>2019-07-31T00:24:27.381Z</time>
      </trkpt>
      <trkpt lat="49.044538" lon="2.017053">
        <ele>101.583131</ele>
        <time>2019-07-31T00:24:46.917Z</time>
      </trkpt>
      <trkpt lat="49.044112" lon="2.017734">
        <ele>100.323273</ele>
        <time>2019-07-31T00:25:05.813Z</time>
      </trkpt>
      <trkpt lat="49.044112" lon="2.017734">
        <ele>100.323273</ele>
        <time>2019-07-31T00:25:05.832Z</time>
      </trkpt>
      <trkpt lat="49.044112" lon="2.017734">
        <ele>100.323273</ele>
        <time>2019-07-31T00:25:05.851Z</time>
      </trkpt>
      <trkpt lat="49.044088" lon="2.017779">
        <ele>100.238970</ele>
        <time>2019-07-31T00:25:07.046Z</time>
      </trkpt>
      <trkpt lat="49.044044" lon="2.018491">
        <ele>99.147773</ele>
        <time>2019-07-31T00:25:21.646Z</time>
      </trkpt>
      <trkpt lat="49.043993" lon="2.018623">
        <ele>98.913981</ele>
        <time>2019-07-31T00:25:24.648Z</time>
      </trkpt>
      <trkpt lat="49.043861" lon="2.018975">
        <ele>98.295211</ele>
        <time>2019-07-31T00:25:28.957Z</time>
      </trkpt>
      <trkpt lat="49.043825" lon="2.019060">
        <ele>98.140798</ele>
        <time>2019-07-31T00:25:30.951Z</time>
      </trkpt>
      <trkpt lat="49.043732" lon="2.019547">
        <ele>97.366830</ele>
        <time>2019-07-31T00:25:41.381Z</time>
      </trkpt>
      <trkpt lat="49.043693" lon="2.019607">
        <ele>97.237900</ele>
        <time>2019-07-31T00:25:42.896Z</time>
      </trkpt>
      <trkpt lat="49.043599" lon="2.019678">
        <ele>96.993739</ele>
        <time>2019-07-31T00:25:46.320Z</time>
      </trkpt>
      <trkpt lat="49.043499" lon="2.019732">
        <ele>96.746808</ele>
        <time>2019-07-31T00:25:49.686Z</time>
      </trkpt>
      <trkpt lat="49.043431" lon="2.019704">
        <ele>96.582854</ele>
        <time>2019-07-31T00:25:51.777Z</time>
      </trkpt>
      <trkpt lat="49.043360" lon="2.019612">
        <ele>96.366012</ele>
        <time>2019-07-31T00:25:54.374Z</time>
      </trkpt>
      <trkpt lat="49.043008" lon="2.020098">
        <ele>95.186825</ele>
        <time>2019-07-31T00:26:09.141Z</time>
      </trkpt>
      <trkpt lat="49.042595" lon="2.020180">
        <ele>94.132410</ele>
        <time>2019-07-31T00:26:22.170Z</time>
      </trkpt>
      <trkpt lat="49.042569" lon="2.020274">
        <ele>93.963095</ele>
        <time>2019-07-31T00:26:24.330Z</time>
      </trkpt>
      <trkpt lat="49.042504" lon="2.020402">
        <ele>93.694389</ele>
        <time>2019-07-31T00:26:27.364Z</time>
      </trkpt>
      <trkpt lat="49.042285" lon="2.020510">
        <ele>93.111695</ele>
        <time>2019-07-31T00:26:34.732Z</time>
      </trkpt>
      <trkpt lat="49.042016" lon="2.021736">
        <ele>90.941993</ele>
        <time>2019-07-31T00:27:00.123Z</time>
      </trkpt>
      <trkpt lat="49.041727" lon="2.022598">
        <ele>89.269063</ele>
        <time>2019-07-31T00:27:19.077Z</time>
      </trkpt>
      <trkpt lat="49.041565" lon="2.023081">
        <ele>88.331596</ele>
        <time>2019-07-31T00:27:29.996Z</time>
      </trkpt>
      <trkpt lat="49.041623" lon="2.023210">
        <ele>88.061306</ele>
        <time>2019-07-31T00:27:31.601Z</time>
      </trkpt>
      <trkpt lat="49.041633" lon="2.023257">
        <ele>87.975925</ele>
        <time>2019-07-31T00:27:32.096Z</time>
      </trkpt>
      <trkpt lat="49.041649" lon="2.023335">
        <ele>87.834706</ele>
        <time>2019-07-31T00:27:32.936Z</time>
      </trkpt>
      <trkpt lat="49.041707" lon="2.023623">
        <ele>87.314122</ele>
        <time>2019-07-31T00:27:35.942Z</time>
      </trkpt>
      <trkpt lat="49.041680" lon="2.023923">
        <ele>86.785907</ele>
        <time>2019-07-31T00:27:39.102Z</time>
      </trkpt>
      <trkpt lat="49.041535" lon="2.024332">
        <ele>85.788728</ele>
        <time>2019-07-31T00:27:43.938Z</time>
      </trkpt>
      <trkpt lat="49.040952" lon="2.025436">
        <ele>82.748442</ele>
        <time>2019-07-31T00:27:57.940Z</time>
      </trkpt>
      <trkpt lat="49.040597" lon="2.025815">
        <ele>81.330877</ele>
        <time>2019-07-31T00:28:04.018Z</time>
      </trkpt>
      <trkpt lat="49.040335" lon="2.025929">
        <ele>79.866140</ele>
        <time>2019-07-31T00:28:07.699Z</time>
      </trkpt>
      <trkpt lat="49.039889" lon="2.025931">
        <ele>76.691425</ele>
        <time>2019-07-31T00:28:13.502Z</time>
      </trkpt>
      <trkpt lat="49.039376" lon="2.025808">
        <ele>72.994977</ele>
        <time>2019-07-31T00:28:20.168Z</time>
      </trkpt>
      <trkpt lat="49.038945" lon="2.025569">
        <ele>69.730633</ele>
        <time>2019-07-31T00:28:25.936Z</time>
      </trkpt>
      <trkpt lat="49.038694" lon="2.025548">
        <ele>67.923224</ele>
        <time>2019-07-31T00:28:29.010Z</time>
      </trkpt>
      <trkpt lat="49.038428" lon="2.025629">
        <ele>65.801742</ele>
        <time>2019-07-31T00:28:32.328Z</time>
      </trkpt>
      <trkpt lat="49.038112" lon="2.025808">
        <ele>63.165345</ele>
        <time>2019-07-31T00:28:36.506Z</time>
      </trkpt>
      <trkpt lat="49.037545" lon="2.026179">
        <ele>58.339974</ele>
        <time>2019-07-31T00:28:44.260Z</time>
      </trkpt>
      <trkpt lat="49.037370" lon="2.026233">
        <ele>56.943544</ele>
        <time>2019-07-31T00:28:46.515Z</time>
      </trkpt>
      <trkpt lat="49.037166" lon="2.026314">
        <ele>55.294855</ele>
        <time>2019-07-31T00:28:49.242Z</time>
      </trkpt>
      <trkpt lat="49.036980" lon="2.026401">
        <ele>53.946307</ele>
        <time>2019-07-31T00:28:51.771Z</time>
      </trkpt>
      <trkpt lat="49.036366" lon="2.027044">
        <ele>51.678039</ele>
        <time>2019-07-31T00:29:01.917Z</time>
      </trkpt>
      <trkpt lat="49.036213" lon="2.027280">
        <ele>51.015345</ele>
        <time>2019-07-31T00:29:05.112Z</time>
      </trkpt>
      <trkpt lat="49.036091" lon="2.027467">
        <ele>50.488598</ele>
        <time>2019-07-31T00:29:08.040Z</time>
      </trkpt>
      <trkpt lat="49.035903" lon="2.028002">
        <ele>49.276622</ele>
        <time>2019-07-31T00:29:15.738Z</time>
      </trkpt>
      <trkpt lat="49.035861" lon="2.028216">
        <ele>48.830605</ele>
        <time>2019-07-31T00:29:18.261Z</time>
      </trkpt>
      <trkpt lat="49.035523" lon="2.028388">
        <ele>48.378789</ele>
        <time>2019-07-31T00:29:24.827Z</time>
      </trkpt>
      <trkpt lat="49.035260" lon="2.028490">
        <ele>48.180469</ele>
        <time>2019-07-31T00:29:29.620Z</time>
      </trkpt>
      <trkpt lat="49.035208" lon="2.029504">
        <ele>47.693157</ele>
        <time>2019-07-31T00:29:42.028Z</time>
      </trkpt>
      <trkpt lat="49.035110" lon="2.029676">
        <ele>47.583975</ele>
        <time>2019-07-31T00:29:44.479Z</time>
      </trkpt>
      <trkpt lat="49.035129" lon="2.029874">
        <ele>47.488098</ele>
        <time>2019-07-31T00:29:47.935Z</time>
      </trkpt>
      <trkpt lat="49.035139" lon="2.029965">
        <ele>47.443890</ele>
        <time>2019-07-31T00:29:48.858Z</time>
      </trkpt>
      <trkpt lat="49.035082" lon="2.030490">
        <ele>47.082836</ele>
        <time>2019-07-31T00:29:55.389Z</time>
      </trkpt>
      <trkpt lat="49.035053" lon="2.030619">
        <ele>46.925503</ele>
        <time>2019-07-31T00:29:56.773Z</time>
      </trkpt>
      <trkpt lat="49.034991" lon="2.030659">
        <ele>46.807039</ele>
        <time>2019-07-31T00:29:57.942Z</time>
      </trkpt>
      <trkpt lat="49.034947" lon="2.030708">
        <ele>46.711168</ele>
        <time>2019-07-31T00:29:58.803Z</time>
      </trkpt>
      <trkpt lat="49.034711" lon="2.031258">
        <ele>45.952804</ele>
        <time>2019-07-31T00:30:05.393Z</time>
      </trkpt>
      <trkpt lat="49.034688" lon="2.031349">
        <ele>45.840285</ele>
        <time>2019-07-31T00:30:06.341Z</time>
      </trkpt>
      <trkpt lat="49.034549" lon="2.031890">
        <ele>45.169908</ele>
        <time>2019-07-31T00:30:12.035Z</time>
      </trkpt>
      <trkpt lat="49.034138" lon="2.032076">
        <ele>44.415480</ele>
        <time>2019-07-31T00:30:18.876Z</time>
      </trkpt>
      <trkpt lat="49.034105" lon="2.032172">
        <ele>44.290422</ele>
        <time>2019-07-31T00:30:20.126Z</time>
      </trkpt>
      <trkpt lat="49.034095" lon="2.032305">
        <ele>44.135971</ele>
        <time>2019-07-31T00:30:21.609Z</time>
      </trkpt>
      <trkpt lat="49.033684" lon="2.032240">
        <ele>44.062881</ele>
        <time>2019-07-31T00:30:29.233Z</time>
      </trkpt>
      <trkpt lat="49.033628" lon="2.032197">
        <ele>44.057095</ele>
        <time>2019-07-31T00:30:30.501Z</time>
      </trkpt>
      <trkpt lat="49.032843" lon="2.032034">
        <ele>43.983983</ele>
        <time>2019-07-31T00:30:46.165Z</time>
      </trkpt>
      <trkpt lat="49.032349" lon="2.031930">
        <ele>43.937961</ele>
        <time>2019-07-31T00:30:57.442Z</time>
      </trkpt>
      <trkpt lat="49.032068" lon="2.031905">
        <ele>44.197478</ele>
        <time>2019-07-31T00:31:04.082Z</time>
      </trkpt>
      <trkpt lat="49.031953" lon="2.031915">
        <ele>44.330643</ele>
        <time>2019-07-31T00:31:06.756Z</time>
      </trkpt>
      <trkpt lat="49.031495" lon="2.031878">
        <ele>44.860868</ele>
        <time>2019-07-31T00:31:17.649Z</time>
      </trkpt>
      <trkpt lat="49.031284" lon="2.031860">
        <ele>45.105182</ele>
        <time>2019-07-31T00:31:23.065Z</time>
      </trkpt>
      <trkpt lat="49.031004" lon="2.031888">
        <ele>45.429578</ele>
        <time>2019-07-31T00:31:30.454Z</time>
      </trkpt>
      <trkpt lat="49.030407" lon="2.032113">
        <ele>46.148834</ele>
        <time>2019-07-31T00:31:46.457Z</time>
      </trkpt>
      <trkpt lat="49.030102" lon="2.032154">
        <ele>46.525798</ele>
        <time>2019-07-31T00:31:54.238Z</time>
      </trkpt>
      <trkpt lat="49.030000" lon="2.032168">
        <ele>46.651885</ele>
        <time>2019-07-31T00:31:57.121Z</time>
      </trkpt>
      <trkpt lat="49.029741" lon="2.032209">
        <ele>46.972472</ele>
        <time>2019-07-31T00:32:03.802Z</time>
      </trkpt>
      <trkpt lat="49.029694" lon="2.032219">
        <ele>47.030898</ele>
        <time>2019-07-31T00:32:05.252Z</time>
      </trkpt>
      <trkpt lat="49.029348" lon="2.032290">
        <ele>47.460723</ele>
        <time>2019-07-31T00:32:14.239Z</time>
      </trkpt>
      <trkpt lat="49.029182" lon="2.032367">
        <ele>47.674341</ele>
        <time>2019-07-31T00:32:18.491Z</time>
      </trkpt>
      <trkpt lat="49.028599" lon="2.032664">
        <ele>48.222587</ele>
        <time>2019-07-31T00:32:33.222Z</time>
      </trkpt>
      <trkpt lat="49.028598" lon="2.032665">
        <ele>48.222556</ele>
        <time>2019-07-31T00:32:33.287Z</time>
      </trkpt>
      <trkpt lat="49.028393" lon="2.032745">
        <ele>48.217049</ele>
        <time>2019-07-31T00:32:37.999Z</time>
      </trkpt>
      <trkpt lat="49.028026" lon="2.032890">
        <ele>48.207184</ele>
        <time>2019-07-31T00:32:45.911Z</time>
      </trkpt>
      <trkpt lat="49.027830" lon="2.033042">
        <ele>48.201461</ele>
        <time>2019-07-31T00:32:53.876Z</time>
      </trkpt>
      <trkpt lat="49.026020" lon="2.034815">
        <ele>47.397668</ele>
        <time>2019-07-31T00:34:09.732Z</time>
      </trkpt>
      <trkpt lat="49.024716" lon="2.036075">
        <ele>46.062333</ele>
        <time>2019-07-31T00:35:02.782Z</time>
      </trkpt>
      <trkpt lat="49.024716" lon="2.036075">
        <ele>46.062333</ele>
        <time>2019-07-31T00:35:02.894Z</time>
      </trkpt>
      <trkpt lat="49.024716" lon="2.036075">
        <ele>46.062333</ele>
        <time>2019-07-31T00:35:03.007Z</time>
      </trkpt>
      <trkpt lat="49.023862" lon="2.036908">
        <ele>44.942271</ele>
        <time>2019-07-31T00:35:36.634Z</time>
      </trkpt>
      <trkpt lat="49.023773" lon="2.037010">
        <ele>44.786187</ele>
        <time>2019-07-31T00:35:38.439Z</time>
      </trkpt>
      <trkpt lat="49.022607" lon="2.038156">
        <ele>42.841384</ele>
        <time>2019-07-31T00:36:01.666Z</time>
      </trkpt>
      <trkpt lat="49.022460" lon="2.038297">
        <ele>42.445912</ele>
        <time>2019-07-31T00:36:04.471Z</time>
      </trkpt>
      <trkpt lat="49.022429" lon="2.038330">
        <ele>42.357851</ele>
        <time>2019-07-31T00:36:05.130Z</time>
      </trkpt>
      <trkpt lat="49.021846" lon="2.038848">
        <ele>40.786199</ele>
        <time>2019-07-31T00:36:15.640Z</time>
      </trkpt>
      <trkpt lat="49.021770" lon="2.038888">
        <ele>40.598928</ele>
        <time>2019-07-31T00:36:16.888Z</time>
      </trkpt>
      <trkpt lat="49.021694" lon="2.038915">
        <ele>40.417163</ele>
        <time>2019-07-31T00:36:18.194Z</time>
      </trkpt>
      <trkpt lat="49.021632" lon="2.038937">
        <ele>40.268890</ele>
        <time>2019-07-31T00:36:19.021Z</time>
      </trkpt>
      <trkpt lat="49.021095" lon="2.039236">
        <ele>38.937302</ele>
        <time>2019-07-31T00:36:27.506Z</time>
      </trkpt>
      <trkpt lat="49.020795" lon="2.039756">
        <ele>38.530535</ele>
        <time>2019-07-31T00:36:34.515Z</time>
      </trkpt>
      <trkpt lat="49.020646" lon="2.039936">
        <ele>38.467706</ele>
        <time>2019-07-31T00:36:37.231Z</time>
      </trkpt>
      <trkpt lat="49.020645" lon="2.040031">
        <ele>38.447112</ele>
        <time>2019-07-31T00:36:44.155Z</time>
      </trkpt>
      <trkpt lat="49.020608" lon="2.040088">
        <ele>38.429728</ele>
        <time>2019-07-31T00:36:48.317Z</time>
      </trkpt>
      <trkpt lat="49.020415" lon="2.040279">
        <ele>38.353680</ele>
        <time>2019-07-31T00:37:05.145Z</time>
      </trkpt>
      <trkpt lat="49.019501" lon="2.041185">
        <ele>38.692204</ele>
        <time>2019-07-31T00:38:35.594Z</time>
      </trkpt>
      <trkpt lat="49.019230" lon="2.041446">
        <ele>40.056458</ele>
        <time>2019-07-31T00:39:06.147Z</time>
      </trkpt>
      <trkpt lat="49.018645" lon="2.041986">
        <ele>42.967067</ele>
        <time>2019-07-31T00:40:15.460Z</time>
      </trkpt>
      <trkpt lat="49.018517" lon="2.042113">
        <ele>43.617050</ele>
        <time>2019-07-31T00:40:31.366Z</time>
      </trkpt>
      <trkpt lat="49.017564" lon="2.043016">
        <ele>47.550965</ele>
        <time>2019-07-31T00:42:21.465Z</time>
      </trkpt>
      <trkpt lat="49.017564" lon="2.043016">
        <ele>47.550965</ele>
        <time>2019-07-31T00:42:21.531Z</time>
      </trkpt>
      <trkpt lat="49.017405" lon="2.043202">
        <ele>48.137384</ele>
        <time>2019-07-31T00:42:39.973Z</time>
      </trkpt>
      <trkpt lat="49.017003" lon="2.043736">
        <ele>49.697504</ele>
        <time>2019-07-31T00:42:53.368Z</time>
      </trkpt>
      <trkpt lat="49.016541" lon="2.044351">
        <ele>50.839137</ele>
        <time>2019-07-31T00:43:05.051Z</time>
      </trkpt>
      <trkpt lat="49.016279" lon="2.044749">
        <ele>50.587250</ele>
        <time>2019-07-31T00:43:10.443Z</time>
      </trkpt>
      <trkpt lat="49.016044" lon="2.045110">
        <ele>50.360051</ele>
        <time>2019-07-31T00:43:14.847Z</time>
      </trkpt>
      <trkpt lat="49.015618" lon="2.045736">
        <ele>49.957098</ele>
        <time>2019-07-31T00:43:22.143Z</time>
      </trkpt>
      <trkpt lat="49.015542" lon="2.045855">
        <ele>49.882903</ele>
        <time>2019-07-31T00:43:23.347Z</time>
      </trkpt>
      <trkpt lat="49.015497" lon="2.045930">
        <ele>49.837497</ele>
        <time>2019-07-31T00:43:24.045Z</time>
      </trkpt>
      <trkpt lat="49.015388" lon="2.046111">
        <ele>49.692846</ele>
        <time>2019-07-31T00:43:25.796Z</time>
      </trkpt>
      <trkpt lat="49.015116" lon="2.046634">
        <ele>48.319455</ele>
        <time>2019-07-31T00:43:30.423Z</time>
      </trkpt>
      <trkpt lat="49.015088" lon="2.046702">
        <ele>48.154249</ele>
        <time>2019-07-31T00:43:30.964Z</time>
      </trkpt>
      <trkpt lat="49.015054" lon="2.046788">
        <ele>47.947633</ele>
        <time>2019-07-31T00:43:31.629Z</time>
      </trkpt>
      <trkpt lat="49.014944" lon="2.047081">
        <ele>47.252974</ele>
        <time>2019-07-31T00:43:33.936Z</time>
      </trkpt>
      <trkpt lat="49.014844" lon="2.047409">
        <ele>46.508727</ele>
        <time>2019-07-31T00:43:36.266Z</time>
      </trkpt>
      <trkpt lat="49.014631" lon="2.048056">
        <ele>45.019156</ele>
        <time>2019-07-31T00:43:41.020Z</time>
      </trkpt>
      <trkpt lat="49.014151" lon="2.049008">
        <ele>42.527383</ele>
        <time>2019-07-31T00:43:48.826Z</time>
      </trkpt>
      <trkpt lat="49.014097" lon="2.049087">
        <ele>42.289412</ele>
        <time>2019-07-31T00:43:49.513Z</time>
      </trkpt>
      <trkpt lat="49.013579" lon="2.049845">
        <ele>40.006381</ele>
        <time>2019-07-31T00:43:56.810Z</time>
      </trkpt>
      <trkpt lat="49.013195" lon="2.050424">
        <ele>38.296588</ele>
        <time>2019-07-31T00:44:02.646Z</time>
      </trkpt>
      <trkpt lat="49.013146" lon="2.050494">
        <ele>38.101699</ele>
        <time>2019-07-31T00:44:03.400Z</time>
      </trkpt>
      <trkpt lat="49.012934" lon="2.050815">
        <ele>37.234524</ele>
        <time>2019-07-31T00:44:06.462Z</time>
      </trkpt>
      <trkpt lat="49.012642" lon="2.051250">
        <ele>36.049638</ele>
        <time>2019-07-31T00:44:10.741Z</time>
      </trkpt>
      <trkpt lat="49.012545" lon="2.051377">
        <ele>35.678549</ele>
        <time>2019-07-31T00:44:12.137Z</time>
      </trkpt>
      <trkpt lat="49.012508" lon="2.051425">
        <ele>35.537547</ele>
        <time>2019-07-31T00:44:12.667Z</time>
      </trkpt>
      <trkpt lat="49.012117" lon="2.051787">
        <ele>34.209875</ele>
        <time>2019-07-31T00:44:17.362Z</time>
      </trkpt>
      <trkpt lat="49.011865" lon="2.051926">
        <ele>33.432086</ele>
        <time>2019-07-31T00:44:20.012Z</time>
      </trkpt>
      <trkpt lat="49.011915" lon="2.052184">
        <ele>32.896041</ele>
        <time>2019-07-31T00:44:25.035Z</time>
      </trkpt>
      <trkpt lat="49.011941" lon="2.052347">
        <ele>32.544210</ele>
        <time>2019-07-31T00:44:28.235Z</time>
      </trkpt>
      <trkpt lat="49.012076" lon="2.053184">
        <ele>30.736440</ele>
        <time>2019-07-31T00:44:45.112Z</time>
      </trkpt>
      <trkpt lat="49.012117" lon="2.053221">
        <ele>30.584091</ele>
        <time>2019-07-31T00:44:46.315Z</time>
      </trkpt>
      <trkpt lat="49.012185" lon="2.053139">
        <ele>30.306859</ele>
        <time>2019-07-31T00:44:48.865Z</time>
      </trkpt>
      <trkpt lat="49.012379" lon="2.052976">
        <ele>29.598553</ele>
        <time>2019-07-31T00:44:55.799Z</time>
      </trkpt>
      <trkpt lat="49.012416" lon="2.052991">
        <ele>29.476129</ele>
        <time>2019-07-31T00:44:56.756Z</time>
      </trkpt>
      <trkpt lat="49.012478" lon="2.053030">
        <ele>29.261664</ele>
        <time>2019-07-31T00:44:57.370Z</time>
      </trkpt>
      <trkpt lat="49.012832" lon="2.055097">
        <ele>25.988297</ele>
        <time>2019-07-31T00:45:12.224Z</time>
      </trkpt>
      <trkpt lat="49.012825" lon="2.055165">
        <ele>25.910388</ele>
        <time>2019-07-31T00:45:12.650Z</time>
      </trkpt>
      <trkpt lat="49.012785" lon="2.055221">
        <ele>25.816673</ele>
        <time>2019-07-31T00:45:13.309Z</time>
      </trkpt>
      <trkpt lat="49.012978" lon="2.055457">
        <ele>25.389728</ele>
        <time>2019-07-31T00:45:16.413Z</time>
      </trkpt>
      <trkpt lat="49.013263" lon="2.055878">
        <ele>24.704926</ele>
        <time>2019-07-31T00:45:21.214Z</time>
      </trkpt>
      <trkpt lat="49.013311" lon="2.055973">
        <ele>24.569193</ele>
        <time>2019-07-31T00:45:22.130Z</time>
      </trkpt>
      <trkpt lat="49.013427" lon="2.056203">
        <ele>24.295685</ele>
        <time>2019-07-31T00:45:24.682Z</time>
      </trkpt>
      <trkpt lat="49.013474" lon="2.056339">
        <ele>24.284085</ele>
        <time>2019-07-31T00:45:25.923Z</time>
      </trkpt>
      <trkpt lat="49.013535" lon="2.056456">
        <ele>24.272807</ele>
        <time>2019-07-31T00:45:27.153Z</time>
      </trkpt>
      <trkpt lat="49.013992" lon="2.057322">
        <ele>24.188935</ele>
        <time>2019-07-31T00:45:37.915Z</time>
      </trkpt>
      <trkpt lat="49.014036" lon="2.057401">
        <ele>24.181114</ele>
        <time>2019-07-31T00:45:38.920Z</time>
      </trkpt>
      <trkpt lat="49.014083" lon="2.057458">
        <ele>24.174205</ele>
        <time>2019-07-31T00:45:39.808Z</time>
      </trkpt>
      <trkpt lat="49.014001" lon="2.057578">
        <ele>24.161128</ele>
        <time>2019-07-31T00:45:53.921Z</time>
      </trkpt>
      <trkpt lat="49.013886" lon="2.057383">
        <ele>24.141341</ele>
        <time>2019-07-31T00:46:15.160Z</time>
      </trkpt>
      <trkpt lat="49.013886" lon="2.057383">
        <ele>24.141341</ele>
        <time>2019-07-31T00:46:15.181Z</time>
      </trkpt>
      <trkpt lat="49.013756" lon="2.057563">
        <ele>24.121137</ele>
        <time>2019-07-31T00:46:20.230Z</time>
      </trkpt>
      <trkpt lat="49.013572" lon="2.057871">
        <ele>24.090349</ele>
        <time>2019-07-31T00:46:28.036Z</time>
      </trkpt>
      <trkpt lat="49.013512" lon="2.058038">
        <ele>24.079114</ele>
        <time>2019-07-31T00:46:31.663Z</time>
      </trkpt>
      <trkpt lat="49.013427" lon="2.058052">
        <ele>24.071422</ele>
        <time>2019-07-31T00:46:34.346Z</time>
      </trkpt>
      <trkpt lat="49.010485" lon="2.062326">
        <ele>23.160811</ele>
        <time>2019-07-31T00:48:24.597Z</time>
      </trkpt>
      <trkpt lat="49.009538" lon="2.063598">
        <ele>22.412793</ele>
        <time>2019-07-31T00:48:55.811Z</time>
      </trkpt>
      <trkpt lat="49.009299" lon="2.064042">
        <ele>22.311700</ele>
        <time>2019-07-31T00:49:05.490Z</time>
      </trkpt>
      <trkpt lat="49.008910" lon="2.064515">
        <ele>22.178186</ele>
        <time>2019-07-31T00:49:19.095Z</time>
      </trkpt>
      <trkpt lat="49.008773" lon="2.064758">
        <ele>22.121788</ele>
        <time>2019-07-31T00:49:24.868Z</time>
      </trkpt>
      <trkpt lat="49.008619" lon="2.064952">
        <ele>22.068183</ele>
        <time>2019-07-31T00:49:30.498Z</time>
      </trkpt>
      <trkpt lat="49.008062" lon="2.065745">
        <ele>21.955768</ele>
        <time>2019-07-31T00:49:52.170Z</time>
      </trkpt>
      <trkpt lat="49.008006" lon="2.065800">
        <ele>21.952713</ele>
        <time>2019-07-31T00:49:54.261Z</time>
      </trkpt>
      <trkpt lat="49.007785" lon="2.066018">
        <ele>21.940643</ele>
        <time>2019-07-31T00:50:01.631Z</time>
      </trkpt>
      <trkpt lat="49.007720" lon="2.066112">
        <ele>21.936535</ele>
        <time>2019-07-31T00:50:04.268Z</time>
      </trkpt>
      <trkpt lat="49.007473" lon="2.066542">
        <ele>21.919344</ele>
        <time>2019-07-31T00:50:14.868Z</time>
      </trkpt>
      <trkpt lat="49.007343" lon="2.066769">
        <ele>21.910280</ele>
        <time>2019-07-31T00:50:20.035Z</time>
      </trkpt>
      <trkpt lat="49.006888" lon="2.067565">
        <ele>21.787998</ele>
        <time>2019-07-31T00:51:13.939Z</time>
      </trkpt>
      <trkpt lat="49.006087" lon="2.068638">
        <ele>21.417195</ele>
        <time>2019-07-31T00:52:36.196Z</time>
      </trkpt>
      <trkpt lat="49.005447" lon="2.069342">
        <ele>21.721094</ele>
        <time>2019-07-31T00:53:39.479Z</time>
      </trkpt>
      <trkpt lat="49.004650" lon="2.070219">
        <ele>22.972777</ele>
        <time>2019-07-31T00:55:01.057Z</time>
      </trkpt>
      <trkpt lat="49.004649" lon="2.070220">
        <ele>22.974299</ele>
        <time>2019-07-31T00:55:01.313Z</time>
      </trkpt>
      <trkpt lat="49.002845" lon="2.071879">
        <ele>28.516727</ele>
        <time>2019-07-31T00:58:13.529Z</time>
      </trkpt>
      <trkpt lat="49.002765" lon="2.072042">
        <ele>28.918351</ele>
        <time>2019-07-31T00:58:26.004Z</time>
      </trkpt>
      <trkpt lat="49.002775" lon="2.072151">
        <ele>29.112204</ele>
        <time>2019-07-31T00:58:30.619Z</time>
      </trkpt>
      <trkpt lat="49.002596" lon="2.072034">
        <ele>29.617249</ele>
        <time>2019-07-31T00:58:39.964Z</time>
      </trkpt>
      <trkpt lat="49.002480" lon="2.072085">
        <ele>29.930314</ele>
        <time>2019-07-31T00:58:46.255Z</time>
      </trkpt>
      <trkpt lat="49.002244" lon="2.072232">
        <ele>30.591416</ele>
        <time>2019-07-31T00:58:59.133Z</time>
      </trkpt>
      <trkpt lat="49.001910" lon="2.072600">
        <ele>31.660089</ele>
        <time>2019-07-31T00:59:19.371Z</time>
      </trkpt>
      <trkpt lat="49.001841" lon="2.072769">
        <ele>31.998720</ele>
        <time>2019-07-31T00:59:26.981Z</time>
      </trkpt>
      <trkpt lat="49.001588" lon="2.072635">
        <ele>32.693260</ele>
        <time>2019-07-31T00:59:34.411Z</time>
      </trkpt>
      <trkpt lat="49.001407" lon="2.072626">
        <ele>33.162867</ele>
        <time>2019-07-31T00:59:40.008Z</time>
      </trkpt>
      <trkpt lat="49.001273" lon="2.072617">
        <ele>33.510685</ele>
        <time>2019-07-31T00:59:43.115Z</time>
      </trkpt>
      <trkpt lat="48.997844" lon="2.073053">
        <ele>33.127583</ele>
        <time>2019-07-31T01:00:50.392Z</time>
      </trkpt>
      <trkpt lat="48.997550" lon="2.073081">
        <ele>32.861340</ele>
        <time>2019-07-31T01:00:55.414Z</time>
      </trkpt>
      <trkpt lat="48.997256" lon="2.073088">
        <ele>32.274233</ele>
        <time>2019-07-31T01:01:00.336Z</time>
      </trkpt>
      <trkpt lat="48.995516" lon="2.072988">
        <ele>28.762051</ele>
        <time>2019-07-31T01:01:27.062Z</time>
      </trkpt>
      <trkpt lat="48.995137" lon="2.072960">
        <ele>27.963505</ele>
        <time>2019-07-31T01:01:32.831Z</time>
      </trkpt>
      <trkpt lat="48.994901" lon="2.072943">
        <ele>27.466286</ele>
        <time>2019-07-31T01:01:36.478Z</time>
      </trkpt>
      <trkpt lat="48.994566" lon="2.072919">
        <ele>26.760496</ele>
        <time>2019-07-31T01:01:41.658Z</time>
      </trkpt>
      <trkpt lat="48.994498" lon="2.072912">
        <ele>26.617063</ele>
        <time>2019-07-31T01:01:42.676Z</time>
      </trkpt>
      <trkpt lat="48.994475" lon="2.072909">
        <ele>26.568482</ele>
        <time>2019-07-31T01:01:43.017Z</time>
      </trkpt>
      <trkpt lat="48.993928" lon="2.072859">
        <ele>25.613436</ele>
        <time>2019-07-31T01:01:51.932Z</time>
      </trkpt>
      <trkpt lat="48.993549" lon="2.072926">
        <ele>25.439278</ele>
        <time>2019-07-31T01:01:58.498Z</time>
      </trkpt>
      <trkpt lat="48.992996" lon="2.073024">
        <ele>25.185155</ele>
        <time>2019-07-31T01:02:09.125Z</time>
      </trkpt>
      <trkpt lat="48.992718" lon="2.073074">
        <ele>25.057378</ele>
        <time>2019-07-31T01:02:15.120Z</time>
      </trkpt>
      <trkpt lat="48.992074" lon="2.073117">
        <ele>24.853185</ele>
        <time>2019-07-31T01:02:28.392Z</time>
      </trkpt>
      <trkpt lat="48.992019" lon="2.073096">
        <ele>24.854988</ele>
        <time>2019-07-31T01:02:29.915Z</time>
      </trkpt>
      <trkpt lat="48.991815" lon="2.073019">
        <ele>24.861671</ele>
        <time>2019-07-31T01:02:34.235Z</time>
      </trkpt>
      <trkpt lat="48.991721" lon="2.073004">
        <ele>24.864676</ele>
        <time>2019-07-31T01:02:36.197Z</time>
      </trkpt>
      <trkpt lat="48.991555" lon="2.072978">
        <ele>24.869982</ele>
        <time>2019-07-31T01:02:39.907Z</time>
      </trkpt>
      <trkpt lat="48.990562" lon="2.073131">
        <ele>24.901719</ele>
        <time>2019-07-31T01:03:00.327Z</time>
      </trkpt>
      <trkpt lat="48.990243" lon="2.073092">
        <ele>24.727911</ele>
        <time>2019-07-31T01:03:06.132Z</time>
      </trkpt>
      <trkpt lat="48.989909" lon="2.073184">
        <ele>24.469683</ele>
        <time>2019-07-31T01:03:10.494Z</time>
      </trkpt>
      <trkpt lat="48.989128" lon="2.072916">
        <ele>23.860610</ele>
        <time>2019-07-31T01:03:20.424Z</time>
      </trkpt>
      <trkpt lat="48.988865" lon="2.072649">
        <ele>23.620181</ele>
        <time>2019-07-31T01:03:24.248Z</time>
      </trkpt>
      <trkpt lat="48.988820" lon="2.072598">
        <ele>23.577514</ele>
        <time>2019-07-31T01:03:25.275Z</time>
      </trkpt>
      <trkpt lat="48.988778" lon="2.072559">
        <ele>23.540096</ele>
        <time>2019-07-31T01:03:26.136Z</time>
      </trkpt>
      <trkpt lat="48.988691" lon="2.072495">
        <ele>23.450908</ele>
        <time>2019-07-31T01:03:27.825Z</time>
      </trkpt>
      <trkpt lat="48.988617" lon="2.072461">
        <ele>23.378828</ele>
        <time>2019-07-31T01:03:29.078Z</time>
      </trkpt>
      <trkpt lat="48.988286" lon="2.072383">
        <ele>23.066474</ele>
        <time>2019-07-31T01:03:35.124Z</time>
      </trkpt>
      <trkpt lat="48.988246" lon="2.072391">
        <ele>23.028851</ele>
        <time>2019-07-31T01:03:35.800Z</time>
      </trkpt>
      <trkpt lat="48.988134" lon="2.072429">
        <ele>22.921844</ele>
        <time>2019-07-31T01:03:38.223Z</time>
      </trkpt>
      <trkpt lat="48.988055" lon="2.072472">
        <ele>22.843611</ele>
        <time>2019-07-31T01:03:40.025Z</time>
      </trkpt>
      <trkpt lat="48.987954" lon="2.072559">
        <ele>22.735414</ele>
        <time>2019-07-31T01:03:41.870Z</time>
      </trkpt>
      <trkpt lat="48.987704" lon="2.073018">
        <ele>22.370365</ele>
        <time>2019-07-31T01:03:48.899Z</time>
      </trkpt>
      <trkpt lat="48.987716" lon="2.073963">
        <ele>21.787962</ele>
        <time>2019-07-31T01:03:59.388Z</time>
      </trkpt>
      <trkpt lat="48.987770" lon="2.074128">
        <ele>21.668410</ele>
        <time>2019-07-31T01:04:01.293Z</time>
      </trkpt>
      <trkpt lat="48.987780" lon="2.074157">
        <ele>21.647169</ele>
        <time>2019-07-31T01:04:01.615Z</time>
      </trkpt>
      <trkpt lat="48.987787" lon="2.074179">
        <ele>21.631316</ele>
        <time>2019-07-31T01:04:01.786Z</time>
      </trkpt>
      <trkpt lat="48.987808" lon="2.074238">
        <ele>21.587796</ele>
        <time>2019-07-31T01:04:02.348Z</time>
      </trkpt>
      <trkpt lat="48.987824" lon="2.074324">
        <ele>21.529836</ele>
        <time>2019-07-31T01:04:03.074Z</time>
      </trkpt>
      <trkpt lat="48.987826" lon="2.074369">
        <ele>21.500592</ele>
        <time>2019-07-31T01:04:03.571Z</time>
      </trkpt>
      <trkpt lat="48.987825" lon="2.074375">
        <ele>21.496578</ele>
        <time>2019-07-31T01:04:03.748Z</time>
      </trkpt>
      <trkpt lat="48.987844" lon="2.074483">
        <ele>21.424079</ele>
        <time>2019-07-31T01:04:04.673Z</time>
      </trkpt>
      <trkpt lat="48.987860" lon="2.074512">
        <ele>21.399513</ele>
        <time>2019-07-31T01:04:05.186Z</time>
      </trkpt>
      <trkpt lat="48.987868" lon="2.074549">
        <ele>21.374254</ele>
        <time>2019-07-31T01:04:05.413Z</time>
      </trkpt>
      <trkpt lat="48.987953" lon="2.075144">
        <ele>20.979426</ele>
        <time>2019-07-31T01:04:10.466Z</time>
      </trkpt>
      <trkpt lat="48.987976" lon="2.075251">
        <ele>20.906421</ele>
        <time>2019-07-31T01:04:11.261Z</time>
      </trkpt>
      <trkpt lat="48.988009" lon="2.075403">
        <ele>20.802612</ele>
        <time>2019-07-31T01:04:12.773Z</time>
      </trkpt>
      <trkpt lat="48.988037" lon="2.075531">
        <ele>20.715128</ele>
        <time>2019-07-31T01:04:14.077Z</time>
      </trkpt>
      <trkpt lat="48.988112" lon="2.075885">
        <ele>20.473932</ele>
        <time>2019-07-31T01:04:16.956Z</time>
      </trkpt>
      <trkpt lat="48.988280" lon="2.076740">
        <ele>20.038000</ele>
        <time>2019-07-31T01:04:24.281Z</time>
      </trkpt>
      <trkpt lat="48.988292" lon="2.076789">
        <ele>20.030079</ele>
        <time>2019-07-31T01:04:24.626Z</time>
      </trkpt>
      <trkpt lat="48.988304" lon="2.076838">
        <ele>20.022157</ele>
        <time>2019-07-31T01:04:25.047Z</time>
      </trkpt>
      <trkpt lat="48.988670" lon="2.078230">
        <ele>19.795036</ele>
        <time>2019-07-31T01:04:39.215Z</time>
      </trkpt>
      <trkpt lat="48.988745" lon="2.078450">
        <ele>19.757487</ele>
        <time>2019-07-31T01:04:41.910Z</time>
      </trkpt>
      <trkpt lat="48.988969" lon="2.079425">
        <ele>19.657411</ele>
        <time>2019-07-31T01:04:52.432Z</time>
      </trkpt>
      <trkpt lat="48.989025" lon="2.079680">
        <ele>19.651825</ele>
        <time>2019-07-31T01:04:54.978Z</time>
      </trkpt>
      <trkpt lat="48.989287" lon="2.080800">
        <ele>19.627122</ele>
        <time>2019-07-31T01:05:05.864Z</time>
      </trkpt>
      <trkpt lat="48.989636" lon="2.082251">
        <ele>20.017270</ele>
        <time>2019-07-31T01:05:21.339Z</time>
      </trkpt>
      <trkpt lat="48.989663" lon="2.082359">
        <ele>20.085208</ele>
        <time>2019-07-31T01:05:22.921Z</time>
      </trkpt>
      <trkpt lat="48.989608" lon="2.082391">
        <ele>20.137947</ele>
        <time>2019-07-31T01:05:27.011Z</time>
      </trkpt>
      <trkpt lat="48.989599" lon="2.082360">
        <ele>20.157873</ele>
        <time>2019-07-31T01:05:28.541Z</time>
      </trkpt>
      <trkpt lat="48.989583" lon="2.082338">
        <ele>20.177178</ele>
        <time>2019-07-31T01:05:31.163Z</time>
      </trkpt>
      <trkpt lat="48.989554" lon="2.082384">
        <ele>20.214676</ele>
        <time>2019-07-31T01:05:36.343Z</time>
      </trkpt>
      <trkpt lat="48.989562" lon="2.082445">
        <ele>20.251243</ele>
        <time>2019-07-31T01:05:41.414Z</time>
      </trkpt>
      <trkpt lat="48.988140" lon="2.083327">
        <ele>21.681658</ele>
        <time>2019-07-31T01:06:12.178Z</time>
      </trkpt>
      <trkpt lat="48.987895" lon="2.083432">
        <ele>21.940591</ele>
        <time>2019-07-31T01:06:23.376Z</time>
      </trkpt>
      <trkpt lat="48.987902" lon="2.083531">
        <ele>22.007070</ele>
        <time>2019-07-31T01:06:25.150Z</time>
      </trkpt>
      <trkpt lat="48.985867" lon="2.084749">
        <ele>23.664800</ele>
        <time>2019-07-31T01:07:15.416Z</time>
      </trkpt>
      <trkpt lat="48.985392" lon="2.085035">
        <ele>23.935064</ele>
        <time>2019-07-31T01:07:26.178Z</time>
      </trkpt>
      <trkpt lat="48.985379" lon="2.085169">
        <ele>23.982104</ele>
        <time>2019-07-31T01:07:28.013Z</time>
      </trkpt>
      <trkpt lat="48.985364" lon="2.085360">
        <ele>24.012015</ele>
        <time>2019-07-31T01:07:30.753Z</time>
      </trkpt>
      <trkpt lat="48.985330" lon="2.085664">
        <ele>24.034126</ele>
        <time>2019-07-31T01:07:35.045Z</time>
      </trkpt>
      <trkpt lat="48.985177" lon="2.085704">
        <ele>24.051087</ele>
        <time>2019-07-31T01:07:52.514Z</time>
      </trkpt>
      <trkpt lat="48.985144" lon="2.085719">
        <ele>24.054849</ele>
        <time>2019-07-31T01:07:56.386Z</time>
      </trkpt>
      <trkpt lat="48.985016" lon="2.085771">
        <ele>24.069323</ele>
        <time>2019-07-31T01:07:59.145Z</time>
      </trkpt>
      <trkpt lat="48.984617" lon="2.085933">
        <ele>24.114437</ele>
        <time>2019-07-31T01:08:07.699Z</time>
      </trkpt>
      <trkpt lat="48.984355" lon="2.086040">
        <ele>24.144073</ele>
        <time>2019-07-31T01:08:13.226Z</time>
      </trkpt>
      <trkpt lat="48.984279" lon="2.086076">
        <ele>24.152769</ele>
        <time>2019-07-31T01:08:14.847Z</time>
      </trkpt>
      <trkpt lat="48.984243" lon="2.086210">
        <ele>24.163151</ele>
        <time>2019-07-31T01:08:16.799Z</time>
      </trkpt>
      <trkpt lat="48.984197" lon="2.086346">
        <ele>24.174121</ele>
        <time>2019-07-31T01:08:18.767Z</time>
      </trkpt>
      <trkpt lat="48.984032" lon="2.086756">
        <ele>24.185608</ele>
        <time>2019-07-31T01:08:25.370Z</time>
      </trkpt>
      <trkpt lat="48.984007" lon="2.086808">
        <ele>24.179242</ele>
        <time>2019-07-31T01:08:26.143Z</time>
      </trkpt>
      <trkpt lat="48.982970" lon="2.087279">
        <ele>24.016423</ele>
        <time>2019-07-31T01:08:47.893Z</time>
      </trkpt>
      <trkpt lat="48.983026" lon="2.087833">
        <ele>23.961070</ele>
        <time>2019-07-31T01:08:54.868Z</time>
      </trkpt>
      <trkpt lat="48.983134" lon="2.088436">
        <ele>23.883871</ele>
        <time>2019-07-31T01:09:02.625Z</time>
      </trkpt>
      <trkpt lat="48.983023" lon="2.088502">
        <ele>23.856357</ele>
        <time>2019-07-31T01:09:04.777Z</time>
      </trkpt>
      <trkpt lat="48.982967" lon="2.088563">
        <ele>23.840462</ele>
        <time>2019-07-31T01:09:06.132Z</time>
      </trkpt>
      <trkpt lat="48.982613" lon="2.089218">
        <ele>23.711874</ele>
        <time>2019-07-31T01:09:16.631Z</time>
      </trkpt>
      <trkpt lat="48.982558" lon="2.089196">
        <ele>23.698743</ele>
        <time>2019-07-31T01:09:17.624Z</time>
      </trkpt>
      <trkpt lat="48.982338" lon="2.089144">
        <ele>23.647335</ele>
        <time>2019-07-31T01:09:22.222Z</time>
      </trkpt>
      <trkpt lat="48.982254" lon="2.089121">
        <ele>23.627627</ele>
        <time>2019-07-31T01:09:23.816Z</time>
      </trkpt>
      <trkpt lat="48.982231" lon="2.089076">
        <ele>23.618984</ele>
        <time>2019-07-31T01:09:24.477Z</time>
      </trkpt>
      <trkpt lat="48.981906" lon="2.088329">
        <ele>23.574843</ele>
        <time>2019-07-31T01:09:36.532Z</time>
      </trkpt>
      <trkpt lat="48.981692" lon="2.088248">
        <ele>23.680569</ele>
        <time>2019-07-31T01:09:40.864Z</time>
      </trkpt>
      <trkpt lat="48.981600" lon="2.088270">
        <ele>23.725220</ele>
        <time>2019-07-31T01:09:43.222Z</time>
      </trkpt>
      <trkpt lat="48.981450" lon="2.088247">
        <ele>23.797504</ele>
        <time>2019-07-31T01:09:46.333Z</time>
      </trkpt>
      <trkpt lat="48.981407" lon="2.088299">
        <ele>23.823826</ele>
        <time>2019-07-31T01:09:47.442Z</time>
      </trkpt>
      <trkpt lat="48.981374" lon="2.088387">
        <ele>23.855719</ele>
        <time>2019-07-31T01:09:48.826Z</time>
      </trkpt>
      <trkpt lat="48.981304" lon="2.088384">
        <ele>23.889295</ele>
        <time>2019-07-31T01:09:50.750Z</time>
      </trkpt>
      <trkpt lat="48.980456" lon="2.088328">
        <ele>24.296269</ele>
        <time>2019-07-31T01:10:10.146Z</time>
      </trkpt>
      <trkpt lat="48.979750" lon="2.087522">
        <ele>24.405376</ele>
        <time>2019-07-31T01:10:30.276Z</time>
      </trkpt>
      <trkpt lat="48.979685" lon="2.087491">
        <ele>24.408227</ele>
        <time>2019-07-31T01:10:31.862Z</time>
      </trkpt>
      <trkpt lat="48.979671" lon="2.087572">
        <ele>24.410527</ele>
        <time>2019-07-31T01:10:33.474Z</time>
      </trkpt>
      <trkpt lat="48.978409" lon="2.095193">
        <ele>24.596535</ele>
        <time>2019-07-31T01:12:54.602Z</time>
      </trkpt>
      <trkpt lat="48.977908" lon="2.098278">
        <ele>26.767474</ele>
        <time>2019-07-31T01:13:59.556Z</time>
      </trkpt>
      <trkpt lat="48.977861" lon="2.098570">
        <ele>27.120560</ele>
        <time>2019-07-31T01:14:06.025Z</time>
      </trkpt>
      <trkpt lat="48.977700" lon="2.099524">
        <ele>28.277381</ele>
        <time>2019-07-31T01:14:25.647Z</time>
      </trkpt>
      <trkpt lat="48.977472" lon="2.100870">
        <ele>29.924565</ele>
        <time>2019-07-31T01:14:54.328Z</time>
      </trkpt>
      <trkpt lat="48.977020" lon="2.103549">
        <ele>31.829898</ele>
        <time>2019-07-31T01:15:38.128Z</time>
      </trkpt>
      <trkpt lat="48.976639" lon="2.105877">
        <ele>31.872778</ele>
        <time>2019-07-31T01:16:07.522Z</time>
      </trkpt>
      <trkpt lat="48.976245" lon="2.108207">
        <ele>31.704499</ele>
        <time>2019-07-31T01:16:38.719Z</time>
      </trkpt>
      <trkpt lat="48.976181" lon="2.108179">
        <ele>31.723536</ele>
        <time>2019-07-31T01:16:41.322Z</time>
      </trkpt>
      <trkpt lat="48.974321" lon="2.107793">
        <ele>31.999572</ele>
        <time>2019-07-31T01:17:22.960Z</time>
      </trkpt>
      <trkpt lat="48.973417" lon="2.112160">
        <ele>31.229666</ele>
        <time>2019-07-31T01:18:18.891Z</time>
      </trkpt>
      <trkpt lat="48.972757" lon="2.115358">
        <ele>33.008477</ele>
        <time>2019-07-31T01:19:11.269Z</time>
      </trkpt>
      <trkpt lat="48.971752" lon="2.120279">
        <ele>36.856243</ele>
        <time>2019-07-31T01:20:36.374Z</time>
      </trkpt>
      <trkpt lat="48.968481" lon="2.125877">
        <ele>40.663366</ele>
        <time>2019-07-31T01:22:30.371Z</time>
      </trkpt>
      <trkpt lat="48.967680" lon="2.126107">
        <ele>41.136096</ele>
        <time>2019-07-31T01:22:50.108Z</time>
      </trkpt>
      <trkpt lat="48.961352" lon="2.127821">
        <ele>43.709582</ele>
        <time>2019-07-31T01:25:10.577Z</time>
      </trkpt>
      <trkpt lat="48.961267" lon="2.127886">
        <ele>43.730039</ele>
        <time>2019-07-31T01:25:12.548Z</time>
      </trkpt>
      <trkpt lat="48.961201" lon="2.128037">
        <ele>43.755655</ele>
        <time>2019-07-31T01:25:14.005Z</time>
      </trkpt>
      <trkpt lat="48.960334" lon="2.129945">
        <ele>43.235820</ele>
        <time>2019-07-31T01:25:33.988Z</time>
      </trkpt>
      <trkpt lat="48.959551" lon="2.131712">
        <ele>42.998685</ele>
        <time>2019-07-31T01:25:54.405Z</time>
      </trkpt>
      <trkpt lat="48.958912" lon="2.133098">
        <ele>42.773733</ele>
        <time>2019-07-31T01:26:10.658Z</time>
      </trkpt>
      <trkpt lat="48.958803" lon="2.133280">
        <ele>42.713352</ele>
        <time>2019-07-31T01:26:12.924Z</time>
      </trkpt>
      <trkpt lat="48.958769" lon="2.133318">
        <ele>42.697609</ele>
        <time>2019-07-31T01:26:13.482Z</time>
      </trkpt>
      <trkpt lat="48.958745" lon="2.133493">
        <ele>42.653789</ele>
        <time>2019-07-31T01:26:17.757Z</time>
      </trkpt>
      <trkpt lat="48.958145" lon="2.134816">
        <ele>42.259669</ele>
        <time>2019-07-31T01:26:55.204Z</time>
      </trkpt>
      <trkpt lat="48.957600" lon="2.136019">
        <ele>41.759859</ele>
        <time>2019-07-31T01:27:28.746Z</time>
      </trkpt>
      <trkpt lat="48.957524" lon="2.136170">
        <ele>41.694095</ele>
        <time>2019-07-31T01:27:32.900Z</time>
      </trkpt>
      <trkpt lat="48.957396" lon="2.136174">
        <ele>41.626699</ele>
        <time>2019-07-31T01:27:34.715Z</time>
      </trkpt>
      <trkpt lat="48.957069" lon="2.136263">
        <ele>41.451832</ele>
        <time>2019-07-31T01:27:39.109Z</time>
      </trkpt>
      <trkpt lat="48.956467" lon="2.136470">
        <ele>41.229646</ele>
        <time>2019-07-31T01:27:47.453Z</time>
      </trkpt>
      <trkpt lat="48.956454" lon="2.136419">
        <ele>41.221977</ele>
        <time>2019-07-31T01:27:48.044Z</time>
      </trkpt>
      <trkpt lat="48.956314" lon="2.136279">
        <ele>41.186222</ele>
        <time>2019-07-31T01:27:50.524Z</time>
      </trkpt>
      <trkpt lat="48.956286" lon="2.136256">
        <ele>41.179430</ele>
        <time>2019-07-31T01:27:51.051Z</time>
      </trkpt>
      <trkpt lat="48.956241" lon="2.136272">
        <ele>41.169565</ele>
        <time>2019-07-31T01:27:51.578Z</time>
      </trkpt>
      <trkpt lat="48.955750" lon="2.137203">
        <ele>41.002174</ele>
        <time>2019-07-31T01:28:02.905Z</time>
      </trkpt>
      <trkpt lat="48.954793" lon="2.139014">
        <ele>40.809604</ele>
        <time>2019-07-31T01:28:24.587Z</time>
      </trkpt>
      <trkpt lat="48.953787" lon="2.140934">
        <ele>40.817807</ele>
        <time>2019-07-31T01:28:48.624Z</time>
      </trkpt>
      <trkpt lat="48.952510" lon="2.143364">
        <ele>40.845569</ele>
        <time>2019-07-31T01:29:19.813Z</time>
      </trkpt>
      <trkpt lat="48.952486" lon="2.143409">
        <ele>40.844316</ele>
        <time>2019-07-31T01:29:20.455Z</time>
      </trkpt>
      <trkpt lat="48.952344" lon="2.143678">
        <ele>40.836855</ele>
        <time>2019-07-31T01:29:23.690Z</time>
      </trkpt>
      <trkpt lat="48.952240" lon="2.143872">
        <ele>40.831440</ele>
        <time>2019-07-31T01:29:26.107Z</time>
      </trkpt>
      <trkpt lat="48.952097" lon="2.144145">
        <ele>40.807462</ele>
        <time>2019-07-31T01:29:29.303Z</time>
      </trkpt>
      <trkpt lat="48.950774" lon="2.146666">
        <ele>39.772185</ele>
        <time>2019-07-31T01:29:57.679Z</time>
      </trkpt>
      <trkpt lat="48.949495" lon="2.149105">
        <ele>38.013850</ele>
        <time>2019-07-31T01:30:23.439Z</time>
      </trkpt>
      <trkpt lat="48.949467" lon="2.149145">
        <ele>37.970835</ele>
        <time>2019-07-31T01:30:23.865Z</time>
      </trkpt>
      <trkpt lat="48.949423" lon="2.149219">
        <ele>37.897388</ele>
        <time>2019-07-31T01:30:24.989Z</time>
      </trkpt>
      <trkpt lat="48.949393" lon="2.149274">
        <ele>37.844783</ele>
        <time>2019-07-31T01:30:25.798Z</time>
      </trkpt>
      <trkpt lat="48.949293" lon="2.149469">
        <ele>37.662748</ele>
        <time>2019-07-31T01:30:28.635Z</time>
      </trkpt>
      <trkpt lat="48.949259" lon="2.149530">
        <ele>37.603880</ele>
        <time>2019-07-31T01:30:29.521Z</time>
      </trkpt>
      <trkpt lat="48.949224" lon="2.149643">
        <ele>37.511955</ele>
        <time>2019-07-31T01:30:30.882Z</time>
      </trkpt>
      <trkpt lat="48.949225" lon="2.149767">
        <ele>37.420713</ele>
        <time>2019-07-31T01:30:32.270Z</time>
      </trkpt>
      <trkpt lat="48.949188" lon="2.149965">
        <ele>37.269247</ele>
        <time>2019-07-31T01:30:34.594Z</time>
      </trkpt>
      <trkpt lat="48.949140" lon="2.150115">
        <ele>37.146477</ele>
        <time>2019-07-31T01:30:36.335Z</time>
      </trkpt>
      <trkpt lat="48.948327" lon="2.151686">
        <ele>35.659254</ele>
        <time>2019-07-31T01:30:51.769Z</time>
      </trkpt>
      <trkpt lat="48.948284" lon="2.151773">
        <ele>35.577903</ele>
        <time>2019-07-31T01:30:52.575Z</time>
      </trkpt>
      <trkpt lat="48.947612" lon="2.153053">
        <ele>34.454766</ele>
        <time>2019-07-31T01:31:06.077Z</time>
      </trkpt>
      <trkpt lat="48.947988" lon="2.153546">
        <ele>34.090610</ele>
        <time>2019-07-31T01:31:12.367Z</time>
      </trkpt>
      <trkpt lat="48.947902" lon="2.153700">
        <ele>33.993178</ele>
        <time>2019-07-31T01:31:14.088Z</time>
      </trkpt>
      <trkpt lat="48.947445" lon="2.154601">
        <ele>33.444472</ele>
        <time>2019-07-31T01:31:23.790Z</time>
      </trkpt>
      <trkpt lat="48.947434" lon="2.154670">
        <ele>33.410249</ele>
        <time>2019-07-31T01:31:24.308Z</time>
      </trkpt>
      <trkpt lat="48.947445" lon="2.154730">
        <ele>33.380224</ele>
        <time>2019-07-31T01:31:24.758Z</time>
      </trkpt>
      <trkpt lat="48.948193" lon="2.155677">
        <ele>32.109212</ele>
        <time>2019-07-31T01:31:37.278Z</time>
      </trkpt>
      <trkpt lat="48.948282" lon="2.155816">
        <ele>31.935750</ele>
        <time>2019-07-31T01:31:38.633Z</time>
      </trkpt>
      <trkpt lat="48.948196" lon="2.155860">
        <ele>31.812312</ele>
        <time>2019-07-31T01:31:39.702Z</time>
      </trkpt>
      <trkpt lat="48.947430" lon="2.156472">
        <ele>30.451259</ele>
        <time>2019-07-31T01:31:49.304Z</time>
      </trkpt>
      <trkpt lat="48.947357" lon="2.156533">
        <ele>30.249646</ele>
        <time>2019-07-31T01:31:50.220Z</time>
      </trkpt>
      <trkpt lat="48.947268" lon="2.156534">
        <ele>30.034155</ele>
        <time>2019-07-31T01:31:51.098Z</time>
      </trkpt>
      <trkpt lat="48.946793" lon="2.156540">
        <ele>28.884051</ele>
        <time>2019-07-31T01:31:56.245Z</time>
      </trkpt>
      <trkpt lat="48.946184" lon="2.156548">
        <ele>27.409494</ele>
        <time>2019-07-31T01:32:02.521Z</time>
      </trkpt>
      <trkpt lat="48.946171" lon="2.156523">
        <ele>27.358788</ele>
        <time>2019-07-31T01:32:02.732Z</time>
      </trkpt>
      <trkpt lat="48.946083" lon="2.156511">
        <ele>27.144870</ele>
        <time>2019-07-31T01:32:03.757Z</time>
      </trkpt>
      <trkpt lat="48.946027" lon="2.156496">
        <ele>27.007202</ele>
        <time>2019-07-31T01:32:04.342Z</time>
      </trkpt>
      <trkpt lat="48.946027" lon="2.156496">
        <ele>27.007202</ele>
        <time>2019-07-31T01:32:04.345Z</time>
      </trkpt>
      <trkpt lat="48.945970" lon="2.156403">
        <ele>26.804925</ele>
        <time>2019-07-31T01:32:05.229Z</time>
      </trkpt>
      <trkpt lat="48.945774" lon="2.156163">
        <ele>26.400839</ele>
        <time>2019-07-31T01:32:07.875Z</time>
      </trkpt>
      <trkpt lat="48.945755" lon="2.156139">
        <ele>26.379252</ele>
        <time>2019-07-31T01:32:08.108Z</time>
      </trkpt>
      <trkpt lat="48.945699" lon="2.156128">
        <ele>26.329879</ele>
        <time>2019-07-31T01:32:08.709Z</time>
      </trkpt>
      <trkpt lat="48.945641" lon="2.156142">
        <ele>26.278529</ele>
        <time>2019-07-31T01:32:09.327Z</time>
      </trkpt>
      <trkpt lat="48.945597" lon="2.156210">
        <ele>26.223709</ele>
        <time>2019-07-31T01:32:10.040Z</time>
      </trkpt>
      <trkpt lat="48.945584" lon="2.156275">
        <ele>26.184687</ele>
        <time>2019-07-31T01:32:10.545Z</time>
      </trkpt>
      <trkpt lat="48.945593" lon="2.156357">
        <ele>26.136942</ele>
        <time>2019-07-31T01:32:11.220Z</time>
      </trkpt>
      <trkpt lat="48.945614" lon="2.156403">
        <ele>26.104769</ele>
        <time>2019-07-31T01:32:11.672Z</time>
      </trkpt>
      <trkpt lat="48.945676" lon="2.156474">
        <ele>26.036933</ele>
        <time>2019-07-31T01:32:12.508Z</time>
      </trkpt>
      <trkpt lat="48.945660" lon="2.156575">
        <ele>25.977266</ele>
        <time>2019-07-31T01:32:13.227Z</time>
      </trkpt>
      <trkpt lat="48.945585" lon="2.156807">
        <ele>25.828764</ele>
        <time>2019-07-31T01:32:15.280Z</time>
      </trkpt>
      <trkpt lat="48.945303" lon="2.157335">
        <ele>25.437929</ele>
        <time>2019-07-31T01:32:20.866Z</time>
      </trkpt>
      <trkpt lat="48.944231" lon="2.159381">
        <ele>26.177602</ele>
        <time>2019-07-31T01:32:51.338Z</time>
      </trkpt>
      <trkpt lat="48.943912" lon="2.159934">
        <ele>26.694385</ele>
        <time>2019-07-31T01:33:01.771Z</time>
      </trkpt>
      <trkpt lat="48.943630" lon="2.160432">
        <ele>27.369546</ele>
        <time>2019-07-31T01:33:11.513Z</time>
      </trkpt>
      <trkpt lat="48.943352" lon="2.160952">
        <ele>28.187680</ele>
        <time>2019-07-31T01:33:21.085Z</time>
      </trkpt>
      <trkpt lat="48.942982" lon="2.161643">
        <ele>29.275541</ele>
        <time>2019-07-31T01:33:33.940Z</time>
      </trkpt>
      <trkpt lat="48.942791" lon="2.162021">
        <ele>29.857485</ele>
        <time>2019-07-31T01:33:41.025Z</time>
      </trkpt>
      <trkpt lat="48.942394" lon="2.162739">
        <ele>31.207520</ele>
        <time>2019-07-31T01:33:55.149Z</time>
      </trkpt>
      <trkpt lat="48.942354" lon="2.162804">
        <ele>31.344227</ele>
        <time>2019-07-31T01:33:56.672Z</time>
      </trkpt>
      <trkpt lat="48.942311" lon="2.162861">
        <ele>31.477453</ele>
        <time>2019-07-31T01:33:58.184Z</time>
      </trkpt>
      <trkpt lat="48.942286" lon="2.162865">
        <ele>31.536192</ele>
        <time>2019-07-31T01:33:58.776Z</time>
      </trkpt>
      <trkpt lat="48.942261" lon="2.162876">
        <ele>31.597000</ele>
        <time>2019-07-31T01:33:59.370Z</time>
      </trkpt>
      <trkpt lat="48.942231" lon="2.162901">
        <ele>31.676915</ele>
        <time>2019-07-31T01:34:00.191Z</time>
      </trkpt>
      <trkpt lat="48.942207" lon="2.162937">
        <ele>31.755642</ele>
        <time>2019-07-31T01:34:00.982Z</time>
      </trkpt>
      <trkpt lat="48.942188" lon="2.162980">
        <ele>31.835182</ele>
        <time>2019-07-31T01:34:01.810Z</time>
      </trkpt>
      <trkpt lat="48.942178" lon="2.163028">
        <ele>31.912469</ele>
        <time>2019-07-31T01:34:02.612Z</time>
      </trkpt>
      <trkpt lat="48.942176" lon="2.163078">
        <ele>31.989351</ele>
        <time>2019-07-31T01:34:03.382Z</time>
      </trkpt>
      <trkpt lat="48.942181" lon="2.163128">
        <ele>32.066975</ele>
        <time>2019-07-31T01:34:04.181Z</time>
      </trkpt>
      <trkpt lat="48.942124" lon="2.163280">
        <ele>32.335609</ele>
        <time>2019-07-31T01:34:07.306Z</time>
      </trkpt>
      <trkpt lat="48.941651" lon="2.164156">
        <ele>34.076083</ele>
        <time>2019-07-31T01:34:25.811Z</time>
      </trkpt>
      <trkpt lat="48.941250" lon="2.164917">
        <ele>35.384619</ele>
        <time>2019-07-31T01:34:41.360Z</time>
      </trkpt>
      <trkpt lat="48.941195" lon="2.165033">
        <ele>35.568518</ele>
        <time>2019-07-31T01:34:43.759Z</time>
      </trkpt>
      <trkpt lat="48.940934" lon="2.165559">
        <ele>36.415901</ele>
        <time>2019-07-31T01:34:53.789Z</time>
      </trkpt>
      <trkpt lat="48.940922" lon="2.165585">
        <ele>36.456748</ele>
        <time>2019-07-31T01:34:54.242Z</time>
      </trkpt>
      <trkpt lat="48.940835" lon="2.165752">
        <ele>36.730738</ele>
        <time>2019-07-31T01:34:57.277Z</time>
      </trkpt>
      <trkpt lat="48.940282" lon="2.166829">
        <ele>38.153774</ele>
        <time>2019-07-31T01:35:16.406Z</time>
      </trkpt>
      <trkpt lat="48.940185" lon="2.167008">
        <ele>38.273045</ele>
        <time>2019-07-31T01:35:19.206Z</time>
      </trkpt>
      <trkpt lat="48.940145" lon="2.167082">
        <ele>38.322302</ele>
        <time>2019-07-31T01:35:20.387Z</time>
      </trkpt>
      <trkpt lat="48.939908" lon="2.167540">
        <ele>38.621982</ele>
        <time>2019-07-31T01:35:27.002Z</time>
      </trkpt>
      <trkpt lat="48.939633" lon="2.168071">
        <ele>38.969536</ele>
        <time>2019-07-31T01:35:34.386Z</time>
      </trkpt>
      <trkpt lat="48.939011" lon="2.169243">
        <ele>39.604876</ele>
        <time>2019-07-31T01:35:50.954Z</time>
      </trkpt>
      <trkpt lat="48.938728" lon="2.169777">
        <ele>39.836537</ele>
        <time>2019-07-31T01:35:58.490Z</time>
      </trkpt>
      <trkpt lat="48.938401" lon="2.170425">
        <ele>40.112435</ele>
        <time>2019-07-31T01:36:07.262Z</time>
      </trkpt>
      <trkpt lat="48.938291" lon="2.170604">
        <ele>40.195197</ele>
        <time>2019-07-31T01:36:10.109Z</time>
      </trkpt>
      <trkpt lat="48.938207" lon="2.170750">
        <ele>40.260727</ele>
        <time>2019-07-31T01:36:12.304Z</time>
      </trkpt>
      <trkpt lat="48.937605" lon="2.171925">
        <ele>41.132868</ele>
        <time>2019-07-31T01:36:29.984Z</time>
      </trkpt>
      <trkpt lat="48.937540" lon="2.172038">
        <ele>41.220952</ele>
        <time>2019-07-31T01:36:31.854Z</time>
      </trkpt>
      <trkpt lat="48.937273" lon="2.172564">
        <ele>41.610788</ele>
        <time>2019-07-31T01:36:40.062Z</time>
      </trkpt>
      <trkpt lat="48.936878" lon="2.172920">
        <ele>42.075542</ele>
        <time>2019-07-31T01:36:48.796Z</time>
      </trkpt>
      <trkpt lat="48.936838" lon="2.172964">
        <ele>42.135552</ele>
        <time>2019-07-31T01:36:49.944Z</time>
      </trkpt>
      <trkpt lat="48.936806" lon="2.173000">
        <ele>42.183937</ele>
        <time>2019-07-31T01:36:50.626Z</time>
      </trkpt>
      <trkpt lat="48.936768" lon="2.173054">
        <ele>42.247149</ele>
        <time>2019-07-31T01:36:51.666Z</time>
      </trkpt>
      <trkpt lat="48.936611" lon="2.173318">
        <ele>42.531609</ele>
        <time>2019-07-31T01:36:56.286Z</time>
      </trkpt>
      <trkpt lat="48.936562" lon="2.173414">
        <ele>42.628721</ele>
        <time>2019-07-31T01:36:57.922Z</time>
      </trkpt>
      <trkpt lat="48.936529" lon="2.173504">
        <ele>42.711053</ele>
        <time>2019-07-31T01:36:59.347Z</time>
      </trkpt>
      <trkpt lat="48.936424" lon="2.174091">
        <ele>43.197016</ele>
        <time>2019-07-31T01:37:07.495Z</time>
      </trkpt>
      <trkpt lat="48.936366" lon="2.174235">
        <ele>43.331942</ele>
        <time>2019-07-31T01:37:09.725Z</time>
      </trkpt>
      <trkpt lat="48.935957" lon="2.174982">
        <ele>44.090997</ele>
        <time>2019-07-31T01:37:22.403Z</time>
      </trkpt>
      <trkpt lat="48.935885" lon="2.175102">
        <ele>44.177151</ele>
        <time>2019-07-31T01:37:24.493Z</time>
      </trkpt>
      <trkpt lat="48.935154" lon="2.176327">
        <ele>45.054474</ele>
        <time>2019-07-31T01:37:44.278Z</time>
      </trkpt>
      <trkpt lat="48.934967" lon="2.176650">
        <ele>45.282710</ele>
        <time>2019-07-31T01:37:49.083Z</time>
      </trkpt>
      <trkpt lat="48.934921" lon="2.176726">
        <ele>45.337493</ele>
        <time>2019-07-31T01:37:50.283Z</time>
      </trkpt>
      <trkpt lat="48.934706" lon="2.177138">
        <ele>45.590624</ele>
        <time>2019-07-31T01:37:56.133Z</time>
      </trkpt>
      <trkpt lat="48.934464" lon="2.177625">
        <ele>45.837663</ele>
        <time>2019-07-31T01:38:02.860Z</time>
      </trkpt>
      <trkpt lat="48.934345" lon="2.177851">
        <ele>45.954839</ele>
        <time>2019-07-31T01:38:06.006Z</time>
      </trkpt>
      <trkpt lat="48.931955" lon="2.182614">
        <ele>48.120756</ele>
        <time>2019-07-31T01:39:14.520Z</time>
      </trkpt>
      <trkpt lat="48.931749" lon="2.182989">
        <ele>48.240574</ele>
        <time>2019-07-31T01:39:19.665Z</time>
      </trkpt>
      <trkpt lat="48.930974" lon="2.184460">
        <ele>47.905270</ele>
        <time>2019-07-31T01:39:37.824Z</time>
      </trkpt>
      <trkpt lat="48.930494" lon="2.185340">
        <ele>47.461664</ele>
        <time>2019-07-31T01:39:47.300Z</time>
      </trkpt>
      <trkpt lat="48.930128" lon="2.186065">
        <ele>46.394648</ele>
        <time>2019-07-31T01:39:54.267Z</time>
      </trkpt>
      <trkpt lat="48.929723" lon="2.186837">
        <ele>44.798550</ele>
        <time>2019-07-31T01:40:01.278Z</time>
      </trkpt>
      <trkpt lat="48.929282" lon="2.187678">
        <ele>43.060091</ele>
        <time>2019-07-31T01:40:08.475Z</time>
      </trkpt>
      <trkpt lat="48.929216" lon="2.187880">
        <ele>42.619972</ele>
        <time>2019-07-31T01:40:09.931Z</time>
      </trkpt>
      <trkpt lat="48.929196" lon="2.187911">
        <ele>42.524899</ele>
        <time>2019-07-31T01:40:10.216Z</time>
      </trkpt>
      <trkpt lat="48.929074" lon="2.188146">
        <ele>41.869495</ele>
        <time>2019-07-31T01:40:12.213Z</time>
      </trkpt>
      <trkpt lat="48.928770" lon="2.188715">
        <ele>40.264651</ele>
        <time>2019-07-31T01:40:16.957Z</time>
      </trkpt>
      <trkpt lat="48.928585" lon="2.189063">
        <ele>39.285070</ele>
        <time>2019-07-31T01:40:19.882Z</time>
      </trkpt>
      <trkpt lat="48.928539" lon="2.189152">
        <ele>39.037272</ele>
        <time>2019-07-31T01:40:20.607Z</time>
      </trkpt>
      <trkpt lat="48.928085" lon="2.190000">
        <ele>36.781207</ele>
        <time>2019-07-31T01:40:27.958Z</time>
      </trkpt>
      <trkpt lat="48.927755" lon="2.190618">
        <ele>35.911798</ele>
        <time>2019-07-31T01:40:33.567Z</time>
      </trkpt>
      <trkpt lat="48.927546" lon="2.190953">
        <ele>35.407455</ele>
        <time>2019-07-31T01:40:36.969Z</time>
      </trkpt>
      <trkpt lat="48.927311" lon="2.191362">
        <ele>34.814280</ele>
        <time>2019-07-31T01:40:41.136Z</time>
      </trkpt>
      <trkpt lat="48.927222" lon="2.191546">
        <ele>34.564836</ele>
        <time>2019-07-31T01:40:42.994Z</time>
      </trkpt>
      <trkpt lat="48.927078" lon="2.191837">
        <ele>34.167113</ele>
        <time>2019-07-31T01:40:45.963Z</time>
      </trkpt>
      <trkpt lat="48.926787" lon="2.192351">
        <ele>33.736757</ele>
        <time>2019-07-31T01:40:52.001Z</time>
      </trkpt>
      <trkpt lat="48.926526" lon="2.192852">
        <ele>33.469291</ele>
        <time>2019-07-31T01:40:57.781Z</time>
      </trkpt>
      <trkpt lat="48.925952" lon="2.193950">
        <ele>32.882318</ele>
        <time>2019-07-31T01:41:09.734Z</time>
      </trkpt>
      <trkpt lat="48.925822" lon="2.194198">
        <ele>32.727122</ele>
        <time>2019-07-31T01:41:12.281Z</time>
      </trkpt>
      <trkpt lat="48.925655" lon="2.194506">
        <ele>32.452126</ele>
        <time>2019-07-31T01:41:15.540Z</time>
      </trkpt>
      <trkpt lat="48.925531" lon="2.194743">
        <ele>32.243493</ele>
        <time>2019-07-31T01:41:17.987Z</time>
      </trkpt>
      <trkpt lat="48.925262" lon="2.195254">
        <ele>31.792582</ele>
        <time>2019-07-31T01:41:23.219Z</time>
      </trkpt>
      <trkpt lat="48.925140" lon="2.195473">
        <ele>31.594857</ele>
        <time>2019-07-31T01:41:25.417Z</time>
      </trkpt>
      <trkpt lat="48.925056" lon="2.195698">
        <ele>31.416646</ele>
        <time>2019-07-31T01:41:27.508Z</time>
      </trkpt>
      <trkpt lat="48.924982" lon="2.196071">
        <ele>31.148325</ele>
        <time>2019-07-31T01:41:30.511Z</time>
      </trkpt>
      <trkpt lat="48.924959" lon="2.196262">
        <ele>31.014602</ele>
        <time>2019-07-31T01:41:32.067Z</time>
      </trkpt>
      <trkpt lat="48.924918" lon="2.196652">
        <ele>30.777170</ele>
        <time>2019-07-31T01:41:35.189Z</time>
      </trkpt>
      <trkpt lat="48.924847" lon="2.197301">
        <ele>30.424057</ele>
        <time>2019-07-31T01:41:40.628Z</time>
      </trkpt>
      <trkpt lat="48.924769" lon="2.197988">
        <ele>30.049880</ele>
        <time>2019-07-31T01:41:46.362Z</time>
      </trkpt>
      <trkpt lat="48.924590" lon="2.199611">
        <ele>29.325716</ele>
        <time>2019-07-31T01:42:00.337Z</time>
      </trkpt>
      <trkpt lat="48.924547" lon="2.200000">
        <ele>29.241870</ele>
        <time>2019-07-31T01:42:03.790Z</time>
      </trkpt>
      <trkpt lat="48.924484" lon="2.200562">
        <ele>29.120688</ele>
        <time>2019-07-31T01:42:08.828Z</time>
      </trkpt>
      <trkpt lat="48.924202" lon="2.202962">
        <ele>28.924379</ele>
        <time>2019-07-31T01:42:32.231Z</time>
      </trkpt>
      <trkpt lat="48.924162" lon="2.203262">
        <ele>28.944557</ele>
        <time>2019-07-31T01:42:35.380Z</time>
      </trkpt>
      <trkpt lat="48.924082" lon="2.204062">
        <ele>28.997897</ele>
        <time>2019-07-31T01:42:43.773Z</time>
      </trkpt>
      <trkpt lat="48.924072" lon="2.204158">
        <ele>29.004304</ele>
        <time>2019-07-31T01:42:44.759Z</time>
      </trkpt>
      <trkpt lat="48.924063" lon="2.204247">
        <ele>29.010239</ele>
        <time>2019-07-31T01:42:45.678Z</time>
      </trkpt>
      <trkpt lat="48.924015" lon="2.205003">
        <ele>29.063173</ele>
        <time>2019-07-31T01:42:53.657Z</time>
      </trkpt>
      <trkpt lat="48.923844" lon="2.206522">
        <ele>29.173957</ele>
        <time>2019-07-31T01:43:09.557Z</time>
      </trkpt>
      <trkpt lat="48.923733" lon="2.207216">
        <ele>29.225301</ele>
        <time>2019-07-31T01:43:16.367Z</time>
      </trkpt>
      <trkpt lat="48.923685" lon="2.207535">
        <ele>29.164509</ele>
        <time>2019-07-31T01:43:19.377Z</time>
      </trkpt>
      <trkpt lat="48.923674" lon="2.207558">
        <ele>29.159195</ele>
        <time>2019-07-31T01:43:19.649Z</time>
      </trkpt>
      <trkpt lat="48.923609" lon="2.207693">
        <ele>29.127929</ele>
        <time>2019-07-31T01:43:21.214Z</time>
      </trkpt>
      <trkpt lat="48.923526" lon="2.207805">
        <ele>29.096391</ele>
        <time>2019-07-31T01:43:22.850Z</time>
      </trkpt>
      <trkpt lat="48.923510" lon="2.208042">
        <ele>29.051884</ele>
        <time>2019-07-31T01:43:24.972Z</time>
      </trkpt>
      <trkpt lat="48.923535" lon="2.208277">
        <ele>29.007412</ele>
        <time>2019-07-31T01:43:27.215Z</time>
      </trkpt>
      <trkpt lat="48.923547" lon="2.208412">
        <ele>28.981962</ele>
        <time>2019-07-31T01:43:28.480Z</time>
      </trkpt>
      <trkpt lat="48.923557" lon="2.208541">
        <ele>28.957697</ele>
        <time>2019-07-31T01:43:29.601Z</time>
      </trkpt>
      <trkpt lat="48.923427" lon="2.210013">
        <ele>28.663397</ele>
        <time>2019-07-31T01:43:43.042Z</time>
      </trkpt>
      <trkpt lat="48.923363" lon="2.210570">
        <ele>28.505108</ele>
        <time>2019-07-31T01:43:47.869Z</time>
      </trkpt>
      <trkpt lat="48.923300" lon="2.211121">
        <ele>28.348547</ele>
        <time>2019-07-31T01:43:52.525Z</time>
      </trkpt>
      <trkpt lat="48.923217" lon="2.211852">
        <ele>28.140883</ele>
        <time>2019-07-31T01:43:59.143Z</time>
      </trkpt>
      <trkpt lat="48.923187" lon="2.212112">
        <ele>28.066987</ele>
        <time>2019-07-31T01:44:01.415Z</time>
      </trkpt>
      <trkpt lat="48.923078" lon="2.213071">
        <ele>27.952810</ele>
        <time>2019-07-31T01:44:10.774Z</time>
      </trkpt>
      <trkpt lat="48.923046" lon="2.213259">
        <ele>27.954609</ele>
        <time>2019-07-31T01:44:12.471Z</time>
      </trkpt>
      <trkpt lat="48.923010" lon="2.213268">
        <ele>27.955124</ele>
        <time>2019-07-31T01:44:13.155Z</time>
      </trkpt>
      <trkpt lat="48.922853" lon="2.214348">
        <ele>27.965371</ele>
        <time>2019-07-31T01:44:24.120Z</time>
      </trkpt>
      <trkpt lat="48.922844" lon="2.214410">
        <ele>27.965960</ele>
        <time>2019-07-31T01:44:24.954Z</time>
      </trkpt>
      <trkpt lat="48.922591" lon="2.216258">
        <ele>27.619496</ele>
        <time>2019-07-31T01:44:43.442Z</time>
      </trkpt>
      <trkpt lat="48.922590" lon="2.216292">
        <ele>27.608722</ele>
        <time>2019-07-31T01:44:43.891Z</time>
      </trkpt>
      <trkpt lat="48.922585" lon="2.216327">
        <ele>27.597382</ele>
        <time>2019-07-31T01:44:44.220Z</time>
      </trkpt>
      <trkpt lat="48.922581" lon="2.216367">
        <ele>27.584573</ele>
        <time>2019-07-31T01:44:44.589Z</time>
      </trkpt>
      <trkpt lat="48.922578" lon="2.216391">
        <ele>27.576839</ele>
        <time>2019-07-31T01:44:44.764Z</time>
      </trkpt>
      <trkpt lat="48.922483" lon="2.217214">
        <ele>27.312298</ele>
        <time>2019-07-31T01:44:51.587Z</time>
      </trkpt>
      <trkpt lat="48.922475" lon="2.217301">
        <ele>27.284487</ele>
        <time>2019-07-31T01:44:52.268Z</time>
      </trkpt>
      <trkpt lat="48.921854" lon="2.218203">
        <ele>27.097568</ele>
        <time>2019-07-31T01:45:03.184Z</time>
      </trkpt>
      <trkpt lat="48.921840" lon="2.218276">
        <ele>27.096655</ele>
        <time>2019-07-31T01:45:03.758Z</time>
      </trkpt>
      <trkpt lat="48.921808" lon="2.218361">
        <ele>27.095480</ele>
        <time>2019-07-31T01:45:04.566Z</time>
      </trkpt>
      <trkpt lat="48.921691" lon="2.218538">
        <ele>27.092467</ele>
        <time>2019-07-31T01:45:06.884Z</time>
      </trkpt>
      <trkpt lat="48.921503" lon="2.218824">
        <ele>27.087613</ele>
        <time>2019-07-31T01:45:10.548Z</time>
      </trkpt>
      <trkpt lat="48.921309" lon="2.219158">
        <ele>27.082263</ele>
        <time>2019-07-31T01:45:14.994Z</time>
      </trkpt>
      <trkpt lat="48.921289" lon="2.219201">
        <ele>27.081631</ele>
        <time>2019-07-31T01:45:15.568Z</time>
      </trkpt>
      <trkpt lat="48.919884" lon="2.221170">
        <ele>28.749227</ele>
        <time>2019-07-31T01:45:52.687Z</time>
      </trkpt>
      <trkpt lat="48.919879" lon="2.221176">
        <ele>28.756470</ele>
        <time>2019-07-31T01:45:52.847Z</time>
      </trkpt>
      <trkpt lat="48.919831" lon="2.221247">
        <ele>28.832611</ele>
        <time>2019-07-31T01:45:54.562Z</time>
      </trkpt>
      <trkpt lat="48.919475" lon="2.221706">
        <ele>29.412591</ele>
        <time>2019-07-31T01:46:06.518Z</time>
      </trkpt>
      <trkpt lat="48.919411" lon="2.221801">
        <ele>29.534827</ele>
        <time>2019-07-31T01:46:08.788Z</time>
      </trkpt>
      <trkpt lat="48.919225" lon="2.221994">
        <ele>29.842624</ele>
        <time>2019-07-31T01:46:14.236Z</time>
      </trkpt>
      <trkpt lat="48.919131" lon="2.222060">
        <ele>29.984165</ele>
        <time>2019-07-31T01:46:16.907Z</time>
      </trkpt>
      <trkpt lat="48.919086" lon="2.222155">
        <ele>30.089381</ele>
        <time>2019-07-31T01:46:18.294Z</time>
      </trkpt>
      <trkpt lat="48.918945" lon="2.222292">
        <ele>30.318105</ele>
        <time>2019-07-31T01:46:21.352Z</time>
      </trkpt>
      <trkpt lat="48.918892" lon="2.222320">
        <ele>30.394812</ele>
        <time>2019-07-31T01:46:22.639Z</time>
      </trkpt>
      <trkpt lat="48.918857" lon="2.222338">
        <ele>30.445324</ele>
        <time>2019-07-31T01:46:23.512Z</time>
      </trkpt>
      <trkpt lat="48.918839" lon="2.222387">
        <ele>30.495760</ele>
        <time>2019-07-31T01:46:24.466Z</time>
      </trkpt>
      <trkpt lat="48.918832" lon="2.222438">
        <ele>30.542570</ele>
        <time>2019-07-31T01:46:25.273Z</time>
      </trkpt>
      <trkpt lat="48.918826" lon="2.222585">
        <ele>30.674896</ele>
        <time>2019-07-31T01:46:28.080Z</time>
      </trkpt>
      <trkpt lat="48.918753" lon="2.222729">
        <ele>30.838298</ele>
        <time>2019-07-31T01:46:30.941Z</time>
      </trkpt>
      <trkpt lat="48.918696" lon="2.222834">
        <ele>30.960663</ele>
        <time>2019-07-31T01:46:33.024Z</time>
      </trkpt>
      <trkpt lat="48.917992" lon="2.223833">
        <ele>32.459747</ele>
        <time>2019-07-31T01:46:53.016Z</time>
      </trkpt>
      <trkpt lat="48.917880" lon="2.223863">
        <ele>32.655997</ele>
        <time>2019-07-31T01:46:55.725Z</time>
      </trkpt>
      <trkpt lat="48.917839" lon="2.223927">
        <ele>32.757356</ele>
        <time>2019-07-31T01:46:56.856Z</time>
      </trkpt>
      <trkpt lat="48.917811" lon="2.224052">
        <ele>32.907119</ele>
        <time>2019-07-31T01:46:59.030Z</time>
      </trkpt>
      <trkpt lat="48.916338" lon="2.226025">
        <ele>36.054271</ele>
        <time>2019-07-31T01:47:41.973Z</time>
      </trkpt>
      <trkpt lat="48.916304" lon="2.226083">
        <ele>36.129320</ele>
        <time>2019-07-31T01:47:43.171Z</time>
      </trkpt>
      <trkpt lat="48.916280" lon="2.226136">
        <ele>36.191471</ele>
        <time>2019-07-31T01:47:44.019Z</time>
      </trkpt>
      <trkpt lat="48.916209" lon="2.226274">
        <ele>36.360707</ele>
        <time>2019-07-31T01:47:46.215Z</time>
      </trkpt>
      <trkpt lat="48.916203" lon="2.226284">
        <ele>36.373782</ele>
        <time>2019-07-31T01:47:46.424Z</time>
      </trkpt>
      <trkpt lat="48.916163" lon="2.226439">
        <ele>36.534579</ele>
        <time>2019-07-31T01:47:48.572Z</time>
      </trkpt>
      <trkpt lat="48.915358" lon="2.227582">
        <ele>37.808734</ele>
        <time>2019-07-31T01:48:09.519Z</time>
      </trkpt>
      <trkpt lat="48.915041" lon="2.228010">
        <ele>38.172626</ele>
        <time>2019-07-31T01:48:17.879Z</time>
      </trkpt>
      <trkpt lat="48.914930" lon="2.228136">
        <ele>38.291535</ele>
        <time>2019-07-31T01:48:20.426Z</time>
      </trkpt>
      <trkpt lat="48.914616" lon="2.228586">
        <ele>38.661904</ele>
        <time>2019-07-31T01:48:28.298Z</time>
      </trkpt>
      <trkpt lat="48.914476" lon="2.228764">
        <ele>38.818556</ele>
        <time>2019-07-31T01:48:31.400Z</time>
      </trkpt>
      <trkpt lat="48.914400" lon="2.228847">
        <ele>38.872999</ele>
        <time>2019-07-31T01:48:32.798Z</time>
      </trkpt>
      <trkpt lat="48.914280" lon="2.228994">
        <ele>38.886803</ele>
        <time>2019-07-31T01:48:35.153Z</time>
      </trkpt>
      <trkpt lat="48.914250" lon="2.229026">
        <ele>38.890086</ele>
        <time>2019-07-31T01:48:35.835Z</time>
      </trkpt>
      <trkpt lat="48.914137" lon="2.229145">
        <ele>38.902401</ele>
        <time>2019-07-31T01:48:37.708Z</time>
      </trkpt>
      <trkpt lat="48.914026" lon="2.229281">
        <ele>38.915171</ele>
        <time>2019-07-31T01:48:40.199Z</time>
      </trkpt>
      <trkpt lat="48.913881" lon="2.229458">
        <ele>38.931828</ele>
        <time>2019-07-31T01:48:42.771Z</time>
      </trkpt>
      <trkpt lat="48.913750" lon="2.229619">
        <ele>38.946918</ele>
        <time>2019-07-31T01:48:45.579Z</time>
      </trkpt>
      <trkpt lat="48.913628" lon="2.229767">
        <ele>38.960899</ele>
        <time>2019-07-31T01:48:47.751Z</time>
      </trkpt>
      <trkpt lat="48.913603" lon="2.229803">
        <ele>38.963984</ele>
        <time>2019-07-31T01:48:48.227Z</time>
      </trkpt>
      <trkpt lat="48.913572" lon="2.229846">
        <ele>38.967742</ele>
        <time>2019-07-31T01:48:48.862Z</time>
      </trkpt>
      <trkpt lat="48.913267" lon="2.230274">
        <ele>39.004921</ele>
        <time>2019-07-31T01:48:55.459Z</time>
      </trkpt>
      <trkpt lat="48.913223" lon="2.230305">
        <ele>39.009266</ele>
        <time>2019-07-31T01:48:56.477Z</time>
      </trkpt>
      <trkpt lat="48.913154" lon="2.230331">
        <ele>39.015636</ele>
        <time>2019-07-31T01:48:57.481Z</time>
      </trkpt>
      <trkpt lat="48.913125" lon="2.230460">
        <ele>39.023665</ele>
        <time>2019-07-31T01:48:58.873Z</time>
      </trkpt>
      <trkpt lat="48.913068" lon="2.230550">
        <ele>39.031026</ele>
        <time>2019-07-31T01:49:00.007Z</time>
      </trkpt>
      <trkpt lat="48.913009" lon="2.230646">
        <ele>38.985656</ele>
        <time>2019-07-31T01:49:01.154Z</time>
      </trkpt>
      <trkpt lat="48.912966" lon="2.230681">
        <ele>38.959526</ele>
        <time>2019-07-31T01:49:01.939Z</time>
      </trkpt>
      <trkpt lat="48.912272" lon="2.231663">
        <ele>38.451729</ele>
        <time>2019-07-31T01:49:13.581Z</time>
      </trkpt>
      <trkpt lat="48.911947" lon="2.232110">
        <ele>38.216989</ele>
        <time>2019-07-31T01:49:19.357Z</time>
      </trkpt>
      <trkpt lat="48.911924" lon="2.232169">
        <ele>38.192832</ele>
        <time>2019-07-31T01:49:20.091Z</time>
      </trkpt>
      <trkpt lat="48.911836" lon="2.232282">
        <ele>38.131133</ele>
        <time>2019-07-31T01:49:21.757Z</time>
      </trkpt>
      <trkpt lat="48.911787" lon="2.232307">
        <ele>38.103441</ele>
        <time>2019-07-31T01:49:22.674Z</time>
      </trkpt>
      <trkpt lat="48.911738" lon="2.232369">
        <ele>38.069294</ele>
        <time>2019-07-31T01:49:23.564Z</time>
      </trkpt>
      <trkpt lat="48.911692" lon="2.232415">
        <ele>38.051890</ele>
        <time>2019-07-31T01:49:24.355Z</time>
      </trkpt>
      <trkpt lat="48.911007" lon="2.233372">
        <ele>37.771764</ele>
        <time>2019-07-31T01:49:36.814Z</time>
      </trkpt>
      <trkpt lat="48.910962" lon="2.233403">
        <ele>37.756884</ele>
        <time>2019-07-31T01:49:37.577Z</time>
      </trkpt>
      <trkpt lat="48.910385" lon="2.234189">
        <ele>37.527654</ele>
        <time>2019-07-31T01:49:48.396Z</time>
      </trkpt>
      <trkpt lat="48.910327" lon="2.234255">
        <ele>37.549626</ele>
        <time>2019-07-31T01:49:49.488Z</time>
      </trkpt>
      <trkpt lat="48.910259" lon="2.234336">
        <ele>37.575825</ele>
        <time>2019-07-31T01:49:50.617Z</time>
      </trkpt>
      <trkpt lat="48.910228" lon="2.234484">
        <ele>37.606797</ele>
        <time>2019-07-31T01:49:52.019Z</time>
      </trkpt>
      <trkpt lat="48.910144" lon="2.234670">
        <ele>37.651794</ele>
        <time>2019-07-31T01:49:54.214Z</time>
      </trkpt>
      <trkpt lat="48.910113" lon="2.234693">
        <ele>37.662257</ele>
        <time>2019-07-31T01:49:54.758Z</time>
      </trkpt>
      <trkpt lat="48.909713" lon="2.235251">
        <ele>37.826890</ele>
        <time>2019-07-31T01:50:03.155Z</time>
      </trkpt>
      <trkpt lat="48.909635" lon="2.235458">
        <ele>37.874465</ele>
        <time>2019-07-31T01:50:05.861Z</time>
      </trkpt>
      <trkpt lat="48.909350" lon="2.235884">
        <ele>37.995669</ele>
        <time>2019-07-31T01:50:13.129Z</time>
      </trkpt>
      <trkpt lat="48.909135" lon="2.236206">
        <ele>38.099449</ele>
        <time>2019-07-31T01:50:20.064Z</time>
      </trkpt>
      <trkpt lat="48.909031" lon="2.236394">
        <ele>38.186174</ele>
        <time>2019-07-31T01:50:24.014Z</time>
      </trkpt>
      <trkpt lat="48.908940" lon="2.236609">
        <ele>38.276428</ele>
        <time>2019-07-31T01:50:27.836Z</time>
      </trkpt>
      <trkpt lat="48.908893" lon="2.236722">
        <ele>38.323624</ele>
        <time>2019-07-31T01:50:29.305Z</time>
      </trkpt>
      <trkpt lat="48.908849" lon="2.236795">
        <ele>38.358582</ele>
        <time>2019-07-31T01:50:30.418Z</time>
      </trkpt>
      <trkpt lat="48.908758" lon="2.236936">
        <ele>38.428326</ele>
        <time>2019-07-31T01:50:32.664Z</time>
      </trkpt>
      <trkpt lat="48.908674" lon="2.237055">
        <ele>38.489959</ele>
        <time>2019-07-31T01:50:34.281Z</time>
      </trkpt>
      <trkpt lat="48.908620" lon="2.237115">
        <ele>38.525865</ele>
        <time>2019-07-31T01:50:35.438Z</time>
      </trkpt>
      <trkpt lat="48.908537" lon="2.237201">
        <ele>38.579788</ele>
        <time>2019-07-31T01:50:37.010Z</time>
      </trkpt>
      <trkpt lat="48.908449" lon="2.237292">
        <ele>38.636924</ele>
        <time>2019-07-31T01:50:38.646Z</time>
      </trkpt>
      <trkpt lat="48.907954" lon="2.237807">
        <ele>38.958934</ele>
        <time>2019-07-31T01:50:48.873Z</time>
      </trkpt>
      <trkpt lat="48.907931" lon="2.237832">
        <ele>38.974113</ele>
        <time>2019-07-31T01:50:49.435Z</time>
      </trkpt>
      <trkpt lat="48.907378" lon="2.238411">
        <ele>39.405119</ele>
        <time>2019-07-31T01:51:00.994Z</time>
      </trkpt>
      <trkpt lat="48.907251" lon="2.238535">
        <ele>39.505365</ele>
        <time>2019-07-31T01:51:03.356Z</time>
      </trkpt>
      <trkpt lat="48.907015" lon="2.238696">
        <ele>39.677180</ele>
        <time>2019-07-31T01:51:07.616Z</time>
      </trkpt>
      <trkpt lat="48.906982" lon="2.238718">
        <ele>39.701114</ele>
        <time>2019-07-31T01:51:08.124Z</time>
      </trkpt>
      <trkpt lat="48.906849" lon="2.238789">
        <ele>39.794748</ele>
        <time>2019-07-31T01:51:10.949Z</time>
      </trkpt>
      <trkpt lat="48.906730" lon="2.238811">
        <ele>39.874381</ele>
        <time>2019-07-31T01:51:12.922Z</time>
      </trkpt>
      <trkpt lat="48.906737" lon="2.238944">
        <ele>39.932640</ele>
        <time>2019-07-31T01:51:14.396Z</time>
      </trkpt>
      <trkpt lat="48.906738" lon="2.238983">
        <ele>39.949682</ele>
        <time>2019-07-31T01:51:14.819Z</time>
      </trkpt>
      <trkpt lat="48.906742" lon="2.239090">
        <ele>39.996478</ele>
        <time>2019-07-31T01:51:16.199Z</time>
      </trkpt>
      <trkpt lat="48.906746" lon="2.239162">
        <ele>40.028028</ele>
        <time>2019-07-31T01:51:17.296Z</time>
      </trkpt>
      <trkpt lat="48.906752" lon="2.239212">
        <ele>40.050221</ele>
        <time>2019-07-31T01:51:17.927Z</time>
      </trkpt>
      <trkpt lat="48.906766" lon="2.239326">
        <ele>40.100859</ele>
        <time>2019-07-31T01:51:19.589Z</time>
      </trkpt>
      <trkpt lat="48.906830" lon="2.239594">
        <ele>40.225362</ele>
        <time>2019-07-31T01:51:22.602Z</time>
      </trkpt>
      <trkpt lat="48.906836" lon="2.239614">
        <ele>40.236252</ele>
        <time>2019-07-31T01:51:22.915Z</time>
      </trkpt>
      <trkpt lat="48.906959" lon="2.239987">
        <ele>40.496722</ele>
        <time>2019-07-31T01:51:27.800Z</time>
      </trkpt>
      <trkpt lat="48.907001" lon="2.240117">
        <ele>40.587136</ele>
        <time>2019-07-31T01:51:29.655Z</time>
      </trkpt>
      <trkpt lat="48.907014" lon="2.240163">
        <ele>40.618389</ele>
        <time>2019-07-31T01:51:30.457Z</time>
      </trkpt>
      <trkpt lat="48.907054" lon="2.240302">
        <ele>40.713098</ele>
        <time>2019-07-31T01:51:32.540Z</time>
      </trkpt>
      <trkpt lat="48.907049" lon="2.240332">
        <ele>40.732416</ele>
        <time>2019-07-31T01:51:33.005Z</time>
      </trkpt>
      <trkpt lat="48.907049" lon="2.240363">
        <ele>40.751765</ele>
        <time>2019-07-31T01:51:33.294Z</time>
      </trkpt>
      <trkpt lat="48.907055" lon="2.240393">
        <ele>40.771338</ele>
        <time>2019-07-31T01:51:33.614Z</time>
      </trkpt>
      <trkpt lat="48.907068" lon="2.240423">
        <ele>40.793766</ele>
        <time>2019-07-31T01:51:34.012Z</time>
      </trkpt>
      <trkpt lat="48.907109" lon="2.240459">
        <ele>40.838718</ele>
        <time>2019-07-31T01:51:34.661Z</time>
      </trkpt>
      <trkpt lat="48.907133" lon="2.240461">
        <ele>40.861543</ele>
        <time>2019-07-31T01:51:35.085Z</time>
      </trkpt>
      <trkpt lat="48.907156" lon="2.240452">
        <ele>40.884095</ele>
        <time>2019-07-31T01:51:35.466Z</time>
      </trkpt>
      <trkpt lat="48.907183" lon="2.240561">
        <ele>40.956800</ele>
        <time>2019-07-31T01:51:37.299Z</time>
      </trkpt>
      <trkpt lat="48.907301" lon="2.241118">
        <ele>41.322069</ele>
        <time>2019-07-31T01:51:44.566Z</time>
      </trkpt>
      <trkpt lat="48.907289" lon="2.241261">
        <ele>41.412048</ele>
        <time>2019-07-31T01:51:46.669Z</time>
      </trkpt>
      <trkpt lat="48.907191" lon="2.242024">
        <ele>41.897290</ele>
        <time>2019-07-31T01:51:56.109Z</time>
      </trkpt>
      <trkpt lat="48.907028" lon="2.243333">
        <ele>42.434710</ele>
        <time>2019-07-31T01:52:10.989Z</time>
      </trkpt>
      <trkpt lat="48.907013" lon="2.243460">
        <ele>42.485220</ele>
        <time>2019-07-31T01:52:12.506Z</time>
      </trkpt>
      <trkpt lat="48.906982" lon="2.243671">
        <ele>42.569851</ele>
        <time>2019-07-31T01:52:14.433Z</time>
      </trkpt>
      <trkpt lat="48.906907" lon="2.244288">
        <ele>42.815465</ele>
        <time>2019-07-31T01:52:21.036Z</time>
      </trkpt>
      <trkpt lat="48.906871" lon="2.244568">
        <ele>42.927146</ele>
        <time>2019-07-31T01:52:24.660Z</time>
      </trkpt>
      <trkpt lat="48.906845" lon="2.244765">
        <ele>43.005799</ele>
        <time>2019-07-31T01:52:27.331Z</time>
      </trkpt>
      <trkpt lat="48.906820" lon="2.244957">
        <ele>43.089629</ele>
        <time>2019-07-31T01:52:29.698Z</time>
      </trkpt>
      <trkpt lat="48.906818" lon="2.244969">
        <ele>43.094965</ele>
        <time>2019-07-31T01:52:29.948Z</time>
      </trkpt>
      <trkpt lat="48.906695" lon="2.245942">
        <ele>43.522061</ele>
        <time>2019-07-31T01:52:41.902Z</time>
      </trkpt>
      <trkpt lat="48.906577" lon="2.246864">
        <ele>43.926952</ele>
        <time>2019-07-31T01:52:52.088Z</time>
      </trkpt>
      <trkpt lat="48.906541" lon="2.247140">
        <ele>44.048242</ele>
        <time>2019-07-31T01:52:55.371Z</time>
      </trkpt>
      <trkpt lat="48.906508" lon="2.247389">
        <ele>44.157733</ele>
        <time>2019-07-31T01:52:58.144Z</time>
      </trkpt>
      <trkpt lat="48.906452" lon="2.247815">
        <ele>44.266670</ele>
        <time>2019-07-31T01:53:03.233Z</time>
      </trkpt>
      <trkpt lat="48.906441" lon="2.247902">
        <ele>44.285475</ele>
        <time>2019-07-31T01:53:04.096Z</time>
      </trkpt>
      <trkpt lat="48.906367" lon="2.247894">
        <ele>44.309432</ele>
        <time>2019-07-31T01:53:05.292Z</time>
      </trkpt>
      <trkpt lat="48.906344" lon="2.247899">
        <ele>44.316935</ele>
        <time>2019-07-31T01:53:05.731Z</time>
      </trkpt>
      <trkpt lat="48.906297" lon="2.247917">
        <ele>44.332586</ele>
        <time>2019-07-31T01:53:06.550Z</time>
      </trkpt>
      <trkpt lat="48.906237" lon="2.247962">
        <ele>44.354188</ele>
        <time>2019-07-31T01:53:07.851Z</time>
      </trkpt>
      <trkpt lat="48.906186" lon="2.248029">
        <ele>44.375947</ele>
        <time>2019-07-31T01:53:09.011Z</time>
      </trkpt>
      <trkpt lat="48.906145" lon="2.248119">
        <ele>44.399190</ele>
        <time>2019-07-31T01:53:10.132Z</time>
      </trkpt>
      <trkpt lat="48.906117" lon="2.248333">
        <ele>44.445504</ele>
        <time>2019-07-31T01:53:12.480Z</time>
      </trkpt>
      <trkpt lat="48.906132" lon="2.248440">
        <ele>44.468727</ele>
        <time>2019-07-31T01:53:13.752Z</time>
      </trkpt>
      <trkpt lat="48.906132" lon="2.248440">
        <ele>44.468727</ele>
        <time>2019-07-31T01:53:13.753Z</time>
      </trkpt>
      <trkpt lat="48.906164" lon="2.248537">
        <ele>44.491763</ele>
        <time>2019-07-31T01:53:14.888Z</time>
      </trkpt>
      <trkpt lat="48.906262" lon="2.248671">
        <ele>44.534313</ele>
        <time>2019-07-31T01:53:16.749Z</time>
      </trkpt>
      <trkpt lat="48.906341" lon="2.248708">
        <ele>44.561006</ele>
        <time>2019-07-31T01:53:18.045Z</time>
      </trkpt>
      <trkpt lat="48.906326" lon="2.248826">
        <ele>44.586516</ele>
        <time>2019-07-31T01:53:19.324Z</time>
      </trkpt>
      <trkpt lat="48.906116" lon="2.250463">
        <ele>44.987842</ele>
        <time>2019-07-31T01:53:36.116Z</time>
      </trkpt>
      <trkpt lat="48.906077" lon="2.250764">
        <ele>45.071187</ele>
        <time>2019-07-31T01:53:39.602Z</time>
      </trkpt>
      <trkpt lat="48.905910" lon="2.252065">
        <ele>45.431298</ele>
        <time>2019-07-31T01:53:54.288Z</time>
      </trkpt>
      <trkpt lat="48.905830" lon="2.252661">
        <ele>45.581283</ele>
        <time>2019-07-31T01:54:01.250Z</time>
      </trkpt>
      <trkpt lat="48.905808" lon="2.252822">
        <ele>45.617602</ele>
        <time>2019-07-31T01:54:03.215Z</time>
      </trkpt>
      <trkpt lat="48.905795" lon="2.252917">
        <ele>45.639034</ele>
        <time>2019-07-31T01:54:04.355Z</time>
      </trkpt>
      <trkpt lat="48.905770" lon="2.253105">
        <ele>45.681397</ele>
        <time>2019-07-31T01:54:06.510Z</time>
      </trkpt>
      <trkpt lat="48.905752" lon="2.253248">
        <ele>45.713554</ele>
        <time>2019-07-31T01:54:08.067Z</time>
      </trkpt>
      <trkpt lat="48.905735" lon="2.253379">
        <ele>45.743045</ele>
        <time>2019-07-31T01:54:09.553Z</time>
      </trkpt>
      <trkpt lat="48.905715" lon="2.253542">
        <ele>45.779668</ele>
        <time>2019-07-31T01:54:11.333Z</time>
      </trkpt>
      <trkpt lat="48.905702" lon="2.253645">
        <ele>45.802832</ele>
        <time>2019-07-31T01:54:12.340Z</time>
      </trkpt>
      <trkpt lat="48.905541" lon="2.255013">
        <ele>46.109777</ele>
        <time>2019-07-31T01:54:26.989Z</time>
      </trkpt>
      <trkpt lat="48.905505" lon="2.255141">
        <ele>46.092320</ele>
        <time>2019-07-31T01:54:28.399Z</time>
      </trkpt>
      <trkpt lat="48.905413" lon="2.255464">
        <ele>45.993739</ele>
        <time>2019-07-31T01:54:31.817Z</time>
      </trkpt>
      <trkpt lat="48.905402" lon="2.255501">
        <ele>45.982367</ele>
        <time>2019-07-31T01:54:32.192Z</time>
      </trkpt>
      <trkpt lat="48.905374" lon="2.255594">
        <ele>45.953722</ele>
        <time>2019-07-31T01:54:33.104Z</time>
      </trkpt>
      <trkpt lat="48.905349" lon="2.255677">
        <ele>45.928154</ele>
        <time>2019-07-31T01:54:34.047Z</time>
      </trkpt>
      <trkpt lat="48.905314" lon="2.255698">
        <ele>45.912125</ele>
        <time>2019-07-31T01:54:34.684Z</time>
      </trkpt>
      <trkpt lat="48.905282" lon="2.255730">
        <ele>45.895810</ele>
        <time>2019-07-31T01:54:35.268Z</time>
      </trkpt>
      <trkpt lat="48.905255" lon="2.255771">
        <ele>45.879557</ele>
        <time>2019-07-31T01:54:35.836Z</time>
      </trkpt>
      <trkpt lat="48.905233" lon="2.255821">
        <ele>45.862707</ele>
        <time>2019-07-31T01:54:36.356Z</time>
      </trkpt>
      <trkpt lat="48.905219" lon="2.255876">
        <ele>45.846191</ele>
        <time>2019-07-31T01:54:36.951Z</time>
      </trkpt>
      <trkpt lat="48.905213" lon="2.255934">
        <ele>45.829748</ele>
        <time>2019-07-31T01:54:37.481Z</time>
      </trkpt>
      <trkpt lat="48.905215" lon="2.256002">
        <ele>45.810686</ele>
        <time>2019-07-31T01:54:38.008Z</time>
      </trkpt>
      <trkpt lat="48.905110" lon="2.256093">
        <ele>45.759202</ele>
        <time>2019-07-31T01:54:39.787Z</time>
      </trkpt>
      <trkpt lat="48.904826" lon="2.256369">
        <ele>45.615626</ele>
        <time>2019-07-31T01:54:44.152Z</time>
      </trkpt>
      <trkpt lat="48.904631" lon="2.256557">
        <ele>45.517270</ele>
        <time>2019-07-31T01:54:47.145Z</time>
      </trkpt>
      <trkpt lat="48.904278" lon="2.256895">
        <ele>45.320766</ele>
        <time>2019-07-31T01:54:52.162Z</time>
      </trkpt>
      <trkpt lat="48.903709" lon="2.257472">
        <ele>44.620690</ele>
        <time>2019-07-31T01:55:00.755Z</time>
      </trkpt>
      <trkpt lat="48.903684" lon="2.257497">
        <ele>44.590062</ele>
        <time>2019-07-31T01:55:01.113Z</time>
      </trkpt>
      <trkpt lat="48.903626" lon="2.257596">
        <ele>44.500818</ele>
        <time>2019-07-31T01:55:02.105Z</time>
      </trkpt>
      <trkpt lat="48.903560" lon="2.257667">
        <ele>44.418063</ele>
        <time>2019-07-31T01:55:03.108Z</time>
      </trkpt>
      <trkpt lat="48.903300" lon="2.257923">
        <ele>44.100996</ele>
        <time>2019-07-31T01:55:06.774Z</time>
      </trkpt>
      <trkpt lat="48.903030" lon="2.258187">
        <ele>43.772407</ele>
        <time>2019-07-31T01:55:10.496Z</time>
      </trkpt>
      <trkpt lat="48.902691" lon="2.258530">
        <ele>43.528587</ele>
        <time>2019-07-31T01:55:15.467Z</time>
      </trkpt>
      <trkpt lat="48.902501" lon="2.258709">
        <ele>43.553548</ele>
        <time>2019-07-31T01:55:18.455Z</time>
      </trkpt>
      <trkpt lat="48.902267" lon="2.258928">
        <ele>43.584233</ele>
        <time>2019-07-31T01:55:22.233Z</time>
      </trkpt>
      <trkpt lat="48.902081" lon="2.259119">
        <ele>43.609297</ele>
        <time>2019-07-31T01:55:25.649Z</time>
      </trkpt>
      <trkpt lat="48.902018" lon="2.259184">
        <ele>43.617800</ele>
        <time>2019-07-31T01:55:26.917Z</time>
      </trkpt>
      <trkpt lat="48.901864" lon="2.259341">
        <ele>43.638505</ele>
        <time>2019-07-31T01:55:29.920Z</time>
      </trkpt>
      <trkpt lat="48.901430" lon="2.259788">
        <ele>43.697044</ele>
        <time>2019-07-31T01:55:39.208Z</time>
      </trkpt>
      <trkpt lat="48.901283" lon="2.259925">
        <ele>43.746006</ele>
        <time>2019-07-31T01:55:42.588Z</time>
      </trkpt>
      <trkpt lat="48.900721" lon="2.260450">
        <ele>44.390028</ele>
        <time>2019-07-31T01:55:55.042Z</time>
      </trkpt>
      <trkpt lat="48.900509" lon="2.260649">
        <ele>44.633291</ele>
        <time>2019-07-31T01:55:59.697Z</time>
      </trkpt>
      <trkpt lat="48.900406" lon="2.260746">
        <ele>44.751587</ele>
        <time>2019-07-31T01:56:02.572Z</time>
      </trkpt>
      <trkpt lat="48.900287" lon="2.260870">
        <ele>44.892442</ele>
        <time>2019-07-31T01:56:05.314Z</time>
      </trkpt>
      <trkpt lat="48.900268" lon="2.260890">
        <ele>44.915005</ele>
        <time>2019-07-31T01:56:05.758Z</time>
      </trkpt>
      <trkpt lat="48.900180" lon="2.260981">
        <ele>45.018914</ele>
        <time>2019-07-31T01:56:07.836Z</time>
      </trkpt>
      <trkpt lat="48.899818" lon="2.261358">
        <ele>45.447321</ele>
        <time>2019-07-31T01:56:16.384Z</time>
      </trkpt>
      <trkpt lat="48.899574" lon="2.261609">
        <ele>45.092636</ele>
        <time>2019-07-31T01:56:21.049Z</time>
      </trkpt>
      <trkpt lat="48.899556" lon="2.261627">
        <ele>45.062892</ele>
        <time>2019-07-31T01:56:21.460Z</time>
      </trkpt>
      <trkpt lat="48.899495" lon="2.261689">
        <ele>44.961593</ele>
        <time>2019-07-31T01:56:22.795Z</time>
      </trkpt>
      <trkpt lat="48.899448" lon="2.261737">
        <ele>44.883426</ele>
        <time>2019-07-31T01:56:23.664Z</time>
      </trkpt>
      <trkpt lat="48.899428" lon="2.261757">
        <ele>44.850378</ele>
        <time>2019-07-31T01:56:23.996Z</time>
      </trkpt>
      <trkpt lat="48.898762" lon="2.262405">
        <ele>43.758748</ele>
        <time>2019-07-31T01:56:33.726Z</time>
      </trkpt>
      <trkpt lat="48.898678" lon="2.262487">
        <ele>43.620932</ele>
        <time>2019-07-31T01:56:34.708Z</time>
      </trkpt>
      <trkpt lat="48.898004" lon="2.263143">
        <ele>41.838491</ele>
        <time>2019-07-31T01:56:42.706Z</time>
      </trkpt>
      <trkpt lat="48.897922" lon="2.263222">
        <ele>41.510938</ele>
        <time>2019-07-31T01:56:43.679Z</time>
      </trkpt>
      <trkpt lat="48.897834" lon="2.263309">
        <ele>41.156758</ele>
        <time>2019-07-31T01:56:44.687Z</time>
      </trkpt>
      <trkpt lat="48.897740" lon="2.263415">
        <ele>40.761881</ele>
        <time>2019-07-31T01:56:45.800Z</time>
      </trkpt>
      <trkpt lat="48.897582" lon="2.263594">
        <ele>40.097052</ele>
        <time>2019-07-31T01:56:47.788Z</time>
      </trkpt>
      <trkpt lat="48.897545" lon="2.263637">
        <ele>39.939919</ele>
        <time>2019-07-31T01:56:48.225Z</time>
      </trkpt>
      <trkpt lat="48.897348" lon="2.263779">
        <ele>39.204248</ele>
        <time>2019-07-31T01:56:50.352Z</time>
      </trkpt>
      <trkpt lat="48.897246" lon="2.263875">
        <ele>38.799472</ele>
        <time>2019-07-31T01:56:51.576Z</time>
      </trkpt>
      <trkpt lat="48.896948" lon="2.264138">
        <ele>37.636816</ele>
        <time>2019-07-31T01:56:55.062Z</time>
      </trkpt>
      <trkpt lat="48.896761" lon="2.264306">
        <ele>36.911031</ele>
        <time>2019-07-31T01:56:57.278Z</time>
      </trkpt>
      <trkpt lat="48.896693" lon="2.264370">
        <ele>36.806541</ele>
        <time>2019-07-31T01:56:58.172Z</time>
      </trkpt>
      <trkpt lat="48.896650" lon="2.264407">
        <ele>36.741986</ele>
        <time>2019-07-31T01:56:58.719Z</time>
      </trkpt>
      <trkpt lat="48.896510" lon="2.264527">
        <ele>36.532002</ele>
        <time>2019-07-31T01:57:00.375Z</time>
      </trkpt>
      <trkpt lat="48.895745" lon="2.265311">
        <ele>35.326655</ele>
        <time>2019-07-31T01:57:11.157Z</time>
      </trkpt>
      <trkpt lat="48.895318" lon="2.265740">
        <ele>34.657967</ele>
        <time>2019-07-31T01:57:18.005Z</time>
      </trkpt>
      <trkpt lat="48.895260" lon="2.265798">
        <ele>34.567267</ele>
        <time>2019-07-31T01:57:19.264Z</time>
      </trkpt>
      <trkpt lat="48.895204" lon="2.265859">
        <ele>34.542720</ele>
        <time>2019-07-31T01:57:20.535Z</time>
      </trkpt>
      <trkpt lat="48.895136" lon="2.265935">
        <ele>34.514495</ele>
        <time>2019-07-31T01:57:21.592Z</time>
      </trkpt>
      <trkpt lat="48.894864" lon="2.266218">
        <ele>34.404266</ele>
        <time>2019-07-31T01:57:26.997Z</time>
      </trkpt>
      <trkpt lat="48.894830" lon="2.266252">
        <ele>34.390655</ele>
        <time>2019-07-31T01:57:27.437Z</time>
      </trkpt>
      <trkpt lat="48.894476" lon="2.266604">
        <ele>34.249190</ele>
        <time>2019-07-31T01:57:33.717Z</time>
      </trkpt>
      <trkpt lat="48.894232" lon="2.266811">
        <ele>34.155738</ele>
        <time>2019-07-31T01:57:38.190Z</time>
      </trkpt>
      <trkpt lat="48.894167" lon="2.266872">
        <ele>34.130191</ele>
        <time>2019-07-31T01:57:38.980Z</time>
      </trkpt>
      <trkpt lat="48.894080" lon="2.266960">
        <ele>34.095244</ele>
        <time>2019-07-31T01:57:40.568Z</time>
      </trkpt>
      <trkpt lat="48.893818" lon="2.267227">
        <ele>33.989756</ele>
        <time>2019-07-31T01:57:44.289Z</time>
      </trkpt>
      <trkpt lat="48.893728" lon="2.267315">
        <ele>33.953037</ele>
        <time>2019-07-31T01:57:45.779Z</time>
      </trkpt>
      <trkpt lat="48.893617" lon="2.267425">
        <ele>33.904443</ele>
        <time>2019-07-31T01:57:47.371Z</time>
      </trkpt>
      <trkpt lat="48.893563" lon="2.267478">
        <ele>33.880871</ele>
        <time>2019-07-31T01:57:48.021Z</time>
      </trkpt>
      <trkpt lat="48.893500" lon="2.267547">
        <ele>33.852395</ele>
        <time>2019-07-31T01:57:49.037Z</time>
      </trkpt>
      <trkpt lat="48.893481" lon="2.267567">
        <ele>33.843920</ele>
        <time>2019-07-31T01:57:49.348Z</time>
      </trkpt>
      <trkpt lat="48.893335" lon="2.267716">
        <ele>33.779430</ele>
        <time>2019-07-31T01:57:51.885Z</time>
      </trkpt>
      <trkpt lat="48.892290" lon="2.268795">
        <ele>33.316151</ele>
        <time>2019-07-31T01:58:09.866Z</time>
      </trkpt>
      <trkpt lat="48.892022" lon="2.269068">
        <ele>33.352401</ele>
        <time>2019-07-31T01:58:14.131Z</time>
      </trkpt>
      <trkpt lat="48.890774" lon="2.270342">
        <ele>33.604640</ele>
        <time>2019-07-31T01:58:37.434Z</time>
      </trkpt>
      <trkpt lat="48.890694" lon="2.270425">
        <ele>33.687198</ele>
        <time>2019-07-31T01:58:38.897Z</time>
      </trkpt>
      <trkpt lat="48.890669" lon="2.270365">
        <ele>33.729310</ele>
        <time>2019-07-31T01:58:39.998Z</time>
      </trkpt>
      <trkpt lat="48.890653" lon="2.270330">
        <ele>33.754582</ele>
        <time>2019-07-31T01:58:40.765Z</time>
      </trkpt>
      <trkpt lat="48.889892" lon="2.268544">
        <ele>35.016320</ele>
        <time>2019-07-31T01:59:07.234Z</time>
      </trkpt>
      <trkpt lat="48.889855" lon="2.268456">
        <ele>35.078247</ele>
        <time>2019-07-31T01:59:08.909Z</time>
      </trkpt>
      <trkpt lat="48.889803" lon="2.268555">
        <ele>35.153369</ele>
        <time>2019-07-31T01:59:10.499Z</time>
      </trkpt>
      <trkpt lat="48.889120" lon="2.269854">
        <ele>35.931724</ele>
        <time>2019-07-31T01:59:29.463Z</time>
      </trkpt>
      <trkpt lat="48.888270" lon="2.271470">
        <ele>36.901538</ele>
        <time>2019-07-31T01:59:53.234Z</time>
      </trkpt>
      <trkpt lat="48.888256" lon="2.271497">
        <ele>36.918163</ele>
        <time>2019-07-31T01:59:53.617Z</time>
      </trkpt>
      <trkpt lat="48.888217" lon="2.271571">
        <ele>36.964015</ele>
        <time>2019-07-31T01:59:54.861Z</time>
      </trkpt>
      <trkpt lat="48.888164" lon="2.271502">
        <ele>37.015315</ele>
        <time>2019-07-31T01:59:56.333Z</time>
      </trkpt>
      <trkpt lat="48.887149" lon="2.270257">
        <ele>37.972588</ele>
        <time>2019-07-31T02:00:19.157Z</time>
      </trkpt>
      <trkpt lat="48.887113" lon="2.270210">
        <ele>38.007158</ele>
        <time>2019-07-31T02:00:20.307Z</time>
      </trkpt>
      <trkpt lat="48.887069" lon="2.270155">
        <ele>38.048657</ele>
        <time>2019-07-31T02:00:21.494Z</time>
      </trkpt>
      <trkpt lat="48.887049" lon="2.270129">
        <ele>38.067828</ele>
        <time>2019-07-31T02:00:22.071Z</time>
      </trkpt>
      <trkpt lat="48.886046" lon="2.268916">
        <ele>39.001551</ele>
        <time>2019-07-31T02:00:44.650Z</time>
      </trkpt>
      <trkpt lat="48.885981" lon="2.268837">
        <ele>39.062179</ele>
        <time>2019-07-31T02:00:46.482Z</time>
      </trkpt>
      <trkpt lat="48.885949" lon="2.268894">
        <ele>39.098088</ele>
        <time>2019-07-31T02:00:47.279Z</time>
      </trkpt>
      <trkpt lat="48.885687" lon="2.269388">
        <ele>39.112983</ele>
        <time>2019-07-31T02:00:54.057Z</time>
      </trkpt>
      <trkpt lat="48.885457" lon="2.269824">
        <ele>39.112983</ele>
        <time>2019-07-31T02:01:00.063Z</time>
      </trkpt>
      <trkpt lat="48.885395" lon="2.269772">
        <ele>39.112983</ele>
        <time>2019-07-31T02:01:01.221Z</time>
      </trkpt>
      <trkpt lat="48.884780" lon="2.269292">
        <ele>39.112983</ele>
        <time>2019-07-31T02:01:12.505Z</time>
      </trkpt>
    </trkseg>
  </trk>
</gpx>